<?xml version="1.0" encoding="UTF-8" standalone="no" ?>
<gpx xmlns="http://www.topografix.com/GPX/1/1" xmlns:xsi="http://www.w3.org/2001/XMLSchema-instance" xsi:schemaLocation="http://www.topografix.com/GPX/1/1 http://www.topografix.com/GPX/1/1/gpx.xsd" version="1.1" creator="VisuGPX - https://www.visugpx.com">
  <metadata>
    <name>12 sept. 2021</name>
    <desc><![CDATA[grp_trc:]]></desc>
  </metadata>
  <trk>
    <name><![CDATA[12 sept. 2021]]></name>
    <cmt><![CDATA[08:41:46]]></cmt>
    <desc><![CDATA[comment ...]]></desc>
    <trkseg>
      <trkpt lat="46.06215" lon="6.35881">
        <ele>458</ele>
        <time>2021-09-12T06:41:46Z</time>
      </trkpt>
      <trkpt lat="46.06216" lon="6.35881">
        <ele>458</ele>
        <time>2021-09-12T06:41:47Z</time>
      </trkpt>
      <trkpt lat="46.06214" lon="6.35876">
        <ele>458</ele>
        <time>2021-09-12T06:42:43Z</time>
      </trkpt>
      <trkpt lat="46.06216" lon="6.35871">
        <ele>458</ele>
        <time>2021-09-12T06:42:47Z</time>
      </trkpt>
      <trkpt lat="46.06219" lon="6.35868">
        <ele>462</ele>
        <time>2021-09-12T06:43:30Z</time>
      </trkpt>
      <trkpt lat="46.06223" lon="6.3587">
        <ele>463</ele>
        <time>2021-09-12T06:43:32Z</time>
      </trkpt>
      <trkpt lat="46.06224" lon="6.35877">
        <ele>468</ele>
        <time>2021-09-12T06:43:54Z</time>
      </trkpt>
      <trkpt lat="46.06218" lon="6.35902">
        <ele>468</ele>
        <time>2021-09-12T06:43:58Z</time>
      </trkpt>
      <trkpt lat="46.0621" lon="6.35971">
        <ele>472</ele>
        <time>2021-09-12T06:44:03Z</time>
      </trkpt>
      <trkpt lat="46.06205" lon="6.36326">
        <ele>473</ele>
        <time>2021-09-12T06:44:26Z</time>
      </trkpt>
      <trkpt lat="46.06198" lon="6.36371">
        <ele>473</ele>
        <time>2021-09-12T06:44:32Z</time>
      </trkpt>
      <trkpt lat="46.06203" lon="6.36377">
        <ele>472</ele>
        <time>2021-09-12T06:44:34Z</time>
      </trkpt>
      <trkpt lat="46.06385" lon="6.3641">
        <ele>470</ele>
        <time>2021-09-12T06:44:52Z</time>
      </trkpt>
      <trkpt lat="46.06529" lon="6.36414">
        <ele>471</ele>
        <time>2021-09-12T06:45:04Z</time>
      </trkpt>
      <trkpt lat="46.06554" lon="6.36423">
        <ele>471</ele>
        <time>2021-09-12T06:45:07Z</time>
      </trkpt>
      <trkpt lat="46.06701" lon="6.36444">
        <ele>472</ele>
        <time>2021-09-12T06:45:21Z</time>
      </trkpt>
      <trkpt lat="46.06708" lon="6.36448">
        <ele>472</ele>
        <time>2021-09-12T06:45:22Z</time>
      </trkpt>
      <trkpt lat="46.06711" lon="6.36454">
        <ele>472</ele>
        <time>2021-09-12T06:45:23Z</time>
      </trkpt>
      <trkpt lat="46.06713" lon="6.36461">
        <ele>472</ele>
        <time>2021-09-12T06:45:24Z</time>
      </trkpt>
      <trkpt lat="46.06707" lon="6.36519">
        <ele>468</ele>
        <time>2021-09-12T06:45:29Z</time>
      </trkpt>
      <trkpt lat="46.06653" lon="6.37038">
        <ele>471</ele>
        <time>2021-09-12T06:45:59Z</time>
      </trkpt>
      <trkpt lat="46.06652" lon="6.37074">
        <ele>471</ele>
        <time>2021-09-12T06:46:02Z</time>
      </trkpt>
      <trkpt lat="46.06649" lon="6.37082">
        <ele>471</ele>
        <time>2021-09-12T06:46:03Z</time>
      </trkpt>
      <trkpt lat="46.06644" lon="6.37088">
        <ele>472</ele>
        <time>2021-09-12T06:46:04Z</time>
      </trkpt>
      <trkpt lat="46.06637" lon="6.3709">
        <ele>473</ele>
        <time>2021-09-12T06:46:05Z</time>
      </trkpt>
      <trkpt lat="46.06422" lon="6.37076">
        <ele>476</ele>
        <time>2021-09-12T06:46:27Z</time>
      </trkpt>
      <trkpt lat="46.06418" lon="6.3708">
        <ele>475</ele>
        <time>2021-09-12T06:46:28Z</time>
      </trkpt>
      <trkpt lat="46.06415" lon="6.37087">
        <ele>474</ele>
        <time>2021-09-12T06:46:29Z</time>
      </trkpt>
      <trkpt lat="46.06401" lon="6.37339">
        <ele>474</ele>
        <time>2021-09-12T06:46:49Z</time>
      </trkpt>
      <trkpt lat="46.06397" lon="6.37344">
        <ele>473</ele>
        <time>2021-09-12T06:46:52Z</time>
      </trkpt>
      <trkpt lat="46.06381" lon="6.37344">
        <ele>474</ele>
        <time>2021-09-12T06:46:56Z</time>
      </trkpt>
      <trkpt lat="46.06377" lon="6.37346">
        <ele>474</ele>
        <time>2021-09-12T06:46:57Z</time>
      </trkpt>
      <trkpt lat="46.06373" lon="6.3735">
        <ele>474</ele>
        <time>2021-09-12T06:46:58Z</time>
      </trkpt>
      <trkpt lat="46.06375" lon="6.37359">
        <ele>475</ele>
        <time>2021-09-12T06:46:59Z</time>
      </trkpt>
      <trkpt lat="46.06377" lon="6.37379">
        <ele>474</ele>
        <time>2021-09-12T06:47:03Z</time>
      </trkpt>
      <trkpt lat="46.06452" lon="6.37592">
        <ele>474</ele>
        <time>2021-09-12T06:47:25Z</time>
      </trkpt>
      <trkpt lat="46.06484" lon="6.37631">
        <ele>474</ele>
        <time>2021-09-12T06:47:29Z</time>
      </trkpt>
      <trkpt lat="46.06527" lon="6.37679">
        <ele>473</ele>
        <time>2021-09-12T06:47:34Z</time>
      </trkpt>
      <trkpt lat="46.06538" lon="6.37701">
        <ele>473</ele>
        <time>2021-09-12T06:47:36Z</time>
      </trkpt>
      <trkpt lat="46.06557" lon="6.37774">
        <ele>473</ele>
        <time>2021-09-12T06:47:43Z</time>
      </trkpt>
      <trkpt lat="46.0656" lon="6.37798">
        <ele>472</ele>
        <time>2021-09-12T06:47:45Z</time>
      </trkpt>
      <trkpt lat="46.06552" lon="6.37892">
        <ele>472</ele>
        <time>2021-09-12T06:47:51Z</time>
      </trkpt>
      <trkpt lat="46.06544" lon="6.37954">
        <ele>471</ele>
        <time>2021-09-12T06:47:55Z</time>
      </trkpt>
      <trkpt lat="46.06544" lon="6.37969">
        <ele>471</ele>
        <time>2021-09-12T06:47:56Z</time>
      </trkpt>
      <trkpt lat="46.06547" lon="6.37982">
        <ele>471</ele>
        <time>2021-09-12T06:47:57Z</time>
      </trkpt>
      <trkpt lat="46.06554" lon="6.37993">
        <ele>471</ele>
        <time>2021-09-12T06:47:58Z</time>
      </trkpt>
      <trkpt lat="46.0664" lon="6.38062">
        <ele>470</ele>
        <time>2021-09-12T06:48:06Z</time>
      </trkpt>
      <trkpt lat="46.06653" lon="6.38089">
        <ele>470</ele>
        <time>2021-09-12T06:48:08Z</time>
      </trkpt>
      <trkpt lat="46.06678" lon="6.38147">
        <ele>469</ele>
        <time>2021-09-12T06:48:12Z</time>
      </trkpt>
      <trkpt lat="46.06697" lon="6.38167">
        <ele>468</ele>
        <time>2021-09-12T06:48:14Z</time>
      </trkpt>
      <trkpt lat="46.0682" lon="6.38222">
        <ele>468</ele>
        <time>2021-09-12T06:48:27Z</time>
      </trkpt>
      <trkpt lat="46.06823" lon="6.38227">
        <ele>467</ele>
        <time>2021-09-12T06:48:29Z</time>
      </trkpt>
      <trkpt lat="46.06828" lon="6.38251">
        <ele>467</ele>
        <time>2021-09-12T06:48:33Z</time>
      </trkpt>
      <trkpt lat="46.06825" lon="6.38347">
        <ele>465</ele>
        <time>2021-09-12T06:48:40Z</time>
      </trkpt>
      <trkpt lat="46.068" lon="6.38474">
        <ele>466</ele>
        <time>2021-09-12T06:48:49Z</time>
      </trkpt>
      <trkpt lat="46.06683" lon="6.38895">
        <ele>465</ele>
        <time>2021-09-12T06:49:17Z</time>
      </trkpt>
      <trkpt lat="46.06676" lon="6.38913">
        <ele>466</ele>
        <time>2021-09-12T06:49:20Z</time>
      </trkpt>
      <trkpt lat="46.06674" lon="6.38918">
        <ele>466</ele>
        <time>2021-09-12T06:50:02Z</time>
      </trkpt>
      <trkpt lat="46.06691" lon="6.3894">
        <ele>468</ele>
        <time>2021-09-12T06:50:06Z</time>
      </trkpt>
      <trkpt lat="46.07057" lon="6.39297">
        <ele>466</ele>
        <time>2021-09-12T06:50:36Z</time>
      </trkpt>
      <trkpt lat="46.07271" lon="6.39509">
        <ele>465</ele>
        <time>2021-09-12T06:50:57Z</time>
      </trkpt>
      <trkpt lat="46.07274" lon="6.39514">
        <ele>465</ele>
        <time>2021-09-12T06:50:58Z</time>
      </trkpt>
      <trkpt lat="46.07275" lon="6.39519">
        <ele>465</ele>
        <time>2021-09-12T06:50:59Z</time>
      </trkpt>
      <trkpt lat="46.07276" lon="6.39523">
        <ele>465</ele>
        <time>2021-09-12T06:51:00Z</time>
      </trkpt>
      <trkpt lat="46.07276" lon="6.3953">
        <ele>465</ele>
        <time>2021-09-12T06:51:01Z</time>
      </trkpt>
      <trkpt lat="46.07272" lon="6.39543">
        <ele>465</ele>
        <time>2021-09-12T06:51:03Z</time>
      </trkpt>
      <trkpt lat="46.07263" lon="6.39562">
        <ele>463</ele>
        <time>2021-09-12T06:51:06Z</time>
      </trkpt>
      <trkpt lat="46.07262" lon="6.39571">
        <ele>461</ele>
        <time>2021-09-12T06:51:07Z</time>
      </trkpt>
      <trkpt lat="46.07263" lon="6.3958">
        <ele>460</ele>
        <time>2021-09-12T06:51:08Z</time>
      </trkpt>
      <trkpt lat="46.07268" lon="6.39586">
        <ele>460</ele>
        <time>2021-09-12T06:51:09Z</time>
      </trkpt>
      <trkpt lat="46.07273" lon="6.39591">
        <ele>462</ele>
        <time>2021-09-12T06:51:10Z</time>
      </trkpt>
      <trkpt lat="46.0728" lon="6.39591">
        <ele>462</ele>
        <time>2021-09-12T06:51:11Z</time>
      </trkpt>
      <trkpt lat="46.07285" lon="6.39586">
        <ele>461</ele>
        <time>2021-09-12T06:51:12Z</time>
      </trkpt>
      <trkpt lat="46.07312" lon="6.39543">
        <ele>461</ele>
        <time>2021-09-12T06:51:18Z</time>
      </trkpt>
      <trkpt lat="46.07318" lon="6.39541">
        <ele>460</ele>
        <time>2021-09-12T06:51:20Z</time>
      </trkpt>
      <trkpt lat="46.07321" lon="6.39543">
        <ele>460</ele>
        <time>2021-09-12T06:51:21Z</time>
      </trkpt>
      <trkpt lat="46.07327" lon="6.39558">
        <ele>460</ele>
        <time>2021-09-12T06:51:24Z</time>
      </trkpt>
      <trkpt lat="46.07344" lon="6.39578">
        <ele>459</ele>
        <time>2021-09-12T06:51:27Z</time>
      </trkpt>
      <trkpt lat="46.07515" lon="6.39723">
        <ele>458</ele>
        <time>2021-09-12T06:51:53Z</time>
      </trkpt>
      <trkpt lat="46.07519" lon="6.39729">
        <ele>458</ele>
        <time>2021-09-12T06:51:54Z</time>
      </trkpt>
      <trkpt lat="46.07521" lon="6.39735">
        <ele>458</ele>
        <time>2021-09-12T06:51:55Z</time>
      </trkpt>
      <trkpt lat="46.07523" lon="6.39741">
        <ele>458</ele>
        <time>2021-09-12T06:51:56Z</time>
      </trkpt>
      <trkpt lat="46.07523" lon="6.39751">
        <ele>459</ele>
        <time>2021-09-12T06:51:58Z</time>
      </trkpt>
      <trkpt lat="46.07676" lon="6.39896">
        <ele>458</ele>
        <time>2021-09-12T06:52:28Z</time>
      </trkpt>
      <trkpt lat="46.07809" lon="6.39964">
        <ele>456</ele>
        <time>2021-09-12T06:52:47Z</time>
      </trkpt>
      <trkpt lat="46.07904" lon="6.39984">
        <ele>457</ele>
        <time>2021-09-12T06:53:01Z</time>
      </trkpt>
      <trkpt lat="46.07913" lon="6.39981">
        <ele>456</ele>
        <time>2021-09-12T06:53:03Z</time>
      </trkpt>
      <trkpt lat="46.0792" lon="6.39977">
        <ele>457</ele>
        <time>2021-09-12T06:53:05Z</time>
      </trkpt>
      <trkpt lat="46.07925" lon="6.39977">
        <ele>457</ele>
        <time>2021-09-12T06:53:07Z</time>
      </trkpt>
      <trkpt lat="46.07926" lon="6.39981">
        <ele>456</ele>
        <time>2021-09-12T06:53:08Z</time>
      </trkpt>
      <trkpt lat="46.07927" lon="6.39988">
        <ele>456</ele>
        <time>2021-09-12T06:53:09Z</time>
      </trkpt>
      <trkpt lat="46.07901" lon="6.40167">
        <ele>451</ele>
        <time>2021-09-12T06:53:39Z</time>
      </trkpt>
      <trkpt lat="46.07902" lon="6.40182">
        <ele>452</ele>
        <time>2021-09-12T06:53:42Z</time>
      </trkpt>
      <trkpt lat="46.07903" lon="6.40187">
        <ele>452</ele>
        <time>2021-09-12T06:53:43Z</time>
      </trkpt>
      <trkpt lat="46.07906" lon="6.4019">
        <ele>452</ele>
        <time>2021-09-12T06:53:44Z</time>
      </trkpt>
      <trkpt lat="46.07912" lon="6.40194">
        <ele>452</ele>
        <time>2021-09-12T06:53:46Z</time>
      </trkpt>
      <trkpt lat="46.07994" lon="6.40188">
        <ele>452</ele>
        <time>2021-09-12T06:53:56Z</time>
      </trkpt>
      <trkpt lat="46.08002" lon="6.40192">
        <ele>453</ele>
        <time>2021-09-12T06:53:57Z</time>
      </trkpt>
      <trkpt lat="46.08022" lon="6.40209">
        <ele>453</ele>
        <time>2021-09-12T06:54:00Z</time>
      </trkpt>
      <trkpt lat="46.08076" lon="6.40253">
        <ele>455</ele>
        <time>2021-09-12T06:54:06Z</time>
      </trkpt>
      <trkpt lat="46.08177" lon="6.40382">
        <ele>454</ele>
        <time>2021-09-12T06:54:20Z</time>
      </trkpt>
      <trkpt lat="46.08188" lon="6.40403">
        <ele>453</ele>
        <time>2021-09-12T06:54:23Z</time>
      </trkpt>
      <trkpt lat="46.08192" lon="6.40406">
        <ele>453</ele>
        <time>2021-09-12T06:54:24Z</time>
      </trkpt>
      <trkpt lat="46.08199" lon="6.40404">
        <ele>452</ele>
        <time>2021-09-12T06:54:25Z</time>
      </trkpt>
      <trkpt lat="46.08367" lon="6.40257">
        <ele>450</ele>
        <time>2021-09-12T06:54:49Z</time>
      </trkpt>
      <trkpt lat="46.0837" lon="6.40254">
        <ele>450</ele>
        <time>2021-09-12T06:54:52Z</time>
      </trkpt>
      <trkpt lat="46.08552" lon="6.40094">
        <ele>450</ele>
        <time>2021-09-12T06:55:22Z</time>
      </trkpt>
      <trkpt lat="46.08625" lon="6.40023">
        <ele>450</ele>
        <time>2021-09-12T06:55:30Z</time>
      </trkpt>
      <trkpt lat="46.08656" lon="6.3997">
        <ele>450</ele>
        <time>2021-09-12T06:55:34Z</time>
      </trkpt>
      <trkpt lat="46.08673" lon="6.39921">
        <ele>451</ele>
        <time>2021-09-12T06:55:37Z</time>
      </trkpt>
      <trkpt lat="46.08682" lon="6.39865">
        <ele>452</ele>
        <time>2021-09-12T06:55:40Z</time>
      </trkpt>
      <trkpt lat="46.08685" lon="6.39719">
        <ele>454</ele>
        <time>2021-09-12T06:55:46Z</time>
      </trkpt>
      <trkpt lat="46.08665" lon="6.39549">
        <ele>457</ele>
        <time>2021-09-12T06:55:55Z</time>
      </trkpt>
      <trkpt lat="46.08666" lon="6.39544">
        <ele>457</ele>
        <time>2021-09-12T06:55:56Z</time>
      </trkpt>
      <trkpt lat="46.0867" lon="6.39542">
        <ele>458</ele>
        <time>2021-09-12T06:55:58Z</time>
      </trkpt>
      <trkpt lat="46.08697" lon="6.39526">
        <ele>460</ele>
        <time>2021-09-12T06:56:09Z</time>
      </trkpt>
      <trkpt lat="46.08717" lon="6.39506">
        <ele>462</ele>
        <time>2021-09-12T06:56:12Z</time>
      </trkpt>
      <trkpt lat="46.08756" lon="6.39451">
        <ele>469</ele>
        <time>2021-09-12T06:56:20Z</time>
      </trkpt>
      <trkpt lat="46.08761" lon="6.39448">
        <ele>471</ele>
        <time>2021-09-12T06:56:21Z</time>
      </trkpt>
      <trkpt lat="46.08767" lon="6.39444">
        <ele>473</ele>
        <time>2021-09-12T06:56:22Z</time>
      </trkpt>
      <trkpt lat="46.0878" lon="6.39444">
        <ele>475</ele>
        <time>2021-09-12T06:56:24Z</time>
      </trkpt>
      <trkpt lat="46.08799" lon="6.39454">
        <ele>475</ele>
        <time>2021-09-12T06:56:27Z</time>
      </trkpt>
      <trkpt lat="46.08819" lon="6.39468">
        <ele>478</ele>
        <time>2021-09-12T06:56:31Z</time>
      </trkpt>
      <trkpt lat="46.08823" lon="6.3947">
        <ele>479</ele>
        <time>2021-09-12T06:56:32Z</time>
      </trkpt>
      <trkpt lat="46.08832" lon="6.39475">
        <ele>475</ele>
        <time>2021-09-12T06:56:34Z</time>
      </trkpt>
      <trkpt lat="46.08853" lon="6.39504">
        <ele>476</ele>
        <time>2021-09-12T06:56:39Z</time>
      </trkpt>
      <trkpt lat="46.08857" lon="6.39527">
        <ele>474</ele>
        <time>2021-09-12T06:56:42Z</time>
      </trkpt>
      <trkpt lat="46.08846" lon="6.39555">
        <ele>472</ele>
        <time>2021-09-12T06:56:46Z</time>
      </trkpt>
      <trkpt lat="46.08847" lon="6.39566">
        <ele>474</ele>
        <time>2021-09-12T06:56:48Z</time>
      </trkpt>
      <trkpt lat="46.08853" lon="6.39568">
        <ele>475</ele>
        <time>2021-09-12T06:56:49Z</time>
      </trkpt>
      <trkpt lat="46.08884" lon="6.39534">
        <ele>482</ele>
        <time>2021-09-12T06:56:57Z</time>
      </trkpt>
      <trkpt lat="46.08889" lon="6.39534">
        <ele>485</ele>
        <time>2021-09-12T06:56:59Z</time>
      </trkpt>
      <trkpt lat="46.08892" lon="6.39526">
        <ele>485</ele>
        <time>2021-09-12T06:57:01Z</time>
      </trkpt>
      <trkpt lat="46.08899" lon="6.39469">
        <ele>483</ele>
        <time>2021-09-12T06:57:06Z</time>
      </trkpt>
      <trkpt lat="46.08899" lon="6.3943">
        <ele>486</ele>
        <time>2021-09-12T06:57:09Z</time>
      </trkpt>
      <trkpt lat="46.08916" lon="6.39363">
        <ele>488</ele>
        <time>2021-09-12T06:57:16Z</time>
      </trkpt>
      <trkpt lat="46.08923" lon="6.39306">
        <ele>489</ele>
        <time>2021-09-12T06:57:21Z</time>
      </trkpt>
      <trkpt lat="46.08957" lon="6.39221">
        <ele>489</ele>
        <time>2021-09-12T06:57:29Z</time>
      </trkpt>
      <trkpt lat="46.08962" lon="6.39178">
        <ele>491</ele>
        <time>2021-09-12T06:57:33Z</time>
      </trkpt>
      <trkpt lat="46.08976" lon="6.39154">
        <ele>493</ele>
        <time>2021-09-12T06:57:36Z</time>
      </trkpt>
      <trkpt lat="46.08999" lon="6.39113">
        <ele>489</ele>
        <time>2021-09-12T06:57:40Z</time>
      </trkpt>
      <trkpt lat="46.09014" lon="6.39068">
        <ele>490</ele>
        <time>2021-09-12T06:57:44Z</time>
      </trkpt>
      <trkpt lat="46.09023" lon="6.38991">
        <ele>495</ele>
        <time>2021-09-12T06:57:49Z</time>
      </trkpt>
      <trkpt lat="46.09026" lon="6.38945">
        <ele>494</ele>
        <time>2021-09-12T06:57:53Z</time>
      </trkpt>
      <trkpt lat="46.09041" lon="6.38882">
        <ele>498</ele>
        <time>2021-09-12T06:57:58Z</time>
      </trkpt>
      <trkpt lat="46.09039" lon="6.38863">
        <ele>502</ele>
        <time>2021-09-12T06:57:59Z</time>
      </trkpt>
      <trkpt lat="46.09039" lon="6.38849">
        <ele>507</ele>
        <time>2021-09-12T06:58:00Z</time>
      </trkpt>
      <trkpt lat="46.09042" lon="6.38769">
        <ele>521</ele>
        <time>2021-09-12T06:58:08Z</time>
      </trkpt>
      <trkpt lat="46.09045" lon="6.38744">
        <ele>524</ele>
        <time>2021-09-12T06:58:10Z</time>
      </trkpt>
      <trkpt lat="46.09044" lon="6.38723">
        <ele>527</ele>
        <time>2021-09-12T06:58:12Z</time>
      </trkpt>
      <trkpt lat="46.09045" lon="6.38712">
        <ele>529</ele>
        <time>2021-09-12T06:58:13Z</time>
      </trkpt>
      <trkpt lat="46.09051" lon="6.38686">
        <ele>533</ele>
        <time>2021-09-12T06:58:16Z</time>
      </trkpt>
      <trkpt lat="46.09084" lon="6.38625">
        <ele>531</ele>
        <time>2021-09-12T06:58:24Z</time>
      </trkpt>
      <trkpt lat="46.09086" lon="6.38615">
        <ele>531</ele>
        <time>2021-09-12T06:58:25Z</time>
      </trkpt>
      <trkpt lat="46.09085" lon="6.38578">
        <ele>531</ele>
        <time>2021-09-12T06:58:29Z</time>
      </trkpt>
      <trkpt lat="46.0909" lon="6.38559">
        <ele>531</ele>
        <time>2021-09-12T06:58:32Z</time>
      </trkpt>
      <trkpt lat="46.09093" lon="6.38556">
        <ele>531</ele>
        <time>2021-09-12T06:58:33Z</time>
      </trkpt>
      <trkpt lat="46.09133" lon="6.38551">
        <ele>536</ele>
        <time>2021-09-12T06:58:39Z</time>
      </trkpt>
      <trkpt lat="46.09161" lon="6.38534">
        <ele>538</ele>
        <time>2021-09-12T06:58:43Z</time>
      </trkpt>
      <trkpt lat="46.09168" lon="6.38528">
        <ele>537</ele>
        <time>2021-09-12T06:58:44Z</time>
      </trkpt>
      <trkpt lat="46.09175" lon="6.38521">
        <ele>534</ele>
        <time>2021-09-12T06:58:45Z</time>
      </trkpt>
      <trkpt lat="46.09181" lon="6.38513">
        <ele>532</ele>
        <time>2021-09-12T06:58:46Z</time>
      </trkpt>
      <trkpt lat="46.09202" lon="6.38485">
        <ele>523</ele>
        <time>2021-09-12T06:58:50Z</time>
      </trkpt>
      <trkpt lat="46.09208" lon="6.38481">
        <ele>525</ele>
        <time>2021-09-12T06:58:51Z</time>
      </trkpt>
      <trkpt lat="46.09219" lon="6.38475">
        <ele>524</ele>
        <time>2021-09-12T06:58:53Z</time>
      </trkpt>
      <trkpt lat="46.09229" lon="6.38467">
        <ele>517</ele>
        <time>2021-09-12T06:58:55Z</time>
      </trkpt>
      <trkpt lat="46.09247" lon="6.38435">
        <ele>520</ele>
        <time>2021-09-12T06:58:59Z</time>
      </trkpt>
      <trkpt lat="46.09279" lon="6.38419">
        <ele>518</ele>
        <time>2021-09-12T06:59:02Z</time>
      </trkpt>
      <trkpt lat="46.09289" lon="6.38414">
        <ele>515</ele>
        <time>2021-09-12T06:59:03Z</time>
      </trkpt>
      <trkpt lat="46.09314" lon="6.38397">
        <ele>537</ele>
        <time>2021-09-12T06:59:06Z</time>
      </trkpt>
      <trkpt lat="46.09328" lon="6.38382">
        <ele>541</ele>
        <time>2021-09-12T06:59:08Z</time>
      </trkpt>
      <trkpt lat="46.09363" lon="6.38331">
        <ele>506</ele>
        <time>2021-09-12T06:59:13Z</time>
      </trkpt>
      <trkpt lat="46.09382" lon="6.38283">
        <ele>501</ele>
        <time>2021-09-12T06:59:18Z</time>
      </trkpt>
      <trkpt lat="46.09401" lon="6.38251">
        <ele>503</ele>
        <time>2021-09-12T06:59:22Z</time>
      </trkpt>
      <trkpt lat="46.09458" lon="6.38167">
        <ele>553</ele>
        <time>2021-09-12T06:59:33Z</time>
      </trkpt>
      <trkpt lat="46.09495" lon="6.38125">
        <ele>606</ele>
        <time>2021-09-12T06:59:41Z</time>
      </trkpt>
      <trkpt lat="46.09508" lon="6.38103">
        <ele>608</ele>
        <time>2021-09-12T06:59:45Z</time>
      </trkpt>
      <trkpt lat="46.0951" lon="6.38096">
        <ele>608</ele>
        <time>2021-09-12T06:59:46Z</time>
      </trkpt>
      <trkpt lat="46.09512" lon="6.38082">
        <ele>608</ele>
        <time>2021-09-12T06:59:48Z</time>
      </trkpt>
      <trkpt lat="46.09518" lon="6.38069">
        <ele>608</ele>
        <time>2021-09-12T06:59:50Z</time>
      </trkpt>
      <trkpt lat="46.09546" lon="6.38018">
        <ele>609</ele>
        <time>2021-09-12T06:59:58Z</time>
      </trkpt>
      <trkpt lat="46.09556" lon="6.38012">
        <ele>609</ele>
        <time>2021-09-12T07:00:00Z</time>
      </trkpt>
      <trkpt lat="46.0956" lon="6.38005">
        <ele>609</ele>
        <time>2021-09-12T07:00:01Z</time>
      </trkpt>
      <trkpt lat="46.09563" lon="6.37991">
        <ele>609</ele>
        <time>2021-09-12T07:00:03Z</time>
      </trkpt>
      <trkpt lat="46.09569" lon="6.37959">
        <ele>609</ele>
        <time>2021-09-12T07:00:07Z</time>
      </trkpt>
      <trkpt lat="46.09574" lon="6.37945">
        <ele>610</ele>
        <time>2021-09-12T07:00:09Z</time>
      </trkpt>
      <trkpt lat="46.09578" lon="6.37942">
        <ele>611</ele>
        <time>2021-09-12T07:00:10Z</time>
      </trkpt>
      <trkpt lat="46.09604" lon="6.37928">
        <ele>615</ele>
        <time>2021-09-12T07:00:14Z</time>
      </trkpt>
      <trkpt lat="46.0973" lon="6.37815">
        <ele>633</ele>
        <time>2021-09-12T07:00:31Z</time>
      </trkpt>
      <trkpt lat="46.09757" lon="6.37807">
        <ele>637</ele>
        <time>2021-09-12T07:00:34Z</time>
      </trkpt>
      <trkpt lat="46.09786" lon="6.37803">
        <ele>617</ele>
        <time>2021-09-12T07:00:37Z</time>
      </trkpt>
      <trkpt lat="46.09795" lon="6.37799">
        <ele>617</ele>
        <time>2021-09-12T07:00:38Z</time>
      </trkpt>
      <trkpt lat="46.09802" lon="6.37791">
        <ele>618</ele>
        <time>2021-09-12T07:00:39Z</time>
      </trkpt>
      <trkpt lat="46.09973" lon="6.37538">
        <ele>673</ele>
        <time>2021-09-12T07:01:04Z</time>
      </trkpt>
      <trkpt lat="46.0998" lon="6.37533">
        <ele>674</ele>
        <time>2021-09-12T07:01:05Z</time>
      </trkpt>
      <trkpt lat="46.09986" lon="6.37531">
        <ele>674</ele>
        <time>2021-09-12T07:01:06Z</time>
      </trkpt>
      <trkpt lat="46.09992" lon="6.37534">
        <ele>675</ele>
        <time>2021-09-12T07:01:07Z</time>
      </trkpt>
      <trkpt lat="46.09998" lon="6.37538">
        <ele>672</ele>
        <time>2021-09-12T07:01:08Z</time>
      </trkpt>
      <trkpt lat="46.09999" lon="6.37548">
        <ele>671</ele>
        <time>2021-09-12T07:01:09Z</time>
      </trkpt>
      <trkpt lat="46.09995" lon="6.37579">
        <ele>672</ele>
        <time>2021-09-12T07:01:12Z</time>
      </trkpt>
      <trkpt lat="46.09993" lon="6.37591">
        <ele>673</ele>
        <time>2021-09-12T07:01:13Z</time>
      </trkpt>
      <trkpt lat="46.09957" lon="6.37757">
        <ele>688</ele>
        <time>2021-09-12T07:01:26Z</time>
      </trkpt>
      <trkpt lat="46.09964" lon="6.3779">
        <ele>686</ele>
        <time>2021-09-12T07:01:28Z</time>
      </trkpt>
      <trkpt lat="46.0996" lon="6.37816">
        <ele>687</ele>
        <time>2021-09-12T07:01:30Z</time>
      </trkpt>
      <trkpt lat="46.09951" lon="6.37841">
        <ele>687</ele>
        <time>2021-09-12T07:01:32Z</time>
      </trkpt>
      <trkpt lat="46.09948" lon="6.37853">
        <ele>682</ele>
        <time>2021-09-12T07:01:33Z</time>
      </trkpt>
      <trkpt lat="46.09941" lon="6.37873">
        <ele>680</ele>
        <time>2021-09-12T07:01:35Z</time>
      </trkpt>
      <trkpt lat="46.09928" lon="6.37887">
        <ele>681</ele>
        <time>2021-09-12T07:01:37Z</time>
      </trkpt>
      <trkpt lat="46.09919" lon="6.37904">
        <ele>690</ele>
        <time>2021-09-12T07:01:39Z</time>
      </trkpt>
      <trkpt lat="46.09917" lon="6.37912">
        <ele>692</ele>
        <time>2021-09-12T07:01:40Z</time>
      </trkpt>
      <trkpt lat="46.09915" lon="6.37922">
        <ele>695</ele>
        <time>2021-09-12T07:01:41Z</time>
      </trkpt>
      <trkpt lat="46.09912" lon="6.37942">
        <ele>699</ele>
        <time>2021-09-12T07:01:43Z</time>
      </trkpt>
      <trkpt lat="46.09915" lon="6.37962">
        <ele>700</ele>
        <time>2021-09-12T07:01:45Z</time>
      </trkpt>
      <trkpt lat="46.09928" lon="6.38011">
        <ele>703</ele>
        <time>2021-09-12T07:01:50Z</time>
      </trkpt>
      <trkpt lat="46.09928" lon="6.3802">
        <ele>704</ele>
        <time>2021-09-12T07:01:51Z</time>
      </trkpt>
      <trkpt lat="46.09926" lon="6.38029">
        <ele>705</ele>
        <time>2021-09-12T07:01:52Z</time>
      </trkpt>
      <trkpt lat="46.0992" lon="6.38045">
        <ele>707</ele>
        <time>2021-09-12T07:01:54Z</time>
      </trkpt>
      <trkpt lat="46.0991" lon="6.38058">
        <ele>707</ele>
        <time>2021-09-12T07:01:56Z</time>
      </trkpt>
      <trkpt lat="46.09866" lon="6.3809">
        <ele>706</ele>
        <time>2021-09-12T07:02:03Z</time>
      </trkpt>
      <trkpt lat="46.09861" lon="6.38095">
        <ele>703</ele>
        <time>2021-09-12T07:02:04Z</time>
      </trkpt>
      <trkpt lat="46.09858" lon="6.38103">
        <ele>702</ele>
        <time>2021-09-12T07:02:05Z</time>
      </trkpt>
      <trkpt lat="46.09864" lon="6.38118">
        <ele>701</ele>
        <time>2021-09-12T07:02:06Z</time>
      </trkpt>
      <trkpt lat="46.09862" lon="6.38151">
        <ele>703</ele>
        <time>2021-09-12T07:02:09Z</time>
      </trkpt>
      <trkpt lat="46.09854" lon="6.38176">
        <ele>686</ele>
        <time>2021-09-12T07:02:11Z</time>
      </trkpt>
      <trkpt lat="46.09845" lon="6.38184">
        <ele>681</ele>
        <time>2021-09-12T07:02:12Z</time>
      </trkpt>
      <trkpt lat="46.09834" lon="6.38201">
        <ele>676</ele>
        <time>2021-09-12T07:02:13Z</time>
      </trkpt>
      <trkpt lat="46.09821" lon="6.38209">
        <ele>675</ele>
        <time>2021-09-12T07:02:14Z</time>
      </trkpt>
      <trkpt lat="46.09808" lon="6.38217">
        <ele>672</ele>
        <time>2021-09-12T07:02:15Z</time>
      </trkpt>
      <trkpt lat="46.09786" lon="6.3823">
        <ele>668</ele>
        <time>2021-09-12T07:02:17Z</time>
      </trkpt>
      <trkpt lat="46.09766" lon="6.38242">
        <ele>665</ele>
        <time>2021-09-12T07:02:19Z</time>
      </trkpt>
      <trkpt lat="46.09757" lon="6.38249">
        <ele>668</ele>
        <time>2021-09-12T07:02:20Z</time>
      </trkpt>
      <trkpt lat="46.09753" lon="6.38257">
        <ele>671</ele>
        <time>2021-09-12T07:02:21Z</time>
      </trkpt>
      <trkpt lat="46.09748" lon="6.38266">
        <ele>674</ele>
        <time>2021-09-12T07:02:22Z</time>
      </trkpt>
      <trkpt lat="46.09746" lon="6.38275">
        <ele>676</ele>
        <time>2021-09-12T07:02:23Z</time>
      </trkpt>
      <trkpt lat="46.09746" lon="6.38284">
        <ele>679</ele>
        <time>2021-09-12T07:02:24Z</time>
      </trkpt>
      <trkpt lat="46.09743" lon="6.38304">
        <ele>633</ele>
        <time>2021-09-12T07:02:27Z</time>
      </trkpt>
      <trkpt lat="46.09744" lon="6.3831">
        <ele>635</ele>
        <time>2021-09-12T07:02:28Z</time>
      </trkpt>
      <trkpt lat="46.09763" lon="6.38344">
        <ele>719</ele>
        <time>2021-09-12T07:02:34Z</time>
      </trkpt>
      <trkpt lat="46.09765" lon="6.38351">
        <ele>723</ele>
        <time>2021-09-12T07:02:35Z</time>
      </trkpt>
      <trkpt lat="46.09765" lon="6.38359">
        <ele>727</ele>
        <time>2021-09-12T07:02:36Z</time>
      </trkpt>
      <trkpt lat="46.09763" lon="6.38374">
        <ele>730</ele>
        <time>2021-09-12T07:02:38Z</time>
      </trkpt>
      <trkpt lat="46.09761" lon="6.38381">
        <ele>729</ele>
        <time>2021-09-12T07:02:39Z</time>
      </trkpt>
      <trkpt lat="46.0975" lon="6.38419">
        <ele>712</ele>
        <time>2021-09-12T07:02:45Z</time>
      </trkpt>
      <trkpt lat="46.09746" lon="6.38425">
        <ele>697</ele>
        <time>2021-09-12T07:02:47Z</time>
      </trkpt>
      <trkpt lat="46.09743" lon="6.38437">
        <ele>688</ele>
        <time>2021-09-12T07:02:50Z</time>
      </trkpt>
      <trkpt lat="46.09744" lon="6.38448">
        <ele>679</ele>
        <time>2021-09-12T07:02:52Z</time>
      </trkpt>
      <trkpt lat="46.09745" lon="6.38473">
        <ele>738</ele>
        <time>2021-09-12T07:02:56Z</time>
      </trkpt>
      <trkpt lat="46.09753" lon="6.38501">
        <ele>760</ele>
        <time>2021-09-12T07:03:01Z</time>
      </trkpt>
      <trkpt lat="46.0976" lon="6.38515">
        <ele>767</ele>
        <time>2021-09-12T07:03:04Z</time>
      </trkpt>
      <trkpt lat="46.09769" lon="6.3852">
        <ele>768</ele>
        <time>2021-09-12T07:03:06Z</time>
      </trkpt>
      <trkpt lat="46.09778" lon="6.38527">
        <ele>770</ele>
        <time>2021-09-12T07:03:08Z</time>
      </trkpt>
      <trkpt lat="46.09811" lon="6.38575">
        <ele>772</ele>
        <time>2021-09-12T07:03:16Z</time>
      </trkpt>
      <trkpt lat="46.0983" lon="6.38607">
        <ele>767</ele>
        <time>2021-09-12T07:03:20Z</time>
      </trkpt>
      <trkpt lat="46.09854" lon="6.38631">
        <ele>767</ele>
        <time>2021-09-12T07:03:24Z</time>
      </trkpt>
      <trkpt lat="46.09871" lon="6.38642">
        <ele>767</ele>
        <time>2021-09-12T07:03:26Z</time>
      </trkpt>
      <trkpt lat="46.09886" lon="6.38649">
        <ele>770</ele>
        <time>2021-09-12T07:03:28Z</time>
      </trkpt>
      <trkpt lat="46.09912" lon="6.38662">
        <ele>774</ele>
        <time>2021-09-12T07:03:32Z</time>
      </trkpt>
      <trkpt lat="46.09917" lon="6.38676">
        <ele>774</ele>
        <time>2021-09-12T07:03:34Z</time>
      </trkpt>
      <trkpt lat="46.09933" lon="6.38711">
        <ele>770</ele>
        <time>2021-09-12T07:03:39Z</time>
      </trkpt>
      <trkpt lat="46.09955" lon="6.38718">
        <ele>767</ele>
        <time>2021-09-12T07:03:43Z</time>
      </trkpt>
      <trkpt lat="46.09994" lon="6.38756">
        <ele>772</ele>
        <time>2021-09-12T07:03:51Z</time>
      </trkpt>
      <trkpt lat="46.10015" lon="6.38775">
        <ele>770</ele>
        <time>2021-09-12T07:03:55Z</time>
      </trkpt>
      <trkpt lat="46.10041" lon="6.38789">
        <ele>770</ele>
        <time>2021-09-12T07:03:59Z</time>
      </trkpt>
      <trkpt lat="46.1005" lon="6.38797">
        <ele>771</ele>
        <time>2021-09-12T07:04:01Z</time>
      </trkpt>
      <trkpt lat="46.10056" lon="6.38807">
        <ele>774</ele>
        <time>2021-09-12T07:04:03Z</time>
      </trkpt>
      <trkpt lat="46.10073" lon="6.38824">
        <ele>787</ele>
        <time>2021-09-12T07:04:07Z</time>
      </trkpt>
      <trkpt lat="46.10079" lon="6.38838">
        <ele>792</ele>
        <time>2021-09-12T07:04:09Z</time>
      </trkpt>
      <trkpt lat="46.1008" lon="6.38851">
        <ele>795</ele>
        <time>2021-09-12T07:04:11Z</time>
      </trkpt>
      <trkpt lat="46.10091" lon="6.38861">
        <ele>789</ele>
        <time>2021-09-12T07:04:13Z</time>
      </trkpt>
      <trkpt lat="46.10104" lon="6.38885">
        <ele>781</ele>
        <time>2021-09-12T07:04:17Z</time>
      </trkpt>
      <trkpt lat="46.10115" lon="6.38891">
        <ele>779</ele>
        <time>2021-09-12T07:04:20Z</time>
      </trkpt>
      <trkpt lat="46.10126" lon="6.38896">
        <ele>761</ele>
        <time>2021-09-12T07:04:23Z</time>
      </trkpt>
      <trkpt lat="46.1014" lon="6.38924">
        <ele>666</ele>
        <time>2021-09-12T07:04:27Z</time>
      </trkpt>
      <trkpt lat="46.10156" lon="6.38944">
        <ele>662</ele>
        <time>2021-09-12T07:04:32Z</time>
      </trkpt>
      <trkpt lat="46.1016" lon="6.38958">
        <ele>730</ele>
        <time>2021-09-12T07:04:38Z</time>
      </trkpt>
      <trkpt lat="46.10176" lon="6.39014">
        <ele>903</ele>
        <time>2021-09-12T07:04:47Z</time>
      </trkpt>
      <trkpt lat="46.10193" lon="6.39043">
        <ele>910</ele>
        <time>2021-09-12T07:04:51Z</time>
      </trkpt>
      <trkpt lat="46.10206" lon="6.39059">
        <ele>912</ele>
        <time>2021-09-12T07:04:53Z</time>
      </trkpt>
      <trkpt lat="46.10218" lon="6.39084">
        <ele>915</ele>
        <time>2021-09-12T07:04:56Z</time>
      </trkpt>
      <trkpt lat="46.10225" lon="6.3909">
        <ele>915</ele>
        <time>2021-09-12T07:04:57Z</time>
      </trkpt>
      <trkpt lat="46.10232" lon="6.39103">
        <ele>916</ele>
        <time>2021-09-12T07:04:59Z</time>
      </trkpt>
      <trkpt lat="46.10238" lon="6.39116">
        <ele>918</ele>
        <time>2021-09-12T07:05:01Z</time>
      </trkpt>
      <trkpt lat="46.10239" lon="6.39126">
        <ele>919</ele>
        <time>2021-09-12T07:05:02Z</time>
      </trkpt>
      <trkpt lat="46.10245" lon="6.39142">
        <ele>919</ele>
        <time>2021-09-12T07:05:04Z</time>
      </trkpt>
      <trkpt lat="46.10249" lon="6.39147">
        <ele>920</ele>
        <time>2021-09-12T07:05:05Z</time>
      </trkpt>
      <trkpt lat="46.10261" lon="6.39154">
        <ele>920</ele>
        <time>2021-09-12T07:05:07Z</time>
      </trkpt>
      <trkpt lat="46.10288" lon="6.39163">
        <ele>921</ele>
        <time>2021-09-12T07:05:12Z</time>
      </trkpt>
      <trkpt lat="46.10297" lon="6.39171">
        <ele>930</ele>
        <time>2021-09-12T07:05:16Z</time>
      </trkpt>
      <trkpt lat="46.10299" lon="6.39174">
        <ele>934</ele>
        <time>2021-09-12T07:05:27Z</time>
      </trkpt>
      <trkpt lat="46.10305" lon="6.39178">
        <ele>936</ele>
        <time>2021-09-12T07:06:54Z</time>
      </trkpt>
      <trkpt lat="46.10396" lon="6.3928">
        <ele>931</ele>
        <time>2021-09-12T07:07:08Z</time>
      </trkpt>
      <trkpt lat="46.10407" lon="6.39301">
        <ele>930</ele>
        <time>2021-09-12T07:07:10Z</time>
      </trkpt>
      <trkpt lat="46.10454" lon="6.39469">
        <ele>924</ele>
        <time>2021-09-12T07:07:23Z</time>
      </trkpt>
      <trkpt lat="46.10506" lon="6.39548">
        <ele>921</ele>
        <time>2021-09-12T07:07:32Z</time>
      </trkpt>
      <trkpt lat="46.10514" lon="6.39581">
        <ele>920</ele>
        <time>2021-09-12T07:07:36Z</time>
      </trkpt>
      <trkpt lat="46.10519" lon="6.39625">
        <ele>919</ele>
        <time>2021-09-12T07:07:42Z</time>
      </trkpt>
      <trkpt lat="46.10515" lon="6.39633">
        <ele>918</ele>
        <time>2021-09-12T07:07:43Z</time>
      </trkpt>
      <trkpt lat="46.10505" lon="6.39705">
        <ele>919</ele>
        <time>2021-09-12T07:07:52Z</time>
      </trkpt>
      <trkpt lat="46.105" lon="6.39719">
        <ele>915</ele>
        <time>2021-09-12T07:07:54Z</time>
      </trkpt>
      <trkpt lat="46.10497" lon="6.39735">
        <ele>912</ele>
        <time>2021-09-12T07:07:56Z</time>
      </trkpt>
      <trkpt lat="46.10499" lon="6.39784">
        <ele>908</ele>
        <time>2021-09-12T07:08:01Z</time>
      </trkpt>
      <trkpt lat="46.10514" lon="6.39845">
        <ele>891</ele>
        <time>2021-09-12T07:08:09Z</time>
      </trkpt>
      <trkpt lat="46.10517" lon="6.39851">
        <ele>890</ele>
        <time>2021-09-12T07:08:10Z</time>
      </trkpt>
      <trkpt lat="46.10527" lon="6.39866">
        <ele>896</ele>
        <time>2021-09-12T07:08:13Z</time>
      </trkpt>
      <trkpt lat="46.10531" lon="6.39876">
        <ele>897</ele>
        <time>2021-09-12T07:08:15Z</time>
      </trkpt>
      <trkpt lat="46.10536" lon="6.39888">
        <ele>890</ele>
        <time>2021-09-12T07:08:20Z</time>
      </trkpt>
      <trkpt lat="46.10537" lon="6.39894">
        <ele>890</ele>
        <time>2021-09-12T07:08:21Z</time>
      </trkpt>
      <trkpt lat="46.10547" lon="6.4002">
        <ele>894</ele>
        <time>2021-09-12T07:08:32Z</time>
      </trkpt>
      <trkpt lat="46.10551" lon="6.40045">
        <ele>895</ele>
        <time>2021-09-12T07:08:34Z</time>
      </trkpt>
      <trkpt lat="46.1055" lon="6.4007">
        <ele>896</ele>
        <time>2021-09-12T07:08:36Z</time>
      </trkpt>
      <trkpt lat="46.10517" lon="6.4023">
        <ele>907</ele>
        <time>2021-09-12T07:08:49Z</time>
      </trkpt>
      <trkpt lat="46.10508" lon="6.40251">
        <ele>909</ele>
        <time>2021-09-12T07:08:51Z</time>
      </trkpt>
      <trkpt lat="46.10473" lon="6.40307">
        <ele>912</ele>
        <time>2021-09-12T07:08:58Z</time>
      </trkpt>
      <trkpt lat="46.10472" lon="6.40312">
        <ele>912</ele>
        <time>2021-09-12T07:09:00Z</time>
      </trkpt>
      <trkpt lat="46.10469" lon="6.40316">
        <ele>912</ele>
        <time>2021-09-12T07:09:06Z</time>
      </trkpt>
      <trkpt lat="46.10464" lon="6.40319">
        <ele>912</ele>
        <time>2021-09-12T07:09:08Z</time>
      </trkpt>
      <trkpt lat="46.10442" lon="6.40357">
        <ele>914</ele>
        <time>2021-09-12T07:09:12Z</time>
      </trkpt>
      <trkpt lat="46.10431" lon="6.40379">
        <ele>913</ele>
        <time>2021-09-12T07:09:14Z</time>
      </trkpt>
      <trkpt lat="46.10404" lon="6.40416">
        <ele>914</ele>
        <time>2021-09-12T07:09:18Z</time>
      </trkpt>
      <trkpt lat="46.1038" lon="6.40431">
        <ele>915</ele>
        <time>2021-09-12T07:09:21Z</time>
      </trkpt>
      <trkpt lat="46.10354" lon="6.40439">
        <ele>915</ele>
        <time>2021-09-12T07:09:25Z</time>
      </trkpt>
      <trkpt lat="46.10349" lon="6.40444">
        <ele>914</ele>
        <time>2021-09-12T07:09:26Z</time>
      </trkpt>
      <trkpt lat="46.10346" lon="6.4045">
        <ele>914</ele>
        <time>2021-09-12T07:09:27Z</time>
      </trkpt>
      <trkpt lat="46.10342" lon="6.40472">
        <ele>914</ele>
        <time>2021-09-12T07:09:29Z</time>
      </trkpt>
      <trkpt lat="46.10343" lon="6.40496">
        <ele>913</ele>
        <time>2021-09-12T07:09:31Z</time>
      </trkpt>
      <trkpt lat="46.10351" lon="6.4053">
        <ele>915</ele>
        <time>2021-09-12T07:09:34Z</time>
      </trkpt>
      <trkpt lat="46.1035" lon="6.40586">
        <ele>919</ele>
        <time>2021-09-12T07:09:38Z</time>
      </trkpt>
      <trkpt lat="46.10368" lon="6.4067">
        <ele>921</ele>
        <time>2021-09-12T07:09:43Z</time>
      </trkpt>
      <trkpt lat="46.10367" lon="6.40682">
        <ele>922</ele>
        <time>2021-09-12T07:09:44Z</time>
      </trkpt>
      <trkpt lat="46.10366" lon="6.40693">
        <ele>922</ele>
        <time>2021-09-12T07:09:45Z</time>
      </trkpt>
      <trkpt lat="46.10362" lon="6.40703">
        <ele>923</ele>
        <time>2021-09-12T07:09:46Z</time>
      </trkpt>
      <trkpt lat="46.1035" lon="6.40719">
        <ele>924</ele>
        <time>2021-09-12T07:09:48Z</time>
      </trkpt>
      <trkpt lat="46.10342" lon="6.40724">
        <ele>924</ele>
        <time>2021-09-12T07:09:49Z</time>
      </trkpt>
      <trkpt lat="46.1028" lon="6.40744">
        <ele>925</ele>
        <time>2021-09-12T07:09:54Z</time>
      </trkpt>
      <trkpt lat="46.10205" lon="6.40771">
        <ele>920</ele>
        <time>2021-09-12T07:10:00Z</time>
      </trkpt>
      <trkpt lat="46.10173" lon="6.408">
        <ele>919</ele>
        <time>2021-09-12T07:10:05Z</time>
      </trkpt>
      <trkpt lat="46.10168" lon="6.40807">
        <ele>920</ele>
        <time>2021-09-12T07:10:06Z</time>
      </trkpt>
      <trkpt lat="46.10155" lon="6.40844">
        <ele>921</ele>
        <time>2021-09-12T07:10:10Z</time>
      </trkpt>
      <trkpt lat="46.10153" lon="6.4086">
        <ele>921</ele>
        <time>2021-09-12T07:10:12Z</time>
      </trkpt>
      <trkpt lat="46.10151" lon="6.40865">
        <ele>921</ele>
        <time>2021-09-12T07:10:13Z</time>
      </trkpt>
      <trkpt lat="46.10147" lon="6.40869">
        <ele>921</ele>
        <time>2021-09-12T07:10:14Z</time>
      </trkpt>
      <trkpt lat="46.10124" lon="6.40887">
        <ele>924</ele>
        <time>2021-09-12T07:10:18Z</time>
      </trkpt>
      <trkpt lat="46.10108" lon="6.40905">
        <ele>918</ele>
        <time>2021-09-12T07:10:20Z</time>
      </trkpt>
      <trkpt lat="46.10085" lon="6.40941">
        <ele>913</ele>
        <time>2021-09-12T07:10:23Z</time>
      </trkpt>
      <trkpt lat="46.10068" lon="6.40975">
        <ele>915</ele>
        <time>2021-09-12T07:10:27Z</time>
      </trkpt>
      <trkpt lat="46.10069" lon="6.4098">
        <ele>915</ele>
        <time>2021-09-12T07:10:29Z</time>
      </trkpt>
      <trkpt lat="46.10073" lon="6.4098">
        <ele>915</ele>
        <time>2021-09-12T07:10:31Z</time>
      </trkpt>
      <trkpt lat="46.10084" lon="6.40968">
        <ele>915</ele>
        <time>2021-09-12T07:10:37Z</time>
      </trkpt>
      <trkpt lat="46.10097" lon="6.40963">
        <ele>913</ele>
        <time>2021-09-12T07:10:39Z</time>
      </trkpt>
      <trkpt lat="46.1013" lon="6.40966">
        <ele>914</ele>
        <time>2021-09-12T07:10:43Z</time>
      </trkpt>
      <trkpt lat="46.1014" lon="6.40965">
        <ele>919</ele>
        <time>2021-09-12T07:10:44Z</time>
      </trkpt>
      <trkpt lat="46.10156" lon="6.40964">
        <ele>923</ele>
        <time>2021-09-12T07:10:46Z</time>
      </trkpt>
      <trkpt lat="46.10163" lon="6.40966">
        <ele>924</ele>
        <time>2021-09-12T07:10:47Z</time>
      </trkpt>
      <trkpt lat="46.10236" lon="6.4103">
        <ele>922</ele>
        <time>2021-09-12T07:10:57Z</time>
      </trkpt>
      <trkpt lat="46.10254" lon="6.41045">
        <ele>919</ele>
        <time>2021-09-12T07:11:00Z</time>
      </trkpt>
      <trkpt lat="46.10253" lon="6.41053">
        <ele>918</ele>
        <time>2021-09-12T07:11:01Z</time>
      </trkpt>
      <trkpt lat="46.10254" lon="6.4106">
        <ele>919</ele>
        <time>2021-09-12T07:11:02Z</time>
      </trkpt>
      <trkpt lat="46.10252" lon="6.41076">
        <ele>921</ele>
        <time>2021-09-12T07:11:04Z</time>
      </trkpt>
      <trkpt lat="46.10249" lon="6.41082">
        <ele>921</ele>
        <time>2021-09-12T07:11:06Z</time>
      </trkpt>
      <trkpt lat="46.10243" lon="6.41075">
        <ele>922</ele>
        <time>2021-09-12T07:11:08Z</time>
      </trkpt>
      <trkpt lat="46.10231" lon="6.41072">
        <ele>925</ele>
        <time>2021-09-12T07:11:09Z</time>
      </trkpt>
      <trkpt lat="46.10201" lon="6.41074">
        <ele>926</ele>
        <time>2021-09-12T07:11:12Z</time>
      </trkpt>
      <trkpt lat="46.10176" lon="6.41078">
        <ele>919</ele>
        <time>2021-09-12T07:11:15Z</time>
      </trkpt>
      <trkpt lat="46.10161" lon="6.41085">
        <ele>920</ele>
        <time>2021-09-12T07:11:17Z</time>
      </trkpt>
      <trkpt lat="46.10148" lon="6.41112">
        <ele>923</ele>
        <time>2021-09-12T07:11:20Z</time>
      </trkpt>
      <trkpt lat="46.10144" lon="6.41124">
        <ele>933</ele>
        <time>2021-09-12T07:11:21Z</time>
      </trkpt>
      <trkpt lat="46.10142" lon="6.41152">
        <ele>961</ele>
        <time>2021-09-12T07:11:24Z</time>
      </trkpt>
      <trkpt lat="46.10137" lon="6.41164">
        <ele>967</ele>
        <time>2021-09-12T07:11:26Z</time>
      </trkpt>
      <trkpt lat="46.10127" lon="6.41183">
        <ele>977</ele>
        <time>2021-09-12T07:11:29Z</time>
      </trkpt>
      <trkpt lat="46.1012" lon="6.41211">
        <ele>984</ele>
        <time>2021-09-12T07:11:32Z</time>
      </trkpt>
      <trkpt lat="46.1012" lon="6.41221">
        <ele>985</ele>
        <time>2021-09-12T07:11:33Z</time>
      </trkpt>
      <trkpt lat="46.1013" lon="6.41251">
        <ele>986</ele>
        <time>2021-09-12T07:11:36Z</time>
      </trkpt>
      <trkpt lat="46.10152" lon="6.41277">
        <ele>988</ele>
        <time>2021-09-12T07:11:39Z</time>
      </trkpt>
      <trkpt lat="46.10154" lon="6.41287">
        <ele>989</ele>
        <time>2021-09-12T07:11:40Z</time>
      </trkpt>
      <trkpt lat="46.10167" lon="6.41324">
        <ele>948</ele>
        <time>2021-09-12T07:11:44Z</time>
      </trkpt>
      <trkpt lat="46.10176" lon="6.41334">
        <ele>952</ele>
        <time>2021-09-12T07:11:45Z</time>
      </trkpt>
      <trkpt lat="46.10187" lon="6.4135">
        <ele>956</ele>
        <time>2021-09-12T07:11:47Z</time>
      </trkpt>
      <trkpt lat="46.10203" lon="6.41364">
        <ele>956</ele>
        <time>2021-09-12T07:11:49Z</time>
      </trkpt>
      <trkpt lat="46.10218" lon="6.41383">
        <ele>953</ele>
        <time>2021-09-12T07:11:51Z</time>
      </trkpt>
      <trkpt lat="46.10232" lon="6.41396">
        <ele>955</ele>
        <time>2021-09-12T07:11:53Z</time>
      </trkpt>
      <trkpt lat="46.10234" lon="6.41406">
        <ele>957</ele>
        <time>2021-09-12T07:11:54Z</time>
      </trkpt>
      <trkpt lat="46.10238" lon="6.41414">
        <ele>959</ele>
        <time>2021-09-12T07:11:55Z</time>
      </trkpt>
      <trkpt lat="46.10248" lon="6.41428">
        <ele>962</ele>
        <time>2021-09-12T07:11:57Z</time>
      </trkpt>
      <trkpt lat="46.10256" lon="6.41439">
        <ele>968</ele>
        <time>2021-09-12T07:12:00Z</time>
      </trkpt>
      <trkpt lat="46.1026" lon="6.41442">
        <ele>972</ele>
        <time>2021-09-12T07:12:02Z</time>
      </trkpt>
      <trkpt lat="46.10271" lon="6.41457">
        <ele>972</ele>
        <time>2021-09-12T07:12:11Z</time>
      </trkpt>
      <trkpt lat="46.10283" lon="6.41457">
        <ele>965</ele>
        <time>2021-09-12T07:12:13Z</time>
      </trkpt>
      <trkpt lat="46.10293" lon="6.41457">
        <ele>964</ele>
        <time>2021-09-12T07:12:15Z</time>
      </trkpt>
      <trkpt lat="46.10307" lon="6.41479">
        <ele>970</ele>
        <time>2021-09-12T07:12:19Z</time>
      </trkpt>
      <trkpt lat="46.10316" lon="6.41501">
        <ele>985</ele>
        <time>2021-09-12T07:12:23Z</time>
      </trkpt>
      <trkpt lat="46.10325" lon="6.41514">
        <ele>984</ele>
        <time>2021-09-12T07:12:25Z</time>
      </trkpt>
      <trkpt lat="46.10332" lon="6.41522">
        <ele>979</ele>
        <time>2021-09-12T07:12:26Z</time>
      </trkpt>
      <trkpt lat="46.10339" lon="6.41532">
        <ele>976</ele>
        <time>2021-09-12T07:12:27Z</time>
      </trkpt>
      <trkpt lat="46.10344" lon="6.41541">
        <ele>973</ele>
        <time>2021-09-12T07:12:28Z</time>
      </trkpt>
      <trkpt lat="46.10355" lon="6.41568">
        <ele>967</ele>
        <time>2021-09-12T07:12:31Z</time>
      </trkpt>
      <trkpt lat="46.1036" lon="6.41575">
        <ele>966</ele>
        <time>2021-09-12T07:12:32Z</time>
      </trkpt>
      <trkpt lat="46.10382" lon="6.41592">
        <ele>965</ele>
        <time>2021-09-12T07:12:36Z</time>
      </trkpt>
      <trkpt lat="46.10405" lon="6.41621">
        <ele>960</ele>
        <time>2021-09-12T07:12:41Z</time>
      </trkpt>
      <trkpt lat="46.10418" lon="6.41644">
        <ele>961</ele>
        <time>2021-09-12T07:12:46Z</time>
      </trkpt>
      <trkpt lat="46.10435" lon="6.41664">
        <ele>970</ele>
        <time>2021-09-12T07:12:51Z</time>
      </trkpt>
      <trkpt lat="46.10453" lon="6.41675">
        <ele>965</ele>
        <time>2021-09-12T07:12:57Z</time>
      </trkpt>
      <trkpt lat="46.10469" lon="6.4169">
        <ele>965</ele>
        <time>2021-09-12T07:13:02Z</time>
      </trkpt>
      <trkpt lat="46.10469" lon="6.417">
        <ele>964</ele>
        <time>2021-09-12T07:13:04Z</time>
      </trkpt>
      <trkpt lat="46.10472" lon="6.41706">
        <ele>958</ele>
        <time>2021-09-12T07:13:06Z</time>
      </trkpt>
      <trkpt lat="46.10485" lon="6.41734">
        <ele>955</ele>
        <time>2021-09-12T07:13:12Z</time>
      </trkpt>
      <trkpt lat="46.10493" lon="6.41742">
        <ele>954</ele>
        <time>2021-09-12T07:13:14Z</time>
      </trkpt>
      <trkpt lat="46.10496" lon="6.41749">
        <ele>950</ele>
        <time>2021-09-12T07:13:16Z</time>
      </trkpt>
      <trkpt lat="46.10503" lon="6.41754">
        <ele>950</ele>
        <time>2021-09-12T07:13:18Z</time>
      </trkpt>
      <trkpt lat="46.10517" lon="6.41759">
        <ele>951</ele>
        <time>2021-09-12T07:13:21Z</time>
      </trkpt>
      <trkpt lat="46.10539" lon="6.41793">
        <ele>951</ele>
        <time>2021-09-12T07:13:28Z</time>
      </trkpt>
      <trkpt lat="46.10547" lon="6.41802">
        <ele>946</ele>
        <time>2021-09-12T07:13:30Z</time>
      </trkpt>
      <trkpt lat="46.10554" lon="6.41813">
        <ele>942</ele>
        <time>2021-09-12T07:13:33Z</time>
      </trkpt>
      <trkpt lat="46.1056" lon="6.41824">
        <ele>940</ele>
        <time>2021-09-12T07:13:36Z</time>
      </trkpt>
      <trkpt lat="46.10566" lon="6.41812">
        <ele>937</ele>
        <time>2021-09-12T07:13:41Z</time>
      </trkpt>
      <trkpt lat="46.10581" lon="6.41756">
        <ele>927</ele>
        <time>2021-09-12T07:13:53Z</time>
      </trkpt>
      <trkpt lat="46.10589" lon="6.41736">
        <ele>924</ele>
        <time>2021-09-12T07:13:58Z</time>
      </trkpt>
      <trkpt lat="46.10624" lon="6.41707">
        <ele>914</ele>
        <time>2021-09-12T07:14:10Z</time>
      </trkpt>
      <trkpt lat="46.10634" lon="6.41702">
        <ele>911</ele>
        <time>2021-09-12T07:14:13Z</time>
      </trkpt>
      <trkpt lat="46.10638" lon="6.41695">
        <ele>910</ele>
        <time>2021-09-12T07:14:15Z</time>
      </trkpt>
      <trkpt lat="46.10639" lon="6.4169">
        <ele>909</ele>
        <time>2021-09-12T07:14:16Z</time>
      </trkpt>
      <trkpt lat="46.10638" lon="6.41681">
        <ele>908</ele>
        <time>2021-09-12T07:14:17Z</time>
      </trkpt>
      <trkpt lat="46.10638" lon="6.41673">
        <ele>908</ele>
        <time>2021-09-12T07:14:18Z</time>
      </trkpt>
      <trkpt lat="46.10635" lon="6.41666">
        <ele>907</ele>
        <time>2021-09-12T07:14:19Z</time>
      </trkpt>
      <trkpt lat="46.10618" lon="6.41634">
        <ele>906</ele>
        <time>2021-09-12T07:14:24Z</time>
      </trkpt>
      <trkpt lat="46.10617" lon="6.4162">
        <ele>905</ele>
        <time>2021-09-12T07:14:26Z</time>
      </trkpt>
      <trkpt lat="46.10633" lon="6.41552">
        <ele>900</ele>
        <time>2021-09-12T07:14:33Z</time>
      </trkpt>
      <trkpt lat="46.10658" lon="6.41486">
        <ele>896</ele>
        <time>2021-09-12T07:14:39Z</time>
      </trkpt>
      <trkpt lat="46.10674" lon="6.41468">
        <ele>894</ele>
        <time>2021-09-12T07:14:42Z</time>
      </trkpt>
      <trkpt lat="46.10682" lon="6.41463">
        <ele>893</ele>
        <time>2021-09-12T07:14:44Z</time>
      </trkpt>
      <trkpt lat="46.10686" lon="6.41463">
        <ele>893</ele>
        <time>2021-09-12T07:14:45Z</time>
      </trkpt>
      <trkpt lat="46.10689" lon="6.41465">
        <ele>893</ele>
        <time>2021-09-12T07:14:46Z</time>
      </trkpt>
      <trkpt lat="46.10691" lon="6.41482">
        <ele>892</ele>
        <time>2021-09-12T07:14:49Z</time>
      </trkpt>
      <trkpt lat="46.10697" lon="6.41552">
        <ele>886</ele>
        <time>2021-09-12T07:14:55Z</time>
      </trkpt>
      <trkpt lat="46.10706" lon="6.41593">
        <ele>887</ele>
        <time>2021-09-12T07:14:58Z</time>
      </trkpt>
      <trkpt lat="46.10783" lon="6.41795">
        <ele>892</ele>
        <time>2021-09-12T07:15:12Z</time>
      </trkpt>
      <trkpt lat="46.10794" lon="6.41792">
        <ele>892</ele>
        <time>2021-09-12T07:15:13Z</time>
      </trkpt>
      <trkpt lat="46.10803" lon="6.41788">
        <ele>892</ele>
        <time>2021-09-12T07:15:14Z</time>
      </trkpt>
      <trkpt lat="46.10811" lon="6.41779">
        <ele>893</ele>
        <time>2021-09-12T07:15:15Z</time>
      </trkpt>
      <trkpt lat="46.10825" lon="6.41753">
        <ele>894</ele>
        <time>2021-09-12T07:15:17Z</time>
      </trkpt>
      <trkpt lat="46.10836" lon="6.41721">
        <ele>894</ele>
        <time>2021-09-12T07:15:19Z</time>
      </trkpt>
      <trkpt lat="46.1085" lon="6.41636">
        <ele>897</ele>
        <time>2021-09-12T07:15:24Z</time>
      </trkpt>
      <trkpt lat="46.10856" lon="6.41625">
        <ele>897</ele>
        <time>2021-09-12T07:15:25Z</time>
      </trkpt>
      <trkpt lat="46.10863" lon="6.41615">
        <ele>898</ele>
        <time>2021-09-12T07:15:26Z</time>
      </trkpt>
      <trkpt lat="46.10871" lon="6.41609">
        <ele>898</ele>
        <time>2021-09-12T07:15:27Z</time>
      </trkpt>
      <trkpt lat="46.10881" lon="6.41605">
        <ele>898</ele>
        <time>2021-09-12T07:15:28Z</time>
      </trkpt>
      <trkpt lat="46.1089" lon="6.41605">
        <ele>899</ele>
        <time>2021-09-12T07:15:29Z</time>
      </trkpt>
      <trkpt lat="46.109" lon="6.41607">
        <ele>899</ele>
        <time>2021-09-12T07:15:30Z</time>
      </trkpt>
      <trkpt lat="46.10908" lon="6.41614">
        <ele>900</ele>
        <time>2021-09-12T07:15:31Z</time>
      </trkpt>
      <trkpt lat="46.10921" lon="6.41637">
        <ele>901</ele>
        <time>2021-09-12T07:15:33Z</time>
      </trkpt>
      <trkpt lat="46.1093" lon="6.41663">
        <ele>902</ele>
        <time>2021-09-12T07:15:35Z</time>
      </trkpt>
      <trkpt lat="46.10934" lon="6.41688">
        <ele>903</ele>
        <time>2021-09-12T07:15:37Z</time>
      </trkpt>
      <trkpt lat="46.10935" lon="6.41712">
        <ele>904</ele>
        <time>2021-09-12T07:15:39Z</time>
      </trkpt>
      <trkpt lat="46.10942" lon="6.4173">
        <ele>905</ele>
        <time>2021-09-12T07:15:41Z</time>
      </trkpt>
      <trkpt lat="46.11058" lon="6.41853">
        <ele>913</ele>
        <time>2021-09-12T07:15:56Z</time>
      </trkpt>
      <trkpt lat="46.1108" lon="6.41861">
        <ele>913</ele>
        <time>2021-09-12T07:15:58Z</time>
      </trkpt>
      <trkpt lat="46.11146" lon="6.41846">
        <ele>914</ele>
        <time>2021-09-12T07:16:03Z</time>
      </trkpt>
      <trkpt lat="46.1132" lon="6.41739">
        <ele>925</ele>
        <time>2021-09-12T07:16:17Z</time>
      </trkpt>
      <trkpt lat="46.1134" lon="6.41741">
        <ele>926</ele>
        <time>2021-09-12T07:16:19Z</time>
      </trkpt>
      <trkpt lat="46.11391" lon="6.4176">
        <ele>927</ele>
        <time>2021-09-12T07:16:24Z</time>
      </trkpt>
      <trkpt lat="46.11406" lon="6.41771">
        <ele>927</ele>
        <time>2021-09-12T07:16:26Z</time>
      </trkpt>
      <trkpt lat="46.11429" lon="6.41802">
        <ele>929</ele>
        <time>2021-09-12T07:16:29Z</time>
      </trkpt>
      <trkpt lat="46.11443" lon="6.41831">
        <ele>930</ele>
        <time>2021-09-12T07:16:31Z</time>
      </trkpt>
      <trkpt lat="46.1145" lon="6.41845">
        <ele>936</ele>
        <time>2021-09-12T07:16:32Z</time>
      </trkpt>
      <trkpt lat="46.11457" lon="6.41872">
        <ele>940</ele>
        <time>2021-09-12T07:16:34Z</time>
      </trkpt>
      <trkpt lat="46.11458" lon="6.41885">
        <ele>941</ele>
        <time>2021-09-12T07:16:35Z</time>
      </trkpt>
      <trkpt lat="46.11457" lon="6.41896">
        <ele>942</ele>
        <time>2021-09-12T07:16:36Z</time>
      </trkpt>
      <trkpt lat="46.11452" lon="6.41905">
        <ele>943</ele>
        <time>2021-09-12T07:16:37Z</time>
      </trkpt>
      <trkpt lat="46.114" lon="6.41964">
        <ele>947</ele>
        <time>2021-09-12T07:16:44Z</time>
      </trkpt>
      <trkpt lat="46.11396" lon="6.41977">
        <ele>948</ele>
        <time>2021-09-12T07:16:45Z</time>
      </trkpt>
      <trkpt lat="46.11393" lon="6.42008">
        <ele>948</ele>
        <time>2021-09-12T07:16:47Z</time>
      </trkpt>
      <trkpt lat="46.11394" lon="6.42053">
        <ele>951</ele>
        <time>2021-09-12T07:16:50Z</time>
      </trkpt>
      <trkpt lat="46.11386" lon="6.42082">
        <ele>951</ele>
        <time>2021-09-12T07:16:52Z</time>
      </trkpt>
      <trkpt lat="46.11371" lon="6.42116">
        <ele>951</ele>
        <time>2021-09-12T07:16:55Z</time>
      </trkpt>
      <trkpt lat="46.11368" lon="6.42129">
        <ele>951</ele>
        <time>2021-09-12T07:16:56Z</time>
      </trkpt>
      <trkpt lat="46.11367" lon="6.42142">
        <ele>951</ele>
        <time>2021-09-12T07:16:57Z</time>
      </trkpt>
      <trkpt lat="46.1137" lon="6.42155">
        <ele>950</ele>
        <time>2021-09-12T07:16:58Z</time>
      </trkpt>
      <trkpt lat="46.11382" lon="6.42181">
        <ele>951</ele>
        <time>2021-09-12T07:17:00Z</time>
      </trkpt>
      <trkpt lat="46.11424" lon="6.42242">
        <ele>951</ele>
        <time>2021-09-12T07:17:05Z</time>
      </trkpt>
      <trkpt lat="46.11435" lon="6.42268">
        <ele>950</ele>
        <time>2021-09-12T07:17:07Z</time>
      </trkpt>
      <trkpt lat="46.11456" lon="6.42295">
        <ele>949</ele>
        <time>2021-09-12T07:17:10Z</time>
      </trkpt>
      <trkpt lat="46.11468" lon="6.42301">
        <ele>949</ele>
        <time>2021-09-12T07:17:11Z</time>
      </trkpt>
      <trkpt lat="46.11505" lon="6.42319">
        <ele>949</ele>
        <time>2021-09-12T07:17:15Z</time>
      </trkpt>
      <trkpt lat="46.11575" lon="6.42374">
        <ele>944</ele>
        <time>2021-09-12T07:17:21Z</time>
      </trkpt>
      <trkpt lat="46.11612" lon="6.42413">
        <ele>943</ele>
        <time>2021-09-12T07:17:29Z</time>
      </trkpt>
      <trkpt lat="46.11597" lon="6.42392">
        <ele>927</ele>
        <time>2021-09-12T07:17:52Z</time>
      </trkpt>
      <trkpt lat="46.11588" lon="6.42386">
        <ele>926</ele>
        <time>2021-09-12T07:17:54Z</time>
      </trkpt>
      <trkpt lat="46.11594" lon="6.42381">
        <ele>919</ele>
        <time>2021-09-12T07:18:07Z</time>
      </trkpt>
      <trkpt lat="46.11606" lon="6.42386">
        <ele>926</ele>
        <time>2021-09-12T07:18:09Z</time>
      </trkpt>
      <trkpt lat="46.11615" lon="6.42392">
        <ele>929</ele>
        <time>2021-09-12T07:18:11Z</time>
      </trkpt>
      <trkpt lat="46.11626" lon="6.42399">
        <ele>931</ele>
        <time>2021-09-12T07:18:13Z</time>
      </trkpt>
      <trkpt lat="46.11688" lon="6.42433">
        <ele>935</ele>
        <time>2021-09-12T07:18:22Z</time>
      </trkpt>
      <trkpt lat="46.1171" lon="6.42438">
        <ele>935</ele>
        <time>2021-09-12T07:18:25Z</time>
      </trkpt>
      <trkpt lat="46.11731" lon="6.42434">
        <ele>935</ele>
        <time>2021-09-12T07:18:30Z</time>
      </trkpt>
      <trkpt lat="46.11738" lon="6.42437">
        <ele>934</ele>
        <time>2021-09-12T07:18:36Z</time>
      </trkpt>
      <trkpt lat="46.1174" lon="6.42442">
        <ele>932</ele>
        <time>2021-09-12T07:18:38Z</time>
      </trkpt>
      <trkpt lat="46.11741" lon="6.42447">
        <ele>932</ele>
        <time>2021-09-12T07:18:40Z</time>
      </trkpt>
      <trkpt lat="46.11746" lon="6.42452">
        <ele>931</ele>
        <time>2021-09-12T07:18:42Z</time>
      </trkpt>
      <trkpt lat="46.11768" lon="6.42458">
        <ele>923</ele>
        <time>2021-09-12T07:18:52Z</time>
      </trkpt>
      <trkpt lat="46.1177" lon="6.42465">
        <ele>933</ele>
        <time>2021-09-12T07:18:58Z</time>
      </trkpt>
      <trkpt lat="46.11774" lon="6.42468">
        <ele>935</ele>
        <time>2021-09-12T07:19:00Z</time>
      </trkpt>
      <trkpt lat="46.11781" lon="6.42468">
        <ele>934</ele>
        <time>2021-09-12T07:19:02Z</time>
      </trkpt>
      <trkpt lat="46.11784" lon="6.42466">
        <ele>933</ele>
        <time>2021-09-12T07:19:03Z</time>
      </trkpt>
      <trkpt lat="46.11801" lon="6.42445">
        <ele>929</ele>
        <time>2021-09-12T07:19:11Z</time>
      </trkpt>
      <trkpt lat="46.11809" lon="6.4244">
        <ele>927</ele>
        <time>2021-09-12T07:19:14Z</time>
      </trkpt>
      <trkpt lat="46.11827" lon="6.42435">
        <ele>925</ele>
        <time>2021-09-12T07:19:25Z</time>
      </trkpt>
      <trkpt lat="46.11827" lon="6.42431">
        <ele>924</ele>
        <time>2021-09-12T07:20:43Z</time>
      </trkpt>
      <trkpt lat="46.11824" lon="6.42429">
        <ele>924</ele>
        <time>2021-09-12T07:20:53Z</time>
      </trkpt>
      <trkpt lat="46.11821" lon="6.42429">
        <ele>924</ele>
        <time>2021-09-12T07:21:07Z</time>
      </trkpt>
      <trkpt lat="46.1181" lon="6.42427">
        <ele>923</ele>
        <time>2021-09-12T07:21:14Z</time>
      </trkpt>
      <trkpt lat="46.11806" lon="6.42425">
        <ele>921</ele>
        <time>2021-09-12T07:21:16Z</time>
      </trkpt>
      <trkpt lat="46.11805" lon="6.4242">
        <ele>920</ele>
        <time>2021-09-12T07:21:22Z</time>
      </trkpt>
      <trkpt lat="46.11807" lon="6.42417">
        <ele>911</ele>
        <time>2021-09-12T07:21:26Z</time>
      </trkpt>
      <trkpt lat="46.11814" lon="6.42409">
        <ele>907</ele>
        <time>2021-09-12T07:22:06Z</time>
      </trkpt>
      <trkpt lat="46.11824" lon="6.42402">
        <ele>914</ele>
        <time>2021-09-12T07:22:09Z</time>
      </trkpt>
      <trkpt lat="46.11833" lon="6.42395">
        <ele>914</ele>
        <time>2021-09-12T07:22:12Z</time>
      </trkpt>
      <trkpt lat="46.11842" lon="6.42393">
        <ele>913</ele>
        <time>2021-09-12T07:22:15Z</time>
      </trkpt>
      <trkpt lat="46.11849" lon="6.424">
        <ele>911</ele>
        <time>2021-09-12T07:22:21Z</time>
      </trkpt>
      <trkpt lat="46.11852" lon="6.42412">
        <ele>909</ele>
        <time>2021-09-12T07:22:25Z</time>
      </trkpt>
      <trkpt lat="46.11869" lon="6.4243">
        <ele>905</ele>
        <time>2021-09-12T07:22:30Z</time>
      </trkpt>
      <trkpt lat="46.1188" lon="6.42431">
        <ele>904</ele>
        <time>2021-09-12T07:22:33Z</time>
      </trkpt>
      <trkpt lat="46.11899" lon="6.42448">
        <ele>905</ele>
        <time>2021-09-12T07:22:40Z</time>
      </trkpt>
      <trkpt lat="46.11909" lon="6.42451">
        <ele>906</ele>
        <time>2021-09-12T07:22:43Z</time>
      </trkpt>
      <trkpt lat="46.11918" lon="6.42448">
        <ele>895</ele>
        <time>2021-09-12T07:23:47Z</time>
      </trkpt>
      <trkpt lat="46.11927" lon="6.42446">
        <ele>897</ele>
        <time>2021-09-12T07:24:05Z</time>
      </trkpt>
      <trkpt lat="46.11938" lon="6.42447">
        <ele>899</ele>
        <time>2021-09-12T07:24:15Z</time>
      </trkpt>
      <trkpt lat="46.11945" lon="6.42456">
        <ele>893</ele>
        <time>2021-09-12T07:24:20Z</time>
      </trkpt>
      <trkpt lat="46.11947" lon="6.42473">
        <ele>895</ele>
        <time>2021-09-12T07:24:26Z</time>
      </trkpt>
      <trkpt lat="46.11952" lon="6.42486">
        <ele>902</ele>
        <time>2021-09-12T07:24:30Z</time>
      </trkpt>
      <trkpt lat="46.11962" lon="6.42494">
        <ele>902</ele>
        <time>2021-09-12T07:24:35Z</time>
      </trkpt>
      <trkpt lat="46.11973" lon="6.42493">
        <ele>896</ele>
        <time>2021-09-12T07:24:39Z</time>
      </trkpt>
      <trkpt lat="46.11983" lon="6.42494">
        <ele>898</ele>
        <time>2021-09-12T07:24:42Z</time>
      </trkpt>
      <trkpt lat="46.11994" lon="6.42498">
        <ele>899</ele>
        <time>2021-09-12T07:24:45Z</time>
      </trkpt>
      <trkpt lat="46.12003" lon="6.42504">
        <ele>899</ele>
        <time>2021-09-12T07:24:48Z</time>
      </trkpt>
      <trkpt lat="46.1201" lon="6.42519">
        <ele>900</ele>
        <time>2021-09-12T07:24:52Z</time>
      </trkpt>
      <trkpt lat="46.12014" lon="6.42532">
        <ele>904</ele>
        <time>2021-09-12T07:24:55Z</time>
      </trkpt>
      <trkpt lat="46.12026" lon="6.42541">
        <ele>905</ele>
        <time>2021-09-12T07:24:59Z</time>
      </trkpt>
      <trkpt lat="46.12039" lon="6.4254">
        <ele>903</ele>
        <time>2021-09-12T07:25:02Z</time>
      </trkpt>
      <trkpt lat="46.12063" lon="6.4253">
        <ele>876</ele>
        <time>2021-09-12T07:25:05Z</time>
      </trkpt>
      <trkpt lat="46.12075" lon="6.42527">
        <ele>881</ele>
        <time>2021-09-12T07:25:08Z</time>
      </trkpt>
      <trkpt lat="46.12086" lon="6.42528">
        <ele>894</ele>
        <time>2021-09-12T07:25:10Z</time>
      </trkpt>
      <trkpt lat="46.12097" lon="6.42534">
        <ele>896</ele>
        <time>2021-09-12T07:25:13Z</time>
      </trkpt>
      <trkpt lat="46.12106" lon="6.4254">
        <ele>888</ele>
        <time>2021-09-12T07:25:17Z</time>
      </trkpt>
      <trkpt lat="46.1211" lon="6.42559">
        <ele>886</ele>
        <time>2021-09-12T07:25:20Z</time>
      </trkpt>
      <trkpt lat="46.12117" lon="6.42571">
        <ele>882</ele>
        <time>2021-09-12T07:25:23Z</time>
      </trkpt>
      <trkpt lat="46.1214" lon="6.42582">
        <ele>885</ele>
        <time>2021-09-12T07:25:28Z</time>
      </trkpt>
      <trkpt lat="46.12149" lon="6.42589">
        <ele>884</ele>
        <time>2021-09-12T07:25:30Z</time>
      </trkpt>
      <trkpt lat="46.12154" lon="6.42601">
        <ele>883</ele>
        <time>2021-09-12T07:25:32Z</time>
      </trkpt>
      <trkpt lat="46.12145" lon="6.42632">
        <ele>883</ele>
        <time>2021-09-12T07:25:38Z</time>
      </trkpt>
      <trkpt lat="46.1215" lon="6.42645">
        <ele>874</ele>
        <time>2021-09-12T07:25:44Z</time>
      </trkpt>
      <trkpt lat="46.1216" lon="6.42649">
        <ele>884</ele>
        <time>2021-09-12T07:25:48Z</time>
      </trkpt>
      <trkpt lat="46.1217" lon="6.42652">
        <ele>863</ele>
        <time>2021-09-12T07:25:55Z</time>
      </trkpt>
      <trkpt lat="46.12178" lon="6.42664">
        <ele>845</ele>
        <time>2021-09-12T07:25:59Z</time>
      </trkpt>
      <trkpt lat="46.12188" lon="6.42662">
        <ele>833</ele>
        <time>2021-09-12T07:26:03Z</time>
      </trkpt>
      <trkpt lat="46.12195" lon="6.42672">
        <ele>828</ele>
        <time>2021-09-12T07:26:21Z</time>
      </trkpt>
      <trkpt lat="46.12202" lon="6.42677">
        <ele>825</ele>
        <time>2021-09-12T07:26:27Z</time>
      </trkpt>
      <trkpt lat="46.12205" lon="6.42681">
        <ele>823</ele>
        <time>2021-09-12T07:26:31Z</time>
      </trkpt>
      <trkpt lat="46.12207" lon="6.42678">
        <ele>834</ele>
        <time>2021-09-12T07:27:24Z</time>
      </trkpt>
      <trkpt lat="46.12204" lon="6.42674">
        <ele>834</ele>
        <time>2021-09-12T07:27:27Z</time>
      </trkpt>
      <trkpt lat="46.12203" lon="6.42668">
        <ele>834</ele>
        <time>2021-09-12T07:27:30Z</time>
      </trkpt>
      <trkpt lat="46.12205" lon="6.42663">
        <ele>860</ele>
        <time>2021-09-12T07:27:35Z</time>
      </trkpt>
      <trkpt lat="46.12208" lon="6.42663">
        <ele>833</ele>
        <time>2021-09-12T07:27:57Z</time>
      </trkpt>
      <trkpt lat="46.12218" lon="6.42668">
        <ele>812</ele>
        <time>2021-09-12T07:29:39Z</time>
      </trkpt>
      <trkpt lat="46.12226" lon="6.42673">
        <ele>809</ele>
        <time>2021-09-12T07:29:43Z</time>
      </trkpt>
      <trkpt lat="46.1224" lon="6.42691">
        <ele>806</ele>
        <time>2021-09-12T07:29:46Z</time>
      </trkpt>
      <trkpt lat="46.12249" lon="6.42715">
        <ele>805</ele>
        <time>2021-09-12T07:29:50Z</time>
      </trkpt>
      <trkpt lat="46.12258" lon="6.42722">
        <ele>804</ele>
        <time>2021-09-12T07:29:59Z</time>
      </trkpt>
      <trkpt lat="46.12268" lon="6.42728">
        <ele>805</ele>
        <time>2021-09-12T07:30:02Z</time>
      </trkpt>
      <trkpt lat="46.12281" lon="6.42736">
        <ele>803</ele>
        <time>2021-09-12T07:30:05Z</time>
      </trkpt>
      <trkpt lat="46.1232" lon="6.42763">
        <ele>798</ele>
        <time>2021-09-12T07:30:12Z</time>
      </trkpt>
      <trkpt lat="46.12326" lon="6.42773">
        <ele>798</ele>
        <time>2021-09-12T07:30:14Z</time>
      </trkpt>
      <trkpt lat="46.12332" lon="6.42787">
        <ele>795</ele>
        <time>2021-09-12T07:30:16Z</time>
      </trkpt>
      <trkpt lat="46.12335" lon="6.42799">
        <ele>790</ele>
        <time>2021-09-12T07:30:19Z</time>
      </trkpt>
      <trkpt lat="46.12338" lon="6.42814">
        <ele>800</ele>
        <time>2021-09-12T07:30:22Z</time>
      </trkpt>
      <trkpt lat="46.12357" lon="6.42825">
        <ele>837</ele>
        <time>2021-09-12T07:30:30Z</time>
      </trkpt>
      <trkpt lat="46.12373" lon="6.42847">
        <ele>853</ele>
        <time>2021-09-12T07:30:36Z</time>
      </trkpt>
      <trkpt lat="46.12381" lon="6.42862">
        <ele>851</ele>
        <time>2021-09-12T07:30:40Z</time>
      </trkpt>
      <trkpt lat="46.12389" lon="6.42873">
        <ele>844</ele>
        <time>2021-09-12T07:30:43Z</time>
      </trkpt>
      <trkpt lat="46.12398" lon="6.42889">
        <ele>845</ele>
        <time>2021-09-12T07:30:46Z</time>
      </trkpt>
      <trkpt lat="46.12413" lon="6.42904">
        <ele>860</ele>
        <time>2021-09-12T07:30:49Z</time>
      </trkpt>
      <trkpt lat="46.12423" lon="6.42915">
        <ele>791</ele>
        <time>2021-09-12T07:30:51Z</time>
      </trkpt>
      <trkpt lat="46.12435" lon="6.42921">
        <ele>826</ele>
        <time>2021-09-12T07:30:53Z</time>
      </trkpt>
      <trkpt lat="46.12452" lon="6.42938">
        <ele>856</ele>
        <time>2021-09-12T07:30:59Z</time>
      </trkpt>
      <trkpt lat="46.12459" lon="6.4293">
        <ele>837</ele>
        <time>2021-09-12T07:31:21Z</time>
      </trkpt>
      <trkpt lat="46.12468" lon="6.42936">
        <ele>827</ele>
        <time>2021-09-12T07:31:26Z</time>
      </trkpt>
      <trkpt lat="46.1247" lon="6.42951">
        <ele>805</ele>
        <time>2021-09-12T07:31:41Z</time>
      </trkpt>
      <trkpt lat="46.12472" lon="6.42957">
        <ele>774</ele>
        <time>2021-09-12T07:31:43Z</time>
      </trkpt>
      <trkpt lat="46.12474" lon="6.42966">
        <ele>781</ele>
        <time>2021-09-12T07:31:45Z</time>
      </trkpt>
      <trkpt lat="46.12472" lon="6.42976">
        <ele>786</ele>
        <time>2021-09-12T07:31:46Z</time>
      </trkpt>
      <trkpt lat="46.1251" lon="6.43037">
        <ele>767</ele>
        <time>2021-09-12T07:31:47Z</time>
      </trkpt>
      <trkpt lat="46.12514" lon="6.43045">
        <ele>759</ele>
        <time>2021-09-12T07:31:48Z</time>
      </trkpt>
      <trkpt lat="46.12525" lon="6.43069">
        <ele>780</ele>
        <time>2021-09-12T07:31:55Z</time>
      </trkpt>
      <trkpt lat="46.12512" lon="6.43037">
        <ele>797</ele>
        <time>2021-09-12T07:32:19Z</time>
      </trkpt>
      <trkpt lat="46.12495" lon="6.43014">
        <ele>809</ele>
        <time>2021-09-12T07:32:25Z</time>
      </trkpt>
      <trkpt lat="46.12495" lon="6.4301">
        <ele>808</ele>
        <time>2021-09-12T07:32:27Z</time>
      </trkpt>
      <trkpt lat="46.12499" lon="6.4301">
        <ele>798</ele>
        <time>2021-09-12T07:32:34Z</time>
      </trkpt>
      <trkpt lat="46.12525" lon="6.43026">
        <ele>775</ele>
        <time>2021-09-12T07:32:43Z</time>
      </trkpt>
      <trkpt lat="46.12549" lon="6.43054">
        <ele>778</ele>
        <time>2021-09-12T07:32:53Z</time>
      </trkpt>
      <trkpt lat="46.12558" lon="6.43066">
        <ele>783</ele>
        <time>2021-09-12T07:32:56Z</time>
      </trkpt>
      <trkpt lat="46.12568" lon="6.43067">
        <ele>783</ele>
        <time>2021-09-12T07:32:59Z</time>
      </trkpt>
      <trkpt lat="46.12597" lon="6.43078">
        <ele>780</ele>
        <time>2021-09-12T07:33:06Z</time>
      </trkpt>
      <trkpt lat="46.126" lon="6.43084">
        <ele>778</ele>
        <time>2021-09-12T07:33:08Z</time>
      </trkpt>
      <trkpt lat="46.12602" lon="6.43089">
        <ele>776</ele>
        <time>2021-09-12T07:33:09Z</time>
      </trkpt>
      <trkpt lat="46.1261" lon="6.43097">
        <ele>784</ele>
        <time>2021-09-12T07:33:13Z</time>
      </trkpt>
      <trkpt lat="46.12614" lon="6.43096">
        <ele>787</ele>
        <time>2021-09-12T07:33:14Z</time>
      </trkpt>
      <trkpt lat="46.12623" lon="6.43098">
        <ele>785</ele>
        <time>2021-09-12T07:33:16Z</time>
      </trkpt>
      <trkpt lat="46.12637" lon="6.43108">
        <ele>782</ele>
        <time>2021-09-12T07:33:20Z</time>
      </trkpt>
      <trkpt lat="46.12646" lon="6.43127">
        <ele>772</ele>
        <time>2021-09-12T07:33:25Z</time>
      </trkpt>
      <trkpt lat="46.12652" lon="6.4313">
        <ele>766</ele>
        <time>2021-09-12T07:33:27Z</time>
      </trkpt>
      <trkpt lat="46.12661" lon="6.43133">
        <ele>766</ele>
        <time>2021-09-12T07:33:30Z</time>
      </trkpt>
      <trkpt lat="46.12666" lon="6.43139">
        <ele>766</ele>
        <time>2021-09-12T07:33:32Z</time>
      </trkpt>
      <trkpt lat="46.12669" lon="6.43143">
        <ele>766</ele>
        <time>2021-09-12T07:33:33Z</time>
      </trkpt>
      <trkpt lat="46.1267" lon="6.43147">
        <ele>768</ele>
        <time>2021-09-12T07:33:34Z</time>
      </trkpt>
      <trkpt lat="46.12671" lon="6.43173">
        <ele>779</ele>
        <time>2021-09-12T07:33:39Z</time>
      </trkpt>
      <trkpt lat="46.12675" lon="6.43181">
        <ele>778</ele>
        <time>2021-09-12T07:33:41Z</time>
      </trkpt>
      <trkpt lat="46.1268" lon="6.43184">
        <ele>774</ele>
        <time>2021-09-12T07:33:43Z</time>
      </trkpt>
      <trkpt lat="46.12686" lon="6.43183">
        <ele>777</ele>
        <time>2021-09-12T07:33:45Z</time>
      </trkpt>
      <trkpt lat="46.12697" lon="6.43175">
        <ele>787</ele>
        <time>2021-09-12T07:33:49Z</time>
      </trkpt>
      <trkpt lat="46.12707" lon="6.43175">
        <ele>814</ele>
        <time>2021-09-12T07:33:58Z</time>
      </trkpt>
      <trkpt lat="46.12711" lon="6.43174">
        <ele>818</ele>
        <time>2021-09-12T07:34:00Z</time>
      </trkpt>
      <trkpt lat="46.12714" lon="6.4317">
        <ele>817</ele>
        <time>2021-09-12T07:34:02Z</time>
      </trkpt>
      <trkpt lat="46.12718" lon="6.43168">
        <ele>809</ele>
        <time>2021-09-12T07:34:04Z</time>
      </trkpt>
      <trkpt lat="46.12721" lon="6.43169">
        <ele>807</ele>
        <time>2021-09-12T07:34:05Z</time>
      </trkpt>
      <trkpt lat="46.12725" lon="6.43172">
        <ele>788</ele>
        <time>2021-09-12T07:34:07Z</time>
      </trkpt>
      <trkpt lat="46.12729" lon="6.43183">
        <ele>781</ele>
        <time>2021-09-12T07:34:12Z</time>
      </trkpt>
      <trkpt lat="46.12738" lon="6.43186">
        <ele>777</ele>
        <time>2021-09-12T07:34:16Z</time>
      </trkpt>
      <trkpt lat="46.12749" lon="6.4319">
        <ele>779</ele>
        <time>2021-09-12T07:34:20Z</time>
      </trkpt>
      <trkpt lat="46.1275" lon="6.43203">
        <ele>778</ele>
        <time>2021-09-12T07:34:24Z</time>
      </trkpt>
      <trkpt lat="46.1276" lon="6.43207">
        <ele>777</ele>
        <time>2021-09-12T07:34:29Z</time>
      </trkpt>
      <trkpt lat="46.12766" lon="6.43221">
        <ele>780</ele>
        <time>2021-09-12T07:34:35Z</time>
      </trkpt>
      <trkpt lat="46.12773" lon="6.43231">
        <ele>790</ele>
        <time>2021-09-12T07:34:38Z</time>
      </trkpt>
      <trkpt lat="46.12802" lon="6.43233">
        <ele>784</ele>
        <time>2021-09-12T07:34:46Z</time>
      </trkpt>
      <trkpt lat="46.12813" lon="6.43235">
        <ele>789</ele>
        <time>2021-09-12T07:34:51Z</time>
      </trkpt>
      <trkpt lat="46.12821" lon="6.43241">
        <ele>789</ele>
        <time>2021-09-12T07:34:55Z</time>
      </trkpt>
      <trkpt lat="46.12847" lon="6.43247">
        <ele>810</ele>
        <time>2021-09-12T07:35:01Z</time>
      </trkpt>
      <trkpt lat="46.1287" lon="6.43247">
        <ele>829</ele>
        <time>2021-09-12T07:35:09Z</time>
      </trkpt>
      <trkpt lat="46.1288" lon="6.43251">
        <ele>828</ele>
        <time>2021-09-12T07:35:17Z</time>
      </trkpt>
      <trkpt lat="46.12888" lon="6.43261">
        <ele>832</ele>
        <time>2021-09-12T07:35:26Z</time>
      </trkpt>
      <trkpt lat="46.12906" lon="6.43275">
        <ele>811</ele>
        <time>2021-09-12T07:35:33Z</time>
      </trkpt>
      <trkpt lat="46.12939" lon="6.43289">
        <ele>839</ele>
        <time>2021-09-12T07:35:39Z</time>
      </trkpt>
      <trkpt lat="46.12973" lon="6.43311">
        <ele>816</ele>
        <time>2021-09-12T07:35:45Z</time>
      </trkpt>
      <trkpt lat="46.12988" lon="6.43314">
        <ele>819</ele>
        <time>2021-09-12T07:35:47Z</time>
      </trkpt>
      <trkpt lat="46.13012" lon="6.43315">
        <ele>836</ele>
        <time>2021-09-12T07:35:51Z</time>
      </trkpt>
      <trkpt lat="46.13029" lon="6.43319">
        <ele>824</ele>
        <time>2021-09-12T07:35:53Z</time>
      </trkpt>
      <trkpt lat="46.13037" lon="6.43324">
        <ele>806</ele>
        <time>2021-09-12T07:36:09Z</time>
      </trkpt>
      <trkpt lat="46.13046" lon="6.43317">
        <ele>787</ele>
        <time>2021-09-12T07:36:16Z</time>
      </trkpt>
      <trkpt lat="46.13109" lon="6.43308">
        <ele>744</ele>
        <time>2021-09-12T07:36:32Z</time>
      </trkpt>
      <trkpt lat="46.13127" lon="6.43309">
        <ele>726</ele>
        <time>2021-09-12T07:36:36Z</time>
      </trkpt>
      <trkpt lat="46.13135" lon="6.43304">
        <ele>718</ele>
        <time>2021-09-12T07:36:38Z</time>
      </trkpt>
      <trkpt lat="46.13139" lon="6.43302">
        <ele>728</ele>
        <time>2021-09-12T07:36:39Z</time>
      </trkpt>
      <trkpt lat="46.13141" lon="6.43295">
        <ele>688</ele>
        <time>2021-09-12T07:36:40Z</time>
      </trkpt>
      <trkpt lat="46.13144" lon="6.43291">
        <ele>677</ele>
        <time>2021-09-12T07:36:41Z</time>
      </trkpt>
      <trkpt lat="46.13154" lon="6.43266">
        <ele>654</ele>
        <time>2021-09-12T07:36:48Z</time>
      </trkpt>
      <trkpt lat="46.13157" lon="6.43262">
        <ele>653</ele>
        <time>2021-09-12T07:36:50Z</time>
      </trkpt>
      <trkpt lat="46.13161" lon="6.43261">
        <ele>652</ele>
        <time>2021-09-12T07:36:52Z</time>
      </trkpt>
      <trkpt lat="46.13164" lon="6.43264">
        <ele>651</ele>
        <time>2021-09-12T07:36:55Z</time>
      </trkpt>
      <trkpt lat="46.13162" lon="6.43267">
        <ele>651</ele>
        <time>2021-09-12T07:37:02Z</time>
      </trkpt>
      <trkpt lat="46.13159" lon="6.43266">
        <ele>651</ele>
        <time>2021-09-12T07:38:44Z</time>
      </trkpt>
      <trkpt lat="46.13159" lon="6.43272">
        <ele>649</ele>
        <time>2021-09-12T07:39:22Z</time>
      </trkpt>
      <trkpt lat="46.13166" lon="6.43302">
        <ele>648</ele>
        <time>2021-09-12T07:39:26Z</time>
      </trkpt>
      <trkpt lat="46.13201" lon="6.43365">
        <ele>642</ele>
        <time>2021-09-12T07:39:33Z</time>
      </trkpt>
      <trkpt lat="46.13213" lon="6.4338">
        <ele>642</ele>
        <time>2021-09-12T07:39:35Z</time>
      </trkpt>
      <trkpt lat="46.13229" lon="6.43389">
        <ele>642</ele>
        <time>2021-09-12T07:39:37Z</time>
      </trkpt>
      <trkpt lat="46.13289" lon="6.43405">
        <ele>640</ele>
        <time>2021-09-12T07:39:45Z</time>
      </trkpt>
      <trkpt lat="46.13299" lon="6.43405">
        <ele>641</ele>
        <time>2021-09-12T07:39:47Z</time>
      </trkpt>
      <trkpt lat="46.13302" lon="6.43408">
        <ele>641</ele>
        <time>2021-09-12T07:39:48Z</time>
      </trkpt>
      <trkpt lat="46.13303" lon="6.43414">
        <ele>642</ele>
        <time>2021-09-12T07:39:49Z</time>
      </trkpt>
      <trkpt lat="46.13297" lon="6.4345">
        <ele>642</ele>
        <time>2021-09-12T07:39:54Z</time>
      </trkpt>
      <trkpt lat="46.13281" lon="6.43518">
        <ele>642</ele>
        <time>2021-09-12T07:40:04Z</time>
      </trkpt>
      <trkpt lat="46.13284" lon="6.43535">
        <ele>640</ele>
        <time>2021-09-12T07:40:17Z</time>
      </trkpt>
      <trkpt lat="46.13291" lon="6.43569">
        <ele>638</ele>
        <time>2021-09-12T07:40:22Z</time>
      </trkpt>
      <trkpt lat="46.13302" lon="6.43602">
        <ele>639</ele>
        <time>2021-09-12T07:40:26Z</time>
      </trkpt>
      <trkpt lat="46.13303" lon="6.43612">
        <ele>639</ele>
        <time>2021-09-12T07:40:27Z</time>
      </trkpt>
      <trkpt lat="46.13299" lon="6.43687">
        <ele>631</ele>
        <time>2021-09-12T07:40:34Z</time>
      </trkpt>
      <trkpt lat="46.13294" lon="6.43723">
        <ele>631</ele>
        <time>2021-09-12T07:40:38Z</time>
      </trkpt>
      <trkpt lat="46.13288" lon="6.4373">
        <ele>631</ele>
        <time>2021-09-12T07:40:39Z</time>
      </trkpt>
      <trkpt lat="46.13256" lon="6.43762">
        <ele>629</ele>
        <time>2021-09-12T07:40:44Z</time>
      </trkpt>
      <trkpt lat="46.13246" lon="6.43782">
        <ele>629</ele>
        <time>2021-09-12T07:40:46Z</time>
      </trkpt>
      <trkpt lat="46.13241" lon="6.43808">
        <ele>629</ele>
        <time>2021-09-12T07:40:48Z</time>
      </trkpt>
      <trkpt lat="46.1323" lon="6.43941">
        <ele>630</ele>
        <time>2021-09-12T07:40:58Z</time>
      </trkpt>
      <trkpt lat="46.13234" lon="6.44014">
        <ele>626</ele>
        <time>2021-09-12T07:41:03Z</time>
      </trkpt>
      <trkpt lat="46.13223" lon="6.44127">
        <ele>624</ele>
        <time>2021-09-12T07:41:12Z</time>
      </trkpt>
      <trkpt lat="46.13202" lon="6.442">
        <ele>619</ele>
        <time>2021-09-12T07:41:17Z</time>
      </trkpt>
      <trkpt lat="46.13204" lon="6.4429">
        <ele>620</ele>
        <time>2021-09-12T07:41:23Z</time>
      </trkpt>
      <trkpt lat="46.13168" lon="6.44462">
        <ele>619</ele>
        <time>2021-09-12T07:41:35Z</time>
      </trkpt>
      <trkpt lat="46.13164" lon="6.44523">
        <ele>691</ele>
        <time>2021-09-12T07:41:40Z</time>
      </trkpt>
      <trkpt lat="46.1316" lon="6.44552">
        <ele>692</ele>
        <time>2021-09-12T07:41:44Z</time>
      </trkpt>
      <trkpt lat="46.1315" lon="6.44606">
        <ele>687</ele>
        <time>2021-09-12T07:41:50Z</time>
      </trkpt>
      <trkpt lat="46.13107" lon="6.44727">
        <ele>813</ele>
        <time>2021-09-12T07:42:03Z</time>
      </trkpt>
      <trkpt lat="46.13097" lon="6.4474">
        <ele>823</ele>
        <time>2021-09-12T07:42:06Z</time>
      </trkpt>
      <trkpt lat="46.1309" lon="6.44747">
        <ele>795</ele>
        <time>2021-09-12T07:42:26Z</time>
      </trkpt>
      <trkpt lat="46.13083" lon="6.44764">
        <ele>809</ele>
        <time>2021-09-12T07:42:29Z</time>
      </trkpt>
      <trkpt lat="46.13075" lon="6.44776">
        <ele>823</ele>
        <time>2021-09-12T07:42:31Z</time>
      </trkpt>
      <trkpt lat="46.13073" lon="6.44791">
        <ele>817</ele>
        <time>2021-09-12T07:42:34Z</time>
      </trkpt>
      <trkpt lat="46.13075" lon="6.44804">
        <ele>785</ele>
        <time>2021-09-12T07:42:36Z</time>
      </trkpt>
      <trkpt lat="46.13079" lon="6.44817">
        <ele>779</ele>
        <time>2021-09-12T07:42:38Z</time>
      </trkpt>
      <trkpt lat="46.13082" lon="6.44831">
        <ele>794</ele>
        <time>2021-09-12T07:42:40Z</time>
      </trkpt>
      <trkpt lat="46.13084" lon="6.44853">
        <ele>794</ele>
        <time>2021-09-12T07:42:42Z</time>
      </trkpt>
      <trkpt lat="46.13081" lon="6.44869">
        <ele>789</ele>
        <time>2021-09-12T07:42:44Z</time>
      </trkpt>
      <trkpt lat="46.13065" lon="6.44897">
        <ele>805</ele>
        <time>2021-09-12T07:42:48Z</time>
      </trkpt>
      <trkpt lat="46.13062" lon="6.44943">
        <ele>772</ele>
        <time>2021-09-12T07:42:54Z</time>
      </trkpt>
      <trkpt lat="46.13058" lon="6.44963">
        <ele>784</ele>
        <time>2021-09-12T07:42:56Z</time>
      </trkpt>
      <trkpt lat="46.13054" lon="6.44981">
        <ele>787</ele>
        <time>2021-09-12T07:42:58Z</time>
      </trkpt>
      <trkpt lat="46.13051" lon="6.45">
        <ele>792</ele>
        <time>2021-09-12T07:43:00Z</time>
      </trkpt>
      <trkpt lat="46.13051" lon="6.45017">
        <ele>772</ele>
        <time>2021-09-12T07:43:02Z</time>
      </trkpt>
      <trkpt lat="46.13055" lon="6.45079">
        <ele>753</ele>
        <time>2021-09-12T07:43:08Z</time>
      </trkpt>
      <trkpt lat="46.13051" lon="6.45095">
        <ele>772</ele>
        <time>2021-09-12T07:43:10Z</time>
      </trkpt>
      <trkpt lat="46.13052" lon="6.45091">
        <ele>735</ele>
        <time>2021-09-12T07:43:30Z</time>
      </trkpt>
      <trkpt lat="46.13062" lon="6.45083">
        <ele>750</ele>
        <time>2021-09-12T07:43:34Z</time>
      </trkpt>
      <trkpt lat="46.13092" lon="6.451">
        <ele>798</ele>
        <time>2021-09-12T07:43:41Z</time>
      </trkpt>
      <trkpt lat="46.13101" lon="6.451">
        <ele>805</ele>
        <time>2021-09-12T07:43:43Z</time>
      </trkpt>
      <trkpt lat="46.13112" lon="6.45107">
        <ele>804</ele>
        <time>2021-09-12T07:43:46Z</time>
      </trkpt>
      <trkpt lat="46.13149" lon="6.45113">
        <ele>788</ele>
        <time>2021-09-12T07:43:54Z</time>
      </trkpt>
      <trkpt lat="46.13161" lon="6.45112">
        <ele>777</ele>
        <time>2021-09-12T07:43:57Z</time>
      </trkpt>
      <trkpt lat="46.13212" lon="6.45139">
        <ele>739</ele>
        <time>2021-09-12T07:44:05Z</time>
      </trkpt>
      <trkpt lat="46.13266" lon="6.45182">
        <ele>692</ele>
        <time>2021-09-12T07:44:14Z</time>
      </trkpt>
      <trkpt lat="46.13331" lon="6.45251">
        <ele>680</ele>
        <time>2021-09-12T07:44:24Z</time>
      </trkpt>
      <trkpt lat="46.13416" lon="6.45318">
        <ele>668</ele>
        <time>2021-09-12T07:44:39Z</time>
      </trkpt>
      <trkpt lat="46.13446" lon="6.45324">
        <ele>665</ele>
        <time>2021-09-12T07:44:45Z</time>
      </trkpt>
      <trkpt lat="46.13457" lon="6.45326">
        <ele>664</ele>
        <time>2021-09-12T07:44:48Z</time>
      </trkpt>
      <trkpt lat="46.13466" lon="6.45328">
        <ele>697</ele>
        <time>2021-09-12T07:44:59Z</time>
      </trkpt>
      <trkpt lat="46.13499" lon="6.45337">
        <ele>662</ele>
        <time>2021-09-12T07:45:05Z</time>
      </trkpt>
      <trkpt lat="46.13515" lon="6.45343">
        <ele>693</ele>
        <time>2021-09-12T07:45:07Z</time>
      </trkpt>
      <trkpt lat="46.13661" lon="6.45403">
        <ele>649</ele>
        <time>2021-09-12T07:45:29Z</time>
      </trkpt>
      <trkpt lat="46.1368" lon="6.45399">
        <ele>649</ele>
        <time>2021-09-12T07:45:32Z</time>
      </trkpt>
      <trkpt lat="46.13695" lon="6.45393">
        <ele>649</ele>
        <time>2021-09-12T07:45:34Z</time>
      </trkpt>
      <trkpt lat="46.13714" lon="6.4538">
        <ele>690</ele>
        <time>2021-09-12T07:45:37Z</time>
      </trkpt>
      <trkpt lat="46.13723" lon="6.45373">
        <ele>700</ele>
        <time>2021-09-12T07:45:39Z</time>
      </trkpt>
      <trkpt lat="46.13726" lon="6.45372">
        <ele>703</ele>
        <time>2021-09-12T07:45:40Z</time>
      </trkpt>
      <trkpt lat="46.1373" lon="6.45373">
        <ele>706</ele>
        <time>2021-09-12T07:45:42Z</time>
      </trkpt>
      <trkpt lat="46.13732" lon="6.45378">
        <ele>701</ele>
        <time>2021-09-12T07:45:44Z</time>
      </trkpt>
      <trkpt lat="46.13736" lon="6.45377">
        <ele>663</ele>
        <time>2021-09-12T07:45:46Z</time>
      </trkpt>
      <trkpt lat="46.13739" lon="6.45369">
        <ele>653</ele>
        <time>2021-09-12T07:45:48Z</time>
      </trkpt>
      <trkpt lat="46.13741" lon="6.453">
        <ele>600</ele>
        <time>2021-09-12T07:45:56Z</time>
      </trkpt>
      <trkpt lat="46.13742" lon="6.45295">
        <ele>599</ele>
        <time>2021-09-12T07:45:57Z</time>
      </trkpt>
      <trkpt lat="46.13744" lon="6.45291">
        <ele>599</ele>
        <time>2021-09-12T07:45:58Z</time>
      </trkpt>
      <trkpt lat="46.1375" lon="6.45287">
        <ele>599</ele>
        <time>2021-09-12T07:46:01Z</time>
      </trkpt>
      <trkpt lat="46.13755" lon="6.45285">
        <ele>593</ele>
        <time>2021-09-12T07:46:30Z</time>
      </trkpt>
      <trkpt lat="46.13759" lon="6.45286">
        <ele>593</ele>
        <time>2021-09-12T07:46:31Z</time>
      </trkpt>
      <trkpt lat="46.13764" lon="6.4529">
        <ele>592</ele>
        <time>2021-09-12T07:46:32Z</time>
      </trkpt>
      <trkpt lat="46.1377" lon="6.45305">
        <ele>592</ele>
        <time>2021-09-12T07:46:34Z</time>
      </trkpt>
      <trkpt lat="46.13787" lon="6.45355">
        <ele>651</ele>
        <time>2021-09-12T07:46:39Z</time>
      </trkpt>
      <trkpt lat="46.13839" lon="6.45522">
        <ele>648</ele>
        <time>2021-09-12T07:46:54Z</time>
      </trkpt>
      <trkpt lat="46.13843" lon="6.45547">
        <ele>604</ele>
        <time>2021-09-12T07:46:56Z</time>
      </trkpt>
      <trkpt lat="46.13845" lon="6.45559">
        <ele>635</ele>
        <time>2021-09-12T07:46:57Z</time>
      </trkpt>
      <trkpt lat="46.13848" lon="6.45584">
        <ele>602</ele>
        <time>2021-09-12T07:46:59Z</time>
      </trkpt>
      <trkpt lat="46.13848" lon="6.45678">
        <ele>649</ele>
        <time>2021-09-12T07:47:07Z</time>
      </trkpt>
      <trkpt lat="46.13843" lon="6.45744">
        <ele>686</ele>
        <time>2021-09-12T07:47:14Z</time>
      </trkpt>
      <trkpt lat="46.13841" lon="6.45754">
        <ele>691</ele>
        <time>2021-09-12T07:47:15Z</time>
      </trkpt>
      <trkpt lat="46.13823" lon="6.45819">
        <ele>694</ele>
        <time>2021-09-12T07:47:21Z</time>
      </trkpt>
      <trkpt lat="46.13808" lon="6.45921">
        <ele>593</ele>
        <time>2021-09-12T07:47:31Z</time>
      </trkpt>
      <trkpt lat="46.13808" lon="6.45936">
        <ele>593</ele>
        <time>2021-09-12T07:47:33Z</time>
      </trkpt>
      <trkpt lat="46.13809" lon="6.45942">
        <ele>592</ele>
        <time>2021-09-12T07:47:34Z</time>
      </trkpt>
      <trkpt lat="46.13811" lon="6.45946">
        <ele>592</ele>
        <time>2021-09-12T07:47:35Z</time>
      </trkpt>
      <trkpt lat="46.13814" lon="6.45947">
        <ele>625</ele>
        <time>2021-09-12T07:47:36Z</time>
      </trkpt>
      <trkpt lat="46.13827" lon="6.45947">
        <ele>672</ele>
        <time>2021-09-12T07:47:39Z</time>
      </trkpt>
      <trkpt lat="46.13831" lon="6.45947">
        <ele>664</ele>
        <time>2021-09-12T07:47:40Z</time>
      </trkpt>
      <trkpt lat="46.13837" lon="6.45949">
        <ele>655</ele>
        <time>2021-09-12T07:47:42Z</time>
      </trkpt>
      <trkpt lat="46.13839" lon="6.45953">
        <ele>653</ele>
        <time>2021-09-12T07:47:43Z</time>
      </trkpt>
      <trkpt lat="46.13852" lon="6.46097">
        <ele>604</ele>
        <time>2021-09-12T07:48:01Z</time>
      </trkpt>
      <trkpt lat="46.13861" lon="6.46127">
        <ele>610</ele>
        <time>2021-09-12T07:48:04Z</time>
      </trkpt>
      <trkpt lat="46.13908" lon="6.46222">
        <ele>612</ele>
        <time>2021-09-12T07:48:13Z</time>
      </trkpt>
      <trkpt lat="46.13934" lon="6.4625">
        <ele>614</ele>
        <time>2021-09-12T07:48:17Z</time>
      </trkpt>
      <trkpt lat="46.13972" lon="6.46288">
        <ele>618</ele>
        <time>2021-09-12T07:48:23Z</time>
      </trkpt>
      <trkpt lat="46.13981" lon="6.463">
        <ele>619</ele>
        <time>2021-09-12T07:48:25Z</time>
      </trkpt>
      <trkpt lat="46.13987" lon="6.46316">
        <ele>620</ele>
        <time>2021-09-12T07:48:27Z</time>
      </trkpt>
      <trkpt lat="46.14002" lon="6.46382">
        <ele>622</ele>
        <time>2021-09-12T07:48:35Z</time>
      </trkpt>
      <trkpt lat="46.14111" lon="6.46647">
        <ele>693</ele>
        <time>2021-09-12T07:49:01Z</time>
      </trkpt>
      <trkpt lat="46.14117" lon="6.46653">
        <ele>694</ele>
        <time>2021-09-12T07:49:02Z</time>
      </trkpt>
      <trkpt lat="46.14245" lon="6.46742">
        <ele>691</ele>
        <time>2021-09-12T07:49:16Z</time>
      </trkpt>
      <trkpt lat="46.14323" lon="6.46829">
        <ele>688</ele>
        <time>2021-09-12T07:49:23Z</time>
      </trkpt>
      <trkpt lat="46.14346" lon="6.46842">
        <ele>687</ele>
        <time>2021-09-12T07:49:25Z</time>
      </trkpt>
      <trkpt lat="46.14431" lon="6.46846">
        <ele>688</ele>
        <time>2021-09-12T07:49:32Z</time>
      </trkpt>
      <trkpt lat="46.14451" lon="6.46846">
        <ele>690</ele>
        <time>2021-09-12T07:49:34Z</time>
      </trkpt>
      <trkpt lat="46.14488" lon="6.46847">
        <ele>712</ele>
        <time>2021-09-12T07:49:39Z</time>
      </trkpt>
      <trkpt lat="46.14498" lon="6.46843">
        <ele>713</ele>
        <time>2021-09-12T07:49:41Z</time>
      </trkpt>
      <trkpt lat="46.14504" lon="6.46842">
        <ele>709</ele>
        <time>2021-09-12T07:49:43Z</time>
      </trkpt>
      <trkpt lat="46.14541" lon="6.46892">
        <ele>710</ele>
        <time>2021-09-12T07:49:59Z</time>
      </trkpt>
      <trkpt lat="46.1459" lon="6.46976">
        <ele>685</ele>
        <time>2021-09-12T07:50:08Z</time>
      </trkpt>
      <trkpt lat="46.1464" lon="6.4707">
        <ele>683</ele>
        <time>2021-09-12T07:50:18Z</time>
      </trkpt>
      <trkpt lat="46.14653" lon="6.47085">
        <ele>683</ele>
        <time>2021-09-12T07:50:20Z</time>
      </trkpt>
      <trkpt lat="46.14668" lon="6.47096">
        <ele>713</ele>
        <time>2021-09-12T07:50:22Z</time>
      </trkpt>
      <trkpt lat="46.14683" lon="6.47101">
        <ele>719</ele>
        <time>2021-09-12T07:50:24Z</time>
      </trkpt>
      <trkpt lat="46.14698" lon="6.471">
        <ele>720</ele>
        <time>2021-09-12T07:50:26Z</time>
      </trkpt>
      <trkpt lat="46.14705" lon="6.47094">
        <ele>720</ele>
        <time>2021-09-12T07:50:27Z</time>
      </trkpt>
      <trkpt lat="46.14725" lon="6.47079">
        <ele>721</ele>
        <time>2021-09-12T07:50:30Z</time>
      </trkpt>
      <trkpt lat="46.14737" lon="6.47074">
        <ele>723</ele>
        <time>2021-09-12T07:50:32Z</time>
      </trkpt>
      <trkpt lat="46.14756" lon="6.47056">
        <ele>690</ele>
        <time>2021-09-12T07:50:36Z</time>
      </trkpt>
      <trkpt lat="46.14764" lon="6.47046">
        <ele>689</ele>
        <time>2021-09-12T07:50:38Z</time>
      </trkpt>
      <trkpt lat="46.14777" lon="6.47026">
        <ele>689</ele>
        <time>2021-09-12T07:50:41Z</time>
      </trkpt>
      <trkpt lat="46.14784" lon="6.47019">
        <ele>709</ele>
        <time>2021-09-12T07:50:42Z</time>
      </trkpt>
      <trkpt lat="46.14819" lon="6.4698">
        <ele>691</ele>
        <time>2021-09-12T07:50:48Z</time>
      </trkpt>
      <trkpt lat="46.14837" lon="6.46969">
        <ele>692</ele>
        <time>2021-09-12T07:50:51Z</time>
      </trkpt>
      <trkpt lat="46.14849" lon="6.46964">
        <ele>691</ele>
        <time>2021-09-12T07:50:54Z</time>
      </trkpt>
      <trkpt lat="46.14859" lon="6.46956">
        <ele>692</ele>
        <time>2021-09-12T07:50:56Z</time>
      </trkpt>
      <trkpt lat="46.14876" lon="6.4693">
        <ele>706</ele>
        <time>2021-09-12T07:51:00Z</time>
      </trkpt>
      <trkpt lat="46.1488" lon="6.46928">
        <ele>719</ele>
        <time>2021-09-12T07:51:01Z</time>
      </trkpt>
      <trkpt lat="46.14884" lon="6.46929">
        <ele>723</ele>
        <time>2021-09-12T07:51:02Z</time>
      </trkpt>
      <trkpt lat="46.14889" lon="6.46933">
        <ele>726</ele>
        <time>2021-09-12T07:51:03Z</time>
      </trkpt>
      <trkpt lat="46.14938" lon="6.47">
        <ele>729</ele>
        <time>2021-09-12T07:51:13Z</time>
      </trkpt>
      <trkpt lat="46.14945" lon="6.47014">
        <ele>730</ele>
        <time>2021-09-12T07:51:15Z</time>
      </trkpt>
      <trkpt lat="46.1495" lon="6.47018">
        <ele>730</ele>
        <time>2021-09-12T07:51:16Z</time>
      </trkpt>
      <trkpt lat="46.14981" lon="6.47055">
        <ele>693</ele>
        <time>2021-09-12T07:51:25Z</time>
      </trkpt>
      <trkpt lat="46.14985" lon="6.47061">
        <ele>693</ele>
        <time>2021-09-12T07:51:27Z</time>
      </trkpt>
      <trkpt lat="46.14988" lon="6.47062">
        <ele>708</ele>
        <time>2021-09-12T07:53:51Z</time>
      </trkpt>
      <trkpt lat="46.14991" lon="6.47061">
        <ele>726</ele>
        <time>2021-09-12T07:54:34Z</time>
      </trkpt>
      <trkpt lat="46.14991" lon="6.47056">
        <ele>728</ele>
        <time>2021-09-12T07:54:36Z</time>
      </trkpt>
      <trkpt lat="46.14976" lon="6.47047">
        <ele>731</ele>
        <time>2021-09-12T07:54:41Z</time>
      </trkpt>
      <trkpt lat="46.1494" lon="6.47001">
        <ele>731</ele>
        <time>2021-09-12T07:54:49Z</time>
      </trkpt>
      <trkpt lat="46.14926" lon="6.46981">
        <ele>732</ele>
        <time>2021-09-12T07:54:52Z</time>
      </trkpt>
      <trkpt lat="46.14912" lon="6.46962">
        <ele>675</ele>
        <time>2021-09-12T07:54:55Z</time>
      </trkpt>
      <trkpt lat="46.14907" lon="6.46957">
        <ele>703</ele>
        <time>2021-09-12T07:54:56Z</time>
      </trkpt>
      <trkpt lat="46.14885" lon="6.46926">
        <ele>696</ele>
        <time>2021-09-12T07:55:02Z</time>
      </trkpt>
      <trkpt lat="46.14885" lon="6.46922">
        <ele>697</ele>
        <time>2021-09-12T07:55:03Z</time>
      </trkpt>
      <trkpt lat="46.14884" lon="6.46917">
        <ele>697</ele>
        <time>2021-09-12T07:55:04Z</time>
      </trkpt>
      <trkpt lat="46.14886" lon="6.4691">
        <ele>697</ele>
        <time>2021-09-12T07:55:06Z</time>
      </trkpt>
      <trkpt lat="46.14888" lon="6.46907">
        <ele>697</ele>
        <time>2021-09-12T07:55:08Z</time>
      </trkpt>
      <trkpt lat="46.14887" lon="6.46902">
        <ele>728</ele>
        <time>2021-09-12T07:55:21Z</time>
      </trkpt>
      <trkpt lat="46.14884" lon="6.46904">
        <ele>730</ele>
        <time>2021-09-12T07:55:23Z</time>
      </trkpt>
      <trkpt lat="46.14883" lon="6.4691">
        <ele>731</ele>
        <time>2021-09-12T07:55:25Z</time>
      </trkpt>
      <trkpt lat="46.1488" lon="6.46923">
        <ele>732</ele>
        <time>2021-09-12T07:55:28Z</time>
      </trkpt>
      <trkpt lat="46.1487" lon="6.46939">
        <ele>732</ele>
        <time>2021-09-12T07:55:31Z</time>
      </trkpt>
      <trkpt lat="46.1486" lon="6.46954">
        <ele>700</ele>
        <time>2021-09-12T07:55:34Z</time>
      </trkpt>
      <trkpt lat="46.1485" lon="6.46962">
        <ele>696</ele>
        <time>2021-09-12T07:55:36Z</time>
      </trkpt>
      <trkpt lat="46.14812" lon="6.46986">
        <ele>694</ele>
        <time>2021-09-12T07:55:42Z</time>
      </trkpt>
      <trkpt lat="46.14779" lon="6.47023">
        <ele>692</ele>
        <time>2021-09-12T07:55:47Z</time>
      </trkpt>
      <trkpt lat="46.14751" lon="6.47061">
        <ele>691</ele>
        <time>2021-09-12T07:55:52Z</time>
      </trkpt>
      <trkpt lat="46.14737" lon="6.47072">
        <ele>690</ele>
        <time>2021-09-12T07:55:54Z</time>
      </trkpt>
      <trkpt lat="46.14709" lon="6.47087">
        <ele>688</ele>
        <time>2021-09-12T07:55:58Z</time>
      </trkpt>
      <trkpt lat="46.14696" lon="6.47096">
        <ele>686</ele>
        <time>2021-09-12T07:56:00Z</time>
      </trkpt>
      <trkpt lat="46.14679" lon="6.47099">
        <ele>685</ele>
        <time>2021-09-12T07:56:02Z</time>
      </trkpt>
      <trkpt lat="46.1467" lon="6.47098">
        <ele>684</ele>
        <time>2021-09-12T07:56:03Z</time>
      </trkpt>
      <trkpt lat="46.14656" lon="6.47087">
        <ele>684</ele>
        <time>2021-09-12T07:56:05Z</time>
      </trkpt>
      <trkpt lat="46.14638" lon="6.47063">
        <ele>685</ele>
        <time>2021-09-12T07:56:08Z</time>
      </trkpt>
      <trkpt lat="46.14531" lon="6.4687">
        <ele>689</ele>
        <time>2021-09-12T07:56:26Z</time>
      </trkpt>
      <trkpt lat="46.14528" lon="6.46863">
        <ele>690</ele>
        <time>2021-09-12T07:56:27Z</time>
      </trkpt>
      <trkpt lat="46.14528" lon="6.46857">
        <ele>690</ele>
        <time>2021-09-12T07:56:28Z</time>
      </trkpt>
      <trkpt lat="46.14529" lon="6.4685">
        <ele>690</ele>
        <time>2021-09-12T07:56:29Z</time>
      </trkpt>
      <trkpt lat="46.14531" lon="6.46844">
        <ele>690</ele>
        <time>2021-09-12T07:56:30Z</time>
      </trkpt>
      <trkpt lat="46.14541" lon="6.46831">
        <ele>691</ele>
        <time>2021-09-12T07:56:32Z</time>
      </trkpt>
      <trkpt lat="46.14548" lon="6.46824">
        <ele>691</ele>
        <time>2021-09-12T07:56:33Z</time>
      </trkpt>
      <trkpt lat="46.14594" lon="6.46769">
        <ele>728</ele>
        <time>2021-09-12T07:56:40Z</time>
      </trkpt>
      <trkpt lat="46.14613" lon="6.46734">
        <ele>729</ele>
        <time>2021-09-12T07:56:45Z</time>
      </trkpt>
      <trkpt lat="46.14615" lon="6.46728">
        <ele>729</ele>
        <time>2021-09-12T07:56:46Z</time>
      </trkpt>
      <trkpt lat="46.14616" lon="6.46723">
        <ele>730</ele>
        <time>2021-09-12T07:56:48Z</time>
      </trkpt>
      <trkpt lat="46.14616" lon="6.46718">
        <ele>730</ele>
        <time>2021-09-12T07:56:49Z</time>
      </trkpt>
      <trkpt lat="46.14609" lon="6.46706">
        <ele>730</ele>
        <time>2021-09-12T07:56:51Z</time>
      </trkpt>
      <trkpt lat="46.14578" lon="6.46654">
        <ele>731</ele>
        <time>2021-09-12T07:56:57Z</time>
      </trkpt>
      <trkpt lat="46.14575" lon="6.46648">
        <ele>731</ele>
        <time>2021-09-12T07:56:58Z</time>
      </trkpt>
      <trkpt lat="46.14577" lon="6.46643">
        <ele>732</ele>
        <time>2021-09-12T07:56:59Z</time>
      </trkpt>
      <trkpt lat="46.14579" lon="6.4664">
        <ele>713</ele>
        <time>2021-09-12T07:57:01Z</time>
      </trkpt>
      <trkpt lat="46.1491" lon="6.46803">
        <ele>705</ele>
        <time>2021-09-12T07:57:31Z</time>
      </trkpt>
      <trkpt lat="46.14975" lon="6.46825">
        <ele>707</ele>
        <time>2021-09-12T07:57:36Z</time>
      </trkpt>
      <trkpt lat="46.14998" lon="6.46844">
        <ele>734</ele>
        <time>2021-09-12T07:57:38Z</time>
      </trkpt>
      <trkpt lat="46.15009" lon="6.46858">
        <ele>739</ele>
        <time>2021-09-12T07:57:39Z</time>
      </trkpt>
      <trkpt lat="46.15079" lon="6.46939">
        <ele>674</ele>
        <time>2021-09-12T07:57:45Z</time>
      </trkpt>
      <trkpt lat="46.15205" lon="6.47038">
        <ele>678</ele>
        <time>2021-09-12T07:57:55Z</time>
      </trkpt>
      <trkpt lat="46.15309" lon="6.47222">
        <ele>684</ele>
        <time>2021-09-12T07:58:06Z</time>
      </trkpt>
      <trkpt lat="46.15331" lon="6.47273">
        <ele>687</ele>
        <time>2021-09-12T07:58:09Z</time>
      </trkpt>
      <trkpt lat="46.15352" lon="6.47301">
        <ele>688</ele>
        <time>2021-09-12T07:58:11Z</time>
      </trkpt>
      <trkpt lat="46.15395" lon="6.47339">
        <ele>690</ele>
        <time>2021-09-12T07:58:14Z</time>
      </trkpt>
      <trkpt lat="46.15424" lon="6.47368">
        <ele>709</ele>
        <time>2021-09-12T07:58:16Z</time>
      </trkpt>
      <trkpt lat="46.15493" lon="6.47449">
        <ele>717</ele>
        <time>2021-09-12T07:58:22Z</time>
      </trkpt>
      <trkpt lat="46.15575" lon="6.47494">
        <ele>720</ele>
        <time>2021-09-12T07:58:28Z</time>
      </trkpt>
      <trkpt lat="46.15588" lon="6.47497">
        <ele>720</ele>
        <time>2021-09-12T07:58:29Z</time>
      </trkpt>
      <trkpt lat="46.15616" lon="6.47498">
        <ele>722</ele>
        <time>2021-09-12T07:58:31Z</time>
      </trkpt>
      <trkpt lat="46.1563" lon="6.47499">
        <ele>728</ele>
        <time>2021-09-12T07:58:32Z</time>
      </trkpt>
      <trkpt lat="46.15645" lon="6.47501">
        <ele>730</ele>
        <time>2021-09-12T07:58:33Z</time>
      </trkpt>
      <trkpt lat="46.1567" lon="6.47512">
        <ele>733</ele>
        <time>2021-09-12T07:58:35Z</time>
      </trkpt>
      <trkpt lat="46.15681" lon="6.47525">
        <ele>734</ele>
        <time>2021-09-12T07:58:36Z</time>
      </trkpt>
      <trkpt lat="46.15716" lon="6.4755">
        <ele>759</ele>
        <time>2021-09-12T07:58:39Z</time>
      </trkpt>
      <trkpt lat="46.1573" lon="6.47555">
        <ele>761</ele>
        <time>2021-09-12T07:58:40Z</time>
      </trkpt>
      <trkpt lat="46.15769" lon="6.47559">
        <ele>763</ele>
        <time>2021-09-12T07:58:43Z</time>
      </trkpt>
      <trkpt lat="46.15789" lon="6.47576">
        <ele>760</ele>
        <time>2021-09-12T07:58:45Z</time>
      </trkpt>
      <trkpt lat="46.15799" lon="6.47588">
        <ele>758</ele>
        <time>2021-09-12T07:58:46Z</time>
      </trkpt>
      <trkpt lat="46.15819" lon="6.47616">
        <ele>756</ele>
        <time>2021-09-12T07:58:48Z</time>
      </trkpt>
      <trkpt lat="46.15834" lon="6.47646">
        <ele>756</ele>
        <time>2021-09-12T07:58:50Z</time>
      </trkpt>
      <trkpt lat="46.15857" lon="6.47685">
        <ele>760</ele>
        <time>2021-09-12T07:58:53Z</time>
      </trkpt>
      <trkpt lat="46.15877" lon="6.47704">
        <ele>758</ele>
        <time>2021-09-12T07:58:55Z</time>
      </trkpt>
      <trkpt lat="46.159" lon="6.47707">
        <ele>769</ele>
        <time>2021-09-12T07:58:57Z</time>
      </trkpt>
      <trkpt lat="46.15913" lon="6.47705">
        <ele>769</ele>
        <time>2021-09-12T07:58:58Z</time>
      </trkpt>
      <trkpt lat="46.15948" lon="6.47708">
        <ele>725</ele>
        <time>2021-09-12T07:59:01Z</time>
      </trkpt>
      <trkpt lat="46.1608" lon="6.47651">
        <ele>720</ele>
        <time>2021-09-12T07:59:12Z</time>
      </trkpt>
      <trkpt lat="46.16102" lon="6.47656">
        <ele>721</ele>
        <time>2021-09-12T07:59:14Z</time>
      </trkpt>
      <trkpt lat="46.16197" lon="6.47705">
        <ele>719</ele>
        <time>2021-09-12T07:59:22Z</time>
      </trkpt>
      <trkpt lat="46.16358" lon="6.47712">
        <ele>724</ele>
        <time>2021-09-12T07:59:34Z</time>
      </trkpt>
      <trkpt lat="46.16377" lon="6.47703">
        <ele>726</ele>
        <time>2021-09-12T07:59:36Z</time>
      </trkpt>
      <trkpt lat="46.16386" lon="6.47691">
        <ele>727</ele>
        <time>2021-09-12T07:59:37Z</time>
      </trkpt>
      <trkpt lat="46.164" lon="6.47654">
        <ele>730</ele>
        <time>2021-09-12T07:59:39Z</time>
      </trkpt>
      <trkpt lat="46.16415" lon="6.47626">
        <ele>733</ele>
        <time>2021-09-12T07:59:41Z</time>
      </trkpt>
      <trkpt lat="46.16424" lon="6.47616">
        <ele>734</ele>
        <time>2021-09-12T07:59:42Z</time>
      </trkpt>
      <trkpt lat="46.16457" lon="6.47605">
        <ele>737</ele>
        <time>2021-09-12T07:59:45Z</time>
      </trkpt>
      <trkpt lat="46.16553" lon="6.47665">
        <ele>739</ele>
        <time>2021-09-12T07:59:53Z</time>
      </trkpt>
      <trkpt lat="46.16617" lon="6.47701">
        <ele>732</ele>
        <time>2021-09-12T07:59:58Z</time>
      </trkpt>
      <trkpt lat="46.16642" lon="6.477">
        <ele>732</ele>
        <time>2021-09-12T08:00:00Z</time>
      </trkpt>
      <trkpt lat="46.16654" lon="6.47694">
        <ele>733</ele>
        <time>2021-09-12T08:00:01Z</time>
      </trkpt>
      <trkpt lat="46.16676" lon="6.47681">
        <ele>735</ele>
        <time>2021-09-12T08:00:03Z</time>
      </trkpt>
      <trkpt lat="46.16686" lon="6.47676">
        <ele>739</ele>
        <time>2021-09-12T08:00:04Z</time>
      </trkpt>
      <trkpt lat="46.16697" lon="6.47674">
        <ele>742</ele>
        <time>2021-09-12T08:00:05Z</time>
      </trkpt>
      <trkpt lat="46.16707" lon="6.47676">
        <ele>744</ele>
        <time>2021-09-12T08:00:06Z</time>
      </trkpt>
      <trkpt lat="46.1676" lon="6.47713">
        <ele>751</ele>
        <time>2021-09-12T08:00:12Z</time>
      </trkpt>
      <trkpt lat="46.1677" lon="6.47715">
        <ele>750</ele>
        <time>2021-09-12T08:00:13Z</time>
      </trkpt>
      <trkpt lat="46.1678" lon="6.47713">
        <ele>751</ele>
        <time>2021-09-12T08:00:14Z</time>
      </trkpt>
      <trkpt lat="46.16854" lon="6.47659">
        <ele>756</ele>
        <time>2021-09-12T08:00:22Z</time>
      </trkpt>
      <trkpt lat="46.16871" lon="6.47657">
        <ele>758</ele>
        <time>2021-09-12T08:00:24Z</time>
      </trkpt>
      <trkpt lat="46.16886" lon="6.47664">
        <ele>758</ele>
        <time>2021-09-12T08:00:26Z</time>
      </trkpt>
      <trkpt lat="46.16898" lon="6.47676">
        <ele>759</ele>
        <time>2021-09-12T08:00:28Z</time>
      </trkpt>
      <trkpt lat="46.16942" lon="6.47749">
        <ele>762</ele>
        <time>2021-09-12T08:00:36Z</time>
      </trkpt>
      <trkpt lat="46.16958" lon="6.47763">
        <ele>762</ele>
        <time>2021-09-12T08:00:38Z</time>
      </trkpt>
      <trkpt lat="46.1705" lon="6.47803">
        <ele>765</ele>
        <time>2021-09-12T08:00:48Z</time>
      </trkpt>
      <trkpt lat="46.17083" lon="6.47846">
        <ele>767</ele>
        <time>2021-09-12T08:00:53Z</time>
      </trkpt>
      <trkpt lat="46.17104" lon="6.47883">
        <ele>768</ele>
        <time>2021-09-12T08:00:57Z</time>
      </trkpt>
      <trkpt lat="46.17109" lon="6.47904">
        <ele>769</ele>
        <time>2021-09-12T08:00:59Z</time>
      </trkpt>
      <trkpt lat="46.17117" lon="6.48022">
        <ele>771</ele>
        <time>2021-09-12T08:01:09Z</time>
      </trkpt>
      <trkpt lat="46.17121" lon="6.48032">
        <ele>771</ele>
        <time>2021-09-12T08:01:10Z</time>
      </trkpt>
      <trkpt lat="46.17132" lon="6.48048">
        <ele>770</ele>
        <time>2021-09-12T08:01:12Z</time>
      </trkpt>
      <trkpt lat="46.17209" lon="6.48129">
        <ele>771</ele>
        <time>2021-09-12T08:01:26Z</time>
      </trkpt>
      <trkpt lat="46.17216" lon="6.48144">
        <ele>772</ele>
        <time>2021-09-12T08:01:30Z</time>
      </trkpt>
      <trkpt lat="46.17229" lon="6.48155">
        <ele>773</ele>
        <time>2021-09-12T08:01:56Z</time>
      </trkpt>
      <trkpt lat="46.17255" lon="6.48189">
        <ele>773</ele>
        <time>2021-09-12T08:02:01Z</time>
      </trkpt>
      <trkpt lat="46.17284" lon="6.48228">
        <ele>759</ele>
        <time>2021-09-12T08:02:05Z</time>
      </trkpt>
      <trkpt lat="46.17504" lon="6.48599">
        <ele>778</ele>
        <time>2021-09-12T08:02:35Z</time>
      </trkpt>
      <trkpt lat="46.17536" lon="6.4864">
        <ele>780</ele>
        <time>2021-09-12T08:02:39Z</time>
      </trkpt>
      <trkpt lat="46.17569" lon="6.48732">
        <ele>782</ele>
        <time>2021-09-12T08:02:45Z</time>
      </trkpt>
      <trkpt lat="46.17586" lon="6.48813">
        <ele>784</ele>
        <time>2021-09-12T08:02:50Z</time>
      </trkpt>
      <trkpt lat="46.17595" lon="6.48859">
        <ele>786</ele>
        <time>2021-09-12T08:02:53Z</time>
      </trkpt>
      <trkpt lat="46.17621" lon="6.48916">
        <ele>788</ele>
        <time>2021-09-12T08:02:57Z</time>
      </trkpt>
      <trkpt lat="46.17691" lon="6.49008">
        <ele>792</ele>
        <time>2021-09-12T08:03:05Z</time>
      </trkpt>
      <trkpt lat="46.17744" lon="6.49203">
        <ele>797</ele>
        <time>2021-09-12T08:03:20Z</time>
      </trkpt>
      <trkpt lat="46.1775" lon="6.49245">
        <ele>797</ele>
        <time>2021-09-12T08:03:24Z</time>
      </trkpt>
      <trkpt lat="46.17751" lon="6.49259">
        <ele>797</ele>
        <time>2021-09-12T08:03:26Z</time>
      </trkpt>
      <trkpt lat="46.17755" lon="6.49261">
        <ele>797</ele>
        <time>2021-09-12T08:03:28Z</time>
      </trkpt>
      <trkpt lat="46.17756" lon="6.49251">
        <ele>797</ele>
        <time>2021-09-12T08:03:30Z</time>
      </trkpt>
      <trkpt lat="46.17748" lon="6.49213">
        <ele>796</ele>
        <time>2021-09-12T08:03:34Z</time>
      </trkpt>
      <trkpt lat="46.17744" lon="6.49189">
        <ele>781</ele>
        <time>2021-09-12T08:03:36Z</time>
      </trkpt>
      <trkpt lat="46.17735" lon="6.49151">
        <ele>795</ele>
        <time>2021-09-12T08:03:40Z</time>
      </trkpt>
      <trkpt lat="46.17736" lon="6.49122">
        <ele>796</ele>
        <time>2021-09-12T08:03:44Z</time>
      </trkpt>
      <trkpt lat="46.17745" lon="6.49097">
        <ele>798</ele>
        <time>2021-09-12T08:03:48Z</time>
      </trkpt>
      <trkpt lat="46.17743" lon="6.49093">
        <ele>795</ele>
        <time>2021-09-12T08:03:49Z</time>
      </trkpt>
      <trkpt lat="46.17744" lon="6.49084">
        <ele>769</ele>
        <time>2021-09-12T08:03:51Z</time>
      </trkpt>
      <trkpt lat="46.17744" lon="6.49069">
        <ele>757</ele>
        <time>2021-09-12T08:03:53Z</time>
      </trkpt>
      <trkpt lat="46.17741" lon="6.49044">
        <ele>751</ele>
        <time>2021-09-12T08:03:56Z</time>
      </trkpt>
      <trkpt lat="46.17734" lon="6.4902">
        <ele>754</ele>
        <time>2021-09-12T08:03:59Z</time>
      </trkpt>
      <trkpt lat="46.17729" lon="6.49">
        <ele>762</ele>
        <time>2021-09-12T08:04:02Z</time>
      </trkpt>
      <trkpt lat="46.17727" lon="6.48996">
        <ele>762</ele>
        <time>2021-09-12T08:04:03Z</time>
      </trkpt>
      <trkpt lat="46.17725" lon="6.48991">
        <ele>763</ele>
        <time>2021-09-12T08:04:04Z</time>
      </trkpt>
      <trkpt lat="46.17717" lon="6.48963">
        <ele>775</ele>
        <time>2021-09-12T08:04:09Z</time>
      </trkpt>
      <trkpt lat="46.17716" lon="6.48957">
        <ele>776</ele>
        <time>2021-09-12T08:04:10Z</time>
      </trkpt>
      <trkpt lat="46.17715" lon="6.48947">
        <ele>769</ele>
        <time>2021-09-12T08:04:12Z</time>
      </trkpt>
      <trkpt lat="46.17716" lon="6.48941">
        <ele>766</ele>
        <time>2021-09-12T08:04:13Z</time>
      </trkpt>
      <trkpt lat="46.17713" lon="6.48916">
        <ele>765</ele>
        <time>2021-09-12T08:04:16Z</time>
      </trkpt>
      <trkpt lat="46.17712" lon="6.48911">
        <ele>771</ele>
        <time>2021-09-12T08:04:17Z</time>
      </trkpt>
      <trkpt lat="46.17716" lon="6.48904">
        <ele>773</ele>
        <time>2021-09-12T08:04:19Z</time>
      </trkpt>
      <trkpt lat="46.1772" lon="6.48901">
        <ele>778</ele>
        <time>2021-09-12T08:04:22Z</time>
      </trkpt>
      <trkpt lat="46.17722" lon="6.48898">
        <ele>777</ele>
        <time>2021-09-12T08:04:39Z</time>
      </trkpt>
      <trkpt lat="46.17727" lon="6.48894">
        <ele>811</ele>
        <time>2021-09-12T08:05:21Z</time>
      </trkpt>
      <trkpt lat="46.17729" lon="6.48891">
        <ele>814</ele>
        <time>2021-09-12T08:05:22Z</time>
      </trkpt>
      <trkpt lat="46.17729" lon="6.48886">
        <ele>816</ele>
        <time>2021-09-12T08:05:24Z</time>
      </trkpt>
      <trkpt lat="46.17726" lon="6.48884">
        <ele>816</ele>
        <time>2021-09-12T08:05:26Z</time>
      </trkpt>
      <trkpt lat="46.17725" lon="6.48887">
        <ele>820</ele>
        <time>2021-09-12T08:05:45Z</time>
      </trkpt>
      <trkpt lat="46.17727" lon="6.48889">
        <ele>835</ele>
        <time>2021-09-12T08:07:06Z</time>
      </trkpt>
      <trkpt lat="46.17727" lon="6.48886">
        <ele>841</ele>
        <time>2021-09-12T08:08:11Z</time>
      </trkpt>
      <trkpt lat="46.17719" lon="6.48878">
        <ele>819</ele>
        <time>2021-09-12T08:08:14Z</time>
      </trkpt>
      <trkpt lat="46.17709" lon="6.48867">
        <ele>838</ele>
        <time>2021-09-12T08:08:17Z</time>
      </trkpt>
      <trkpt lat="46.17707" lon="6.48864">
        <ele>823</ele>
        <time>2021-09-12T08:08:32Z</time>
      </trkpt>
      <trkpt lat="46.17706" lon="6.48859">
        <ele>843</ele>
        <time>2021-09-12T08:16:10Z</time>
      </trkpt>
      <trkpt lat="46.17708" lon="6.48855">
        <ele>843</ele>
        <time>2021-09-12T08:16:11Z</time>
      </trkpt>
      <trkpt lat="46.17721" lon="6.48835">
        <ele>816</ele>
        <time>2021-09-12T08:16:16Z</time>
      </trkpt>
      <trkpt lat="46.17728" lon="6.48811">
        <ele>807</ele>
        <time>2021-09-12T08:16:21Z</time>
      </trkpt>
      <trkpt lat="46.17728" lon="6.48802">
        <ele>801</ele>
        <time>2021-09-12T08:16:23Z</time>
      </trkpt>
      <trkpt lat="46.1772" lon="6.48785">
        <ele>868</ele>
        <time>2021-09-12T08:16:25Z</time>
      </trkpt>
      <trkpt lat="46.17712" lon="6.48767">
        <ele>805</ele>
        <time>2021-09-12T08:16:27Z</time>
      </trkpt>
      <trkpt lat="46.1771" lon="6.48759">
        <ele>791</ele>
        <time>2021-09-12T08:16:28Z</time>
      </trkpt>
      <trkpt lat="46.1771" lon="6.4874">
        <ele>790</ele>
        <time>2021-09-12T08:16:30Z</time>
      </trkpt>
      <trkpt lat="46.1771" lon="6.48717">
        <ele>829</ele>
        <time>2021-09-12T08:16:33Z</time>
      </trkpt>
      <trkpt lat="46.17713" lon="6.48698">
        <ele>824</ele>
        <time>2021-09-12T08:16:36Z</time>
      </trkpt>
      <trkpt lat="46.17711" lon="6.48698">
        <ele>833</ele>
        <time>2021-09-12T08:17:08Z</time>
      </trkpt>
      <trkpt lat="46.17709" lon="6.48693">
        <ele>835</ele>
        <time>2021-09-12T08:17:10Z</time>
      </trkpt>
      <trkpt lat="46.17705" lon="6.48679">
        <ele>863</ele>
        <time>2021-09-12T08:17:14Z</time>
      </trkpt>
      <trkpt lat="46.17703" lon="6.48674">
        <ele>864</ele>
        <time>2021-09-12T08:17:15Z</time>
      </trkpt>
      <trkpt lat="46.17701" lon="6.48668">
        <ele>866</ele>
        <time>2021-09-12T08:17:16Z</time>
      </trkpt>
      <trkpt lat="46.177" lon="6.48661">
        <ele>858</ele>
        <time>2021-09-12T08:17:18Z</time>
      </trkpt>
      <trkpt lat="46.17705" lon="6.48647">
        <ele>828</ele>
        <time>2021-09-12T08:17:22Z</time>
      </trkpt>
      <trkpt lat="46.17705" lon="6.48642">
        <ele>825</ele>
        <time>2021-09-12T08:17:23Z</time>
      </trkpt>
      <trkpt lat="46.17705" lon="6.4863">
        <ele>822</ele>
        <time>2021-09-12T08:17:25Z</time>
      </trkpt>
      <trkpt lat="46.17706" lon="6.48624">
        <ele>819</ele>
        <time>2021-09-12T08:17:26Z</time>
      </trkpt>
      <trkpt lat="46.17708" lon="6.48618">
        <ele>818</ele>
        <time>2021-09-12T08:17:27Z</time>
      </trkpt>
      <trkpt lat="46.17711" lon="6.48613">
        <ele>818</ele>
        <time>2021-09-12T08:17:28Z</time>
      </trkpt>
      <trkpt lat="46.17715" lon="6.48608">
        <ele>817</ele>
        <time>2021-09-12T08:17:29Z</time>
      </trkpt>
      <trkpt lat="46.17718" lon="6.48596">
        <ele>838</ele>
        <time>2021-09-12T08:17:31Z</time>
      </trkpt>
      <trkpt lat="46.17713" lon="6.48577">
        <ele>858</ele>
        <time>2021-09-12T08:17:34Z</time>
      </trkpt>
      <trkpt lat="46.17712" lon="6.48521">
        <ele>825</ele>
        <time>2021-09-12T08:17:41Z</time>
      </trkpt>
      <trkpt lat="46.17713" lon="6.48513">
        <ele>839</ele>
        <time>2021-09-12T08:17:42Z</time>
      </trkpt>
      <trkpt lat="46.17714" lon="6.48505">
        <ele>845</ele>
        <time>2021-09-12T08:17:43Z</time>
      </trkpt>
      <trkpt lat="46.17714" lon="6.48499">
        <ele>836</ele>
        <time>2021-09-12T08:17:44Z</time>
      </trkpt>
      <trkpt lat="46.17714" lon="6.48492">
        <ele>834</ele>
        <time>2021-09-12T08:17:45Z</time>
      </trkpt>
      <trkpt lat="46.17717" lon="6.48479">
        <ele>833</ele>
        <time>2021-09-12T08:17:47Z</time>
      </trkpt>
      <trkpt lat="46.1772" lon="6.48472">
        <ele>830</ele>
        <time>2021-09-12T08:17:48Z</time>
      </trkpt>
      <trkpt lat="46.17723" lon="6.48467">
        <ele>842</ele>
        <time>2021-09-12T08:17:49Z</time>
      </trkpt>
      <trkpt lat="46.17732" lon="6.48452">
        <ele>843</ele>
        <time>2021-09-12T08:17:53Z</time>
      </trkpt>
      <trkpt lat="46.17732" lon="6.48447">
        <ele>835</ele>
        <time>2021-09-12T08:17:55Z</time>
      </trkpt>
      <trkpt lat="46.17731" lon="6.48436">
        <ele>816</ele>
        <time>2021-09-12T08:17:58Z</time>
      </trkpt>
      <trkpt lat="46.17729" lon="6.48429">
        <ele>808</ele>
        <time>2021-09-12T08:18:00Z</time>
      </trkpt>
      <trkpt lat="46.17727" lon="6.48425">
        <ele>808</ele>
        <time>2021-09-12T08:18:01Z</time>
      </trkpt>
      <trkpt lat="46.17724" lon="6.48422">
        <ele>808</ele>
        <time>2021-09-12T08:18:02Z</time>
      </trkpt>
      <trkpt lat="46.17716" lon="6.48412">
        <ele>802</ele>
        <time>2021-09-12T08:18:04Z</time>
      </trkpt>
      <trkpt lat="46.17714" lon="6.48406">
        <ele>803</ele>
        <time>2021-09-12T08:18:05Z</time>
      </trkpt>
      <trkpt lat="46.17712" lon="6.48398">
        <ele>806</ele>
        <time>2021-09-12T08:18:06Z</time>
      </trkpt>
      <trkpt lat="46.17708" lon="6.48349">
        <ele>879</ele>
        <time>2021-09-12T08:18:09Z</time>
      </trkpt>
      <trkpt lat="46.17714" lon="6.48342">
        <ele>890</ele>
        <time>2021-09-12T08:18:10Z</time>
      </trkpt>
      <trkpt lat="46.17718" lon="6.48322">
        <ele>810</ele>
        <time>2021-09-12T08:18:12Z</time>
      </trkpt>
      <trkpt lat="46.17719" lon="6.48293">
        <ele>789</ele>
        <time>2021-09-12T08:18:16Z</time>
      </trkpt>
      <trkpt lat="46.1772" lon="6.48289">
        <ele>789</ele>
        <time>2021-09-12T08:18:18Z</time>
      </trkpt>
      <trkpt lat="46.17722" lon="6.48292">
        <ele>829</ele>
        <time>2021-09-12T08:18:29Z</time>
      </trkpt>
      <trkpt lat="46.17722" lon="6.48304">
        <ele>848</ele>
        <time>2021-09-12T08:18:31Z</time>
      </trkpt>
      <trkpt lat="46.17725" lon="6.48345">
        <ele>871</ele>
        <time>2021-09-12T08:18:35Z</time>
      </trkpt>
      <trkpt lat="46.1773" lon="6.48362">
        <ele>874</ele>
        <time>2021-09-12T08:18:37Z</time>
      </trkpt>
      <trkpt lat="46.17734" lon="6.48369">
        <ele>874</ele>
        <time>2021-09-12T08:18:38Z</time>
      </trkpt>
      <trkpt lat="46.17746" lon="6.48379">
        <ele>876</ele>
        <time>2021-09-12T08:18:40Z</time>
      </trkpt>
      <trkpt lat="46.17779" lon="6.48392">
        <ele>878</ele>
        <time>2021-09-12T08:18:44Z</time>
      </trkpt>
      <trkpt lat="46.17786" lon="6.48401">
        <ele>879</ele>
        <time>2021-09-12T08:18:45Z</time>
      </trkpt>
      <trkpt lat="46.17789" lon="6.48414">
        <ele>881</ele>
        <time>2021-09-12T08:18:46Z</time>
      </trkpt>
      <trkpt lat="46.17791" lon="6.48426">
        <ele>882</ele>
        <time>2021-09-12T08:18:47Z</time>
      </trkpt>
      <trkpt lat="46.17792" lon="6.48437">
        <ele>883</ele>
        <time>2021-09-12T08:18:48Z</time>
      </trkpt>
      <trkpt lat="46.17781" lon="6.48498">
        <ele>889</ele>
        <time>2021-09-12T08:18:53Z</time>
      </trkpt>
      <trkpt lat="46.17785" lon="6.48535">
        <ele>893</ele>
        <time>2021-09-12T08:18:56Z</time>
      </trkpt>
      <trkpt lat="46.1779" lon="6.48561">
        <ele>895</ele>
        <time>2021-09-12T08:18:58Z</time>
      </trkpt>
      <trkpt lat="46.17807" lon="6.48595">
        <ele>898</ele>
        <time>2021-09-12T08:19:01Z</time>
      </trkpt>
      <trkpt lat="46.17826" lon="6.48622">
        <ele>900</ele>
        <time>2021-09-12T08:19:04Z</time>
      </trkpt>
      <trkpt lat="46.17837" lon="6.48629">
        <ele>901</ele>
        <time>2021-09-12T08:19:06Z</time>
      </trkpt>
      <trkpt lat="46.17854" lon="6.48635">
        <ele>903</ele>
        <time>2021-09-12T08:19:09Z</time>
      </trkpt>
      <trkpt lat="46.1786" lon="6.48639">
        <ele>903</ele>
        <time>2021-09-12T08:19:10Z</time>
      </trkpt>
      <trkpt lat="46.17877" lon="6.48665">
        <ele>905</ele>
        <time>2021-09-12T08:19:13Z</time>
      </trkpt>
      <trkpt lat="46.17888" lon="6.48694">
        <ele>941</ele>
        <time>2021-09-12T08:19:16Z</time>
      </trkpt>
      <trkpt lat="46.17899" lon="6.4871">
        <ele>949</ele>
        <time>2021-09-12T08:19:19Z</time>
      </trkpt>
      <trkpt lat="46.17904" lon="6.48723">
        <ele>951</ele>
        <time>2021-09-12T08:19:21Z</time>
      </trkpt>
      <trkpt lat="46.1791" lon="6.48728">
        <ele>951</ele>
        <time>2021-09-12T08:19:22Z</time>
      </trkpt>
      <trkpt lat="46.17931" lon="6.48736">
        <ele>950</ele>
        <time>2021-09-12T08:19:25Z</time>
      </trkpt>
      <trkpt lat="46.17946" lon="6.48734">
        <ele>947</ele>
        <time>2021-09-12T08:19:27Z</time>
      </trkpt>
      <trkpt lat="46.17987" lon="6.48709">
        <ele>938</ele>
        <time>2021-09-12T08:19:33Z</time>
      </trkpt>
      <trkpt lat="46.18002" lon="6.48699">
        <ele>944</ele>
        <time>2021-09-12T08:19:35Z</time>
      </trkpt>
      <trkpt lat="46.18042" lon="6.48678">
        <ele>918</ele>
        <time>2021-09-12T08:19:41Z</time>
      </trkpt>
      <trkpt lat="46.18058" lon="6.48656">
        <ele>918</ele>
        <time>2021-09-12T08:19:45Z</time>
      </trkpt>
      <trkpt lat="46.18083" lon="6.48651">
        <ele>917</ele>
        <time>2021-09-12T08:19:49Z</time>
      </trkpt>
      <trkpt lat="46.18095" lon="6.48655">
        <ele>913</ele>
        <time>2021-09-12T08:19:51Z</time>
      </trkpt>
      <trkpt lat="46.18112" lon="6.48663">
        <ele>922</ele>
        <time>2021-09-12T08:19:54Z</time>
      </trkpt>
      <trkpt lat="46.18118" lon="6.48666">
        <ele>918</ele>
        <time>2021-09-12T08:19:55Z</time>
      </trkpt>
      <trkpt lat="46.18128" lon="6.48677">
        <ele>913</ele>
        <time>2021-09-12T08:19:57Z</time>
      </trkpt>
      <trkpt lat="46.18142" lon="6.48682">
        <ele>913</ele>
        <time>2021-09-12T08:19:59Z</time>
      </trkpt>
      <trkpt lat="46.1815" lon="6.48684">
        <ele>924</ele>
        <time>2021-09-12T08:20:00Z</time>
      </trkpt>
      <trkpt lat="46.18268" lon="6.48681">
        <ele>989</ele>
        <time>2021-09-12T08:20:13Z</time>
      </trkpt>
      <trkpt lat="46.18304" lon="6.48685">
        <ele>1006</ele>
        <time>2021-09-12T08:20:17Z</time>
      </trkpt>
      <trkpt lat="46.18342" lon="6.48673">
        <ele>1013</ele>
        <time>2021-09-12T08:20:21Z</time>
      </trkpt>
      <trkpt lat="46.18351" lon="6.48668">
        <ele>1015</ele>
        <time>2021-09-12T08:20:22Z</time>
      </trkpt>
      <trkpt lat="46.18382" lon="6.48649">
        <ele>1022</ele>
        <time>2021-09-12T08:20:26Z</time>
      </trkpt>
      <trkpt lat="46.18395" lon="6.48652">
        <ele>1023</ele>
        <time>2021-09-12T08:20:28Z</time>
      </trkpt>
      <trkpt lat="46.18442" lon="6.48673">
        <ele>1026</ele>
        <time>2021-09-12T08:20:35Z</time>
      </trkpt>
      <trkpt lat="46.18453" lon="6.4868">
        <ele>1026</ele>
        <time>2021-09-12T08:20:37Z</time>
      </trkpt>
      <trkpt lat="46.18467" lon="6.48682">
        <ele>1027</ele>
        <time>2021-09-12T08:20:39Z</time>
      </trkpt>
      <trkpt lat="46.18603" lon="6.48656">
        <ele>1034</ele>
        <time>2021-09-12T08:20:55Z</time>
      </trkpt>
      <trkpt lat="46.18626" lon="6.48649">
        <ele>998</ele>
        <time>2021-09-12T08:21:03Z</time>
      </trkpt>
      <trkpt lat="46.18628" lon="6.48646">
        <ele>1016</ele>
        <time>2021-09-12T08:21:10Z</time>
      </trkpt>
      <trkpt lat="46.18634" lon="6.48645">
        <ele>1009</ele>
        <time>2021-09-12T08:21:22Z</time>
      </trkpt>
      <trkpt lat="46.18638" lon="6.48641">
        <ele>1060</ele>
        <time>2021-09-12T08:21:45Z</time>
      </trkpt>
      <trkpt lat="46.18672" lon="6.48627">
        <ele>1077</ele>
        <time>2021-09-12T08:21:51Z</time>
      </trkpt>
      <trkpt lat="46.1871" lon="6.4863">
        <ele>1077</ele>
        <time>2021-09-12T08:21:55Z</time>
      </trkpt>
      <trkpt lat="46.18854" lon="6.48655">
        <ele>1077</ele>
        <time>2021-09-12T08:22:10Z</time>
      </trkpt>
      <trkpt lat="46.18972" lon="6.48712">
        <ele>1079</ele>
        <time>2021-09-12T08:22:27Z</time>
      </trkpt>
      <trkpt lat="46.1908" lon="6.48749">
        <ele>1080</ele>
        <time>2021-09-12T08:22:42Z</time>
      </trkpt>
      <trkpt lat="46.19261" lon="6.48823">
        <ele>1078</ele>
        <time>2021-09-12T08:23:03Z</time>
      </trkpt>
      <trkpt lat="46.19274" lon="6.48824">
        <ele>1080</ele>
        <time>2021-09-12T08:23:06Z</time>
      </trkpt>
      <trkpt lat="46.19284" lon="6.48829">
        <ele>1082</ele>
        <time>2021-09-12T08:24:23Z</time>
      </trkpt>
      <trkpt lat="46.19422" lon="6.48857">
        <ele>1086</ele>
        <time>2021-09-12T08:24:42Z</time>
      </trkpt>
      <trkpt lat="46.19459" lon="6.48856">
        <ele>1085</ele>
        <time>2021-09-12T08:24:48Z</time>
      </trkpt>
      <trkpt lat="46.19464" lon="6.48861">
        <ele>1086</ele>
        <time>2021-09-12T08:24:49Z</time>
      </trkpt>
      <trkpt lat="46.19489" lon="6.48868">
        <ele>1085</ele>
        <time>2021-09-12T08:24:53Z</time>
      </trkpt>
      <trkpt lat="46.19501" lon="6.48882">
        <ele>1083</ele>
        <time>2021-09-12T08:24:55Z</time>
      </trkpt>
      <trkpt lat="46.19507" lon="6.48913">
        <ele>1079</ele>
        <time>2021-09-12T08:24:59Z</time>
      </trkpt>
      <trkpt lat="46.19519" lon="6.48928">
        <ele>1080</ele>
        <time>2021-09-12T08:25:01Z</time>
      </trkpt>
      <trkpt lat="46.19531" lon="6.48934">
        <ele>1080</ele>
        <time>2021-09-12T08:25:03Z</time>
      </trkpt>
      <trkpt lat="46.19575" lon="6.48952">
        <ele>1079</ele>
        <time>2021-09-12T08:25:09Z</time>
      </trkpt>
      <trkpt lat="46.19595" lon="6.48953">
        <ele>1078</ele>
        <time>2021-09-12T08:25:12Z</time>
      </trkpt>
      <trkpt lat="46.19604" lon="6.48952">
        <ele>1079</ele>
        <time>2021-09-12T08:25:13Z</time>
      </trkpt>
      <trkpt lat="46.19608" lon="6.48951">
        <ele>1081</ele>
        <time>2021-09-12T08:25:14Z</time>
      </trkpt>
      <trkpt lat="46.19643" lon="6.48932">
        <ele>1092</ele>
        <time>2021-09-12T08:25:22Z</time>
      </trkpt>
      <trkpt lat="46.19673" lon="6.48936">
        <ele>1095</ele>
        <time>2021-09-12T08:25:27Z</time>
      </trkpt>
      <trkpt lat="46.19687" lon="6.48932">
        <ele>1098</ele>
        <time>2021-09-12T08:25:29Z</time>
      </trkpt>
      <trkpt lat="46.19698" lon="6.4893">
        <ele>1100</ele>
        <time>2021-09-12T08:25:31Z</time>
      </trkpt>
      <trkpt lat="46.19708" lon="6.48934">
        <ele>1104</ele>
        <time>2021-09-12T08:25:33Z</time>
      </trkpt>
      <trkpt lat="46.19714" lon="6.48936">
        <ele>1105</ele>
        <time>2021-09-12T08:25:34Z</time>
      </trkpt>
      <trkpt lat="46.19796" lon="6.48935">
        <ele>1117</ele>
        <time>2021-09-12T08:25:47Z</time>
      </trkpt>
      <trkpt lat="46.19806" lon="6.48941">
        <ele>1120</ele>
        <time>2021-09-12T08:25:49Z</time>
      </trkpt>
      <trkpt lat="46.19837" lon="6.48956">
        <ele>1126</ele>
        <time>2021-09-12T08:25:54Z</time>
      </trkpt>
      <trkpt lat="46.19863" lon="6.48959">
        <ele>1128</ele>
        <time>2021-09-12T08:25:58Z</time>
      </trkpt>
      <trkpt lat="46.19904" lon="6.48958">
        <ele>1133</ele>
        <time>2021-09-12T08:26:05Z</time>
      </trkpt>
      <trkpt lat="46.19937" lon="6.48961">
        <ele>1137</ele>
        <time>2021-09-12T08:26:11Z</time>
      </trkpt>
      <trkpt lat="46.19942" lon="6.48963">
        <ele>1138</ele>
        <time>2021-09-12T08:26:13Z</time>
      </trkpt>
      <trkpt lat="46.19944" lon="6.4897">
        <ele>1137</ele>
        <time>2021-09-12T08:26:17Z</time>
      </trkpt>
      <trkpt lat="46.19942" lon="6.48976">
        <ele>1139</ele>
        <time>2021-09-12T08:26:25Z</time>
      </trkpt>
      <trkpt lat="46.19946" lon="6.48976">
        <ele>1140</ele>
        <time>2021-09-12T08:26:36Z</time>
      </trkpt>
      <trkpt lat="46.19952" lon="6.48976">
        <ele>1143</ele>
        <time>2021-09-12T08:26:38Z</time>
      </trkpt>
      <trkpt lat="46.19957" lon="6.48978">
        <ele>1142</ele>
        <time>2021-09-12T08:26:41Z</time>
      </trkpt>
      <trkpt lat="46.1996" lon="6.4898">
        <ele>1143</ele>
        <time>2021-09-12T08:26:46Z</time>
      </trkpt>
      <trkpt lat="46.19964" lon="6.48978">
        <ele>1143</ele>
        <time>2021-09-12T08:26:49Z</time>
      </trkpt>
      <trkpt lat="46.19971" lon="6.4898">
        <ele>1144</ele>
        <time>2021-09-12T08:26:54Z</time>
      </trkpt>
      <trkpt lat="46.1998" lon="6.48979">
        <ele>1142</ele>
        <time>2021-09-12T08:26:58Z</time>
      </trkpt>
      <trkpt lat="46.19986" lon="6.48978">
        <ele>1141</ele>
        <time>2021-09-12T08:27:00Z</time>
      </trkpt>
      <trkpt lat="46.19989" lon="6.48977">
        <ele>1141</ele>
        <time>2021-09-12T08:27:02Z</time>
      </trkpt>
      <trkpt lat="46.19995" lon="6.48976">
        <ele>1143</ele>
        <time>2021-09-12T08:27:15Z</time>
      </trkpt>
      <trkpt lat="46.2007" lon="6.48991">
        <ele>1144</ele>
        <time>2021-09-12T08:27:25Z</time>
      </trkpt>
      <trkpt lat="46.20121" lon="6.48988">
        <ele>1150</ele>
        <time>2021-09-12T08:27:31Z</time>
      </trkpt>
      <trkpt lat="46.20146" lon="6.48986">
        <ele>1155</ele>
        <time>2021-09-12T08:27:34Z</time>
      </trkpt>
      <trkpt lat="46.20255" lon="6.48946">
        <ele>1166</ele>
        <time>2021-09-12T08:27:49Z</time>
      </trkpt>
      <trkpt lat="46.20284" lon="6.48944">
        <ele>1170</ele>
        <time>2021-09-12T08:27:53Z</time>
      </trkpt>
      <trkpt lat="46.20304" lon="6.48935">
        <ele>1171</ele>
        <time>2021-09-12T08:27:57Z</time>
      </trkpt>
      <trkpt lat="46.2031" lon="6.48936">
        <ele>1171</ele>
        <time>2021-09-12T08:27:58Z</time>
      </trkpt>
      <trkpt lat="46.20339" lon="6.48948">
        <ele>1172</ele>
        <time>2021-09-12T08:28:07Z</time>
      </trkpt>
      <trkpt lat="46.20343" lon="6.4895">
        <ele>1178</ele>
        <time>2021-09-12T08:28:35Z</time>
      </trkpt>
      <trkpt lat="46.20353" lon="6.48953">
        <ele>1182</ele>
        <time>2021-09-12T08:28:38Z</time>
      </trkpt>
      <trkpt lat="46.20381" lon="6.48941">
        <ele>1181</ele>
        <time>2021-09-12T08:28:44Z</time>
      </trkpt>
      <trkpt lat="46.20393" lon="6.48944">
        <ele>1181</ele>
        <time>2021-09-12T08:28:46Z</time>
      </trkpt>
      <trkpt lat="46.20398" lon="6.48951">
        <ele>1180</ele>
        <time>2021-09-12T08:28:47Z</time>
      </trkpt>
      <trkpt lat="46.20403" lon="6.48957">
        <ele>1180</ele>
        <time>2021-09-12T08:28:48Z</time>
      </trkpt>
      <trkpt lat="46.2042" lon="6.48995">
        <ele>1178</ele>
        <time>2021-09-12T08:28:53Z</time>
      </trkpt>
      <trkpt lat="46.2043" lon="6.49006">
        <ele>1178</ele>
        <time>2021-09-12T08:28:55Z</time>
      </trkpt>
      <trkpt lat="46.20443" lon="6.49012">
        <ele>1177</ele>
        <time>2021-09-12T08:28:57Z</time>
      </trkpt>
      <trkpt lat="46.20472" lon="6.49017">
        <ele>1175</ele>
        <time>2021-09-12T08:29:01Z</time>
      </trkpt>
      <trkpt lat="46.20479" lon="6.49022">
        <ele>1175</ele>
        <time>2021-09-12T08:29:02Z</time>
      </trkpt>
      <trkpt lat="46.20515" lon="6.49081">
        <ele>1170</ele>
        <time>2021-09-12T08:29:08Z</time>
      </trkpt>
      <trkpt lat="46.20521" lon="6.4909">
        <ele>1168</ele>
        <time>2021-09-12T08:29:09Z</time>
      </trkpt>
      <trkpt lat="46.20538" lon="6.49112">
        <ele>1163</ele>
        <time>2021-09-12T08:29:12Z</time>
      </trkpt>
      <trkpt lat="46.20553" lon="6.49121">
        <ele>1162</ele>
        <time>2021-09-12T08:29:14Z</time>
      </trkpt>
      <trkpt lat="46.20584" lon="6.49128">
        <ele>1161</ele>
        <time>2021-09-12T08:29:18Z</time>
      </trkpt>
      <trkpt lat="46.20659" lon="6.49121">
        <ele>1154</ele>
        <time>2021-09-12T08:29:26Z</time>
      </trkpt>
      <trkpt lat="46.20698" lon="6.4913">
        <ele>1149</ele>
        <time>2021-09-12T08:29:31Z</time>
      </trkpt>
      <trkpt lat="46.20789" lon="6.49113">
        <ele>1137</ele>
        <time>2021-09-12T08:29:41Z</time>
      </trkpt>
      <trkpt lat="46.20875" lon="6.49143">
        <ele>1134</ele>
        <time>2021-09-12T08:29:52Z</time>
      </trkpt>
      <trkpt lat="46.2093" lon="6.49128">
        <ele>1133</ele>
        <time>2021-09-12T08:29:59Z</time>
      </trkpt>
      <trkpt lat="46.20958" lon="6.49109">
        <ele>1132</ele>
        <time>2021-09-12T08:30:02Z</time>
      </trkpt>
      <trkpt lat="46.20983" lon="6.49073">
        <ele>1132</ele>
        <time>2021-09-12T08:30:06Z</time>
      </trkpt>
      <trkpt lat="46.20986" lon="6.49062">
        <ele>1133</ele>
        <time>2021-09-12T08:30:07Z</time>
      </trkpt>
      <trkpt lat="46.20992" lon="6.49042">
        <ele>1134</ele>
        <time>2021-09-12T08:30:09Z</time>
      </trkpt>
      <trkpt lat="46.20998" lon="6.49032">
        <ele>1133</ele>
        <time>2021-09-12T08:30:10Z</time>
      </trkpt>
      <trkpt lat="46.21063" lon="6.48966">
        <ele>1135</ele>
        <time>2021-09-12T08:30:21Z</time>
      </trkpt>
      <trkpt lat="46.21073" lon="6.48965">
        <ele>1135</ele>
        <time>2021-09-12T08:30:22Z</time>
      </trkpt>
      <trkpt lat="46.21096" lon="6.48983">
        <ele>1136</ele>
        <time>2021-09-12T08:30:26Z</time>
      </trkpt>
      <trkpt lat="46.2114" lon="6.48987">
        <ele>1137</ele>
        <time>2021-09-12T08:30:31Z</time>
      </trkpt>
      <trkpt lat="46.21153" lon="6.48997">
        <ele>1137</ele>
        <time>2021-09-12T08:30:33Z</time>
      </trkpt>
      <trkpt lat="46.21165" lon="6.49">
        <ele>1138</ele>
        <time>2021-09-12T08:30:35Z</time>
      </trkpt>
      <trkpt lat="46.21196" lon="6.49002">
        <ele>1141</ele>
        <time>2021-09-12T08:30:39Z</time>
      </trkpt>
      <trkpt lat="46.21272" lon="6.48967">
        <ele>1148</ele>
        <time>2021-09-12T08:30:48Z</time>
      </trkpt>
      <trkpt lat="46.21324" lon="6.48964">
        <ele>1152</ele>
        <time>2021-09-12T08:30:53Z</time>
      </trkpt>
      <trkpt lat="46.21356" lon="6.4897">
        <ele>1156</ele>
        <time>2021-09-12T08:30:56Z</time>
      </trkpt>
      <trkpt lat="46.21392" lon="6.48962">
        <ele>1158</ele>
        <time>2021-09-12T08:31:00Z</time>
      </trkpt>
      <trkpt lat="46.21401" lon="6.4895">
        <ele>1160</ele>
        <time>2021-09-12T08:31:02Z</time>
      </trkpt>
      <trkpt lat="46.21408" lon="6.48931">
        <ele>1162</ele>
        <time>2021-09-12T08:31:04Z</time>
      </trkpt>
      <trkpt lat="46.2141" lon="6.48884">
        <ele>1166</ele>
        <time>2021-09-12T08:31:08Z</time>
      </trkpt>
      <trkpt lat="46.21394" lon="6.48823">
        <ele>1169</ele>
        <time>2021-09-12T08:31:13Z</time>
      </trkpt>
      <trkpt lat="46.21375" lon="6.48756">
        <ele>1174</ele>
        <time>2021-09-12T08:31:19Z</time>
      </trkpt>
      <trkpt lat="46.21371" lon="6.48751">
        <ele>1174</ele>
        <time>2021-09-12T08:31:20Z</time>
      </trkpt>
      <trkpt lat="46.21369" lon="6.48744">
        <ele>1174</ele>
        <time>2021-09-12T08:31:21Z</time>
      </trkpt>
      <trkpt lat="46.21368" lon="6.48737">
        <ele>1174</ele>
        <time>2021-09-12T08:31:22Z</time>
      </trkpt>
      <trkpt lat="46.21369" lon="6.48731">
        <ele>1174</ele>
        <time>2021-09-12T08:31:23Z</time>
      </trkpt>
      <trkpt lat="46.2137" lon="6.48727">
        <ele>1175</ele>
        <time>2021-09-12T08:31:24Z</time>
      </trkpt>
      <trkpt lat="46.21376" lon="6.48723">
        <ele>1175</ele>
        <time>2021-09-12T08:31:25Z</time>
      </trkpt>
      <trkpt lat="46.21384" lon="6.48723">
        <ele>1176</ele>
        <time>2021-09-12T08:31:26Z</time>
      </trkpt>
      <trkpt lat="46.21399" lon="6.48724">
        <ele>1178</ele>
        <time>2021-09-12T08:31:28Z</time>
      </trkpt>
      <trkpt lat="46.21406" lon="6.48721">
        <ele>1179</ele>
        <time>2021-09-12T08:31:29Z</time>
      </trkpt>
      <trkpt lat="46.21413" lon="6.48717">
        <ele>1180</ele>
        <time>2021-09-12T08:31:30Z</time>
      </trkpt>
      <trkpt lat="46.21436" lon="6.48676">
        <ele>1183</ele>
        <time>2021-09-12T08:31:34Z</time>
      </trkpt>
      <trkpt lat="46.21456" lon="6.48636">
        <ele>1185</ele>
        <time>2021-09-12T08:31:38Z</time>
      </trkpt>
      <trkpt lat="46.2146" lon="6.48629">
        <ele>1185</ele>
        <time>2021-09-12T08:31:39Z</time>
      </trkpt>
      <trkpt lat="46.21468" lon="6.48627">
        <ele>1186</ele>
        <time>2021-09-12T08:31:40Z</time>
      </trkpt>
      <trkpt lat="46.21482" lon="6.48627">
        <ele>1187</ele>
        <time>2021-09-12T08:31:42Z</time>
      </trkpt>
      <trkpt lat="46.2149" lon="6.48628">
        <ele>1188</ele>
        <time>2021-09-12T08:31:43Z</time>
      </trkpt>
      <trkpt lat="46.21504" lon="6.48633">
        <ele>1191</ele>
        <time>2021-09-12T08:31:45Z</time>
      </trkpt>
      <trkpt lat="46.21534" lon="6.48655">
        <ele>1197</ele>
        <time>2021-09-12T08:31:51Z</time>
      </trkpt>
      <trkpt lat="46.21538" lon="6.48655">
        <ele>1198</ele>
        <time>2021-09-12T08:31:52Z</time>
      </trkpt>
      <trkpt lat="46.21566" lon="6.48635">
        <ele>1202</ele>
        <time>2021-09-12T08:31:57Z</time>
      </trkpt>
      <trkpt lat="46.21574" lon="6.48628">
        <ele>1204</ele>
        <time>2021-09-12T08:31:58Z</time>
      </trkpt>
      <trkpt lat="46.21581" lon="6.48623">
        <ele>1207</ele>
        <time>2021-09-12T08:31:59Z</time>
      </trkpt>
      <trkpt lat="46.21601" lon="6.48614">
        <ele>1212</ele>
        <time>2021-09-12T08:32:02Z</time>
      </trkpt>
      <trkpt lat="46.21612" lon="6.48605">
        <ele>1214</ele>
        <time>2021-09-12T08:32:04Z</time>
      </trkpt>
      <trkpt lat="46.21633" lon="6.48603">
        <ele>1217</ele>
        <time>2021-09-12T08:32:07Z</time>
      </trkpt>
      <trkpt lat="46.21651" lon="6.48602">
        <ele>1221</ele>
        <time>2021-09-12T08:32:10Z</time>
      </trkpt>
      <trkpt lat="46.21661" lon="6.48595">
        <ele>1223</ele>
        <time>2021-09-12T08:32:12Z</time>
      </trkpt>
      <trkpt lat="46.21673" lon="6.48577">
        <ele>1227</ele>
        <time>2021-09-12T08:32:15Z</time>
      </trkpt>
      <trkpt lat="46.21681" lon="6.4856">
        <ele>1230</ele>
        <time>2021-09-12T08:32:17Z</time>
      </trkpt>
      <trkpt lat="46.21687" lon="6.48546">
        <ele>1234</ele>
        <time>2021-09-12T08:32:19Z</time>
      </trkpt>
      <trkpt lat="46.2171" lon="6.48521">
        <ele>1239</ele>
        <time>2021-09-12T08:32:24Z</time>
      </trkpt>
      <trkpt lat="46.21721" lon="6.48488">
        <ele>1241</ele>
        <time>2021-09-12T08:32:30Z</time>
      </trkpt>
      <trkpt lat="46.21729" lon="6.48479">
        <ele>1242</ele>
        <time>2021-09-12T08:32:32Z</time>
      </trkpt>
      <trkpt lat="46.21783" lon="6.48446">
        <ele>1253</ele>
        <time>2021-09-12T08:32:42Z</time>
      </trkpt>
      <trkpt lat="46.21786" lon="6.48441">
        <ele>1254</ele>
        <time>2021-09-12T08:32:43Z</time>
      </trkpt>
      <trkpt lat="46.21792" lon="6.48426">
        <ele>1256</ele>
        <time>2021-09-12T08:32:45Z</time>
      </trkpt>
      <trkpt lat="46.21816" lon="6.48382">
        <ele>1265</ele>
        <time>2021-09-12T08:32:51Z</time>
      </trkpt>
      <trkpt lat="46.21819" lon="6.48376">
        <ele>1266</ele>
        <time>2021-09-12T08:32:52Z</time>
      </trkpt>
      <trkpt lat="46.21822" lon="6.48361">
        <ele>1268</ele>
        <time>2021-09-12T08:32:54Z</time>
      </trkpt>
      <trkpt lat="46.21817" lon="6.48325">
        <ele>1271</ele>
        <time>2021-09-12T08:32:58Z</time>
      </trkpt>
      <trkpt lat="46.21818" lon="6.48317">
        <ele>1272</ele>
        <time>2021-09-12T08:32:59Z</time>
      </trkpt>
      <trkpt lat="46.21819" lon="6.48311">
        <ele>1273</ele>
        <time>2021-09-12T08:33:00Z</time>
      </trkpt>
      <trkpt lat="46.21822" lon="6.48309">
        <ele>1274</ele>
        <time>2021-09-12T08:33:01Z</time>
      </trkpt>
      <trkpt lat="46.21827" lon="6.48308">
        <ele>1274</ele>
        <time>2021-09-12T08:33:02Z</time>
      </trkpt>
      <trkpt lat="46.21832" lon="6.48311">
        <ele>1275</ele>
        <time>2021-09-12T08:33:03Z</time>
      </trkpt>
      <trkpt lat="46.21858" lon="6.48333">
        <ele>1275</ele>
        <time>2021-09-12T08:33:09Z</time>
      </trkpt>
      <trkpt lat="46.21862" lon="6.48332">
        <ele>1275</ele>
        <time>2021-09-12T08:33:10Z</time>
      </trkpt>
      <trkpt lat="46.21866" lon="6.48329">
        <ele>1276</ele>
        <time>2021-09-12T08:33:12Z</time>
      </trkpt>
      <trkpt lat="46.21871" lon="6.4833">
        <ele>1276</ele>
        <time>2021-09-12T08:33:14Z</time>
      </trkpt>
      <trkpt lat="46.21876" lon="6.48331">
        <ele>1277</ele>
        <time>2021-09-12T08:33:16Z</time>
      </trkpt>
      <trkpt lat="46.21885" lon="6.48322">
        <ele>1279</ele>
        <time>2021-09-12T08:33:20Z</time>
      </trkpt>
      <trkpt lat="46.21885" lon="6.48318">
        <ele>1281</ele>
        <time>2021-09-12T08:33:48Z</time>
      </trkpt>
      <trkpt lat="46.21888" lon="6.48316">
        <ele>1281</ele>
        <time>2021-09-12T08:33:51Z</time>
      </trkpt>
      <trkpt lat="46.21901" lon="6.48314">
        <ele>1285</ele>
        <time>2021-09-12T08:33:56Z</time>
      </trkpt>
      <trkpt lat="46.21922" lon="6.48304">
        <ele>1290</ele>
        <time>2021-09-12T08:34:01Z</time>
      </trkpt>
      <trkpt lat="46.21928" lon="6.48295">
        <ele>1288</ele>
        <time>2021-09-12T08:34:04Z</time>
      </trkpt>
      <trkpt lat="46.21927" lon="6.48291">
        <ele>1300</ele>
        <time>2021-09-12T08:36:09Z</time>
      </trkpt>
      <trkpt lat="46.2193" lon="6.48288">
        <ele>1301</ele>
        <time>2021-09-12T08:42:15Z</time>
      </trkpt>
      <trkpt lat="46.21932" lon="6.48285">
        <ele>1301</ele>
        <time>2021-09-12T08:42:18Z</time>
      </trkpt>
      <trkpt lat="46.21936" lon="6.48284">
        <ele>1300</ele>
        <time>2021-09-12T08:43:34Z</time>
      </trkpt>
      <trkpt lat="46.21941" lon="6.48273">
        <ele>1292</ele>
        <time>2021-09-12T08:43:37Z</time>
      </trkpt>
      <trkpt lat="46.2194" lon="6.48261">
        <ele>1294</ele>
        <time>2021-09-12T08:43:39Z</time>
      </trkpt>
      <trkpt lat="46.21935" lon="6.48254">
        <ele>1295</ele>
        <time>2021-09-12T08:43:40Z</time>
      </trkpt>
      <trkpt lat="46.21928" lon="6.48244">
        <ele>1296</ele>
        <time>2021-09-12T08:43:42Z</time>
      </trkpt>
      <trkpt lat="46.21914" lon="6.48232">
        <ele>1298</ele>
        <time>2021-09-12T08:43:46Z</time>
      </trkpt>
      <trkpt lat="46.21901" lon="6.48225">
        <ele>1299</ele>
        <time>2021-09-12T08:43:50Z</time>
      </trkpt>
      <trkpt lat="46.21899" lon="6.48222">
        <ele>1299</ele>
        <time>2021-09-12T08:43:51Z</time>
      </trkpt>
      <trkpt lat="46.21902" lon="6.48214">
        <ele>1301</ele>
        <time>2021-09-12T08:43:53Z</time>
      </trkpt>
      <trkpt lat="46.21949" lon="6.48223">
        <ele>1307</ele>
        <time>2021-09-12T08:44:06Z</time>
      </trkpt>
      <trkpt lat="46.21979" lon="6.48243">
        <ele>1312</ele>
        <time>2021-09-12T08:44:12Z</time>
      </trkpt>
      <trkpt lat="46.21987" lon="6.48254">
        <ele>1314</ele>
        <time>2021-09-12T08:44:14Z</time>
      </trkpt>
      <trkpt lat="46.22048" lon="6.48376">
        <ele>1336</ele>
        <time>2021-09-12T08:44:45Z</time>
      </trkpt>
      <trkpt lat="46.2205" lon="6.48382">
        <ele>1336</ele>
        <time>2021-09-12T08:44:47Z</time>
      </trkpt>
      <trkpt lat="46.2205" lon="6.48392">
        <ele>1337</ele>
        <time>2021-09-12T08:45:55Z</time>
      </trkpt>
      <trkpt lat="46.22048" lon="6.48416">
        <ele>1340</ele>
        <time>2021-09-12T08:45:59Z</time>
      </trkpt>
      <trkpt lat="46.22013" lon="6.48534">
        <ele>1351</ele>
        <time>2021-09-12T08:46:12Z</time>
      </trkpt>
      <trkpt lat="46.21954" lon="6.48638">
        <ele>1352</ele>
        <time>2021-09-12T08:46:24Z</time>
      </trkpt>
      <trkpt lat="46.21922" lon="6.48736">
        <ele>1351</ele>
        <time>2021-09-12T08:46:33Z</time>
      </trkpt>
      <trkpt lat="46.21921" lon="6.48769">
        <ele>1352</ele>
        <time>2021-09-12T08:46:36Z</time>
      </trkpt>
      <trkpt lat="46.21924" lon="6.48786">
        <ele>1353</ele>
        <time>2021-09-12T08:46:38Z</time>
      </trkpt>
      <trkpt lat="46.21947" lon="6.4885">
        <ele>1353</ele>
        <time>2021-09-12T08:46:44Z</time>
      </trkpt>
      <trkpt lat="46.22015" lon="6.48974">
        <ele>1360</ele>
        <time>2021-09-12T08:46:56Z</time>
      </trkpt>
      <trkpt lat="46.22037" lon="6.48985">
        <ele>1362</ele>
        <time>2021-09-12T08:46:59Z</time>
      </trkpt>
      <trkpt lat="46.22062" lon="6.48997">
        <ele>1365</ele>
        <time>2021-09-12T08:47:02Z</time>
      </trkpt>
      <trkpt lat="46.22178" lon="6.491">
        <ele>1378</ele>
        <time>2021-09-12T08:47:18Z</time>
      </trkpt>
      <trkpt lat="46.22179" lon="6.49095">
        <ele>1385</ele>
        <time>2021-09-12T08:47:35Z</time>
      </trkpt>
      <trkpt lat="46.22198" lon="6.4911">
        <ele>1394</ele>
        <time>2021-09-12T08:48:05Z</time>
      </trkpt>
      <trkpt lat="46.22203" lon="6.49115">
        <ele>1394</ele>
        <time>2021-09-12T08:48:06Z</time>
      </trkpt>
      <trkpt lat="46.2221" lon="6.49117">
        <ele>1394</ele>
        <time>2021-09-12T08:48:07Z</time>
      </trkpt>
      <trkpt lat="46.22218" lon="6.49117">
        <ele>1396</ele>
        <time>2021-09-12T08:48:08Z</time>
      </trkpt>
      <trkpt lat="46.22237" lon="6.49127">
        <ele>1402</ele>
        <time>2021-09-12T08:48:11Z</time>
      </trkpt>
      <trkpt lat="46.22253" lon="6.49139">
        <ele>1404</ele>
        <time>2021-09-12T08:48:14Z</time>
      </trkpt>
      <trkpt lat="46.22286" lon="6.49159">
        <ele>1409</ele>
        <time>2021-09-12T08:48:19Z</time>
      </trkpt>
      <trkpt lat="46.22292" lon="6.49166">
        <ele>1411</ele>
        <time>2021-09-12T08:48:20Z</time>
      </trkpt>
      <trkpt lat="46.22299" lon="6.49174">
        <ele>1413</ele>
        <time>2021-09-12T08:48:21Z</time>
      </trkpt>
      <trkpt lat="46.22306" lon="6.49183">
        <ele>1416</ele>
        <time>2021-09-12T08:48:22Z</time>
      </trkpt>
      <trkpt lat="46.22315" lon="6.49193">
        <ele>1419</ele>
        <time>2021-09-12T08:48:23Z</time>
      </trkpt>
      <trkpt lat="46.22322" lon="6.49202">
        <ele>1421</ele>
        <time>2021-09-12T08:48:24Z</time>
      </trkpt>
      <trkpt lat="46.22328" lon="6.49212">
        <ele>1423</ele>
        <time>2021-09-12T08:48:25Z</time>
      </trkpt>
      <trkpt lat="46.22334" lon="6.4922">
        <ele>1426</ele>
        <time>2021-09-12T08:48:26Z</time>
      </trkpt>
      <trkpt lat="46.22368" lon="6.49261">
        <ele>1434</ele>
        <time>2021-09-12T08:48:32Z</time>
      </trkpt>
      <trkpt lat="46.22378" lon="6.49267">
        <ele>1435</ele>
        <time>2021-09-12T08:48:34Z</time>
      </trkpt>
      <trkpt lat="46.2239" lon="6.49267">
        <ele>1436</ele>
        <time>2021-09-12T08:48:36Z</time>
      </trkpt>
      <trkpt lat="46.22395" lon="6.49266">
        <ele>1437</ele>
        <time>2021-09-12T08:48:37Z</time>
      </trkpt>
      <trkpt lat="46.22443" lon="6.49237">
        <ele>1445</ele>
        <time>2021-09-12T08:48:47Z</time>
      </trkpt>
      <trkpt lat="46.22492" lon="6.49202">
        <ele>1453</ele>
        <time>2021-09-12T08:48:55Z</time>
      </trkpt>
      <trkpt lat="46.22507" lon="6.49177">
        <ele>1458</ele>
        <time>2021-09-12T08:48:59Z</time>
      </trkpt>
      <trkpt lat="46.22534" lon="6.49145">
        <ele>1467</ele>
        <time>2021-09-12T08:49:05Z</time>
      </trkpt>
      <trkpt lat="46.22561" lon="6.49136">
        <ele>1476</ele>
        <time>2021-09-12T08:49:10Z</time>
      </trkpt>
      <trkpt lat="46.22574" lon="6.49122">
        <ele>1481</ele>
        <time>2021-09-12T08:49:13Z</time>
      </trkpt>
      <trkpt lat="46.22609" lon="6.49109">
        <ele>1494</ele>
        <time>2021-09-12T08:49:20Z</time>
      </trkpt>
      <trkpt lat="46.22615" lon="6.49108">
        <ele>1497</ele>
        <time>2021-09-12T08:49:21Z</time>
      </trkpt>
      <trkpt lat="46.22619" lon="6.4911">
        <ele>1498</ele>
        <time>2021-09-12T08:49:22Z</time>
      </trkpt>
      <trkpt lat="46.22641" lon="6.49119">
        <ele>1507</ele>
        <time>2021-09-12T08:49:28Z</time>
      </trkpt>
      <trkpt lat="46.22654" lon="6.49115">
        <ele>1511</ele>
        <time>2021-09-12T08:49:32Z</time>
      </trkpt>
      <trkpt lat="46.2269" lon="6.49084">
        <ele>1519</ele>
        <time>2021-09-12T08:49:41Z</time>
      </trkpt>
      <trkpt lat="46.22699" lon="6.49085">
        <ele>1522</ele>
        <time>2021-09-12T08:49:43Z</time>
      </trkpt>
      <trkpt lat="46.22769" lon="6.49093">
        <ele>1543</ele>
        <time>2021-09-12T08:50:00Z</time>
      </trkpt>
      <trkpt lat="46.22798" lon="6.49086">
        <ele>1550</ele>
        <time>2021-09-12T08:50:05Z</time>
      </trkpt>
      <trkpt lat="46.22835" lon="6.49094">
        <ele>1556</ele>
        <time>2021-09-12T08:50:11Z</time>
      </trkpt>
      <trkpt lat="46.22863" lon="6.49104">
        <ele>1556</ele>
        <time>2021-09-12T08:50:19Z</time>
      </trkpt>
      <trkpt lat="46.22866" lon="6.49108">
        <ele>1555</ele>
        <time>2021-09-12T08:50:21Z</time>
      </trkpt>
      <trkpt lat="46.22866" lon="6.49118">
        <ele>1556</ele>
        <time>2021-09-12T08:50:23Z</time>
      </trkpt>
      <trkpt lat="46.22849" lon="6.49178">
        <ele>1561</ele>
        <time>2021-09-12T08:50:29Z</time>
      </trkpt>
      <trkpt lat="46.22845" lon="6.49209">
        <ele>1565</ele>
        <time>2021-09-12T08:50:32Z</time>
      </trkpt>
      <trkpt lat="46.22848" lon="6.49225">
        <ele>1567</ele>
        <time>2021-09-12T08:50:34Z</time>
      </trkpt>
      <trkpt lat="46.22899" lon="6.49311">
        <ele>1579</ele>
        <time>2021-09-12T08:50:45Z</time>
      </trkpt>
      <trkpt lat="46.22922" lon="6.49332">
        <ele>1583</ele>
        <time>2021-09-12T08:50:48Z</time>
      </trkpt>
      <trkpt lat="46.2297" lon="6.49361">
        <ele>1589</ele>
        <time>2021-09-12T08:50:57Z</time>
      </trkpt>
      <trkpt lat="46.22977" lon="6.49374">
        <ele>1590</ele>
        <time>2021-09-12T08:50:59Z</time>
      </trkpt>
      <trkpt lat="46.22992" lon="6.49424">
        <ele>1594</ele>
        <time>2021-09-12T08:51:05Z</time>
      </trkpt>
      <trkpt lat="46.23" lon="6.49436">
        <ele>1596</ele>
        <time>2021-09-12T08:51:07Z</time>
      </trkpt>
      <trkpt lat="46.23017" lon="6.49449">
        <ele>1598</ele>
        <time>2021-09-12T08:51:10Z</time>
      </trkpt>
      <trkpt lat="46.23029" lon="6.49457">
        <ele>1600</ele>
        <time>2021-09-12T08:51:12Z</time>
      </trkpt>
      <trkpt lat="46.23037" lon="6.49468">
        <ele>1602</ele>
        <time>2021-09-12T08:51:14Z</time>
      </trkpt>
      <trkpt lat="46.23056" lon="6.49511">
        <ele>1600</ele>
        <time>2021-09-12T08:51:21Z</time>
      </trkpt>
      <trkpt lat="46.23057" lon="6.49518">
        <ele>1600</ele>
        <time>2021-09-12T08:51:22Z</time>
      </trkpt>
      <trkpt lat="46.23056" lon="6.49525">
        <ele>1600</ele>
        <time>2021-09-12T08:51:23Z</time>
      </trkpt>
      <trkpt lat="46.23054" lon="6.4953">
        <ele>1599</ele>
        <time>2021-09-12T08:51:24Z</time>
      </trkpt>
      <trkpt lat="46.23051" lon="6.49533">
        <ele>1599</ele>
        <time>2021-09-12T08:51:25Z</time>
      </trkpt>
      <trkpt lat="46.23048" lon="6.49535">
        <ele>1599</ele>
        <time>2021-09-12T08:51:26Z</time>
      </trkpt>
      <trkpt lat="46.23038" lon="6.49534">
        <ele>1601</ele>
        <time>2021-09-12T08:51:28Z</time>
      </trkpt>
      <trkpt lat="46.22998" lon="6.49518">
        <ele>1607</ele>
        <time>2021-09-12T08:51:34Z</time>
      </trkpt>
      <trkpt lat="46.22995" lon="6.49515">
        <ele>1608</ele>
        <time>2021-09-12T08:51:35Z</time>
      </trkpt>
      <trkpt lat="46.22986" lon="6.49499">
        <ele>1611</ele>
        <time>2021-09-12T09:03:13Z</time>
      </trkpt>
      <trkpt lat="46.22979" lon="6.4949">
        <ele>1609</ele>
        <time>2021-09-12T09:03:17Z</time>
      </trkpt>
      <trkpt lat="46.22969" lon="6.4947">
        <ele>1607</ele>
        <time>2021-09-12T09:03:23Z</time>
      </trkpt>
      <trkpt lat="46.2297" lon="6.49463">
        <ele>1607</ele>
        <time>2021-09-12T09:03:25Z</time>
      </trkpt>
      <trkpt lat="46.22977" lon="6.4946">
        <ele>1606</ele>
        <time>2021-09-12T09:03:27Z</time>
      </trkpt>
      <trkpt lat="46.22988" lon="6.49459">
        <ele>1604</ele>
        <time>2021-09-12T09:03:30Z</time>
      </trkpt>
      <trkpt lat="46.22997" lon="6.49454">
        <ele>1604</ele>
        <time>2021-09-12T09:03:33Z</time>
      </trkpt>
      <trkpt lat="46.23002" lon="6.4945">
        <ele>1604</ele>
        <time>2021-09-12T09:03:35Z</time>
      </trkpt>
      <trkpt lat="46.23003" lon="6.49445">
        <ele>1602</ele>
        <time>2021-09-12T09:03:37Z</time>
      </trkpt>
      <trkpt lat="46.23002" lon="6.4944">
        <ele>1602</ele>
        <time>2021-09-12T09:03:39Z</time>
      </trkpt>
      <trkpt lat="46.22994" lon="6.49429">
        <ele>1599</ele>
        <time>2021-09-12T09:03:42Z</time>
      </trkpt>
      <trkpt lat="46.22987" lon="6.4942">
        <ele>1598</ele>
        <time>2021-09-12T09:03:43Z</time>
      </trkpt>
      <trkpt lat="46.22986" lon="6.49414">
        <ele>1596</ele>
        <time>2021-09-12T09:03:44Z</time>
      </trkpt>
      <trkpt lat="46.22977" lon="6.49374">
        <ele>1596</ele>
        <time>2021-09-12T09:03:49Z</time>
      </trkpt>
      <trkpt lat="46.22971" lon="6.49361">
        <ele>1592</ele>
        <time>2021-09-12T09:03:51Z</time>
      </trkpt>
      <trkpt lat="46.22967" lon="6.49356">
        <ele>1591</ele>
        <time>2021-09-12T09:03:52Z</time>
      </trkpt>
      <trkpt lat="46.22952" lon="6.49345">
        <ele>1589</ele>
        <time>2021-09-12T09:03:55Z</time>
      </trkpt>
      <trkpt lat="46.22915" lon="6.49325">
        <ele>1585</ele>
        <time>2021-09-12T09:04:01Z</time>
      </trkpt>
      <trkpt lat="46.22899" lon="6.4931">
        <ele>1583</ele>
        <time>2021-09-12T09:04:04Z</time>
      </trkpt>
      <trkpt lat="46.22874" lon="6.4927">
        <ele>1579</ele>
        <time>2021-09-12T09:04:10Z</time>
      </trkpt>
      <trkpt lat="46.22873" lon="6.49265">
        <ele>1578</ele>
        <time>2021-09-12T09:04:11Z</time>
      </trkpt>
      <trkpt lat="46.22873" lon="6.49258">
        <ele>1578</ele>
        <time>2021-09-12T09:04:12Z</time>
      </trkpt>
      <trkpt lat="46.22877" lon="6.49242">
        <ele>1573</ele>
        <time>2021-09-12T09:04:14Z</time>
      </trkpt>
      <trkpt lat="46.22889" lon="6.49222">
        <ele>1568</ele>
        <time>2021-09-12T09:04:17Z</time>
      </trkpt>
      <trkpt lat="46.22943" lon="6.49166">
        <ele>1418</ele>
        <time>2021-09-12T09:04:26Z</time>
      </trkpt>
      <trkpt lat="46.22954" lon="6.49159">
        <ele>1416</ele>
        <time>2021-09-12T09:04:28Z</time>
      </trkpt>
      <trkpt lat="46.23007" lon="6.49146">
        <ele>1409</ele>
        <time>2021-09-12T09:04:35Z</time>
      </trkpt>
      <trkpt lat="46.23061" lon="6.49112">
        <ele>1402</ele>
        <time>2021-09-12T09:04:42Z</time>
      </trkpt>
      <trkpt lat="46.23069" lon="6.49109">
        <ele>1426</ele>
        <time>2021-09-12T09:04:43Z</time>
      </trkpt>
      <trkpt lat="46.23102" lon="6.49109">
        <ele>1495</ele>
        <time>2021-09-12T09:04:47Z</time>
      </trkpt>
      <trkpt lat="46.23173" lon="6.49136">
        <ele>1515</ele>
        <time>2021-09-12T09:04:59Z</time>
      </trkpt>
      <trkpt lat="46.23191" lon="6.49147">
        <ele>1514</ele>
        <time>2021-09-12T09:05:03Z</time>
      </trkpt>
      <trkpt lat="46.23195" lon="6.49154">
        <ele>1513</ele>
        <time>2021-09-12T09:05:04Z</time>
      </trkpt>
      <trkpt lat="46.23202" lon="6.49175">
        <ele>1511</ele>
        <time>2021-09-12T09:05:07Z</time>
      </trkpt>
      <trkpt lat="46.23215" lon="6.49214">
        <ele>1509</ele>
        <time>2021-09-12T09:05:13Z</time>
      </trkpt>
      <trkpt lat="46.23218" lon="6.49218">
        <ele>1509</ele>
        <time>2021-09-12T09:05:14Z</time>
      </trkpt>
      <trkpt lat="46.23235" lon="6.49228">
        <ele>1507</ele>
        <time>2021-09-12T09:05:18Z</time>
      </trkpt>
      <trkpt lat="46.23267" lon="6.49238">
        <ele>1499</ele>
        <time>2021-09-12T09:05:27Z</time>
      </trkpt>
      <trkpt lat="46.23283" lon="6.49253">
        <ele>1493</ele>
        <time>2021-09-12T09:05:33Z</time>
      </trkpt>
      <trkpt lat="46.23307" lon="6.49301">
        <ele>1483</ele>
        <time>2021-09-12T09:05:46Z</time>
      </trkpt>
      <trkpt lat="46.2331" lon="6.49303">
        <ele>1483</ele>
        <time>2021-09-12T09:05:47Z</time>
      </trkpt>
      <trkpt lat="46.23315" lon="6.49303">
        <ele>1482</ele>
        <time>2021-09-12T09:05:48Z</time>
      </trkpt>
      <trkpt lat="46.2332" lon="6.49298">
        <ele>1481</ele>
        <time>2021-09-12T09:05:49Z</time>
      </trkpt>
      <trkpt lat="46.2333" lon="6.493">
        <ele>1479</ele>
        <time>2021-09-12T09:05:51Z</time>
      </trkpt>
      <trkpt lat="46.23341" lon="6.49307">
        <ele>1478</ele>
        <time>2021-09-12T09:05:53Z</time>
      </trkpt>
      <trkpt lat="46.23373" lon="6.49345">
        <ele>1474</ele>
        <time>2021-09-12T09:05:59Z</time>
      </trkpt>
      <trkpt lat="46.23411" lon="6.49386">
        <ele>1465</ele>
        <time>2021-09-12T09:06:06Z</time>
      </trkpt>
      <trkpt lat="46.23414" lon="6.49394">
        <ele>1465</ele>
        <time>2021-09-12T09:06:07Z</time>
      </trkpt>
      <trkpt lat="46.23424" lon="6.49433">
        <ele>1465</ele>
        <time>2021-09-12T09:06:11Z</time>
      </trkpt>
      <trkpt lat="46.23427" lon="6.49444">
        <ele>1460</ele>
        <time>2021-09-12T09:06:12Z</time>
      </trkpt>
      <trkpt lat="46.23479" lon="6.49525">
        <ele>1444</ele>
        <time>2021-09-12T09:06:23Z</time>
      </trkpt>
      <trkpt lat="46.23503" lon="6.49544">
        <ele>1440</ele>
        <time>2021-09-12T09:06:27Z</time>
      </trkpt>
      <trkpt lat="46.23567" lon="6.49579">
        <ele>1433</ele>
        <time>2021-09-12T09:06:38Z</time>
      </trkpt>
      <trkpt lat="46.23598" lon="6.49615">
        <ele>1429</ele>
        <time>2021-09-12T09:06:44Z</time>
      </trkpt>
      <trkpt lat="46.23771" lon="6.49854">
        <ele>1423</ele>
        <time>2021-09-12T09:07:14Z</time>
      </trkpt>
      <trkpt lat="46.23796" lon="6.49876">
        <ele>1423</ele>
        <time>2021-09-12T09:07:18Z</time>
      </trkpt>
      <trkpt lat="46.23846" lon="6.49909">
        <ele>1411</ele>
        <time>2021-09-12T09:07:27Z</time>
      </trkpt>
      <trkpt lat="46.23868" lon="6.49936">
        <ele>1408</ele>
        <time>2021-09-12T09:07:32Z</time>
      </trkpt>
      <trkpt lat="46.2387" lon="6.49943">
        <ele>1407</ele>
        <time>2021-09-12T09:07:33Z</time>
      </trkpt>
      <trkpt lat="46.23877" lon="6.49969">
        <ele>1401</ele>
        <time>2021-09-12T09:07:36Z</time>
      </trkpt>
      <trkpt lat="46.2388" lon="6.49977">
        <ele>1399</ele>
        <time>2021-09-12T09:07:37Z</time>
      </trkpt>
      <trkpt lat="46.23892" lon="6.49989">
        <ele>1397</ele>
        <time>2021-09-12T09:07:39Z</time>
      </trkpt>
      <trkpt lat="46.23968" lon="6.50028">
        <ele>1387</ele>
        <time>2021-09-12T09:07:48Z</time>
      </trkpt>
      <trkpt lat="46.24033" lon="6.5005">
        <ele>1377</ele>
        <time>2021-09-12T09:07:56Z</time>
      </trkpt>
      <trkpt lat="46.24062" lon="6.50063">
        <ele>1373</ele>
        <time>2021-09-12T09:08:01Z</time>
      </trkpt>
      <trkpt lat="46.24066" lon="6.50064">
        <ele>1372</ele>
        <time>2021-09-12T09:08:02Z</time>
      </trkpt>
      <trkpt lat="46.24089" lon="6.50061">
        <ele>1371</ele>
        <time>2021-09-12T09:08:07Z</time>
      </trkpt>
      <trkpt lat="46.24097" lon="6.50066">
        <ele>1370</ele>
        <time>2021-09-12T09:08:09Z</time>
      </trkpt>
      <trkpt lat="46.2411" lon="6.50075">
        <ele>1366</ele>
        <time>2021-09-12T09:08:13Z</time>
      </trkpt>
      <trkpt lat="46.24114" lon="6.50081">
        <ele>1365</ele>
        <time>2021-09-12T09:08:15Z</time>
      </trkpt>
      <trkpt lat="46.24116" lon="6.50086">
        <ele>1364</ele>
        <time>2021-09-12T09:08:17Z</time>
      </trkpt>
      <trkpt lat="46.24133" lon="6.50104">
        <ele>1358</ele>
        <time>2021-09-12T09:08:26Z</time>
      </trkpt>
      <trkpt lat="46.24197" lon="6.50161">
        <ele>1350</ele>
        <time>2021-09-12T09:08:35Z</time>
      </trkpt>
      <trkpt lat="46.24224" lon="6.50177">
        <ele>1347</ele>
        <time>2021-09-12T09:08:39Z</time>
      </trkpt>
      <trkpt lat="46.24236" lon="6.5019">
        <ele>1345</ele>
        <time>2021-09-12T09:08:41Z</time>
      </trkpt>
      <trkpt lat="46.24271" lon="6.50233">
        <ele>1334</ele>
        <time>2021-09-12T09:08:47Z</time>
      </trkpt>
      <trkpt lat="46.243" lon="6.5026">
        <ele>1325</ele>
        <time>2021-09-12T09:08:54Z</time>
      </trkpt>
      <trkpt lat="46.24302" lon="6.50264">
        <ele>1324</ele>
        <time>2021-09-12T09:08:55Z</time>
      </trkpt>
      <trkpt lat="46.24303" lon="6.50274">
        <ele>1323</ele>
        <time>2021-09-12T09:08:57Z</time>
      </trkpt>
      <trkpt lat="46.24302" lon="6.50278">
        <ele>1323</ele>
        <time>2021-09-12T09:08:58Z</time>
      </trkpt>
      <trkpt lat="46.24301" lon="6.50283">
        <ele>1323</ele>
        <time>2021-09-12T09:08:59Z</time>
      </trkpt>
      <trkpt lat="46.24299" lon="6.50287">
        <ele>1326</ele>
        <time>2021-09-12T09:09:01Z</time>
      </trkpt>
      <trkpt lat="46.24301" lon="6.50287">
        <ele>1334</ele>
        <time>2021-09-12T09:09:20Z</time>
      </trkpt>
      <trkpt lat="46.24304" lon="6.50276">
        <ele>1334</ele>
        <time>2021-09-12T09:09:22Z</time>
      </trkpt>
      <trkpt lat="46.24304" lon="6.50265">
        <ele>1335</ele>
        <time>2021-09-12T09:09:24Z</time>
      </trkpt>
      <trkpt lat="46.24303" lon="6.50261">
        <ele>1335</ele>
        <time>2021-09-12T09:09:25Z</time>
      </trkpt>
      <trkpt lat="46.24301" lon="6.50256">
        <ele>1336</ele>
        <time>2021-09-12T09:09:26Z</time>
      </trkpt>
      <trkpt lat="46.24224" lon="6.50176">
        <ele>1343</ele>
        <time>2021-09-12T09:09:41Z</time>
      </trkpt>
      <trkpt lat="46.24204" lon="6.50168">
        <ele>1345</ele>
        <time>2021-09-12T09:09:46Z</time>
      </trkpt>
      <trkpt lat="46.24204" lon="6.50173">
        <ele>1340</ele>
        <time>2021-09-12T09:11:56Z</time>
      </trkpt>
      <trkpt lat="46.24207" lon="6.50174">
        <ele>1340</ele>
        <time>2021-09-12T09:11:58Z</time>
      </trkpt>
      <trkpt lat="46.24219" lon="6.50174">
        <ele>1345</ele>
        <time>2021-09-12T09:12:02Z</time>
      </trkpt>
      <trkpt lat="46.24226" lon="6.50177">
        <ele>1345</ele>
        <time>2021-09-12T09:12:04Z</time>
      </trkpt>
      <trkpt lat="46.24231" lon="6.50181">
        <ele>1345</ele>
        <time>2021-09-12T09:12:06Z</time>
      </trkpt>
      <trkpt lat="46.24293" lon="6.50253">
        <ele>1338</ele>
        <time>2021-09-12T09:12:27Z</time>
      </trkpt>
      <trkpt lat="46.24303" lon="6.50262">
        <ele>1325</ele>
        <time>2021-09-12T09:12:31Z</time>
      </trkpt>
      <trkpt lat="46.24306" lon="6.50268">
        <ele>1310</ele>
        <time>2021-09-12T09:12:33Z</time>
      </trkpt>
      <trkpt lat="46.24306" lon="6.50276">
        <ele>1313</ele>
        <time>2021-09-12T09:12:35Z</time>
      </trkpt>
      <trkpt lat="46.24304" lon="6.50282">
        <ele>1323</ele>
        <time>2021-09-12T09:12:37Z</time>
      </trkpt>
      <trkpt lat="46.24302" lon="6.50284">
        <ele>1325</ele>
        <time>2021-09-12T09:12:39Z</time>
      </trkpt>
      <trkpt lat="46.24298" lon="6.50286">
        <ele>1340</ele>
        <time>2021-09-12T09:12:48Z</time>
      </trkpt>
      <trkpt lat="46.2429" lon="6.50298">
        <ele>1328</ele>
        <time>2021-09-12T09:12:52Z</time>
      </trkpt>
      <trkpt lat="46.24287" lon="6.50301">
        <ele>1327</ele>
        <time>2021-09-12T09:12:53Z</time>
      </trkpt>
      <trkpt lat="46.24275" lon="6.50311">
        <ele>1324</ele>
        <time>2021-09-12T09:12:57Z</time>
      </trkpt>
      <trkpt lat="46.2427" lon="6.50318">
        <ele>1323</ele>
        <time>2021-09-12T09:12:59Z</time>
      </trkpt>
      <trkpt lat="46.24259" lon="6.50352">
        <ele>1320</ele>
        <time>2021-09-12T09:13:04Z</time>
      </trkpt>
      <trkpt lat="46.24255" lon="6.50357">
        <ele>1319</ele>
        <time>2021-09-12T09:13:05Z</time>
      </trkpt>
      <trkpt lat="46.24235" lon="6.50377">
        <ele>1334</ele>
        <time>2021-09-12T09:13:09Z</time>
      </trkpt>
      <trkpt lat="46.24223" lon="6.50396">
        <ele>1334</ele>
        <time>2021-09-12T09:13:12Z</time>
      </trkpt>
      <trkpt lat="46.24222" lon="6.50403">
        <ele>1334</ele>
        <time>2021-09-12T09:13:13Z</time>
      </trkpt>
      <trkpt lat="46.24222" lon="6.50411">
        <ele>1333</ele>
        <time>2021-09-12T09:13:14Z</time>
      </trkpt>
      <trkpt lat="46.24223" lon="6.50419">
        <ele>1333</ele>
        <time>2021-09-12T09:13:15Z</time>
      </trkpt>
      <trkpt lat="46.24227" lon="6.50426">
        <ele>1332</ele>
        <time>2021-09-12T09:13:16Z</time>
      </trkpt>
      <trkpt lat="46.24236" lon="6.50439">
        <ele>1331</ele>
        <time>2021-09-12T09:13:18Z</time>
      </trkpt>
      <trkpt lat="46.24255" lon="6.50452">
        <ele>1330</ele>
        <time>2021-09-12T09:13:21Z</time>
      </trkpt>
      <trkpt lat="46.24268" lon="6.50457">
        <ele>1329</ele>
        <time>2021-09-12T09:13:23Z</time>
      </trkpt>
      <trkpt lat="46.24281" lon="6.5046">
        <ele>1329</ele>
        <time>2021-09-12T09:13:25Z</time>
      </trkpt>
      <trkpt lat="46.24287" lon="6.50465">
        <ele>1328</ele>
        <time>2021-09-12T09:13:26Z</time>
      </trkpt>
      <trkpt lat="46.2431" lon="6.50498">
        <ele>1307</ele>
        <time>2021-09-12T09:13:31Z</time>
      </trkpt>
      <trkpt lat="46.24314" lon="6.50502">
        <ele>1313</ele>
        <time>2021-09-12T09:13:32Z</time>
      </trkpt>
      <trkpt lat="46.2432" lon="6.50503">
        <ele>1297</ele>
        <time>2021-09-12T09:13:33Z</time>
      </trkpt>
      <trkpt lat="46.24344" lon="6.50504">
        <ele>1303</ele>
        <time>2021-09-12T09:13:37Z</time>
      </trkpt>
      <trkpt lat="46.24375" lon="6.505">
        <ele>1301</ele>
        <time>2021-09-12T09:13:42Z</time>
      </trkpt>
      <trkpt lat="46.24379" lon="6.50502">
        <ele>1301</ele>
        <time>2021-09-12T09:13:43Z</time>
      </trkpt>
      <trkpt lat="46.24381" lon="6.50507">
        <ele>1300</ele>
        <time>2021-09-12T09:13:44Z</time>
      </trkpt>
      <trkpt lat="46.24382" lon="6.50513">
        <ele>1300</ele>
        <time>2021-09-12T09:13:45Z</time>
      </trkpt>
      <trkpt lat="46.2438" lon="6.50517">
        <ele>1300</ele>
        <time>2021-09-12T09:13:46Z</time>
      </trkpt>
      <trkpt lat="46.24377" lon="6.50521">
        <ele>1282</ele>
        <time>2021-09-12T09:13:47Z</time>
      </trkpt>
      <trkpt lat="46.24359" lon="6.50532">
        <ele>1268</ele>
        <time>2021-09-12T09:13:53Z</time>
      </trkpt>
      <trkpt lat="46.24355" lon="6.50537">
        <ele>1267</ele>
        <time>2021-09-12T09:13:55Z</time>
      </trkpt>
      <trkpt lat="46.24353" lon="6.50542">
        <ele>1267</ele>
        <time>2021-09-12T09:13:56Z</time>
      </trkpt>
      <trkpt lat="46.24353" lon="6.50548">
        <ele>1266</ele>
        <time>2021-09-12T09:13:57Z</time>
      </trkpt>
      <trkpt lat="46.24354" lon="6.50555">
        <ele>1266</ele>
        <time>2021-09-12T09:13:58Z</time>
      </trkpt>
      <trkpt lat="46.24364" lon="6.50563">
        <ele>1265</ele>
        <time>2021-09-12T09:14:00Z</time>
      </trkpt>
      <trkpt lat="46.24414" lon="6.50577">
        <ele>1262</ele>
        <time>2021-09-12T09:14:07Z</time>
      </trkpt>
      <trkpt lat="46.24494" lon="6.5059">
        <ele>1254</ele>
        <time>2021-09-12T09:14:18Z</time>
      </trkpt>
      <trkpt lat="46.24505" lon="6.50591">
        <ele>1278</ele>
        <time>2021-09-12T09:14:20Z</time>
      </trkpt>
      <trkpt lat="46.24517" lon="6.50587">
        <ele>1281</ele>
        <time>2021-09-12T09:14:22Z</time>
      </trkpt>
      <trkpt lat="46.24522" lon="6.50583">
        <ele>1282</ele>
        <time>2021-09-12T09:14:23Z</time>
      </trkpt>
      <trkpt lat="46.24531" lon="6.50578">
        <ele>1299</ele>
        <time>2021-09-12T09:14:25Z</time>
      </trkpt>
      <trkpt lat="46.24535" lon="6.50578">
        <ele>1302</ele>
        <time>2021-09-12T09:14:26Z</time>
      </trkpt>
      <trkpt lat="46.24539" lon="6.5058">
        <ele>1303</ele>
        <time>2021-09-12T09:14:27Z</time>
      </trkpt>
      <trkpt lat="46.2454" lon="6.50584">
        <ele>1304</ele>
        <time>2021-09-12T09:14:28Z</time>
      </trkpt>
      <trkpt lat="46.2454" lon="6.5059">
        <ele>1304</ele>
        <time>2021-09-12T09:14:29Z</time>
      </trkpt>
      <trkpt lat="46.24533" lon="6.50618">
        <ele>1304</ele>
        <time>2021-09-12T09:14:34Z</time>
      </trkpt>
      <trkpt lat="46.24534" lon="6.50624">
        <ele>1304</ele>
        <time>2021-09-12T09:14:35Z</time>
      </trkpt>
      <trkpt lat="46.24537" lon="6.50629">
        <ele>1304</ele>
        <time>2021-09-12T09:14:36Z</time>
      </trkpt>
      <trkpt lat="46.24545" lon="6.50635">
        <ele>1303</ele>
        <time>2021-09-12T09:14:38Z</time>
      </trkpt>
      <trkpt lat="46.24549" lon="6.50637">
        <ele>1303</ele>
        <time>2021-09-12T09:14:39Z</time>
      </trkpt>
      <trkpt lat="46.24558" lon="6.50636">
        <ele>1302</ele>
        <time>2021-09-12T09:14:41Z</time>
      </trkpt>
      <trkpt lat="46.24579" lon="6.50625">
        <ele>1278</ele>
        <time>2021-09-12T09:14:47Z</time>
      </trkpt>
      <trkpt lat="46.24588" lon="6.50626">
        <ele>1283</ele>
        <time>2021-09-12T09:14:50Z</time>
      </trkpt>
      <trkpt lat="46.24593" lon="6.50627">
        <ele>1272</ele>
        <time>2021-09-12T09:14:52Z</time>
      </trkpt>
      <trkpt lat="46.24595" lon="6.5063">
        <ele>1262</ele>
        <time>2021-09-12T09:14:54Z</time>
      </trkpt>
      <trkpt lat="46.24592" lon="6.50635">
        <ele>1246</ele>
        <time>2021-09-12T09:15:10Z</time>
      </trkpt>
      <trkpt lat="46.24584" lon="6.50632">
        <ele>1245</ele>
        <time>2021-09-12T09:15:14Z</time>
      </trkpt>
      <trkpt lat="46.24582" lon="6.50627">
        <ele>1237</ele>
        <time>2021-09-12T09:16:46Z</time>
      </trkpt>
      <trkpt lat="46.24586" lon="6.50621">
        <ele>1237</ele>
        <time>2021-09-12T09:16:48Z</time>
      </trkpt>
      <trkpt lat="46.24588" lon="6.50617">
        <ele>1237</ele>
        <time>2021-09-12T09:16:49Z</time>
      </trkpt>
      <trkpt lat="46.24589" lon="6.50612">
        <ele>1236</ele>
        <time>2021-09-12T09:16:50Z</time>
      </trkpt>
      <trkpt lat="46.2459" lon="6.50607">
        <ele>1236</ele>
        <time>2021-09-12T09:16:51Z</time>
      </trkpt>
      <trkpt lat="46.24589" lon="6.50602">
        <ele>1237</ele>
        <time>2021-09-12T09:16:52Z</time>
      </trkpt>
      <trkpt lat="46.24586" lon="6.50599">
        <ele>1237</ele>
        <time>2021-09-12T09:16:53Z</time>
      </trkpt>
      <trkpt lat="46.24584" lon="6.50596">
        <ele>1237</ele>
        <time>2021-09-12T09:16:54Z</time>
      </trkpt>
      <trkpt lat="46.2458" lon="6.50596">
        <ele>1238</ele>
        <time>2021-09-12T09:16:56Z</time>
      </trkpt>
      <trkpt lat="46.24577" lon="6.50599">
        <ele>1238</ele>
        <time>2021-09-12T09:16:58Z</time>
      </trkpt>
      <trkpt lat="46.24578" lon="6.50604">
        <ele>1238</ele>
        <time>2021-09-12T09:17:03Z</time>
      </trkpt>
      <trkpt lat="46.2458" lon="6.50612">
        <ele>1238</ele>
        <time>2021-09-12T09:17:07Z</time>
      </trkpt>
      <trkpt lat="46.24579" lon="6.50608">
        <ele>1237</ele>
        <time>2021-09-12T09:17:40Z</time>
      </trkpt>
      <trkpt lat="46.24573" lon="6.5061">
        <ele>1236</ele>
        <time>2021-09-12T09:17:49Z</time>
      </trkpt>
      <trkpt lat="46.2457" lon="6.50608">
        <ele>1237</ele>
        <time>2021-09-12T09:17:55Z</time>
      </trkpt>
      <trkpt lat="46.24568" lon="6.50602">
        <ele>1237</ele>
        <time>2021-09-12T09:18:01Z</time>
      </trkpt>
      <trkpt lat="46.24565" lon="6.50598">
        <ele>1236</ele>
        <time>2021-09-12T09:18:05Z</time>
      </trkpt>
      <trkpt lat="46.24562" lon="6.50593">
        <ele>1236</ele>
        <time>2021-09-12T09:18:10Z</time>
      </trkpt>
      <trkpt lat="46.2456" lon="6.5059">
        <ele>1236</ele>
        <time>2021-09-12T09:20:45Z</time>
      </trkpt>
      <trkpt lat="46.2456" lon="6.50589">
        <ele>1232</ele>
        <time>2021-09-12T09:36:15Z</time>
      </trkpt>
      <trkpt lat="46.24563" lon="6.50587">
        <ele>1232</ele>
        <time>2021-09-12T09:36:55Z</time>
      </trkpt>
      <trkpt lat="46.24564" lon="6.5059">
        <ele>1234</ele>
        <time>2021-09-12T09:59:17Z</time>
      </trkpt>
      <trkpt lat="46.24566" lon="6.50595">
        <ele>1238</ele>
        <time>2021-09-12T10:00:27Z</time>
      </trkpt>
      <trkpt lat="46.24566" lon="6.50599">
        <ele>1239</ele>
        <time>2021-09-12T10:00:30Z</time>
      </trkpt>
      <trkpt lat="46.24567" lon="6.50605">
        <ele>1238</ele>
        <time>2021-09-12T10:00:36Z</time>
      </trkpt>
      <trkpt lat="46.24567" lon="6.50609">
        <ele>1237</ele>
        <time>2021-09-12T10:00:40Z</time>
      </trkpt>
      <trkpt lat="46.2457" lon="6.50607">
        <ele>1237</ele>
        <time>2021-09-12T10:01:16Z</time>
      </trkpt>
      <trkpt lat="46.24573" lon="6.50609">
        <ele>1235</ele>
        <time>2021-09-12T10:01:24Z</time>
      </trkpt>
      <trkpt lat="46.24576" lon="6.5061">
        <ele>1235</ele>
        <time>2021-09-12T10:01:27Z</time>
      </trkpt>
      <trkpt lat="46.24579" lon="6.50611">
        <ele>1235</ele>
        <time>2021-09-12T10:01:30Z</time>
      </trkpt>
      <trkpt lat="46.2458" lon="6.50615">
        <ele>1235</ele>
        <time>2021-09-12T10:01:33Z</time>
      </trkpt>
      <trkpt lat="46.24578" lon="6.50613">
        <ele>1236</ele>
        <time>2021-09-12T10:03:13Z</time>
      </trkpt>
      <trkpt lat="46.24582" lon="6.50606">
        <ele>1236</ele>
        <time>2021-09-12T10:03:34Z</time>
      </trkpt>
      <trkpt lat="46.24586" lon="6.50603">
        <ele>1234</ele>
        <time>2021-09-12T10:03:37Z</time>
      </trkpt>
      <trkpt lat="46.2459" lon="6.50606">
        <ele>1233</ele>
        <time>2021-09-12T10:03:39Z</time>
      </trkpt>
      <trkpt lat="46.24594" lon="6.50628">
        <ele>1232</ele>
        <time>2021-09-12T10:03:44Z</time>
      </trkpt>
      <trkpt lat="46.24597" lon="6.50638">
        <ele>1232</ele>
        <time>2021-09-12T10:03:46Z</time>
      </trkpt>
      <trkpt lat="46.24599" lon="6.50645">
        <ele>1230</ele>
        <time>2021-09-12T10:03:48Z</time>
      </trkpt>
      <trkpt lat="46.24603" lon="6.50655">
        <ele>1230</ele>
        <time>2021-09-12T10:03:59Z</time>
      </trkpt>
      <trkpt lat="46.24606" lon="6.50659">
        <ele>1229</ele>
        <time>2021-09-12T10:04:00Z</time>
      </trkpt>
      <trkpt lat="46.24633" lon="6.50689">
        <ele>1227</ele>
        <time>2021-09-12T10:04:07Z</time>
      </trkpt>
      <trkpt lat="46.24786" lon="6.50752">
        <ele>1217</ele>
        <time>2021-09-12T10:04:25Z</time>
      </trkpt>
      <trkpt lat="46.24826" lon="6.50796">
        <ele>1243</ele>
        <time>2021-09-12T10:04:30Z</time>
      </trkpt>
      <trkpt lat="46.24844" lon="6.50807">
        <ele>1230</ele>
        <time>2021-09-12T10:04:32Z</time>
      </trkpt>
      <trkpt lat="46.24854" lon="6.5081">
        <ele>1225</ele>
        <time>2021-09-12T10:04:33Z</time>
      </trkpt>
      <trkpt lat="46.24864" lon="6.50812">
        <ele>1223</ele>
        <time>2021-09-12T10:04:34Z</time>
      </trkpt>
      <trkpt lat="46.24954" lon="6.5083">
        <ele>1212</ele>
        <time>2021-09-12T10:04:43Z</time>
      </trkpt>
      <trkpt lat="46.25089" lon="6.50888">
        <ele>1202</ele>
        <time>2021-09-12T10:04:57Z</time>
      </trkpt>
      <trkpt lat="46.25094" lon="6.50892">
        <ele>1202</ele>
        <time>2021-09-12T10:04:58Z</time>
      </trkpt>
      <trkpt lat="46.25097" lon="6.50899">
        <ele>1201</ele>
        <time>2021-09-12T10:04:59Z</time>
      </trkpt>
      <trkpt lat="46.25096" lon="6.50909">
        <ele>1200</ele>
        <time>2021-09-12T10:05:00Z</time>
      </trkpt>
      <trkpt lat="46.25079" lon="6.50927">
        <ele>1200</ele>
        <time>2021-09-12T10:05:03Z</time>
      </trkpt>
      <trkpt lat="46.25074" lon="6.50936">
        <ele>1200</ele>
        <time>2021-09-12T10:05:04Z</time>
      </trkpt>
      <trkpt lat="46.25071" lon="6.50947">
        <ele>1200</ele>
        <time>2021-09-12T10:05:05Z</time>
      </trkpt>
      <trkpt lat="46.25072" lon="6.50993">
        <ele>1198</ele>
        <time>2021-09-12T10:05:09Z</time>
      </trkpt>
      <trkpt lat="46.25076" lon="6.51001">
        <ele>1199</ele>
        <time>2021-09-12T10:05:10Z</time>
      </trkpt>
      <trkpt lat="46.25081" lon="6.51009">
        <ele>1203</ele>
        <time>2021-09-12T10:05:11Z</time>
      </trkpt>
      <trkpt lat="46.25087" lon="6.5101">
        <ele>1206</ele>
        <time>2021-09-12T10:05:12Z</time>
      </trkpt>
      <trkpt lat="46.25096" lon="6.51003">
        <ele>1210</ele>
        <time>2021-09-12T10:05:13Z</time>
      </trkpt>
      <trkpt lat="46.25103" lon="6.50999">
        <ele>1210</ele>
        <time>2021-09-12T10:05:14Z</time>
      </trkpt>
      <trkpt lat="46.25109" lon="6.51">
        <ele>1210</ele>
        <time>2021-09-12T10:05:15Z</time>
      </trkpt>
      <trkpt lat="46.25113" lon="6.51006">
        <ele>1209</ele>
        <time>2021-09-12T10:05:16Z</time>
      </trkpt>
      <trkpt lat="46.25113" lon="6.51013">
        <ele>1205</ele>
        <time>2021-09-12T10:05:17Z</time>
      </trkpt>
      <trkpt lat="46.25105" lon="6.51023">
        <ele>1201</ele>
        <time>2021-09-12T10:05:19Z</time>
      </trkpt>
      <trkpt lat="46.25099" lon="6.51029">
        <ele>1199</ele>
        <time>2021-09-12T10:05:20Z</time>
      </trkpt>
      <trkpt lat="46.25097" lon="6.51037">
        <ele>1196</ele>
        <time>2021-09-12T10:05:21Z</time>
      </trkpt>
      <trkpt lat="46.25096" lon="6.51048">
        <ele>1194</ele>
        <time>2021-09-12T10:05:22Z</time>
      </trkpt>
      <trkpt lat="46.25098" lon="6.51057">
        <ele>1193</ele>
        <time>2021-09-12T10:05:23Z</time>
      </trkpt>
      <trkpt lat="46.25102" lon="6.51064">
        <ele>1193</ele>
        <time>2021-09-12T10:05:24Z</time>
      </trkpt>
      <trkpt lat="46.25109" lon="6.51067">
        <ele>1191</ele>
        <time>2021-09-12T10:05:25Z</time>
      </trkpt>
      <trkpt lat="46.25117" lon="6.51068">
        <ele>1190</ele>
        <time>2021-09-12T10:05:26Z</time>
      </trkpt>
      <trkpt lat="46.25125" lon="6.51065">
        <ele>1188</ele>
        <time>2021-09-12T10:05:27Z</time>
      </trkpt>
      <trkpt lat="46.25147" lon="6.51041">
        <ele>1190</ele>
        <time>2021-09-12T10:05:30Z</time>
      </trkpt>
      <trkpt lat="46.25209" lon="6.50986">
        <ele>1188</ele>
        <time>2021-09-12T10:05:37Z</time>
      </trkpt>
      <trkpt lat="46.25215" lon="6.50978">
        <ele>1185</ele>
        <time>2021-09-12T10:05:38Z</time>
      </trkpt>
      <trkpt lat="46.25218" lon="6.50966">
        <ele>1180</ele>
        <time>2021-09-12T10:05:39Z</time>
      </trkpt>
      <trkpt lat="46.25219" lon="6.50952">
        <ele>1178</ele>
        <time>2021-09-12T10:05:40Z</time>
      </trkpt>
      <trkpt lat="46.25214" lon="6.50918">
        <ele>1173</ele>
        <time>2021-09-12T10:05:43Z</time>
      </trkpt>
      <trkpt lat="46.25216" lon="6.5091">
        <ele>1172</ele>
        <time>2021-09-12T10:05:44Z</time>
      </trkpt>
      <trkpt lat="46.2522" lon="6.50907">
        <ele>1171</ele>
        <time>2021-09-12T10:05:45Z</time>
      </trkpt>
      <trkpt lat="46.25225" lon="6.50909">
        <ele>1170</ele>
        <time>2021-09-12T10:05:46Z</time>
      </trkpt>
      <trkpt lat="46.25294" lon="6.51059">
        <ele>1165</ele>
        <time>2021-09-12T10:06:02Z</time>
      </trkpt>
      <trkpt lat="46.253" lon="6.51066">
        <ele>1164</ele>
        <time>2021-09-12T10:06:03Z</time>
      </trkpt>
      <trkpt lat="46.25316" lon="6.51072">
        <ele>1162</ele>
        <time>2021-09-12T10:06:05Z</time>
      </trkpt>
      <trkpt lat="46.25334" lon="6.51075">
        <ele>1161</ele>
        <time>2021-09-12T10:06:07Z</time>
      </trkpt>
      <trkpt lat="46.25353" lon="6.51078">
        <ele>1157</ele>
        <time>2021-09-12T10:06:09Z</time>
      </trkpt>
      <trkpt lat="46.25362" lon="6.51083">
        <ele>1156</ele>
        <time>2021-09-12T10:06:10Z</time>
      </trkpt>
      <trkpt lat="46.25368" lon="6.51091">
        <ele>1154</ele>
        <time>2021-09-12T10:06:11Z</time>
      </trkpt>
      <trkpt lat="46.25374" lon="6.51101">
        <ele>1153</ele>
        <time>2021-09-12T10:06:12Z</time>
      </trkpt>
      <trkpt lat="46.25378" lon="6.51114">
        <ele>1154</ele>
        <time>2021-09-12T10:06:13Z</time>
      </trkpt>
      <trkpt lat="46.25381" lon="6.51158">
        <ele>1155</ele>
        <time>2021-09-12T10:06:16Z</time>
      </trkpt>
      <trkpt lat="46.25381" lon="6.51197">
        <ele>1154</ele>
        <time>2021-09-12T10:06:19Z</time>
      </trkpt>
      <trkpt lat="46.25385" lon="6.51234">
        <ele>1154</ele>
        <time>2021-09-12T10:06:23Z</time>
      </trkpt>
      <trkpt lat="46.25384" lon="6.51247">
        <ele>1154</ele>
        <time>2021-09-12T10:06:24Z</time>
      </trkpt>
      <trkpt lat="46.25379" lon="6.51284">
        <ele>1158</ele>
        <time>2021-09-12T10:06:27Z</time>
      </trkpt>
      <trkpt lat="46.25375" lon="6.51294">
        <ele>1158</ele>
        <time>2021-09-12T10:06:28Z</time>
      </trkpt>
      <trkpt lat="46.25367" lon="6.513">
        <ele>1158</ele>
        <time>2021-09-12T10:06:29Z</time>
      </trkpt>
      <trkpt lat="46.25348" lon="6.51305">
        <ele>1152</ele>
        <time>2021-09-12T10:06:31Z</time>
      </trkpt>
      <trkpt lat="46.25337" lon="6.51305">
        <ele>1152</ele>
        <time>2021-09-12T10:06:32Z</time>
      </trkpt>
      <trkpt lat="46.25326" lon="6.51303">
        <ele>1164</ele>
        <time>2021-09-12T10:06:33Z</time>
      </trkpt>
      <trkpt lat="46.25314" lon="6.51301">
        <ele>1155</ele>
        <time>2021-09-12T10:06:34Z</time>
      </trkpt>
      <trkpt lat="46.25302" lon="6.51298">
        <ele>1152</ele>
        <time>2021-09-12T10:06:35Z</time>
      </trkpt>
      <trkpt lat="46.24952" lon="6.51249">
        <ele>1153</ele>
        <time>2021-09-12T10:06:59Z</time>
      </trkpt>
      <trkpt lat="46.24933" lon="6.51254">
        <ele>1155</ele>
        <time>2021-09-12T10:07:01Z</time>
      </trkpt>
      <trkpt lat="46.24924" lon="6.51261">
        <ele>1151</ele>
        <time>2021-09-12T10:07:02Z</time>
      </trkpt>
      <trkpt lat="46.24866" lon="6.51319">
        <ele>1143</ele>
        <time>2021-09-12T10:07:09Z</time>
      </trkpt>
      <trkpt lat="46.24843" lon="6.51325">
        <ele>1143</ele>
        <time>2021-09-12T10:07:11Z</time>
      </trkpt>
      <trkpt lat="46.24751" lon="6.51324">
        <ele>1142</ele>
        <time>2021-09-12T10:07:21Z</time>
      </trkpt>
      <trkpt lat="46.24738" lon="6.51329">
        <ele>1141</ele>
        <time>2021-09-12T10:07:23Z</time>
      </trkpt>
      <trkpt lat="46.24722" lon="6.51337">
        <ele>1154</ele>
        <time>2021-09-12T10:07:26Z</time>
      </trkpt>
      <trkpt lat="46.24719" lon="6.51337">
        <ele>1149</ele>
        <time>2021-09-12T10:07:27Z</time>
      </trkpt>
      <trkpt lat="46.24715" lon="6.51337">
        <ele>1139</ele>
        <time>2021-09-12T10:07:28Z</time>
      </trkpt>
      <trkpt lat="46.2471" lon="6.51339">
        <ele>1145</ele>
        <time>2021-09-12T10:07:30Z</time>
      </trkpt>
      <trkpt lat="46.24712" lon="6.51346">
        <ele>1144</ele>
        <time>2021-09-12T10:07:33Z</time>
      </trkpt>
      <trkpt lat="46.24715" lon="6.51347">
        <ele>1141</ele>
        <time>2021-09-12T10:07:34Z</time>
      </trkpt>
      <trkpt lat="46.24723" lon="6.51344">
        <ele>1131</ele>
        <time>2021-09-12T10:07:36Z</time>
      </trkpt>
      <trkpt lat="46.24746" lon="6.51329">
        <ele>1125</ele>
        <time>2021-09-12T10:07:39Z</time>
      </trkpt>
      <trkpt lat="46.24756" lon="6.51326">
        <ele>1124</ele>
        <time>2021-09-12T10:07:40Z</time>
      </trkpt>
      <trkpt lat="46.2479" lon="6.51326">
        <ele>1140</ele>
        <time>2021-09-12T10:07:43Z</time>
      </trkpt>
      <trkpt lat="46.24843" lon="6.51328">
        <ele>1145</ele>
        <time>2021-09-12T10:07:49Z</time>
      </trkpt>
      <trkpt lat="46.24849" lon="6.51332">
        <ele>1135</ele>
        <time>2021-09-12T10:07:50Z</time>
      </trkpt>
      <trkpt lat="46.24854" lon="6.51339">
        <ele>1132</ele>
        <time>2021-09-12T10:07:51Z</time>
      </trkpt>
      <trkpt lat="46.24856" lon="6.51348">
        <ele>1130</ele>
        <time>2021-09-12T10:07:52Z</time>
      </trkpt>
      <trkpt lat="46.24855" lon="6.51358">
        <ele>1130</ele>
        <time>2021-09-12T10:07:53Z</time>
      </trkpt>
      <trkpt lat="46.24842" lon="6.51387">
        <ele>1130</ele>
        <time>2021-09-12T10:07:57Z</time>
      </trkpt>
      <trkpt lat="46.24838" lon="6.51394">
        <ele>1130</ele>
        <time>2021-09-12T10:07:58Z</time>
      </trkpt>
      <trkpt lat="46.24755" lon="6.51475">
        <ele>1147</ele>
        <time>2021-09-12T10:08:08Z</time>
      </trkpt>
      <trkpt lat="46.24743" lon="6.51483">
        <ele>1146</ele>
        <time>2021-09-12T10:08:09Z</time>
      </trkpt>
      <trkpt lat="46.24732" lon="6.51491">
        <ele>1137</ele>
        <time>2021-09-12T10:08:10Z</time>
      </trkpt>
      <trkpt lat="46.24629" lon="6.51539">
        <ele>1131</ele>
        <time>2021-09-12T10:08:19Z</time>
      </trkpt>
      <trkpt lat="46.24564" lon="6.5156">
        <ele>1132</ele>
        <time>2021-09-12T10:08:26Z</time>
      </trkpt>
      <trkpt lat="46.24557" lon="6.51567">
        <ele>1132</ele>
        <time>2021-09-12T10:08:28Z</time>
      </trkpt>
      <trkpt lat="46.24531" lon="6.51574">
        <ele>1130</ele>
        <time>2021-09-12T10:08:36Z</time>
      </trkpt>
      <trkpt lat="46.24505" lon="6.51577">
        <ele>1150</ele>
        <time>2021-09-12T10:08:40Z</time>
      </trkpt>
      <trkpt lat="46.24498" lon="6.51576">
        <ele>1151</ele>
        <time>2021-09-12T10:08:41Z</time>
      </trkpt>
      <trkpt lat="46.24481" lon="6.51572">
        <ele>1132</ele>
        <time>2021-09-12T10:08:44Z</time>
      </trkpt>
      <trkpt lat="46.24475" lon="6.51573">
        <ele>1130</ele>
        <time>2021-09-12T10:08:45Z</time>
      </trkpt>
      <trkpt lat="46.24469" lon="6.51576">
        <ele>1128</ele>
        <time>2021-09-12T10:08:46Z</time>
      </trkpt>
      <trkpt lat="46.24404" lon="6.51615">
        <ele>1121</ele>
        <time>2021-09-12T10:08:54Z</time>
      </trkpt>
      <trkpt lat="46.24359" lon="6.51633">
        <ele>1119</ele>
        <time>2021-09-12T10:08:59Z</time>
      </trkpt>
      <trkpt lat="46.24334" lon="6.51646">
        <ele>1136</ele>
        <time>2021-09-12T10:09:02Z</time>
      </trkpt>
      <trkpt lat="46.24158" lon="6.51721">
        <ele>1123</ele>
        <time>2021-09-12T10:09:24Z</time>
      </trkpt>
      <trkpt lat="46.24056" lon="6.51767">
        <ele>1133</ele>
        <time>2021-09-12T10:09:39Z</time>
      </trkpt>
      <trkpt lat="46.24035" lon="6.51783">
        <ele>1127</ele>
        <time>2021-09-12T10:09:43Z</time>
      </trkpt>
      <trkpt lat="46.24031" lon="6.51786">
        <ele>1126</ele>
        <time>2021-09-12T10:09:44Z</time>
      </trkpt>
      <trkpt lat="46.24019" lon="6.51793">
        <ele>1124</ele>
        <time>2021-09-12T10:09:46Z</time>
      </trkpt>
      <trkpt lat="46.23952" lon="6.5182">
        <ele>1186</ele>
        <time>2021-09-12T10:09:56Z</time>
      </trkpt>
      <trkpt lat="46.23915" lon="6.51829">
        <ele>1184</ele>
        <time>2021-09-12T10:10:02Z</time>
      </trkpt>
      <trkpt lat="46.23839" lon="6.51835">
        <ele>1135</ele>
        <time>2021-09-12T10:10:15Z</time>
      </trkpt>
      <trkpt lat="46.23828" lon="6.51826">
        <ele>1132</ele>
        <time>2021-09-12T10:10:18Z</time>
      </trkpt>
      <trkpt lat="46.23807" lon="6.51825">
        <ele>1125</ele>
        <time>2021-09-12T10:10:23Z</time>
      </trkpt>
      <trkpt lat="46.23794" lon="6.51829">
        <ele>1127</ele>
        <time>2021-09-12T10:10:26Z</time>
      </trkpt>
      <trkpt lat="46.23785" lon="6.51835">
        <ele>1127</ele>
        <time>2021-09-12T10:10:28Z</time>
      </trkpt>
      <trkpt lat="46.23774" lon="6.51843">
        <ele>1130</ele>
        <time>2021-09-12T10:10:31Z</time>
      </trkpt>
      <trkpt lat="46.23771" lon="6.51843">
        <ele>1130</ele>
        <time>2021-09-12T10:10:32Z</time>
      </trkpt>
      <trkpt lat="46.23768" lon="6.51842">
        <ele>1129</ele>
        <time>2021-09-12T10:10:33Z</time>
      </trkpt>
      <trkpt lat="46.23753" lon="6.51837">
        <ele>1118</ele>
        <time>2021-09-12T10:10:37Z</time>
      </trkpt>
      <trkpt lat="46.23749" lon="6.51839">
        <ele>1117</ele>
        <time>2021-09-12T10:10:38Z</time>
      </trkpt>
      <trkpt lat="46.23743" lon="6.51846">
        <ele>1112</ele>
        <time>2021-09-12T10:10:40Z</time>
      </trkpt>
      <trkpt lat="46.2374" lon="6.51853">
        <ele>1109</ele>
        <time>2021-09-12T10:10:41Z</time>
      </trkpt>
      <trkpt lat="46.23728" lon="6.51867">
        <ele>1115</ele>
        <time>2021-09-12T10:10:45Z</time>
      </trkpt>
      <trkpt lat="46.23716" lon="6.51885">
        <ele>1107</ele>
        <time>2021-09-12T10:10:49Z</time>
      </trkpt>
      <trkpt lat="46.23708" lon="6.5189">
        <ele>1102</ele>
        <time>2021-09-12T10:10:51Z</time>
      </trkpt>
      <trkpt lat="46.23701" lon="6.51894">
        <ele>1103</ele>
        <time>2021-09-12T10:10:54Z</time>
      </trkpt>
      <trkpt lat="46.23699" lon="6.51898">
        <ele>1103</ele>
        <time>2021-09-12T10:10:55Z</time>
      </trkpt>
      <trkpt lat="46.23696" lon="6.51902">
        <ele>1101</ele>
        <time>2021-09-12T10:10:56Z</time>
      </trkpt>
      <trkpt lat="46.23681" lon="6.51927">
        <ele>1092</ele>
        <time>2021-09-12T10:10:59Z</time>
      </trkpt>
      <trkpt lat="46.23674" lon="6.51935">
        <ele>1089</ele>
        <time>2021-09-12T10:11:00Z</time>
      </trkpt>
      <trkpt lat="46.23666" lon="6.51944">
        <ele>1084</ele>
        <time>2021-09-12T10:11:01Z</time>
      </trkpt>
      <trkpt lat="46.23647" lon="6.51957">
        <ele>1079</ele>
        <time>2021-09-12T10:11:03Z</time>
      </trkpt>
      <trkpt lat="46.23553" lon="6.51992">
        <ele>1105</ele>
        <time>2021-09-12T10:11:11Z</time>
      </trkpt>
      <trkpt lat="46.23524" lon="6.52002">
        <ele>1076</ele>
        <time>2021-09-12T10:11:15Z</time>
      </trkpt>
      <trkpt lat="46.2352" lon="6.52004">
        <ele>1075</ele>
        <time>2021-09-12T10:11:16Z</time>
      </trkpt>
      <trkpt lat="46.23517" lon="6.52009">
        <ele>1074</ele>
        <time>2021-09-12T10:11:17Z</time>
      </trkpt>
      <trkpt lat="46.23514" lon="6.52018">
        <ele>1073</ele>
        <time>2021-09-12T10:11:18Z</time>
      </trkpt>
      <trkpt lat="46.23503" lon="6.52254">
        <ele>1074</ele>
        <time>2021-09-12T10:11:32Z</time>
      </trkpt>
      <trkpt lat="46.23503" lon="6.52271">
        <ele>1075</ele>
        <time>2021-09-12T10:11:33Z</time>
      </trkpt>
      <trkpt lat="46.23508" lon="6.52302">
        <ele>1073</ele>
        <time>2021-09-12T10:11:35Z</time>
      </trkpt>
      <trkpt lat="46.23516" lon="6.52333">
        <ele>1069</ele>
        <time>2021-09-12T10:11:38Z</time>
      </trkpt>
      <trkpt lat="46.23522" lon="6.52347">
        <ele>1068</ele>
        <time>2021-09-12T10:11:40Z</time>
      </trkpt>
      <trkpt lat="46.23523" lon="6.52351">
        <ele>1068</ele>
        <time>2021-09-12T10:11:41Z</time>
      </trkpt>
      <trkpt lat="46.23519" lon="6.52356">
        <ele>1068</ele>
        <time>2021-09-12T10:11:43Z</time>
      </trkpt>
      <trkpt lat="46.23516" lon="6.52356">
        <ele>1070</ele>
        <time>2021-09-12T10:11:44Z</time>
      </trkpt>
      <trkpt lat="46.23511" lon="6.5235">
        <ele>1068</ele>
        <time>2021-09-12T10:11:47Z</time>
      </trkpt>
      <trkpt lat="46.23514" lon="6.52346">
        <ele>1039</ele>
        <time>2021-09-12T10:12:29Z</time>
      </trkpt>
      <trkpt lat="46.23518" lon="6.52348">
        <ele>1033</ele>
        <time>2021-09-12T10:12:31Z</time>
      </trkpt>
      <trkpt lat="46.23521" lon="6.52353">
        <ele>1030</ele>
        <time>2021-09-12T10:12:33Z</time>
      </trkpt>
      <trkpt lat="46.23524" lon="6.52356">
        <ele>1027</ele>
        <time>2021-09-12T10:12:35Z</time>
      </trkpt>
      <trkpt lat="46.23527" lon="6.52349">
        <ele>1027</ele>
        <time>2021-09-12T10:12:37Z</time>
      </trkpt>
      <trkpt lat="46.23508" lon="6.52286">
        <ele>1028</ele>
        <time>2021-09-12T10:12:42Z</time>
      </trkpt>
      <trkpt lat="46.23506" lon="6.52236">
        <ele>1028</ele>
        <time>2021-09-12T10:12:45Z</time>
      </trkpt>
      <trkpt lat="46.23515" lon="6.5203">
        <ele>1028</ele>
        <time>2021-09-12T10:12:58Z</time>
      </trkpt>
      <trkpt lat="46.23517" lon="6.52021">
        <ele>1028</ele>
        <time>2021-09-12T10:12:59Z</time>
      </trkpt>
      <trkpt lat="46.23521" lon="6.52011">
        <ele>1028</ele>
        <time>2021-09-12T10:13:00Z</time>
      </trkpt>
      <trkpt lat="46.23528" lon="6.52004">
        <ele>1028</ele>
        <time>2021-09-12T10:13:01Z</time>
      </trkpt>
      <trkpt lat="46.23548" lon="6.51992">
        <ele>1027</ele>
        <time>2021-09-12T10:13:03Z</time>
      </trkpt>
      <trkpt lat="46.23626" lon="6.51967">
        <ele>1030</ele>
        <time>2021-09-12T10:13:11Z</time>
      </trkpt>
      <trkpt lat="46.23624" lon="6.51963">
        <ele>1030</ele>
        <time>2021-09-12T10:13:18Z</time>
      </trkpt>
      <trkpt lat="46.23518" lon="6.52002">
        <ele>1027</ele>
        <time>2021-09-12T10:13:30Z</time>
      </trkpt>
      <trkpt lat="46.23515" lon="6.52007">
        <ele>1027</ele>
        <time>2021-09-12T10:13:43Z</time>
      </trkpt>
      <trkpt lat="46.23512" lon="6.52012">
        <ele>1028</ele>
        <time>2021-09-12T10:13:44Z</time>
      </trkpt>
      <trkpt lat="46.2351" lon="6.5204">
        <ele>1028</ele>
        <time>2021-09-12T10:13:47Z</time>
      </trkpt>
      <trkpt lat="46.23511" lon="6.52075">
        <ele>1028</ele>
        <time>2021-09-12T10:13:49Z</time>
      </trkpt>
      <trkpt lat="46.23505" lon="6.52167">
        <ele>1083</ele>
        <time>2021-09-12T10:13:53Z</time>
      </trkpt>
      <trkpt lat="46.23504" lon="6.52191">
        <ele>1075</ele>
        <time>2021-09-12T10:13:54Z</time>
      </trkpt>
      <trkpt lat="46.23502" lon="6.5227">
        <ele>1069</ele>
        <time>2021-09-12T10:13:58Z</time>
      </trkpt>
      <trkpt lat="46.23511" lon="6.52315">
        <ele>1068</ele>
        <time>2021-09-12T10:14:01Z</time>
      </trkpt>
      <trkpt lat="46.23523" lon="6.5235">
        <ele>1067</ele>
        <time>2021-09-12T10:14:05Z</time>
      </trkpt>
      <trkpt lat="46.23521" lon="6.52355">
        <ele>1067</ele>
        <time>2021-09-12T10:14:06Z</time>
      </trkpt>
      <trkpt lat="46.23518" lon="6.52356">
        <ele>1067</ele>
        <time>2021-09-12T10:14:07Z</time>
      </trkpt>
      <trkpt lat="46.23516" lon="6.52354">
        <ele>1067</ele>
        <time>2021-09-12T10:14:08Z</time>
      </trkpt>
      <trkpt lat="46.23493" lon="6.52321">
        <ele>1068</ele>
        <time>2021-09-12T10:14:12Z</time>
      </trkpt>
      <trkpt lat="46.23471" lon="6.52294">
        <ele>1098</ele>
        <time>2021-09-12T10:14:15Z</time>
      </trkpt>
      <trkpt lat="46.23462" lon="6.52286">
        <ele>1086</ele>
        <time>2021-09-12T10:14:16Z</time>
      </trkpt>
      <trkpt lat="46.23388" lon="6.52264">
        <ele>1089</ele>
        <time>2021-09-12T10:14:24Z</time>
      </trkpt>
      <trkpt lat="46.23371" lon="6.52247">
        <ele>1091</ele>
        <time>2021-09-12T10:14:27Z</time>
      </trkpt>
      <trkpt lat="46.23363" lon="6.52231">
        <ele>1094</ele>
        <time>2021-09-12T10:14:29Z</time>
      </trkpt>
      <trkpt lat="46.23347" lon="6.52188">
        <ele>1099</ele>
        <time>2021-09-12T10:14:33Z</time>
      </trkpt>
      <trkpt lat="46.23337" lon="6.52178">
        <ele>1101</ele>
        <time>2021-09-12T10:14:35Z</time>
      </trkpt>
      <trkpt lat="46.23325" lon="6.52171">
        <ele>1102</ele>
        <time>2021-09-12T10:14:37Z</time>
      </trkpt>
      <trkpt lat="46.23325" lon="6.5217">
        <ele>1103</ele>
        <time>2021-09-12T10:14:47Z</time>
      </trkpt>
      <trkpt lat="46.23323" lon="6.52167">
        <ele>1143</ele>
        <time>2021-09-12T10:15:51Z</time>
      </trkpt>
      <trkpt lat="46.23304" lon="6.52142">
        <ele>1112</ele>
        <time>2021-09-12T10:15:56Z</time>
      </trkpt>
      <trkpt lat="46.23293" lon="6.52136">
        <ele>1123</ele>
        <time>2021-09-12T10:15:58Z</time>
      </trkpt>
      <trkpt lat="46.23272" lon="6.52127">
        <ele>1173</ele>
        <time>2021-09-12T10:16:02Z</time>
      </trkpt>
      <trkpt lat="46.23266" lon="6.52121">
        <ele>1161</ele>
        <time>2021-09-12T10:16:03Z</time>
      </trkpt>
      <trkpt lat="46.23259" lon="6.5212">
        <ele>1157</ele>
        <time>2021-09-12T10:16:04Z</time>
      </trkpt>
      <trkpt lat="46.23245" lon="6.52114">
        <ele>1157</ele>
        <time>2021-09-12T10:16:06Z</time>
      </trkpt>
      <trkpt lat="46.23226" lon="6.52112">
        <ele>1180</ele>
        <time>2021-09-12T10:16:09Z</time>
      </trkpt>
      <trkpt lat="46.23202" lon="6.52104">
        <ele>1171</ele>
        <time>2021-09-12T10:16:12Z</time>
      </trkpt>
      <trkpt lat="46.23195" lon="6.52099">
        <ele>1174</ele>
        <time>2021-09-12T10:16:13Z</time>
      </trkpt>
      <trkpt lat="46.23173" lon="6.52094">
        <ele>1176</ele>
        <time>2021-09-12T10:16:17Z</time>
      </trkpt>
      <trkpt lat="46.23152" lon="6.52083">
        <ele>1181</ele>
        <time>2021-09-12T10:16:22Z</time>
      </trkpt>
      <trkpt lat="46.23147" lon="6.52082">
        <ele>1179</ele>
        <time>2021-09-12T10:16:23Z</time>
      </trkpt>
      <trkpt lat="46.23136" lon="6.5208">
        <ele>1174</ele>
        <time>2021-09-12T10:16:25Z</time>
      </trkpt>
      <trkpt lat="46.23128" lon="6.52076">
        <ele>1185</ele>
        <time>2021-09-12T10:16:26Z</time>
      </trkpt>
      <trkpt lat="46.23107" lon="6.52061">
        <ele>1177</ele>
        <time>2021-09-12T10:16:29Z</time>
      </trkpt>
      <trkpt lat="46.23075" lon="6.52048">
        <ele>1200</ele>
        <time>2021-09-12T10:16:33Z</time>
      </trkpt>
      <trkpt lat="46.2305" lon="6.52027">
        <ele>1189</ele>
        <time>2021-09-12T10:16:36Z</time>
      </trkpt>
      <trkpt lat="46.23029" lon="6.52003">
        <ele>1186</ele>
        <time>2021-09-12T10:16:39Z</time>
      </trkpt>
      <trkpt lat="46.23003" lon="6.51986">
        <ele>1185</ele>
        <time>2021-09-12T10:16:43Z</time>
      </trkpt>
      <trkpt lat="46.22971" lon="6.51978">
        <ele>1185</ele>
        <time>2021-09-12T10:16:47Z</time>
      </trkpt>
      <trkpt lat="46.22958" lon="6.51971">
        <ele>1183</ele>
        <time>2021-09-12T10:16:49Z</time>
      </trkpt>
      <trkpt lat="46.22948" lon="6.5196">
        <ele>1185</ele>
        <time>2021-09-12T10:16:51Z</time>
      </trkpt>
      <trkpt lat="46.22936" lon="6.51954">
        <ele>1188</ele>
        <time>2021-09-12T10:16:53Z</time>
      </trkpt>
      <trkpt lat="46.22922" lon="6.51952">
        <ele>1191</ele>
        <time>2021-09-12T10:16:55Z</time>
      </trkpt>
      <trkpt lat="46.2287" lon="6.51959">
        <ele>1208</ele>
        <time>2021-09-12T10:17:02Z</time>
      </trkpt>
      <trkpt lat="46.22857" lon="6.51968">
        <ele>1200</ele>
        <time>2021-09-12T10:17:04Z</time>
      </trkpt>
      <trkpt lat="46.22829" lon="6.51973">
        <ele>1201</ele>
        <time>2021-09-12T10:17:08Z</time>
      </trkpt>
      <trkpt lat="46.22818" lon="6.51976">
        <ele>1204</ele>
        <time>2021-09-12T10:17:10Z</time>
      </trkpt>
      <trkpt lat="46.22814" lon="6.51976">
        <ele>1204</ele>
        <time>2021-09-12T10:17:12Z</time>
      </trkpt>
      <trkpt lat="46.22811" lon="6.51976">
        <ele>1181</ele>
        <time>2021-09-12T10:17:36Z</time>
      </trkpt>
      <trkpt lat="46.22808" lon="6.51976">
        <ele>1193</ele>
        <time>2021-09-12T10:17:52Z</time>
      </trkpt>
      <trkpt lat="46.22827" lon="6.52003">
        <ele>1193</ele>
        <time>2021-09-12T10:18:18Z</time>
      </trkpt>
      <trkpt lat="46.22864" lon="6.52033">
        <ele>1416</ele>
        <time>2021-09-12T10:18:25Z</time>
      </trkpt>
      <trkpt lat="46.22874" lon="6.52043">
        <ele>1386</ele>
        <time>2021-09-12T10:18:27Z</time>
      </trkpt>
      <trkpt lat="46.22877" lon="6.5205">
        <ele>1386</ele>
        <time>2021-09-12T10:18:28Z</time>
      </trkpt>
      <trkpt lat="46.22881" lon="6.52062">
        <ele>1388</ele>
        <time>2021-09-12T10:18:30Z</time>
      </trkpt>
      <trkpt lat="46.22889" lon="6.52078">
        <ele>1112</ele>
        <time>2021-09-12T10:18:35Z</time>
      </trkpt>
      <trkpt lat="46.22899" lon="6.5208">
        <ele>988</ele>
        <time>2021-09-12T10:18:40Z</time>
      </trkpt>
      <trkpt lat="46.22904" lon="6.52076">
        <ele>948</ele>
        <time>2021-09-12T10:18:51Z</time>
      </trkpt>
      <trkpt lat="46.22906" lon="6.52075">
        <ele>1187</ele>
        <time>2021-09-12T10:19:07Z</time>
      </trkpt>
      <trkpt lat="46.22918" lon="6.52088">
        <ele>1073</ele>
        <time>2021-09-12T10:19:22Z</time>
      </trkpt>
      <trkpt lat="46.22928" lon="6.52099">
        <ele>1097</ele>
        <time>2021-09-12T10:19:25Z</time>
      </trkpt>
      <trkpt lat="46.22935" lon="6.52112">
        <ele>1088</ele>
        <time>2021-09-12T10:19:27Z</time>
      </trkpt>
      <trkpt lat="46.22941" lon="6.52126">
        <ele>1078</ele>
        <time>2021-09-12T10:19:29Z</time>
      </trkpt>
      <trkpt lat="46.22947" lon="6.52156">
        <ele>1220</ele>
        <time>2021-09-12T10:19:33Z</time>
      </trkpt>
      <trkpt lat="46.22946" lon="6.52162">
        <ele>1228</ele>
        <time>2021-09-12T10:19:34Z</time>
      </trkpt>
      <trkpt lat="46.22946" lon="6.5217">
        <ele>1231</ele>
        <time>2021-09-12T10:19:35Z</time>
      </trkpt>
      <trkpt lat="46.22941" lon="6.52177">
        <ele>1234</ele>
        <time>2021-09-12T10:19:37Z</time>
      </trkpt>
      <trkpt lat="46.22922" lon="6.52193">
        <ele>1235</ele>
        <time>2021-09-12T10:19:47Z</time>
      </trkpt>
      <trkpt lat="46.22886" lon="6.52219">
        <ele>1232</ele>
        <time>2021-09-12T10:19:54Z</time>
      </trkpt>
      <trkpt lat="46.22807" lon="6.52324">
        <ele>1218</ele>
        <time>2021-09-12T10:20:09Z</time>
      </trkpt>
      <trkpt lat="46.22783" lon="6.52342">
        <ele>1218</ele>
        <time>2021-09-12T10:20:13Z</time>
      </trkpt>
      <trkpt lat="46.22742" lon="6.52395">
        <ele>1224</ele>
        <time>2021-09-12T10:20:22Z</time>
      </trkpt>
      <trkpt lat="46.22733" lon="6.52402">
        <ele>1224</ele>
        <time>2021-09-12T10:20:24Z</time>
      </trkpt>
      <trkpt lat="46.22711" lon="6.52437">
        <ele>1227</ele>
        <time>2021-09-12T10:20:30Z</time>
      </trkpt>
      <trkpt lat="46.22692" lon="6.52497">
        <ele>1233</ele>
        <time>2021-09-12T10:20:37Z</time>
      </trkpt>
      <trkpt lat="46.2268" lon="6.52507">
        <ele>1234</ele>
        <time>2021-09-12T10:20:39Z</time>
      </trkpt>
      <trkpt lat="46.22676" lon="6.52509">
        <ele>1235</ele>
        <time>2021-09-12T10:20:40Z</time>
      </trkpt>
      <trkpt lat="46.22672" lon="6.52508">
        <ele>1236</ele>
        <time>2021-09-12T10:20:41Z</time>
      </trkpt>
      <trkpt lat="46.22669" lon="6.52506">
        <ele>1237</ele>
        <time>2021-09-12T10:20:42Z</time>
      </trkpt>
      <trkpt lat="46.22664" lon="6.52506">
        <ele>1238</ele>
        <time>2021-09-12T10:20:43Z</time>
      </trkpt>
      <trkpt lat="46.22659" lon="6.52507">
        <ele>1240</ele>
        <time>2021-09-12T10:20:44Z</time>
      </trkpt>
      <trkpt lat="46.22654" lon="6.52513">
        <ele>1241</ele>
        <time>2021-09-12T10:20:45Z</time>
      </trkpt>
      <trkpt lat="46.22649" lon="6.52521">
        <ele>1241</ele>
        <time>2021-09-12T10:20:46Z</time>
      </trkpt>
      <trkpt lat="46.2264" lon="6.5254">
        <ele>1242</ele>
        <time>2021-09-12T10:20:48Z</time>
      </trkpt>
      <trkpt lat="46.2262" lon="6.52565">
        <ele>1243</ele>
        <time>2021-09-12T10:20:53Z</time>
      </trkpt>
      <trkpt lat="46.22616" lon="6.52573">
        <ele>1243</ele>
        <time>2021-09-12T10:20:54Z</time>
      </trkpt>
      <trkpt lat="46.22611" lon="6.52577">
        <ele>1243</ele>
        <time>2021-09-12T10:20:55Z</time>
      </trkpt>
      <trkpt lat="46.22601" lon="6.52582">
        <ele>1246</ele>
        <time>2021-09-12T10:20:57Z</time>
      </trkpt>
      <trkpt lat="46.22597" lon="6.52583">
        <ele>1248</ele>
        <time>2021-09-12T10:20:58Z</time>
      </trkpt>
      <trkpt lat="46.22591" lon="6.52584">
        <ele>1249</ele>
        <time>2021-09-12T10:20:59Z</time>
      </trkpt>
      <trkpt lat="46.22571" lon="6.5257">
        <ele>1249</ele>
        <time>2021-09-12T10:21:02Z</time>
      </trkpt>
      <trkpt lat="46.22546" lon="6.52543">
        <ele>1249</ele>
        <time>2021-09-12T10:21:06Z</time>
      </trkpt>
      <trkpt lat="46.2254" lon="6.52537">
        <ele>1250</ele>
        <time>2021-09-12T10:21:07Z</time>
      </trkpt>
      <trkpt lat="46.22537" lon="6.52529">
        <ele>1251</ele>
        <time>2021-09-12T10:21:08Z</time>
      </trkpt>
      <trkpt lat="46.22535" lon="6.52513">
        <ele>1253</ele>
        <time>2021-09-12T10:21:10Z</time>
      </trkpt>
      <trkpt lat="46.22531" lon="6.52513">
        <ele>1253</ele>
        <time>2021-09-12T10:21:27Z</time>
      </trkpt>
      <trkpt lat="46.22527" lon="6.52502">
        <ele>1252</ele>
        <time>2021-09-12T10:21:58Z</time>
      </trkpt>
      <trkpt lat="46.22492" lon="6.52425">
        <ele>1258</ele>
        <time>2021-09-12T10:22:08Z</time>
      </trkpt>
      <trkpt lat="46.22471" lon="6.52409">
        <ele>1259</ele>
        <time>2021-09-12T10:22:11Z</time>
      </trkpt>
      <trkpt lat="46.22461" lon="6.52397">
        <ele>1264</ele>
        <time>2021-09-12T10:22:13Z</time>
      </trkpt>
      <trkpt lat="46.22447" lon="6.5237">
        <ele>1265</ele>
        <time>2021-09-12T10:22:17Z</time>
      </trkpt>
      <trkpt lat="46.22444" lon="6.52367">
        <ele>1265</ele>
        <time>2021-09-12T10:22:18Z</time>
      </trkpt>
      <trkpt lat="46.22442" lon="6.52363">
        <ele>1265</ele>
        <time>2021-09-12T10:22:21Z</time>
      </trkpt>
      <trkpt lat="46.22432" lon="6.52348">
        <ele>1278</ele>
        <time>2021-09-12T10:22:35Z</time>
      </trkpt>
      <trkpt lat="46.22429" lon="6.5234">
        <ele>1278</ele>
        <time>2021-09-12T10:22:36Z</time>
      </trkpt>
      <trkpt lat="46.22428" lon="6.52329">
        <ele>1278</ele>
        <time>2021-09-12T10:22:37Z</time>
      </trkpt>
      <trkpt lat="46.22427" lon="6.52309">
        <ele>1279</ele>
        <time>2021-09-12T10:22:39Z</time>
      </trkpt>
      <trkpt lat="46.22432" lon="6.52267">
        <ele>1281</ele>
        <time>2021-09-12T10:22:44Z</time>
      </trkpt>
      <trkpt lat="46.22449" lon="6.52223">
        <ele>1281</ele>
        <time>2021-09-12T10:22:49Z</time>
      </trkpt>
      <trkpt lat="46.22428" lon="6.52168">
        <ele>1287</ele>
        <time>2021-09-12T10:22:54Z</time>
      </trkpt>
      <trkpt lat="46.22412" lon="6.52142">
        <ele>1290</ele>
        <time>2021-09-12T10:22:57Z</time>
      </trkpt>
      <trkpt lat="46.22401" lon="6.52071">
        <ele>1291</ele>
        <time>2021-09-12T10:23:03Z</time>
      </trkpt>
      <trkpt lat="46.22396" lon="6.52062">
        <ele>1294</ele>
        <time>2021-09-12T10:23:04Z</time>
      </trkpt>
      <trkpt lat="46.22395" lon="6.52052">
        <ele>1296</ele>
        <time>2021-09-12T10:23:05Z</time>
      </trkpt>
      <trkpt lat="46.22394" lon="6.52043">
        <ele>1299</ele>
        <time>2021-09-12T10:23:06Z</time>
      </trkpt>
      <trkpt lat="46.22393" lon="6.52035">
        <ele>1285</ele>
        <time>2021-09-12T10:23:07Z</time>
      </trkpt>
      <trkpt lat="46.22389" lon="6.52032">
        <ele>1276</ele>
        <time>2021-09-12T10:23:08Z</time>
      </trkpt>
      <trkpt lat="46.22381" lon="6.5203">
        <ele>1274</ele>
        <time>2021-09-12T10:23:09Z</time>
      </trkpt>
      <trkpt lat="46.22377" lon="6.52027">
        <ele>1271</ele>
        <time>2021-09-12T10:23:10Z</time>
      </trkpt>
      <trkpt lat="46.22326" lon="6.52043">
        <ele>1268</ele>
        <time>2021-09-12T10:23:16Z</time>
      </trkpt>
      <trkpt lat="46.22287" lon="6.52029">
        <ele>1268</ele>
        <time>2021-09-12T10:23:23Z</time>
      </trkpt>
      <trkpt lat="46.22276" lon="6.5202">
        <ele>1266</ele>
        <time>2021-09-12T10:23:25Z</time>
      </trkpt>
      <trkpt lat="46.22266" lon="6.52018">
        <ele>1265</ele>
        <time>2021-09-12T10:23:27Z</time>
      </trkpt>
      <trkpt lat="46.22252" lon="6.52019">
        <ele>1259</ele>
        <time>2021-09-12T10:23:29Z</time>
      </trkpt>
      <trkpt lat="46.22239" lon="6.52024">
        <ele>1255</ele>
        <time>2021-09-12T10:23:31Z</time>
      </trkpt>
      <trkpt lat="46.2221" lon="6.5201">
        <ele>1255</ele>
        <time>2021-09-12T10:23:35Z</time>
      </trkpt>
      <trkpt lat="46.22197" lon="6.52004">
        <ele>1259</ele>
        <time>2021-09-12T10:23:37Z</time>
      </trkpt>
      <trkpt lat="46.22187" lon="6.51993">
        <ele>1257</ele>
        <time>2021-09-12T10:23:39Z</time>
      </trkpt>
      <trkpt lat="46.22166" lon="6.51965">
        <ele>1292</ele>
        <time>2021-09-12T10:23:43Z</time>
      </trkpt>
      <trkpt lat="46.22089" lon="6.51909">
        <ele>1340</ele>
        <time>2021-09-12T10:23:56Z</time>
      </trkpt>
      <trkpt lat="46.22068" lon="6.51894">
        <ele>1192</ele>
        <time>2021-09-12T10:24:01Z</time>
      </trkpt>
      <trkpt lat="46.22056" lon="6.51887">
        <ele>1227</ele>
        <time>2021-09-12T10:24:04Z</time>
      </trkpt>
      <trkpt lat="46.22034" lon="6.51856">
        <ele>1232</ele>
        <time>2021-09-12T10:24:10Z</time>
      </trkpt>
      <trkpt lat="46.22024" lon="6.51845">
        <ele>1214</ele>
        <time>2021-09-12T10:24:12Z</time>
      </trkpt>
      <trkpt lat="46.22015" lon="6.51837">
        <ele>1187</ele>
        <time>2021-09-12T10:24:14Z</time>
      </trkpt>
      <trkpt lat="46.22012" lon="6.51832">
        <ele>1129</ele>
        <time>2021-09-12T10:24:15Z</time>
      </trkpt>
      <trkpt lat="46.21997" lon="6.51816">
        <ele>1148</ele>
        <time>2021-09-12T10:24:19Z</time>
      </trkpt>
      <trkpt lat="46.21986" lon="6.5181">
        <ele>1173</ele>
        <time>2021-09-12T10:24:21Z</time>
      </trkpt>
      <trkpt lat="46.2198" lon="6.5181">
        <ele>1179</ele>
        <time>2021-09-12T10:24:22Z</time>
      </trkpt>
      <trkpt lat="46.21975" lon="6.51809">
        <ele>1133</ele>
        <time>2021-09-12T10:24:23Z</time>
      </trkpt>
      <trkpt lat="46.21962" lon="6.51806">
        <ele>1177</ele>
        <time>2021-09-12T10:24:25Z</time>
      </trkpt>
      <trkpt lat="46.21942" lon="6.51794">
        <ele>1206</ele>
        <time>2021-09-12T10:24:28Z</time>
      </trkpt>
      <trkpt lat="46.21931" lon="6.5178">
        <ele>1222</ele>
        <time>2021-09-12T10:24:30Z</time>
      </trkpt>
      <trkpt lat="46.21924" lon="6.51763">
        <ele>1220</ele>
        <time>2021-09-12T10:24:32Z</time>
      </trkpt>
      <trkpt lat="46.21872" lon="6.51679">
        <ele>1089</ele>
        <time>2021-09-12T10:24:43Z</time>
      </trkpt>
      <trkpt lat="46.21871" lon="6.51667">
        <ele>1067</ele>
        <time>2021-09-12T10:24:45Z</time>
      </trkpt>
      <trkpt lat="46.21868" lon="6.51663">
        <ele>1076</ele>
        <time>2021-09-12T10:24:46Z</time>
      </trkpt>
      <trkpt lat="46.21864" lon="6.51662">
        <ele>1102</ele>
        <time>2021-09-12T10:24:47Z</time>
      </trkpt>
      <trkpt lat="46.21854" lon="6.51663">
        <ele>1122</ele>
        <time>2021-09-12T10:24:49Z</time>
      </trkpt>
      <trkpt lat="46.21849" lon="6.51667">
        <ele>1120</ele>
        <time>2021-09-12T10:24:50Z</time>
      </trkpt>
      <trkpt lat="46.2183" lon="6.51675">
        <ele>1146</ele>
        <time>2021-09-12T10:24:53Z</time>
      </trkpt>
      <trkpt lat="46.21825" lon="6.51675">
        <ele>1147</ele>
        <time>2021-09-12T10:24:54Z</time>
      </trkpt>
      <trkpt lat="46.21814" lon="6.51678">
        <ele>1140</ele>
        <time>2021-09-12T10:24:56Z</time>
      </trkpt>
      <trkpt lat="46.2181" lon="6.51682">
        <ele>1138</ele>
        <time>2021-09-12T10:24:57Z</time>
      </trkpt>
      <trkpt lat="46.21806" lon="6.51685">
        <ele>1135</ele>
        <time>2021-09-12T10:24:58Z</time>
      </trkpt>
      <trkpt lat="46.218" lon="6.51698">
        <ele>1122</ele>
        <time>2021-09-12T10:25:00Z</time>
      </trkpt>
      <trkpt lat="46.21791" lon="6.51716">
        <ele>1122</ele>
        <time>2021-09-12T10:25:02Z</time>
      </trkpt>
      <trkpt lat="46.21782" lon="6.51734">
        <ele>1084</ele>
        <time>2021-09-12T10:25:04Z</time>
      </trkpt>
      <trkpt lat="46.21771" lon="6.51749">
        <ele>1025</ele>
        <time>2021-09-12T10:25:06Z</time>
      </trkpt>
      <trkpt lat="46.21762" lon="6.51768">
        <ele>979</ele>
        <time>2021-09-12T10:25:08Z</time>
      </trkpt>
      <trkpt lat="46.21759" lon="6.51775">
        <ele>1003</ele>
        <time>2021-09-12T10:25:09Z</time>
      </trkpt>
      <trkpt lat="46.21749" lon="6.51789">
        <ele>1005</ele>
        <time>2021-09-12T10:25:13Z</time>
      </trkpt>
      <trkpt lat="46.21741" lon="6.51796">
        <ele>1009</ele>
        <time>2021-09-12T10:25:15Z</time>
      </trkpt>
      <trkpt lat="46.21737" lon="6.51805">
        <ele>1007</ele>
        <time>2021-09-12T10:25:17Z</time>
      </trkpt>
      <trkpt lat="46.21731" lon="6.51807">
        <ele>1009</ele>
        <time>2021-09-12T10:25:18Z</time>
      </trkpt>
      <trkpt lat="46.21722" lon="6.51811">
        <ele>1011</ele>
        <time>2021-09-12T10:25:20Z</time>
      </trkpt>
      <trkpt lat="46.21682" lon="6.51807">
        <ele>994</ele>
        <time>2021-09-12T10:25:27Z</time>
      </trkpt>
      <trkpt lat="46.21649" lon="6.51811">
        <ele>896</ele>
        <time>2021-09-12T10:25:33Z</time>
      </trkpt>
      <trkpt lat="46.2155" lon="6.51821">
        <ele>1060</ele>
        <time>2021-09-12T10:25:45Z</time>
      </trkpt>
      <trkpt lat="46.215" lon="6.51812">
        <ele>1148</ele>
        <time>2021-09-12T10:25:53Z</time>
      </trkpt>
      <trkpt lat="46.21495" lon="6.51814">
        <ele>1172</ele>
        <time>2021-09-12T10:25:55Z</time>
      </trkpt>
      <trkpt lat="46.21479" lon="6.51827">
        <ele>1191</ele>
        <time>2021-09-12T10:26:00Z</time>
      </trkpt>
      <trkpt lat="46.21458" lon="6.51849">
        <ele>1193</ele>
        <time>2021-09-12T10:26:05Z</time>
      </trkpt>
      <trkpt lat="46.21451" lon="6.51871">
        <ele>1194</ele>
        <time>2021-09-12T10:26:08Z</time>
      </trkpt>
      <trkpt lat="46.21448" lon="6.51886">
        <ele>1195</ele>
        <time>2021-09-12T10:26:10Z</time>
      </trkpt>
      <trkpt lat="46.2145" lon="6.51927">
        <ele>1166</ele>
        <time>2021-09-12T10:26:14Z</time>
      </trkpt>
      <trkpt lat="46.2145" lon="6.5197">
        <ele>1194</ele>
        <time>2021-09-12T10:26:18Z</time>
      </trkpt>
      <trkpt lat="46.21446" lon="6.51976">
        <ele>1197</ele>
        <time>2021-09-12T10:26:19Z</time>
      </trkpt>
      <trkpt lat="46.21441" lon="6.51979">
        <ele>1194</ele>
        <time>2021-09-12T10:26:20Z</time>
      </trkpt>
      <trkpt lat="46.21433" lon="6.51981">
        <ele>1192</ele>
        <time>2021-09-12T10:26:21Z</time>
      </trkpt>
      <trkpt lat="46.21425" lon="6.51984">
        <ele>1197</ele>
        <time>2021-09-12T10:26:22Z</time>
      </trkpt>
      <trkpt lat="46.21415" lon="6.51987">
        <ele>1200</ele>
        <time>2021-09-12T10:26:23Z</time>
      </trkpt>
      <trkpt lat="46.21407" lon="6.51987">
        <ele>1198</ele>
        <time>2021-09-12T10:26:24Z</time>
      </trkpt>
      <trkpt lat="46.21384" lon="6.51976">
        <ele>1199</ele>
        <time>2021-09-12T10:26:27Z</time>
      </trkpt>
      <trkpt lat="46.21377" lon="6.51977">
        <ele>1202</ele>
        <time>2021-09-12T10:26:28Z</time>
      </trkpt>
      <trkpt lat="46.21315" lon="6.51991">
        <ele>1201</ele>
        <time>2021-09-12T10:26:34Z</time>
      </trkpt>
      <trkpt lat="46.21297" lon="6.51992">
        <ele>1212</ele>
        <time>2021-09-12T10:26:36Z</time>
      </trkpt>
      <trkpt lat="46.21284" lon="6.51989">
        <ele>1216</ele>
        <time>2021-09-12T10:26:38Z</time>
      </trkpt>
      <trkpt lat="46.21278" lon="6.5199">
        <ele>1217</ele>
        <time>2021-09-12T10:26:39Z</time>
      </trkpt>
      <trkpt lat="46.21267" lon="6.52001">
        <ele>1218</ele>
        <time>2021-09-12T10:26:41Z</time>
      </trkpt>
      <trkpt lat="46.2125" lon="6.5202">
        <ele>1256</ele>
        <time>2021-09-12T10:26:43Z</time>
      </trkpt>
      <trkpt lat="46.21194" lon="6.52054">
        <ele>1303</ele>
        <time>2021-09-12T10:26:49Z</time>
      </trkpt>
      <trkpt lat="46.21186" lon="6.52057">
        <ele>1307</ele>
        <time>2021-09-12T10:26:50Z</time>
      </trkpt>
      <trkpt lat="46.21177" lon="6.52059">
        <ele>1310</ele>
        <time>2021-09-12T10:26:51Z</time>
      </trkpt>
      <trkpt lat="46.21123" lon="6.52028">
        <ele>1332</ele>
        <time>2021-09-12T10:26:57Z</time>
      </trkpt>
      <trkpt lat="46.21089" lon="6.51993">
        <ele>1338</ele>
        <time>2021-09-12T10:27:03Z</time>
      </trkpt>
      <trkpt lat="46.21085" lon="6.51991">
        <ele>1338</ele>
        <time>2021-09-12T10:27:04Z</time>
      </trkpt>
      <trkpt lat="46.2108" lon="6.51993">
        <ele>1339</ele>
        <time>2021-09-12T10:27:05Z</time>
      </trkpt>
      <trkpt lat="46.21077" lon="6.51994">
        <ele>1339</ele>
        <time>2021-09-12T10:27:06Z</time>
      </trkpt>
      <trkpt lat="46.21073" lon="6.51998">
        <ele>1340</ele>
        <time>2021-09-12T10:27:07Z</time>
      </trkpt>
      <trkpt lat="46.21069" lon="6.52005">
        <ele>1340</ele>
        <time>2021-09-12T10:27:09Z</time>
      </trkpt>
      <trkpt lat="46.21068" lon="6.5201">
        <ele>1254</ele>
        <time>2021-09-12T10:28:05Z</time>
      </trkpt>
      <trkpt lat="46.21078" lon="6.52025">
        <ele>1242</ele>
        <time>2021-09-12T10:28:08Z</time>
      </trkpt>
      <trkpt lat="46.21125" lon="6.52079">
        <ele>1179</ele>
        <time>2021-09-12T10:28:16Z</time>
      </trkpt>
      <trkpt lat="46.21132" lon="6.52095">
        <ele>1164</ele>
        <time>2021-09-12T10:28:18Z</time>
      </trkpt>
      <trkpt lat="46.21139" lon="6.52129">
        <ele>1182</ele>
        <time>2021-09-12T10:28:21Z</time>
      </trkpt>
      <trkpt lat="46.2114" lon="6.52179">
        <ele>1240</ele>
        <time>2021-09-12T10:28:25Z</time>
      </trkpt>
      <trkpt lat="46.2114" lon="6.52191">
        <ele>1237</ele>
        <time>2021-09-12T10:28:26Z</time>
      </trkpt>
      <trkpt lat="46.21144" lon="6.52212">
        <ele>1249</ele>
        <time>2021-09-12T10:28:28Z</time>
      </trkpt>
      <trkpt lat="46.21153" lon="6.52233">
        <ele>1254</ele>
        <time>2021-09-12T10:28:30Z</time>
      </trkpt>
      <trkpt lat="46.21163" lon="6.52251">
        <ele>1256</ele>
        <time>2021-09-12T10:28:32Z</time>
      </trkpt>
      <trkpt lat="46.21169" lon="6.52256">
        <ele>1257</ele>
        <time>2021-09-12T10:28:33Z</time>
      </trkpt>
      <trkpt lat="46.21183" lon="6.5226">
        <ele>1258</ele>
        <time>2021-09-12T10:28:35Z</time>
      </trkpt>
      <trkpt lat="46.2122" lon="6.52261">
        <ele>1260</ele>
        <time>2021-09-12T10:28:39Z</time>
      </trkpt>
      <trkpt lat="46.21228" lon="6.52259">
        <ele>1261</ele>
        <time>2021-09-12T10:28:40Z</time>
      </trkpt>
      <trkpt lat="46.21248" lon="6.52243">
        <ele>1259</ele>
        <time>2021-09-12T10:28:43Z</time>
      </trkpt>
      <trkpt lat="46.21253" lon="6.52244">
        <ele>1260</ele>
        <time>2021-09-12T10:28:44Z</time>
      </trkpt>
      <trkpt lat="46.21256" lon="6.52248">
        <ele>1259</ele>
        <time>2021-09-12T10:28:45Z</time>
      </trkpt>
      <trkpt lat="46.21256" lon="6.52255">
        <ele>1261</ele>
        <time>2021-09-12T10:28:46Z</time>
      </trkpt>
      <trkpt lat="46.21253" lon="6.52262">
        <ele>1264</ele>
        <time>2021-09-12T10:28:47Z</time>
      </trkpt>
      <trkpt lat="46.21235" lon="6.52285">
        <ele>1266</ele>
        <time>2021-09-12T10:28:50Z</time>
      </trkpt>
      <trkpt lat="46.21205" lon="6.52317">
        <ele>1207</ele>
        <time>2021-09-12T10:28:54Z</time>
      </trkpt>
      <trkpt lat="46.21164" lon="6.52336">
        <ele>1209</ele>
        <time>2021-09-12T10:28:59Z</time>
      </trkpt>
      <trkpt lat="46.21118" lon="6.52384">
        <ele>1213</ele>
        <time>2021-09-12T10:29:06Z</time>
      </trkpt>
      <trkpt lat="46.21108" lon="6.52405">
        <ele>1151</ele>
        <time>2021-09-12T10:29:08Z</time>
      </trkpt>
      <trkpt lat="46.21105" lon="6.52417">
        <ele>1133</ele>
        <time>2021-09-12T10:29:09Z</time>
      </trkpt>
      <trkpt lat="46.2109" lon="6.52443">
        <ele>1196</ele>
        <time>2021-09-12T10:29:12Z</time>
      </trkpt>
      <trkpt lat="46.21082" lon="6.52455">
        <ele>1195</ele>
        <time>2021-09-12T10:29:14Z</time>
      </trkpt>
      <trkpt lat="46.21078" lon="6.5246">
        <ele>1188</ele>
        <time>2021-09-12T10:29:15Z</time>
      </trkpt>
      <trkpt lat="46.21078" lon="6.52467">
        <ele>1177</ele>
        <time>2021-09-12T10:29:16Z</time>
      </trkpt>
      <trkpt lat="46.21078" lon="6.52475">
        <ele>1174</ele>
        <time>2021-09-12T10:29:17Z</time>
      </trkpt>
      <trkpt lat="46.21081" lon="6.525">
        <ele>1182</ele>
        <time>2021-09-12T10:29:20Z</time>
      </trkpt>
      <trkpt lat="46.21108" lon="6.52597">
        <ele>1382</ele>
        <time>2021-09-12T10:29:30Z</time>
      </trkpt>
      <trkpt lat="46.2114" lon="6.52636">
        <ele>1380</ele>
        <time>2021-09-12T10:29:35Z</time>
      </trkpt>
      <trkpt lat="46.21144" lon="6.52644">
        <ele>1380</ele>
        <time>2021-09-12T10:29:36Z</time>
      </trkpt>
      <trkpt lat="46.21146" lon="6.52664">
        <ele>1380</ele>
        <time>2021-09-12T10:29:38Z</time>
      </trkpt>
      <trkpt lat="46.21143" lon="6.52673">
        <ele>1380</ele>
        <time>2021-09-12T10:29:39Z</time>
      </trkpt>
      <trkpt lat="46.211" lon="6.52768">
        <ele>1252</ele>
        <time>2021-09-12T10:29:47Z</time>
      </trkpt>
      <trkpt lat="46.21089" lon="6.52793">
        <ele>1259</ele>
        <time>2021-09-12T10:29:49Z</time>
      </trkpt>
      <trkpt lat="46.21083" lon="6.52802">
        <ele>1255</ele>
        <time>2021-09-12T10:29:50Z</time>
      </trkpt>
      <trkpt lat="46.21069" lon="6.52812">
        <ele>1234</ele>
        <time>2021-09-12T10:29:52Z</time>
      </trkpt>
      <trkpt lat="46.21059" lon="6.52814">
        <ele>1229</ele>
        <time>2021-09-12T10:29:53Z</time>
      </trkpt>
      <trkpt lat="46.21026" lon="6.52823">
        <ele>1230</ele>
        <time>2021-09-12T10:29:56Z</time>
      </trkpt>
      <trkpt lat="46.21009" lon="6.5282">
        <ele>1241</ele>
        <time>2021-09-12T10:29:58Z</time>
      </trkpt>
      <trkpt lat="46.21004" lon="6.52818">
        <ele>1237</ele>
        <time>2021-09-12T10:29:59Z</time>
      </trkpt>
      <trkpt lat="46.20999" lon="6.52819">
        <ele>1245</ele>
        <time>2021-09-12T10:30:00Z</time>
      </trkpt>
      <trkpt lat="46.20996" lon="6.52822">
        <ele>1251</ele>
        <time>2021-09-12T10:30:01Z</time>
      </trkpt>
      <trkpt lat="46.20994" lon="6.52825">
        <ele>1260</ele>
        <time>2021-09-12T10:30:02Z</time>
      </trkpt>
      <trkpt lat="46.20991" lon="6.5283">
        <ele>1263</ele>
        <time>2021-09-12T10:30:03Z</time>
      </trkpt>
      <trkpt lat="46.20983" lon="6.5287">
        <ele>1268</ele>
        <time>2021-09-12T10:30:07Z</time>
      </trkpt>
      <trkpt lat="46.2098" lon="6.52892">
        <ele>1217</ele>
        <time>2021-09-12T10:30:09Z</time>
      </trkpt>
      <trkpt lat="46.20978" lon="6.52968">
        <ele>1271</ele>
        <time>2021-09-12T10:30:15Z</time>
      </trkpt>
      <trkpt lat="46.20978" lon="6.52979">
        <ele>1262</ele>
        <time>2021-09-12T10:30:16Z</time>
      </trkpt>
      <trkpt lat="46.20981" lon="6.52988">
        <ele>1267</ele>
        <time>2021-09-12T10:30:17Z</time>
      </trkpt>
      <trkpt lat="46.20995" lon="6.53018">
        <ele>1274</ele>
        <time>2021-09-12T10:30:22Z</time>
      </trkpt>
      <trkpt lat="46.21022" lon="6.5306">
        <ele>1277</ele>
        <time>2021-09-12T10:30:27Z</time>
      </trkpt>
      <trkpt lat="46.21028" lon="6.53081">
        <ele>1278</ele>
        <time>2021-09-12T10:30:29Z</time>
      </trkpt>
      <trkpt lat="46.21028" lon="6.53092">
        <ele>1278</ele>
        <time>2021-09-12T10:30:30Z</time>
      </trkpt>
      <trkpt lat="46.21007" lon="6.53168">
        <ele>1280</ele>
        <time>2021-09-12T10:30:37Z</time>
      </trkpt>
      <trkpt lat="46.21007" lon="6.53178">
        <ele>1280</ele>
        <time>2021-09-12T10:30:38Z</time>
      </trkpt>
      <trkpt lat="46.21014" lon="6.53227">
        <ele>1284</ele>
        <time>2021-09-12T10:30:42Z</time>
      </trkpt>
      <trkpt lat="46.21014" lon="6.53239">
        <ele>1285</ele>
        <time>2021-09-12T10:30:43Z</time>
      </trkpt>
      <trkpt lat="46.2101" lon="6.5325">
        <ele>1286</ele>
        <time>2021-09-12T10:30:44Z</time>
      </trkpt>
      <trkpt lat="46.20995" lon="6.53278">
        <ele>1288</ele>
        <time>2021-09-12T10:30:47Z</time>
      </trkpt>
      <trkpt lat="46.20972" lon="6.53352">
        <ele>1293</ele>
        <time>2021-09-12T10:30:53Z</time>
      </trkpt>
      <trkpt lat="46.20961" lon="6.5337">
        <ele>1296</ele>
        <time>2021-09-12T10:30:55Z</time>
      </trkpt>
      <trkpt lat="46.20944" lon="6.5338">
        <ele>1297</ele>
        <time>2021-09-12T10:30:57Z</time>
      </trkpt>
      <trkpt lat="46.20877" lon="6.53405">
        <ele>1305</ele>
        <time>2021-09-12T10:31:05Z</time>
      </trkpt>
      <trkpt lat="46.20817" lon="6.5345">
        <ele>1309</ele>
        <time>2021-09-12T10:31:13Z</time>
      </trkpt>
      <trkpt lat="46.208" lon="6.5345">
        <ele>1310</ele>
        <time>2021-09-12T10:31:15Z</time>
      </trkpt>
      <trkpt lat="46.20758" lon="6.5344">
        <ele>1313</ele>
        <time>2021-09-12T10:31:20Z</time>
      </trkpt>
      <trkpt lat="46.20742" lon="6.53443">
        <ele>1315</ele>
        <time>2021-09-12T10:31:22Z</time>
      </trkpt>
      <trkpt lat="46.20677" lon="6.53475">
        <ele>1317</ele>
        <time>2021-09-12T10:31:30Z</time>
      </trkpt>
      <trkpt lat="46.20663" lon="6.5349">
        <ele>1317</ele>
        <time>2021-09-12T10:31:32Z</time>
      </trkpt>
      <trkpt lat="46.20653" lon="6.5351">
        <ele>1318</ele>
        <time>2021-09-12T10:31:34Z</time>
      </trkpt>
      <trkpt lat="46.20647" lon="6.53533">
        <ele>1319</ele>
        <time>2021-09-12T10:31:36Z</time>
      </trkpt>
      <trkpt lat="46.20643" lon="6.53598">
        <ele>1321</ele>
        <time>2021-09-12T10:31:42Z</time>
      </trkpt>
      <trkpt lat="46.20624" lon="6.53647">
        <ele>1320</ele>
        <time>2021-09-12T10:31:47Z</time>
      </trkpt>
      <trkpt lat="46.2062" lon="6.53654">
        <ele>1320</ele>
        <time>2021-09-12T10:31:48Z</time>
      </trkpt>
      <trkpt lat="46.20614" lon="6.5366">
        <ele>1320</ele>
        <time>2021-09-12T10:31:49Z</time>
      </trkpt>
      <trkpt lat="46.20608" lon="6.53663">
        <ele>1320</ele>
        <time>2021-09-12T10:31:50Z</time>
      </trkpt>
      <trkpt lat="46.206" lon="6.53663">
        <ele>1321</ele>
        <time>2021-09-12T10:31:51Z</time>
      </trkpt>
      <trkpt lat="46.20517" lon="6.53645">
        <ele>1324</ele>
        <time>2021-09-12T10:32:01Z</time>
      </trkpt>
      <trkpt lat="46.20501" lon="6.53634">
        <ele>1325</ele>
        <time>2021-09-12T10:32:03Z</time>
      </trkpt>
      <trkpt lat="46.20484" lon="6.53599">
        <ele>1327</ele>
        <time>2021-09-12T10:32:06Z</time>
      </trkpt>
      <trkpt lat="46.20442" lon="6.53502">
        <ele>1324</ele>
        <time>2021-09-12T10:32:14Z</time>
      </trkpt>
      <trkpt lat="46.20426" lon="6.53479">
        <ele>1324</ele>
        <time>2021-09-12T10:32:17Z</time>
      </trkpt>
      <trkpt lat="46.20398" lon="6.5341">
        <ele>1324</ele>
        <time>2021-09-12T10:32:28Z</time>
      </trkpt>
      <trkpt lat="46.20387" lon="6.53393">
        <ele>1369</ele>
        <time>2021-09-12T10:32:30Z</time>
      </trkpt>
      <trkpt lat="46.2038" lon="6.53385">
        <ele>1388</ele>
        <time>2021-09-12T10:32:31Z</time>
      </trkpt>
      <trkpt lat="46.20368" lon="6.53382">
        <ele>1398</ele>
        <time>2021-09-12T10:32:32Z</time>
      </trkpt>
      <trkpt lat="46.20319" lon="6.53357">
        <ele>1398</ele>
        <time>2021-09-12T10:32:37Z</time>
      </trkpt>
      <trkpt lat="46.20297" lon="6.53353">
        <ele>1398</ele>
        <time>2021-09-12T10:32:39Z</time>
      </trkpt>
      <trkpt lat="46.20286" lon="6.53353">
        <ele>1401</ele>
        <time>2021-09-12T10:32:40Z</time>
      </trkpt>
      <trkpt lat="46.20275" lon="6.53353">
        <ele>1405</ele>
        <time>2021-09-12T10:32:41Z</time>
      </trkpt>
      <trkpt lat="46.20264" lon="6.53356">
        <ele>1411</ele>
        <time>2021-09-12T10:32:42Z</time>
      </trkpt>
      <trkpt lat="46.20251" lon="6.53358">
        <ele>1416</ele>
        <time>2021-09-12T10:32:43Z</time>
      </trkpt>
      <trkpt lat="46.2024" lon="6.53358">
        <ele>1421</ele>
        <time>2021-09-12T10:32:44Z</time>
      </trkpt>
      <trkpt lat="46.20215" lon="6.53355">
        <ele>1427</ele>
        <time>2021-09-12T10:32:46Z</time>
      </trkpt>
      <trkpt lat="46.20147" lon="6.53336">
        <ele>1434</ele>
        <time>2021-09-12T10:32:53Z</time>
      </trkpt>
      <trkpt lat="46.20141" lon="6.5334">
        <ele>1434</ele>
        <time>2021-09-12T10:32:54Z</time>
      </trkpt>
      <trkpt lat="46.20135" lon="6.53346">
        <ele>1435</ele>
        <time>2021-09-12T10:32:55Z</time>
      </trkpt>
      <trkpt lat="46.20132" lon="6.53355">
        <ele>1435</ele>
        <time>2021-09-12T10:32:56Z</time>
      </trkpt>
      <trkpt lat="46.2013" lon="6.53365">
        <ele>1436</ele>
        <time>2021-09-12T10:32:57Z</time>
      </trkpt>
      <trkpt lat="46.20135" lon="6.53382">
        <ele>1436</ele>
        <time>2021-09-12T10:32:58Z</time>
      </trkpt>
      <trkpt lat="46.2016" lon="6.53455">
        <ele>1440</ele>
        <time>2021-09-12T10:33:04Z</time>
      </trkpt>
      <trkpt lat="46.20157" lon="6.5347">
        <ele>1439</ele>
        <time>2021-09-12T10:33:05Z</time>
      </trkpt>
      <trkpt lat="46.2015" lon="6.535">
        <ele>1437</ele>
        <time>2021-09-12T10:33:07Z</time>
      </trkpt>
      <trkpt lat="46.20141" lon="6.53527">
        <ele>1434</ele>
        <time>2021-09-12T10:33:09Z</time>
      </trkpt>
      <trkpt lat="46.20133" lon="6.53564">
        <ele>1430</ele>
        <time>2021-09-12T10:33:12Z</time>
      </trkpt>
      <trkpt lat="46.20132" lon="6.53637">
        <ele>1428</ele>
        <time>2021-09-12T10:33:17Z</time>
      </trkpt>
      <trkpt lat="46.20119" lon="6.53661">
        <ele>1190</ele>
        <time>2021-09-12T10:33:19Z</time>
      </trkpt>
      <trkpt lat="46.20082" lon="6.53717">
        <ele>1162</ele>
        <time>2021-09-12T10:33:25Z</time>
      </trkpt>
      <trkpt lat="46.20079" lon="6.53721">
        <ele>1166</ele>
        <time>2021-09-12T10:33:26Z</time>
      </trkpt>
      <trkpt lat="46.20075" lon="6.53723">
        <ele>1172</ele>
        <time>2021-09-12T10:33:27Z</time>
      </trkpt>
      <trkpt lat="46.20059" lon="6.53723">
        <ele>1223</ele>
        <time>2021-09-12T10:33:31Z</time>
      </trkpt>
      <trkpt lat="46.20031" lon="6.53752">
        <ele>1273</ele>
        <time>2021-09-12T10:33:35Z</time>
      </trkpt>
      <trkpt lat="46.20018" lon="6.53765">
        <ele>1217</ele>
        <time>2021-09-12T10:33:37Z</time>
      </trkpt>
      <trkpt lat="46.19985" lon="6.53781">
        <ele>1143</ele>
        <time>2021-09-12T10:33:41Z</time>
      </trkpt>
      <trkpt lat="46.19978" lon="6.53781">
        <ele>1189</ele>
        <time>2021-09-12T10:33:42Z</time>
      </trkpt>
      <trkpt lat="46.19965" lon="6.53776">
        <ele>1206</ele>
        <time>2021-09-12T10:33:44Z</time>
      </trkpt>
      <trkpt lat="46.19958" lon="6.53775">
        <ele>1203</ele>
        <time>2021-09-12T10:33:45Z</time>
      </trkpt>
      <trkpt lat="46.19942" lon="6.53779">
        <ele>1178</ele>
        <time>2021-09-12T10:33:47Z</time>
      </trkpt>
      <trkpt lat="46.19899" lon="6.53778">
        <ele>1062</ele>
        <time>2021-09-12T10:33:53Z</time>
      </trkpt>
      <trkpt lat="46.19885" lon="6.5378">
        <ele>1062</ele>
        <time>2021-09-12T10:33:55Z</time>
      </trkpt>
      <trkpt lat="46.1988" lon="6.53776">
        <ele>1068</ele>
        <time>2021-09-12T10:33:56Z</time>
      </trkpt>
      <trkpt lat="46.19853" lon="6.53751">
        <ele>1117</ele>
        <time>2021-09-12T10:34:00Z</time>
      </trkpt>
      <trkpt lat="46.19847" lon="6.53749">
        <ele>1117</ele>
        <time>2021-09-12T10:34:01Z</time>
      </trkpt>
      <trkpt lat="46.19833" lon="6.53744">
        <ele>1130</ele>
        <time>2021-09-12T10:34:03Z</time>
      </trkpt>
      <trkpt lat="46.19826" lon="6.5374">
        <ele>1127</ele>
        <time>2021-09-12T10:34:04Z</time>
      </trkpt>
      <trkpt lat="46.19819" lon="6.53739">
        <ele>1147</ele>
        <time>2021-09-12T10:34:05Z</time>
      </trkpt>
      <trkpt lat="46.19812" lon="6.53736">
        <ele>1137</ele>
        <time>2021-09-12T10:34:06Z</time>
      </trkpt>
      <trkpt lat="46.19738" lon="6.5378">
        <ele>1153</ele>
        <time>2021-09-12T10:34:18Z</time>
      </trkpt>
      <trkpt lat="46.19726" lon="6.5378">
        <ele>1173</ele>
        <time>2021-09-12T10:34:20Z</time>
      </trkpt>
      <trkpt lat="46.19721" lon="6.53779">
        <ele>1167</ele>
        <time>2021-09-12T10:34:21Z</time>
      </trkpt>
      <trkpt lat="46.19717" lon="6.53778">
        <ele>1178</ele>
        <time>2021-09-12T10:34:22Z</time>
      </trkpt>
      <trkpt lat="46.19713" lon="6.53781">
        <ele>1194</ele>
        <time>2021-09-12T10:34:23Z</time>
      </trkpt>
      <trkpt lat="46.1971" lon="6.53785">
        <ele>1215</ele>
        <time>2021-09-12T10:34:24Z</time>
      </trkpt>
      <trkpt lat="46.19709" lon="6.53789">
        <ele>1217</ele>
        <time>2021-09-12T10:34:25Z</time>
      </trkpt>
      <trkpt lat="46.19742" lon="6.53807">
        <ele>1300</ele>
        <time>2021-09-12T10:34:30Z</time>
      </trkpt>
      <trkpt lat="46.19767" lon="6.53819">
        <ele>1224</ele>
        <time>2021-09-12T10:34:34Z</time>
      </trkpt>
      <trkpt lat="46.19771" lon="6.53824">
        <ele>1222</ele>
        <time>2021-09-12T10:34:35Z</time>
      </trkpt>
      <trkpt lat="46.19772" lon="6.53832">
        <ele>1213</ele>
        <time>2021-09-12T10:34:36Z</time>
      </trkpt>
      <trkpt lat="46.1977" lon="6.53837">
        <ele>1211</ele>
        <time>2021-09-12T10:34:37Z</time>
      </trkpt>
      <trkpt lat="46.19748" lon="6.53847">
        <ele>1238</ele>
        <time>2021-09-12T10:34:41Z</time>
      </trkpt>
      <trkpt lat="46.19736" lon="6.53856">
        <ele>1224</ele>
        <time>2021-09-12T10:34:44Z</time>
      </trkpt>
      <trkpt lat="46.19723" lon="6.53887">
        <ele>1219</ele>
        <time>2021-09-12T10:34:49Z</time>
      </trkpt>
      <trkpt lat="46.19705" lon="6.53994">
        <ele>1364</ele>
        <time>2021-09-12T10:35:02Z</time>
      </trkpt>
      <trkpt lat="46.19703" lon="6.54003">
        <ele>1324</ele>
        <time>2021-09-12T10:35:03Z</time>
      </trkpt>
      <trkpt lat="46.19682" lon="6.54074">
        <ele>1499</ele>
        <time>2021-09-12T10:35:10Z</time>
      </trkpt>
      <trkpt lat="46.19593" lon="6.54278">
        <ele>1504</ele>
        <time>2021-09-12T10:35:30Z</time>
      </trkpt>
      <trkpt lat="46.19583" lon="6.5439">
        <ele>1506</ele>
        <time>2021-09-12T10:35:39Z</time>
      </trkpt>
      <trkpt lat="46.19583" lon="6.54416">
        <ele>1506</ele>
        <time>2021-09-12T10:35:41Z</time>
      </trkpt>
      <trkpt lat="46.19582" lon="6.5443">
        <ele>1509</ele>
        <time>2021-09-12T10:35:42Z</time>
      </trkpt>
      <trkpt lat="46.19581" lon="6.54442">
        <ele>1513</ele>
        <time>2021-09-12T10:35:43Z</time>
      </trkpt>
      <trkpt lat="46.19573" lon="6.54508">
        <ele>1521</ele>
        <time>2021-09-12T10:35:49Z</time>
      </trkpt>
      <trkpt lat="46.19574" lon="6.54529">
        <ele>1522</ele>
        <time>2021-09-12T10:35:51Z</time>
      </trkpt>
      <trkpt lat="46.19577" lon="6.54554">
        <ele>1524</ele>
        <time>2021-09-12T10:35:54Z</time>
      </trkpt>
      <trkpt lat="46.1958" lon="6.54568">
        <ele>1529</ele>
        <time>2021-09-12T10:35:56Z</time>
      </trkpt>
      <trkpt lat="46.19582" lon="6.54579">
        <ele>1533</ele>
        <time>2021-09-12T10:35:58Z</time>
      </trkpt>
      <trkpt lat="46.19572" lon="6.54591">
        <ele>1543</ele>
        <time>2021-09-12T10:36:01Z</time>
      </trkpt>
      <trkpt lat="46.19537" lon="6.54607">
        <ele>1564</ele>
        <time>2021-09-12T10:36:09Z</time>
      </trkpt>
      <trkpt lat="46.19526" lon="6.54615">
        <ele>1566</ele>
        <time>2021-09-12T10:36:11Z</time>
      </trkpt>
      <trkpt lat="46.19521" lon="6.54616">
        <ele>1566</ele>
        <time>2021-09-12T10:36:12Z</time>
      </trkpt>
      <trkpt lat="46.1947" lon="6.54607">
        <ele>1569</ele>
        <time>2021-09-12T10:36:21Z</time>
      </trkpt>
      <trkpt lat="46.19466" lon="6.54605">
        <ele>1569</ele>
        <time>2021-09-12T10:36:22Z</time>
      </trkpt>
      <trkpt lat="46.19462" lon="6.54606">
        <ele>1570</ele>
        <time>2021-09-12T10:36:23Z</time>
      </trkpt>
      <trkpt lat="46.19459" lon="6.54603">
        <ele>1571</ele>
        <time>2021-09-12T10:36:27Z</time>
      </trkpt>
      <trkpt lat="46.19456" lon="6.54596">
        <ele>1577</ele>
        <time>2021-09-12T10:36:35Z</time>
      </trkpt>
      <trkpt lat="46.19455" lon="6.54589">
        <ele>1579</ele>
        <time>2021-09-12T10:36:37Z</time>
      </trkpt>
      <trkpt lat="46.19449" lon="6.54583">
        <ele>1582</ele>
        <time>2021-09-12T10:36:40Z</time>
      </trkpt>
      <trkpt lat="46.19444" lon="6.54583">
        <ele>1594</ele>
        <time>2021-09-12T10:36:44Z</time>
      </trkpt>
      <trkpt lat="46.19431" lon="6.54593">
        <ele>1604</ele>
        <time>2021-09-12T10:36:49Z</time>
      </trkpt>
      <trkpt lat="46.19412" lon="6.546">
        <ele>1609</ele>
        <time>2021-09-12T10:36:55Z</time>
      </trkpt>
      <trkpt lat="46.1942" lon="6.54596">
        <ele>1623</ele>
        <time>2021-09-12T10:38:31Z</time>
      </trkpt>
      <trkpt lat="46.19429" lon="6.54596">
        <ele>1633</ele>
        <time>2021-09-12T10:38:41Z</time>
      </trkpt>
      <trkpt lat="46.19428" lon="6.54604">
        <ele>1643</ele>
        <time>2021-09-12T10:39:26Z</time>
      </trkpt>
      <trkpt lat="46.19428" lon="6.546">
        <ele>1646</ele>
        <time>2021-09-12T10:41:32Z</time>
      </trkpt>
      <trkpt lat="46.1943" lon="6.54596">
        <ele>1646</ele>
        <time>2021-09-12T10:41:41Z</time>
      </trkpt>
      <trkpt lat="46.19421" lon="6.54595">
        <ele>1647</ele>
        <time>2021-09-12T10:42:58Z</time>
      </trkpt>
      <trkpt lat="46.19409" lon="6.54599">
        <ele>1648</ele>
        <time>2021-09-12T10:43:02Z</time>
      </trkpt>
      <trkpt lat="46.19406" lon="6.54595">
        <ele>1651</ele>
        <time>2021-09-12T10:43:16Z</time>
      </trkpt>
      <trkpt lat="46.19408" lon="6.54592">
        <ele>1653</ele>
        <time>2021-09-12T10:43:34Z</time>
      </trkpt>
      <trkpt lat="46.19406" lon="6.54589">
        <ele>1653</ele>
        <time>2021-09-12T10:43:43Z</time>
      </trkpt>
      <trkpt lat="46.19409" lon="6.54586">
        <ele>1652</ele>
        <time>2021-09-12T10:44:12Z</time>
      </trkpt>
      <trkpt lat="46.19408" lon="6.54581">
        <ele>1650</ele>
        <time>2021-09-12T10:44:15Z</time>
      </trkpt>
      <trkpt lat="46.19405" lon="6.54582">
        <ele>1650</ele>
        <time>2021-09-12T10:44:17Z</time>
      </trkpt>
      <trkpt lat="46.19401" lon="6.54583">
        <ele>1650</ele>
        <time>2021-09-12T10:44:19Z</time>
      </trkpt>
      <trkpt lat="46.19397" lon="6.54584">
        <ele>1650</ele>
        <time>2021-09-12T10:44:21Z</time>
      </trkpt>
      <trkpt lat="46.19395" lon="6.54587">
        <ele>1651</ele>
        <time>2021-09-12T10:44:28Z</time>
      </trkpt>
      <trkpt lat="46.19394" lon="6.54592">
        <ele>1652</ele>
        <time>2021-09-12T10:44:31Z</time>
      </trkpt>
      <trkpt lat="46.19397" lon="6.54602">
        <ele>1653</ele>
        <time>2021-09-12T10:44:35Z</time>
      </trkpt>
      <trkpt lat="46.19397" lon="6.54603">
        <ele>1652</ele>
        <time>2021-09-12T10:50:43Z</time>
      </trkpt>
      <trkpt lat="46.19386" lon="6.54605">
        <ele>1655</ele>
        <time>2021-09-12T10:50:48Z</time>
      </trkpt>
      <trkpt lat="46.19368" lon="6.54606">
        <ele>1657</ele>
        <time>2021-09-12T10:50:55Z</time>
      </trkpt>
      <trkpt lat="46.19356" lon="6.54607">
        <ele>1657</ele>
        <time>2021-09-12T10:50:59Z</time>
      </trkpt>
      <trkpt lat="46.19344" lon="6.54603">
        <ele>1659</ele>
        <time>2021-09-12T10:51:03Z</time>
      </trkpt>
      <trkpt lat="46.19339" lon="6.54599">
        <ele>1659</ele>
        <time>2021-09-12T10:51:05Z</time>
      </trkpt>
      <trkpt lat="46.19338" lon="6.54602">
        <ele>1666</ele>
        <time>2021-09-12T10:59:51Z</time>
      </trkpt>
      <trkpt lat="46.19331" lon="6.54596">
        <ele>1665</ele>
        <time>2021-09-12T10:59:54Z</time>
      </trkpt>
      <trkpt lat="46.19328" lon="6.54594">
        <ele>1665</ele>
        <time>2021-09-12T10:59:55Z</time>
      </trkpt>
      <trkpt lat="46.19324" lon="6.54592">
        <ele>1665</ele>
        <time>2021-09-12T10:59:57Z</time>
      </trkpt>
      <trkpt lat="46.19315" lon="6.5458">
        <ele>1666</ele>
        <time>2021-09-12T11:00:05Z</time>
      </trkpt>
      <trkpt lat="46.19313" lon="6.5457">
        <ele>1666</ele>
        <time>2021-09-12T11:00:12Z</time>
      </trkpt>
      <trkpt lat="46.19313" lon="6.54564">
        <ele>1666</ele>
        <time>2021-09-12T11:00:15Z</time>
      </trkpt>
      <trkpt lat="46.19312" lon="6.5456">
        <ele>1666</ele>
        <time>2021-09-12T11:00:17Z</time>
      </trkpt>
      <trkpt lat="46.19311" lon="6.54554">
        <ele>1665</ele>
        <time>2021-09-12T11:00:21Z</time>
      </trkpt>
      <trkpt lat="46.19312" lon="6.54549">
        <ele>1664</ele>
        <time>2021-09-12T11:00:23Z</time>
      </trkpt>
      <trkpt lat="46.19311" lon="6.54544">
        <ele>1663</ele>
        <time>2021-09-12T11:00:25Z</time>
      </trkpt>
      <trkpt lat="46.19309" lon="6.54537">
        <ele>1662</ele>
        <time>2021-09-12T11:00:27Z</time>
      </trkpt>
      <trkpt lat="46.19304" lon="6.5452">
        <ele>1662</ele>
        <time>2021-09-12T11:00:33Z</time>
      </trkpt>
      <trkpt lat="46.19299" lon="6.54491">
        <ele>1658</ele>
        <time>2021-09-12T11:00:43Z</time>
      </trkpt>
      <trkpt lat="46.19297" lon="6.54484">
        <ele>1656</ele>
        <time>2021-09-12T11:00:45Z</time>
      </trkpt>
      <trkpt lat="46.19299" lon="6.54457">
        <ele>1651</ele>
        <time>2021-09-12T11:00:53Z</time>
      </trkpt>
      <trkpt lat="46.19298" lon="6.54446">
        <ele>1649</ele>
        <time>2021-09-12T11:00:56Z</time>
      </trkpt>
      <trkpt lat="46.19297" lon="6.54434">
        <ele>1644</ele>
        <time>2021-09-12T11:01:00Z</time>
      </trkpt>
      <trkpt lat="46.19295" lon="6.54428">
        <ele>1644</ele>
        <time>2021-09-12T11:01:02Z</time>
      </trkpt>
      <trkpt lat="46.19291" lon="6.54423">
        <ele>1642</ele>
        <time>2021-09-12T11:01:05Z</time>
      </trkpt>
      <trkpt lat="46.19282" lon="6.54418">
        <ele>1406</ele>
        <time>2021-09-12T11:01:11Z</time>
      </trkpt>
      <trkpt lat="46.19269" lon="6.54418">
        <ele>1357</ele>
        <time>2021-09-12T11:01:17Z</time>
      </trkpt>
      <trkpt lat="46.19264" lon="6.54426">
        <ele>1331</ele>
        <time>2021-09-12T11:01:19Z</time>
      </trkpt>
      <trkpt lat="46.19259" lon="6.54448">
        <ele>1395</ele>
        <time>2021-09-12T11:01:23Z</time>
      </trkpt>
      <trkpt lat="46.19226" lon="6.54508">
        <ele>1581</ele>
        <time>2021-09-12T11:01:35Z</time>
      </trkpt>
      <trkpt lat="46.19223" lon="6.54509">
        <ele>1597</ele>
        <time>2021-09-12T11:01:36Z</time>
      </trkpt>
      <trkpt lat="46.19218" lon="6.54509">
        <ele>1464</ele>
        <time>2021-09-12T11:01:37Z</time>
      </trkpt>
      <trkpt lat="46.19198" lon="6.54504">
        <ele>1576</ele>
        <time>2021-09-12T11:01:41Z</time>
      </trkpt>
      <trkpt lat="46.19185" lon="6.54495">
        <ele>1395</ele>
        <time>2021-09-12T11:01:44Z</time>
      </trkpt>
      <trkpt lat="46.19179" lon="6.54491">
        <ele>1563</ele>
        <time>2021-09-12T11:01:46Z</time>
      </trkpt>
      <trkpt lat="46.19176" lon="6.54488">
        <ele>1587</ele>
        <time>2021-09-12T11:01:47Z</time>
      </trkpt>
      <trkpt lat="46.19172" lon="6.54487">
        <ele>1611</ele>
        <time>2021-09-12T11:01:48Z</time>
      </trkpt>
      <trkpt lat="46.19163" lon="6.5448">
        <ele>1627</ele>
        <time>2021-09-12T11:01:53Z</time>
      </trkpt>
      <trkpt lat="46.19134" lon="6.5447">
        <ele>1628</ele>
        <time>2021-09-12T11:01:58Z</time>
      </trkpt>
      <trkpt lat="46.19125" lon="6.54469">
        <ele>1629</ele>
        <time>2021-09-12T11:02:01Z</time>
      </trkpt>
      <trkpt lat="46.19119" lon="6.54465">
        <ele>1592</ele>
        <time>2021-09-12T11:02:03Z</time>
      </trkpt>
      <trkpt lat="46.19103" lon="6.54459">
        <ele>1625</ele>
        <time>2021-09-12T11:02:07Z</time>
      </trkpt>
      <trkpt lat="46.19099" lon="6.54457">
        <ele>1626</ele>
        <time>2021-09-12T11:02:08Z</time>
      </trkpt>
      <trkpt lat="46.19083" lon="6.54435">
        <ele>1625</ele>
        <time>2021-09-12T11:02:30Z</time>
      </trkpt>
      <trkpt lat="46.19074" lon="6.5442">
        <ele>1439</ele>
        <time>2021-09-12T11:02:39Z</time>
      </trkpt>
      <trkpt lat="46.19074" lon="6.54415">
        <ele>1316</ele>
        <time>2021-09-12T11:02:47Z</time>
      </trkpt>
      <trkpt lat="46.19072" lon="6.54411">
        <ele>1354</ele>
        <time>2021-09-12T11:02:49Z</time>
      </trkpt>
      <trkpt lat="46.19066" lon="6.54399">
        <ele>1342</ele>
        <time>2021-09-12T11:03:00Z</time>
      </trkpt>
      <trkpt lat="46.19064" lon="6.54396">
        <ele>1366</ele>
        <time>2021-09-12T11:03:03Z</time>
      </trkpt>
      <trkpt lat="46.19055" lon="6.54384">
        <ele>1589</ele>
        <time>2021-09-12T11:03:11Z</time>
      </trkpt>
      <trkpt lat="46.19052" lon="6.54379">
        <ele>1607</ele>
        <time>2021-09-12T11:03:13Z</time>
      </trkpt>
      <trkpt lat="46.19046" lon="6.54363">
        <ele>1614</ele>
        <time>2021-09-12T11:03:22Z</time>
      </trkpt>
      <trkpt lat="46.19041" lon="6.54357">
        <ele>1526</ele>
        <time>2021-09-12T11:03:27Z</time>
      </trkpt>
      <trkpt lat="46.19038" lon="6.54356">
        <ele>1490</ele>
        <time>2021-09-12T11:03:29Z</time>
      </trkpt>
      <trkpt lat="46.19034" lon="6.54356">
        <ele>1462</ele>
        <time>2021-09-12T11:03:32Z</time>
      </trkpt>
      <trkpt lat="46.19014" lon="6.54365">
        <ele>1362</ele>
        <time>2021-09-12T11:03:53Z</time>
      </trkpt>
      <trkpt lat="46.19006" lon="6.54371">
        <ele>1291</ele>
        <time>2021-09-12T11:03:59Z</time>
      </trkpt>
      <trkpt lat="46.19003" lon="6.54374">
        <ele>1371</ele>
        <time>2021-09-12T11:04:01Z</time>
      </trkpt>
      <trkpt lat="46.18998" lon="6.54376">
        <ele>1380</ele>
        <time>2021-09-12T11:04:03Z</time>
      </trkpt>
      <trkpt lat="46.18987" lon="6.54381">
        <ele>1316</ele>
        <time>2021-09-12T11:04:07Z</time>
      </trkpt>
      <trkpt lat="46.18982" lon="6.54383">
        <ele>1330</ele>
        <time>2021-09-12T11:04:09Z</time>
      </trkpt>
      <trkpt lat="46.18979" lon="6.54383">
        <ele>1348</ele>
        <time>2021-09-12T11:04:10Z</time>
      </trkpt>
      <trkpt lat="46.18976" lon="6.54383">
        <ele>1346</ele>
        <time>2021-09-12T11:04:11Z</time>
      </trkpt>
      <trkpt lat="46.18973" lon="6.54382">
        <ele>1352</ele>
        <time>2021-09-12T11:04:12Z</time>
      </trkpt>
      <trkpt lat="46.1896" lon="6.54373">
        <ele>1292</ele>
        <time>2021-09-12T11:04:16Z</time>
      </trkpt>
      <trkpt lat="46.18948" lon="6.54367">
        <ele>1461</ele>
        <time>2021-09-12T11:04:17Z</time>
      </trkpt>
      <trkpt lat="46.18946" lon="6.54363">
        <ele>1509</ele>
        <time>2021-09-12T11:04:18Z</time>
      </trkpt>
      <trkpt lat="46.18939" lon="6.54352">
        <ele>1311</ele>
        <time>2021-09-12T11:04:21Z</time>
      </trkpt>
      <trkpt lat="46.18918" lon="6.54321">
        <ele>1463</ele>
        <time>2021-09-12T11:04:29Z</time>
      </trkpt>
      <trkpt lat="46.18902" lon="6.54308">
        <ele>1317</ele>
        <time>2021-09-12T11:04:35Z</time>
      </trkpt>
      <trkpt lat="46.18898" lon="6.54306">
        <ele>1323</ele>
        <time>2021-09-12T11:04:36Z</time>
      </trkpt>
      <trkpt lat="46.18893" lon="6.54303">
        <ele>1324</ele>
        <time>2021-09-12T11:04:38Z</time>
      </trkpt>
      <trkpt lat="46.18888" lon="6.54298">
        <ele>1281</ele>
        <time>2021-09-12T11:04:39Z</time>
      </trkpt>
      <trkpt lat="46.18884" lon="6.54297">
        <ele>1385</ele>
        <time>2021-09-12T11:04:40Z</time>
      </trkpt>
      <trkpt lat="46.1888" lon="6.54297">
        <ele>1489</ele>
        <time>2021-09-12T11:04:41Z</time>
      </trkpt>
      <trkpt lat="46.18866" lon="6.54293">
        <ele>1277</ele>
        <time>2021-09-12T11:04:44Z</time>
      </trkpt>
      <trkpt lat="46.18863" lon="6.54292">
        <ele>1303</ele>
        <time>2021-09-12T11:04:45Z</time>
      </trkpt>
      <trkpt lat="46.18851" lon="6.54288">
        <ele>1303</ele>
        <time>2021-09-12T11:04:49Z</time>
      </trkpt>
      <trkpt lat="46.18847" lon="6.54287">
        <ele>1315</ele>
        <time>2021-09-12T11:04:50Z</time>
      </trkpt>
      <trkpt lat="46.18837" lon="6.54284">
        <ele>1215</ele>
        <time>2021-09-12T11:04:54Z</time>
      </trkpt>
      <trkpt lat="46.18821" lon="6.54281">
        <ele>1270</ele>
        <time>2021-09-12T11:04:59Z</time>
      </trkpt>
      <trkpt lat="46.18811" lon="6.54281">
        <ele>1265</ele>
        <time>2021-09-12T11:05:01Z</time>
      </trkpt>
      <trkpt lat="46.18807" lon="6.54282">
        <ele>1273</ele>
        <time>2021-09-12T11:05:02Z</time>
      </trkpt>
      <trkpt lat="46.18804" lon="6.54284">
        <ele>1270</ele>
        <time>2021-09-12T11:05:03Z</time>
      </trkpt>
      <trkpt lat="46.18797" lon="6.54294">
        <ele>1210</ele>
        <time>2021-09-12T11:05:07Z</time>
      </trkpt>
      <trkpt lat="46.18792" lon="6.54296">
        <ele>1199</ele>
        <time>2021-09-12T11:05:09Z</time>
      </trkpt>
      <trkpt lat="46.18763" lon="6.54281">
        <ele>1557</ele>
        <time>2021-09-12T11:05:15Z</time>
      </trkpt>
      <trkpt lat="46.18756" lon="6.54279">
        <ele>1547</ele>
        <time>2021-09-12T11:05:17Z</time>
      </trkpt>
      <trkpt lat="46.18748" lon="6.54278">
        <ele>1584</ele>
        <time>2021-09-12T11:05:19Z</time>
      </trkpt>
      <trkpt lat="46.18741" lon="6.5428">
        <ele>1595</ele>
        <time>2021-09-12T11:05:21Z</time>
      </trkpt>
      <trkpt lat="46.18664" lon="6.54275">
        <ele>1528</ele>
        <time>2021-09-12T11:05:40Z</time>
      </trkpt>
      <trkpt lat="46.18648" lon="6.54266">
        <ele>1522</ele>
        <time>2021-09-12T11:05:45Z</time>
      </trkpt>
      <trkpt lat="46.18643" lon="6.54261">
        <ele>1519</ele>
        <time>2021-09-12T11:05:48Z</time>
      </trkpt>
      <trkpt lat="46.18639" lon="6.54245">
        <ele>1518</ele>
        <time>2021-09-12T11:05:52Z</time>
      </trkpt>
      <trkpt lat="46.18639" lon="6.54234">
        <ele>1509</ele>
        <time>2021-09-12T11:05:54Z</time>
      </trkpt>
      <trkpt lat="46.18641" lon="6.54218">
        <ele>1509</ele>
        <time>2021-09-12T11:05:58Z</time>
      </trkpt>
      <trkpt lat="46.1864" lon="6.5421">
        <ele>1508</ele>
        <time>2021-09-12T11:06:00Z</time>
      </trkpt>
      <trkpt lat="46.18638" lon="6.54206">
        <ele>1507</ele>
        <time>2021-09-12T11:06:01Z</time>
      </trkpt>
      <trkpt lat="46.18627" lon="6.54195">
        <ele>1500</ele>
        <time>2021-09-12T11:06:06Z</time>
      </trkpt>
      <trkpt lat="46.18623" lon="6.54193">
        <ele>1517</ele>
        <time>2021-09-12T11:06:08Z</time>
      </trkpt>
      <trkpt lat="46.18615" lon="6.5419">
        <ele>1525</ele>
        <time>2021-09-12T11:06:11Z</time>
      </trkpt>
      <trkpt lat="46.18598" lon="6.54191">
        <ele>1504</ele>
        <time>2021-09-12T11:06:15Z</time>
      </trkpt>
      <trkpt lat="46.1858" lon="6.54197">
        <ele>1489</ele>
        <time>2021-09-12T11:06:20Z</time>
      </trkpt>
      <trkpt lat="46.18573" lon="6.54196">
        <ele>1486</ele>
        <time>2021-09-12T11:06:22Z</time>
      </trkpt>
      <trkpt lat="46.18568" lon="6.5419">
        <ele>1483</ele>
        <time>2021-09-12T11:06:24Z</time>
      </trkpt>
      <trkpt lat="46.18564" lon="6.54183">
        <ele>1481</ele>
        <time>2021-09-12T11:06:26Z</time>
      </trkpt>
      <trkpt lat="46.18562" lon="6.54179">
        <ele>1480</ele>
        <time>2021-09-12T11:06:27Z</time>
      </trkpt>
      <trkpt lat="46.18562" lon="6.5417">
        <ele>1479</ele>
        <time>2021-09-12T11:06:29Z</time>
      </trkpt>
      <trkpt lat="46.18561" lon="6.54146">
        <ele>1472</ele>
        <time>2021-09-12T11:06:35Z</time>
      </trkpt>
      <trkpt lat="46.18558" lon="6.54143">
        <ele>1471</ele>
        <time>2021-09-12T11:06:43Z</time>
      </trkpt>
      <trkpt lat="46.18554" lon="6.54139">
        <ele>1469</ele>
        <time>2021-09-12T11:06:45Z</time>
      </trkpt>
      <trkpt lat="46.1855" lon="6.54138">
        <ele>1466</ele>
        <time>2021-09-12T11:06:47Z</time>
      </trkpt>
      <trkpt lat="46.18543" lon="6.54141">
        <ele>1462</ele>
        <time>2021-09-12T11:06:51Z</time>
      </trkpt>
      <trkpt lat="46.18531" lon="6.5414">
        <ele>1458</ele>
        <time>2021-09-12T11:06:55Z</time>
      </trkpt>
      <trkpt lat="46.18432" lon="6.54068">
        <ele>1437</ele>
        <time>2021-09-12T11:07:19Z</time>
      </trkpt>
      <trkpt lat="46.18339" lon="6.54044">
        <ele>1425</ele>
        <time>2021-09-12T11:07:34Z</time>
      </trkpt>
      <trkpt lat="46.18277" lon="6.54007">
        <ele>1420</ele>
        <time>2021-09-12T11:07:44Z</time>
      </trkpt>
      <trkpt lat="46.18266" lon="6.5401">
        <ele>1418</ele>
        <time>2021-09-12T11:07:46Z</time>
      </trkpt>
      <trkpt lat="46.18249" lon="6.54018">
        <ele>1416</ele>
        <time>2021-09-12T11:07:49Z</time>
      </trkpt>
      <trkpt lat="46.18241" lon="6.54017">
        <ele>1415</ele>
        <time>2021-09-12T11:07:51Z</time>
      </trkpt>
      <trkpt lat="46.18237" lon="6.54013">
        <ele>1414</ele>
        <time>2021-09-12T11:07:53Z</time>
      </trkpt>
      <trkpt lat="46.18234" lon="6.54012">
        <ele>1413</ele>
        <time>2021-09-12T11:07:54Z</time>
      </trkpt>
      <trkpt lat="46.18232" lon="6.54008">
        <ele>1413</ele>
        <time>2021-09-12T11:07:55Z</time>
      </trkpt>
      <trkpt lat="46.18229" lon="6.54002">
        <ele>1410</ele>
        <time>2021-09-12T11:07:57Z</time>
      </trkpt>
      <trkpt lat="46.18228" lon="6.53977">
        <ele>1405</ele>
        <time>2021-09-12T11:08:05Z</time>
      </trkpt>
      <trkpt lat="46.18233" lon="6.53962">
        <ele>1402</ele>
        <time>2021-09-12T11:08:09Z</time>
      </trkpt>
      <trkpt lat="46.1829" lon="6.53887">
        <ele>1383</ele>
        <time>2021-09-12T11:08:30Z</time>
      </trkpt>
      <trkpt lat="46.18288" lon="6.53883">
        <ele>1377</ele>
        <time>2021-09-12T11:08:40Z</time>
      </trkpt>
      <trkpt lat="46.18256" lon="6.5387">
        <ele>1369</ele>
        <time>2021-09-12T11:08:47Z</time>
      </trkpt>
      <trkpt lat="46.18191" lon="6.53874">
        <ele>1363</ele>
        <time>2021-09-12T11:08:55Z</time>
      </trkpt>
      <trkpt lat="46.18179" lon="6.53858">
        <ele>1363</ele>
        <time>2021-09-12T11:08:58Z</time>
      </trkpt>
      <trkpt lat="46.18184" lon="6.53797">
        <ele>1363</ele>
        <time>2021-09-12T11:09:04Z</time>
      </trkpt>
      <trkpt lat="46.18177" lon="6.53789">
        <ele>1361</ele>
        <time>2021-09-12T11:09:06Z</time>
      </trkpt>
      <trkpt lat="46.18173" lon="6.53788">
        <ele>1360</ele>
        <time>2021-09-12T11:09:07Z</time>
      </trkpt>
      <trkpt lat="46.18105" lon="6.53767">
        <ele>1353</ele>
        <time>2021-09-12T11:09:15Z</time>
      </trkpt>
      <trkpt lat="46.18091" lon="6.53748">
        <ele>1351</ele>
        <time>2021-09-12T11:09:17Z</time>
      </trkpt>
      <trkpt lat="46.18073" lon="6.53719">
        <ele>1351</ele>
        <time>2021-09-12T11:09:20Z</time>
      </trkpt>
      <trkpt lat="46.18068" lon="6.5371">
        <ele>1352</ele>
        <time>2021-09-12T11:09:21Z</time>
      </trkpt>
      <trkpt lat="46.18065" lon="6.5369">
        <ele>1352</ele>
        <time>2021-09-12T11:09:23Z</time>
      </trkpt>
      <trkpt lat="46.18063" lon="6.53672">
        <ele>1348</ele>
        <time>2021-09-12T11:09:25Z</time>
      </trkpt>
      <trkpt lat="46.18063" lon="6.53578">
        <ele>1336</ele>
        <time>2021-09-12T11:09:40Z</time>
      </trkpt>
      <trkpt lat="46.18062" lon="6.53574">
        <ele>1336</ele>
        <time>2021-09-12T11:09:51Z</time>
      </trkpt>
      <trkpt lat="46.18062" lon="6.53569">
        <ele>1333</ele>
        <time>2021-09-12T11:10:37Z</time>
      </trkpt>
      <trkpt lat="46.18061" lon="6.53565">
        <ele>1333</ele>
        <time>2021-09-12T11:10:53Z</time>
      </trkpt>
      <trkpt lat="46.1806" lon="6.53561">
        <ele>1331</ele>
        <time>2021-09-12T11:10:55Z</time>
      </trkpt>
      <trkpt lat="46.18065" lon="6.53557">
        <ele>1331</ele>
        <time>2021-09-12T11:11:02Z</time>
      </trkpt>
      <trkpt lat="46.18082" lon="6.53528">
        <ele>1329</ele>
        <time>2021-09-12T11:11:08Z</time>
      </trkpt>
      <trkpt lat="46.18084" lon="6.53524">
        <ele>1329</ele>
        <time>2021-09-12T11:11:10Z</time>
      </trkpt>
      <trkpt lat="46.18081" lon="6.53521">
        <ele>1328</ele>
        <time>2021-09-12T11:11:12Z</time>
      </trkpt>
      <trkpt lat="46.18064" lon="6.53534">
        <ele>1329</ele>
        <time>2021-09-12T11:11:17Z</time>
      </trkpt>
      <trkpt lat="46.1806" lon="6.53535">
        <ele>1329</ele>
        <time>2021-09-12T11:11:18Z</time>
      </trkpt>
      <trkpt lat="46.18056" lon="6.53532">
        <ele>1330</ele>
        <time>2021-09-12T11:11:19Z</time>
      </trkpt>
      <trkpt lat="46.18053" lon="6.53527">
        <ele>1330</ele>
        <time>2021-09-12T11:11:20Z</time>
      </trkpt>
      <trkpt lat="46.18053" lon="6.53521">
        <ele>1331</ele>
        <time>2021-09-12T11:11:21Z</time>
      </trkpt>
      <trkpt lat="46.18055" lon="6.53513">
        <ele>1332</ele>
        <time>2021-09-12T11:11:22Z</time>
      </trkpt>
      <trkpt lat="46.1808" lon="6.53412">
        <ele>1339</ele>
        <time>2021-09-12T11:11:37Z</time>
      </trkpt>
      <trkpt lat="46.18092" lon="6.53393">
        <ele>1338</ele>
        <time>2021-09-12T11:12:07Z</time>
      </trkpt>
      <trkpt lat="46.18135" lon="6.53344">
        <ele>1339</ele>
        <time>2021-09-12T11:12:13Z</time>
      </trkpt>
      <trkpt lat="46.18202" lon="6.53243">
        <ele>1341</ele>
        <time>2021-09-12T11:12:23Z</time>
      </trkpt>
      <trkpt lat="46.18291" lon="6.53161">
        <ele>1339</ele>
        <time>2021-09-12T11:12:33Z</time>
      </trkpt>
      <trkpt lat="46.18388" lon="6.53088">
        <ele>1337</ele>
        <time>2021-09-12T11:12:43Z</time>
      </trkpt>
      <trkpt lat="46.18423" lon="6.53048">
        <ele>1335</ele>
        <time>2021-09-12T11:12:47Z</time>
      </trkpt>
      <trkpt lat="46.18454" lon="6.53023">
        <ele>1335</ele>
        <time>2021-09-12T11:12:50Z</time>
      </trkpt>
      <trkpt lat="46.18469" lon="6.52999">
        <ele>1335</ele>
        <time>2021-09-12T11:12:52Z</time>
      </trkpt>
      <trkpt lat="46.18508" lon="6.52914">
        <ele>1338</ele>
        <time>2021-09-12T11:12:59Z</time>
      </trkpt>
      <trkpt lat="46.18535" lon="6.52777">
        <ele>1342</ele>
        <time>2021-09-12T11:13:07Z</time>
      </trkpt>
      <trkpt lat="46.18541" lon="6.52677">
        <ele>1345</ele>
        <time>2021-09-12T11:13:13Z</time>
      </trkpt>
      <trkpt lat="46.18538" lon="6.52647">
        <ele>1346</ele>
        <time>2021-09-12T11:13:15Z</time>
      </trkpt>
      <trkpt lat="46.18526" lon="6.52582">
        <ele>1351</ele>
        <time>2021-09-12T11:13:20Z</time>
      </trkpt>
      <trkpt lat="46.18522" lon="6.52573">
        <ele>1351</ele>
        <time>2021-09-12T11:13:21Z</time>
      </trkpt>
      <trkpt lat="46.18497" lon="6.52544">
        <ele>1351</ele>
        <time>2021-09-12T11:13:24Z</time>
      </trkpt>
      <trkpt lat="46.18379" lon="6.5247">
        <ele>1353</ele>
        <time>2021-09-12T11:13:35Z</time>
      </trkpt>
      <trkpt lat="46.18327" lon="6.5237">
        <ele>1354</ele>
        <time>2021-09-12T11:13:43Z</time>
      </trkpt>
      <trkpt lat="46.18321" lon="6.5235">
        <ele>1356</ele>
        <time>2021-09-12T11:13:45Z</time>
      </trkpt>
      <trkpt lat="46.18318" lon="6.52338">
        <ele>1356</ele>
        <time>2021-09-12T11:13:46Z</time>
      </trkpt>
      <trkpt lat="46.18322" lon="6.52308">
        <ele>1358</ele>
        <time>2021-09-12T11:13:48Z</time>
      </trkpt>
      <trkpt lat="46.1833" lon="6.52237">
        <ele>1362</ele>
        <time>2021-09-12T11:13:54Z</time>
      </trkpt>
      <trkpt lat="46.18329" lon="6.52229">
        <ele>1363</ele>
        <time>2021-09-12T11:13:55Z</time>
      </trkpt>
      <trkpt lat="46.18326" lon="6.52221">
        <ele>1364</ele>
        <time>2021-09-12T11:13:56Z</time>
      </trkpt>
      <trkpt lat="46.18316" lon="6.52208">
        <ele>1365</ele>
        <time>2021-09-12T11:13:58Z</time>
      </trkpt>
      <trkpt lat="46.18297" lon="6.52196">
        <ele>1367</ele>
        <time>2021-09-12T11:14:01Z</time>
      </trkpt>
      <trkpt lat="46.18225" lon="6.52179">
        <ele>1367</ele>
        <time>2021-09-12T11:14:10Z</time>
      </trkpt>
      <trkpt lat="46.18027" lon="6.52182">
        <ele>1372</ele>
        <time>2021-09-12T11:14:31Z</time>
      </trkpt>
      <trkpt lat="46.17932" lon="6.52141">
        <ele>1369</ele>
        <time>2021-09-12T11:14:42Z</time>
      </trkpt>
      <trkpt lat="46.17918" lon="6.52148">
        <ele>1368</ele>
        <time>2021-09-12T11:14:44Z</time>
      </trkpt>
      <trkpt lat="46.17899" lon="6.52165">
        <ele>1366</ele>
        <time>2021-09-12T11:14:47Z</time>
      </trkpt>
      <trkpt lat="46.17888" lon="6.52184">
        <ele>1365</ele>
        <time>2021-09-12T11:14:49Z</time>
      </trkpt>
      <trkpt lat="46.17841" lon="6.5229">
        <ele>1365</ele>
        <time>2021-09-12T11:14:57Z</time>
      </trkpt>
      <trkpt lat="46.17796" lon="6.52347">
        <ele>1371</ele>
        <time>2021-09-12T11:15:02Z</time>
      </trkpt>
      <trkpt lat="46.17759" lon="6.52383">
        <ele>1374</ele>
        <time>2021-09-12T11:15:06Z</time>
      </trkpt>
      <trkpt lat="46.17735" lon="6.52437">
        <ele>1376</ele>
        <time>2021-09-12T11:15:11Z</time>
      </trkpt>
      <trkpt lat="46.17645" lon="6.52746">
        <ele>1395</ele>
        <time>2021-09-12T11:15:30Z</time>
      </trkpt>
      <trkpt lat="46.17629" lon="6.52762">
        <ele>1396</ele>
        <time>2021-09-12T11:15:32Z</time>
      </trkpt>
      <trkpt lat="46.17577" lon="6.52803">
        <ele>1398</ele>
        <time>2021-09-12T11:15:43Z</time>
      </trkpt>
      <trkpt lat="46.17458" lon="6.52936">
        <ele>1404</ele>
        <time>2021-09-12T11:16:02Z</time>
      </trkpt>
      <trkpt lat="46.17415" lon="6.5296">
        <ele>1405</ele>
        <time>2021-09-12T11:16:07Z</time>
      </trkpt>
      <trkpt lat="46.17366" lon="6.52966">
        <ele>1404</ele>
        <time>2021-09-12T11:16:13Z</time>
      </trkpt>
      <trkpt lat="46.17316" lon="6.52958">
        <ele>1401</ele>
        <time>2021-09-12T11:16:19Z</time>
      </trkpt>
      <trkpt lat="46.17169" lon="6.52977">
        <ele>1407</ele>
        <time>2021-09-12T11:16:39Z</time>
      </trkpt>
      <trkpt lat="46.17124" lon="6.52962">
        <ele>1406</ele>
        <time>2021-09-12T11:16:48Z</time>
      </trkpt>
      <trkpt lat="46.17104" lon="6.52968">
        <ele>1407</ele>
        <time>2021-09-12T11:16:51Z</time>
      </trkpt>
      <trkpt lat="46.1706" lon="6.52958">
        <ele>1406</ele>
        <time>2021-09-12T11:16:57Z</time>
      </trkpt>
      <trkpt lat="46.17042" lon="6.52961">
        <ele>1407</ele>
        <time>2021-09-12T11:17:00Z</time>
      </trkpt>
      <trkpt lat="46.17038" lon="6.52973">
        <ele>1408</ele>
        <time>2021-09-12T11:17:02Z</time>
      </trkpt>
      <trkpt lat="46.17036" lon="6.5298">
        <ele>1408</ele>
        <time>2021-09-12T11:17:03Z</time>
      </trkpt>
      <trkpt lat="46.17024" lon="6.53014">
        <ele>1411</ele>
        <time>2021-09-12T11:17:08Z</time>
      </trkpt>
      <trkpt lat="46.17024" lon="6.53023">
        <ele>1411</ele>
        <time>2021-09-12T11:17:09Z</time>
      </trkpt>
      <trkpt lat="46.1701" lon="6.53061">
        <ele>1409</ele>
        <time>2021-09-12T11:17:14Z</time>
      </trkpt>
      <trkpt lat="46.17007" lon="6.53066">
        <ele>1409</ele>
        <time>2021-09-12T11:17:15Z</time>
      </trkpt>
      <trkpt lat="46.17004" lon="6.5307">
        <ele>1409</ele>
        <time>2021-09-12T11:17:16Z</time>
      </trkpt>
      <trkpt lat="46.1697" lon="6.5308">
        <ele>1408</ele>
        <time>2021-09-12T11:17:21Z</time>
      </trkpt>
      <trkpt lat="46.16931" lon="6.53084">
        <ele>1405</ele>
        <time>2021-09-12T11:17:26Z</time>
      </trkpt>
      <trkpt lat="46.16925" lon="6.53088">
        <ele>1404</ele>
        <time>2021-09-12T11:17:27Z</time>
      </trkpt>
      <trkpt lat="46.1691" lon="6.53105">
        <ele>1402</ele>
        <time>2021-09-12T11:17:30Z</time>
      </trkpt>
      <trkpt lat="46.16904" lon="6.53121">
        <ele>1401</ele>
        <time>2021-09-12T11:17:32Z</time>
      </trkpt>
      <trkpt lat="46.16889" lon="6.5324">
        <ele>1395</ele>
        <time>2021-09-12T11:17:42Z</time>
      </trkpt>
      <trkpt lat="46.16887" lon="6.53327">
        <ele>1384</ele>
        <time>2021-09-12T11:17:52Z</time>
      </trkpt>
      <trkpt lat="46.16879" lon="6.53358">
        <ele>1382</ele>
        <time>2021-09-12T11:17:56Z</time>
      </trkpt>
      <trkpt lat="46.16863" lon="6.53382">
        <ele>1380</ele>
        <time>2021-09-12T11:17:59Z</time>
      </trkpt>
      <trkpt lat="46.1684" lon="6.53399">
        <ele>1376</ele>
        <time>2021-09-12T11:18:02Z</time>
      </trkpt>
      <trkpt lat="46.16825" lon="6.53406">
        <ele>1373</ele>
        <time>2021-09-12T11:18:04Z</time>
      </trkpt>
      <trkpt lat="46.16817" lon="6.53404">
        <ele>1372</ele>
        <time>2021-09-12T11:18:05Z</time>
      </trkpt>
      <trkpt lat="46.16804" lon="6.53397">
        <ele>1369</ele>
        <time>2021-09-12T11:18:07Z</time>
      </trkpt>
      <trkpt lat="46.1677" lon="6.53368">
        <ele>1365</ele>
        <time>2021-09-12T11:18:13Z</time>
      </trkpt>
      <trkpt lat="46.16768" lon="6.53364">
        <ele>1363</ele>
        <time>2021-09-12T11:18:14Z</time>
      </trkpt>
      <trkpt lat="46.16767" lon="6.53358">
        <ele>1363</ele>
        <time>2021-09-12T11:18:15Z</time>
      </trkpt>
      <trkpt lat="46.16771" lon="6.53347">
        <ele>1362</ele>
        <time>2021-09-12T11:18:17Z</time>
      </trkpt>
      <trkpt lat="46.16779" lon="6.53348">
        <ele>1361</ele>
        <time>2021-09-12T11:18:18Z</time>
      </trkpt>
      <trkpt lat="46.16794" lon="6.53352">
        <ele>1359</ele>
        <time>2021-09-12T11:18:21Z</time>
      </trkpt>
      <trkpt lat="46.16796" lon="6.5335">
        <ele>1357</ele>
        <time>2021-09-12T11:18:22Z</time>
      </trkpt>
      <trkpt lat="46.16799" lon="6.53344">
        <ele>1357</ele>
        <time>2021-09-12T11:18:23Z</time>
      </trkpt>
      <trkpt lat="46.168" lon="6.53338">
        <ele>1357</ele>
        <time>2021-09-12T11:18:24Z</time>
      </trkpt>
      <trkpt lat="46.16798" lon="6.53332">
        <ele>1357</ele>
        <time>2021-09-12T11:18:25Z</time>
      </trkpt>
      <trkpt lat="46.16793" lon="6.53327">
        <ele>1356</ele>
        <time>2021-09-12T11:18:26Z</time>
      </trkpt>
      <trkpt lat="46.16782" lon="6.53319">
        <ele>1355</ele>
        <time>2021-09-12T11:18:28Z</time>
      </trkpt>
      <trkpt lat="46.16753" lon="6.53312">
        <ele>1042</ele>
        <time>2021-09-12T11:18:33Z</time>
      </trkpt>
      <trkpt lat="46.16748" lon="6.53305">
        <ele>1041</ele>
        <time>2021-09-12T11:18:34Z</time>
      </trkpt>
      <trkpt lat="46.1674" lon="6.5328">
        <ele>1061</ele>
        <time>2021-09-12T11:18:37Z</time>
      </trkpt>
      <trkpt lat="46.16727" lon="6.53236">
        <ele>1100</ele>
        <time>2021-09-12T11:18:44Z</time>
      </trkpt>
      <trkpt lat="46.16736" lon="6.53237">
        <ele>1112</ele>
        <time>2021-09-12T11:18:46Z</time>
      </trkpt>
      <trkpt lat="46.16756" lon="6.53263">
        <ele>1053</ele>
        <time>2021-09-12T11:18:51Z</time>
      </trkpt>
      <trkpt lat="46.16761" lon="6.53265">
        <ele>1024</ele>
        <time>2021-09-12T11:18:52Z</time>
      </trkpt>
      <trkpt lat="46.16765" lon="6.53258">
        <ele>994</ele>
        <time>2021-09-12T11:18:54Z</time>
      </trkpt>
      <trkpt lat="46.16764" lon="6.53248">
        <ele>1022</ele>
        <time>2021-09-12T11:18:56Z</time>
      </trkpt>
      <trkpt lat="46.1675" lon="6.53227">
        <ele>1049</ele>
        <time>2021-09-12T11:18:59Z</time>
      </trkpt>
      <trkpt lat="46.16746" lon="6.53218">
        <ele>1045</ele>
        <time>2021-09-12T11:19:00Z</time>
      </trkpt>
      <trkpt lat="46.16736" lon="6.53212">
        <ele>1042</ele>
        <time>2021-09-12T11:19:01Z</time>
      </trkpt>
      <trkpt lat="46.16719" lon="6.53197">
        <ele>1036</ele>
        <time>2021-09-12T11:19:03Z</time>
      </trkpt>
      <trkpt lat="46.16713" lon="6.53187">
        <ele>1032</ele>
        <time>2021-09-12T11:19:04Z</time>
      </trkpt>
      <trkpt lat="46.16678" lon="6.53123">
        <ele>1090</ele>
        <time>2021-09-12T11:19:11Z</time>
      </trkpt>
      <trkpt lat="46.16666" lon="6.53108">
        <ele>1078</ele>
        <time>2021-09-12T11:19:13Z</time>
      </trkpt>
      <trkpt lat="46.16661" lon="6.53099">
        <ele>1072</ele>
        <time>2021-09-12T11:19:14Z</time>
      </trkpt>
      <trkpt lat="46.16658" lon="6.53071">
        <ele>1071</ele>
        <time>2021-09-12T11:19:16Z</time>
      </trkpt>
      <trkpt lat="46.16653" lon="6.53031">
        <ele>1103</ele>
        <time>2021-09-12T11:19:19Z</time>
      </trkpt>
      <trkpt lat="46.16637" lon="6.52889">
        <ele>940</ele>
        <time>2021-09-12T11:19:29Z</time>
      </trkpt>
      <trkpt lat="46.16632" lon="6.52876">
        <ele>943</ele>
        <time>2021-09-12T11:19:30Z</time>
      </trkpt>
      <trkpt lat="46.1662" lon="6.52758">
        <ele>1013</ele>
        <time>2021-09-12T11:19:37Z</time>
      </trkpt>
      <trkpt lat="46.16623" lon="6.52737">
        <ele>1032</ele>
        <time>2021-09-12T11:19:39Z</time>
      </trkpt>
      <trkpt lat="46.16624" lon="6.52707">
        <ele>992</ele>
        <time>2021-09-12T11:19:42Z</time>
      </trkpt>
      <trkpt lat="46.16619" lon="6.52679">
        <ele>1023</ele>
        <time>2021-09-12T11:19:45Z</time>
      </trkpt>
      <trkpt lat="46.1661" lon="6.52648">
        <ele>1062</ele>
        <time>2021-09-12T11:19:49Z</time>
      </trkpt>
      <trkpt lat="46.16612" lon="6.52552">
        <ele>1143</ele>
        <time>2021-09-12T11:19:58Z</time>
      </trkpt>
      <trkpt lat="46.16612" lon="6.5254">
        <ele>1106</ele>
        <time>2021-09-12T11:19:59Z</time>
      </trkpt>
      <trkpt lat="46.16604" lon="6.52478">
        <ele>1294</ele>
        <time>2021-09-12T11:20:04Z</time>
      </trkpt>
      <trkpt lat="46.16576" lon="6.52381">
        <ele>1514</ele>
        <time>2021-09-12T11:20:12Z</time>
      </trkpt>
      <trkpt lat="46.16556" lon="6.5235">
        <ele>1514</ele>
        <time>2021-09-12T11:20:15Z</time>
      </trkpt>
      <trkpt lat="46.16506" lon="6.52265">
        <ele>1429</ele>
        <time>2021-09-12T11:20:22Z</time>
      </trkpt>
      <trkpt lat="46.16492" lon="6.52243">
        <ele>1429</ele>
        <time>2021-09-12T11:20:24Z</time>
      </trkpt>
      <trkpt lat="46.16468" lon="6.52214">
        <ele>1412</ele>
        <time>2021-09-12T11:20:27Z</time>
      </trkpt>
      <trkpt lat="46.16455" lon="6.52189">
        <ele>1416</ele>
        <time>2021-09-12T11:20:29Z</time>
      </trkpt>
      <trkpt lat="46.16446" lon="6.52159">
        <ele>1414</ele>
        <time>2021-09-12T11:20:31Z</time>
      </trkpt>
      <trkpt lat="46.16443" lon="6.52141">
        <ele>1414</ele>
        <time>2021-09-12T11:20:32Z</time>
      </trkpt>
      <trkpt lat="46.16435" lon="6.52091">
        <ele>1419</ele>
        <time>2021-09-12T11:20:35Z</time>
      </trkpt>
      <trkpt lat="46.16424" lon="6.52043">
        <ele>1408</ele>
        <time>2021-09-12T11:20:38Z</time>
      </trkpt>
      <trkpt lat="46.16416" lon="6.52032">
        <ele>1404</ele>
        <time>2021-09-12T11:20:39Z</time>
      </trkpt>
      <trkpt lat="46.16412" lon="6.52017">
        <ele>1401</ele>
        <time>2021-09-12T11:20:40Z</time>
      </trkpt>
      <trkpt lat="46.16364" lon="6.51889">
        <ele>1094</ele>
        <time>2021-09-12T11:20:52Z</time>
      </trkpt>
      <trkpt lat="46.16348" lon="6.51733">
        <ele>1112</ele>
        <time>2021-09-12T11:21:05Z</time>
      </trkpt>
      <trkpt lat="46.16345" lon="6.51724">
        <ele>1112</ele>
        <time>2021-09-12T11:21:06Z</time>
      </trkpt>
      <trkpt lat="46.16335" lon="6.51711">
        <ele>1110</ele>
        <time>2021-09-12T11:21:08Z</time>
      </trkpt>
      <trkpt lat="46.16324" lon="6.51702">
        <ele>1109</ele>
        <time>2021-09-12T11:21:10Z</time>
      </trkpt>
      <trkpt lat="46.16311" lon="6.51698">
        <ele>1107</ele>
        <time>2021-09-12T11:21:12Z</time>
      </trkpt>
      <trkpt lat="46.16304" lon="6.51699">
        <ele>1107</ele>
        <time>2021-09-12T11:21:13Z</time>
      </trkpt>
      <trkpt lat="46.16298" lon="6.51703">
        <ele>1106</ele>
        <time>2021-09-12T11:21:14Z</time>
      </trkpt>
      <trkpt lat="46.16251" lon="6.5175">
        <ele>1306</ele>
        <time>2021-09-12T11:21:24Z</time>
      </trkpt>
      <trkpt lat="46.16225" lon="6.51795">
        <ele>1333</ele>
        <time>2021-09-12T11:21:29Z</time>
      </trkpt>
      <trkpt lat="46.1622" lon="6.51805">
        <ele>1338</ele>
        <time>2021-09-12T11:21:30Z</time>
      </trkpt>
      <trkpt lat="46.16214" lon="6.51814">
        <ele>1341</ele>
        <time>2021-09-12T11:21:31Z</time>
      </trkpt>
      <trkpt lat="46.16191" lon="6.51857">
        <ele>1396</ele>
        <time>2021-09-12T11:21:35Z</time>
      </trkpt>
      <trkpt lat="46.16163" lon="6.51908">
        <ele>1333</ele>
        <time>2021-09-12T11:21:40Z</time>
      </trkpt>
      <trkpt lat="46.16156" lon="6.51925">
        <ele>1334</ele>
        <time>2021-09-12T11:21:42Z</time>
      </trkpt>
      <trkpt lat="46.16153" lon="6.51933">
        <ele>1339</ele>
        <time>2021-09-12T11:21:43Z</time>
      </trkpt>
      <trkpt lat="46.16152" lon="6.51944">
        <ele>1344</ele>
        <time>2021-09-12T11:21:44Z</time>
      </trkpt>
      <trkpt lat="46.16152" lon="6.51957">
        <ele>1346</ele>
        <time>2021-09-12T11:21:45Z</time>
      </trkpt>
      <trkpt lat="46.16154" lon="6.51985">
        <ele>1350</ele>
        <time>2021-09-12T11:21:47Z</time>
      </trkpt>
      <trkpt lat="46.16152" lon="6.52031">
        <ele>1332</ele>
        <time>2021-09-12T11:21:50Z</time>
      </trkpt>
      <trkpt lat="46.1615" lon="6.52047">
        <ele>1334</ele>
        <time>2021-09-12T11:21:51Z</time>
      </trkpt>
      <trkpt lat="46.1614" lon="6.52074">
        <ele>1257</ele>
        <time>2021-09-12T11:21:53Z</time>
      </trkpt>
      <trkpt lat="46.16134" lon="6.52087">
        <ele>1245</ele>
        <time>2021-09-12T11:21:54Z</time>
      </trkpt>
      <trkpt lat="46.161" lon="6.52148">
        <ele>1351</ele>
        <time>2021-09-12T11:21:59Z</time>
      </trkpt>
      <trkpt lat="46.16074" lon="6.52193">
        <ele>1107</ele>
        <time>2021-09-12T11:22:04Z</time>
      </trkpt>
      <trkpt lat="46.16065" lon="6.52208">
        <ele>1093</ele>
        <time>2021-09-12T11:22:07Z</time>
      </trkpt>
      <trkpt lat="46.16065" lon="6.52203">
        <ele>1091</ele>
        <time>2021-09-12T11:22:21Z</time>
      </trkpt>
      <trkpt lat="46.1607" lon="6.52192">
        <ele>1091</ele>
        <time>2021-09-12T11:22:23Z</time>
      </trkpt>
      <trkpt lat="46.16078" lon="6.5216">
        <ele>1079</ele>
        <time>2021-09-12T11:22:27Z</time>
      </trkpt>
      <trkpt lat="46.16105" lon="6.52039">
        <ele>1137</ele>
        <time>2021-09-12T11:22:44Z</time>
      </trkpt>
      <trkpt lat="46.16104" lon="6.52017">
        <ele>1140</ele>
        <time>2021-09-12T11:22:47Z</time>
      </trkpt>
      <trkpt lat="46.16104" lon="6.52008">
        <ele>1085</ele>
        <time>2021-09-12T11:22:48Z</time>
      </trkpt>
      <trkpt lat="46.16101" lon="6.51961">
        <ele>1133</ele>
        <time>2021-09-12T11:22:54Z</time>
      </trkpt>
      <trkpt lat="46.161" lon="6.51956">
        <ele>1137</ele>
        <time>2021-09-12T11:22:56Z</time>
      </trkpt>
      <trkpt lat="46.161" lon="6.51955">
        <ele>1130</ele>
        <time>2021-09-12T11:23:45Z</time>
      </trkpt>
      <trkpt lat="46.16103" lon="6.51968">
        <ele>1119</ele>
        <time>2021-09-12T11:23:47Z</time>
      </trkpt>
      <trkpt lat="46.16104" lon="6.51991">
        <ele>1116</ele>
        <time>2021-09-12T11:23:50Z</time>
      </trkpt>
      <trkpt lat="46.16103" lon="6.52007">
        <ele>1115</ele>
        <time>2021-09-12T11:23:52Z</time>
      </trkpt>
      <trkpt lat="46.16104" lon="6.52014">
        <ele>1115</ele>
        <time>2021-09-12T11:23:53Z</time>
      </trkpt>
      <trkpt lat="46.16106" lon="6.52038">
        <ele>1133</ele>
        <time>2021-09-12T11:23:56Z</time>
      </trkpt>
      <trkpt lat="46.16103" lon="6.52073">
        <ele>1134</ele>
        <time>2021-09-12T11:24:00Z</time>
      </trkpt>
      <trkpt lat="46.16063" lon="6.52213">
        <ele>1134</ele>
        <time>2021-09-12T11:24:15Z</time>
      </trkpt>
      <trkpt lat="46.16055" lon="6.52225">
        <ele>1133</ele>
        <time>2021-09-12T11:24:18Z</time>
      </trkpt>
      <trkpt lat="46.1605" lon="6.52231">
        <ele>1116</ele>
        <time>2021-09-12T11:24:21Z</time>
      </trkpt>
      <trkpt lat="46.16044" lon="6.52237">
        <ele>1115</ele>
        <time>2021-09-12T11:24:44Z</time>
      </trkpt>
      <trkpt lat="46.16035" lon="6.52244">
        <ele>1126</ele>
        <time>2021-09-12T11:24:47Z</time>
      </trkpt>
      <trkpt lat="46.16033" lon="6.52248">
        <ele>1128</ele>
        <time>2021-09-12T11:24:48Z</time>
      </trkpt>
      <trkpt lat="46.16029" lon="6.52258">
        <ele>1133</ele>
        <time>2021-09-12T11:24:50Z</time>
      </trkpt>
      <trkpt lat="46.16025" lon="6.52283">
        <ele>1137</ele>
        <time>2021-09-12T11:24:54Z</time>
      </trkpt>
      <trkpt lat="46.16025" lon="6.52301">
        <ele>1134</ele>
        <time>2021-09-12T11:24:56Z</time>
      </trkpt>
      <trkpt lat="46.16034" lon="6.52382">
        <ele>1216</ele>
        <time>2021-09-12T11:25:01Z</time>
      </trkpt>
      <trkpt lat="46.16033" lon="6.52397">
        <ele>1224</ele>
        <time>2021-09-12T11:25:02Z</time>
      </trkpt>
      <trkpt lat="46.16027" lon="6.52427">
        <ele>1238</ele>
        <time>2021-09-12T11:25:04Z</time>
      </trkpt>
      <trkpt lat="46.16018" lon="6.52439">
        <ele>1237</ele>
        <time>2021-09-12T11:25:05Z</time>
      </trkpt>
      <trkpt lat="46.16008" lon="6.52449">
        <ele>1237</ele>
        <time>2021-09-12T11:25:06Z</time>
      </trkpt>
      <trkpt lat="46.15927" lon="6.52512">
        <ele>1312</ele>
        <time>2021-09-12T11:25:13Z</time>
      </trkpt>
      <trkpt lat="46.15916" lon="6.5252">
        <ele>1308</ele>
        <time>2021-09-12T11:25:14Z</time>
      </trkpt>
      <trkpt lat="46.15873" lon="6.52552">
        <ele>1273</ele>
        <time>2021-09-12T11:25:18Z</time>
      </trkpt>
      <trkpt lat="46.15858" lon="6.52572">
        <ele>1281</ele>
        <time>2021-09-12T11:25:20Z</time>
      </trkpt>
      <trkpt lat="46.15842" lon="6.52599">
        <ele>1096</ele>
        <time>2021-09-12T11:25:23Z</time>
      </trkpt>
      <trkpt lat="46.15837" lon="6.52606">
        <ele>1047</ele>
        <time>2021-09-12T11:25:24Z</time>
      </trkpt>
      <trkpt lat="46.15823" lon="6.52593">
        <ele>1024</ele>
        <time>2021-09-12T11:25:26Z</time>
      </trkpt>
      <trkpt lat="46.1582" lon="6.52584">
        <ele>1022</ele>
        <time>2021-09-12T11:25:27Z</time>
      </trkpt>
      <trkpt lat="46.15822" lon="6.52572">
        <ele>1022</ele>
        <time>2021-09-12T11:25:28Z</time>
      </trkpt>
      <trkpt lat="46.15831" lon="6.5255">
        <ele>1030</ele>
        <time>2021-09-12T11:25:29Z</time>
      </trkpt>
      <trkpt lat="46.1584" lon="6.5251">
        <ele>1037</ele>
        <time>2021-09-12T11:25:31Z</time>
      </trkpt>
      <trkpt lat="46.15854" lon="6.52451">
        <ele>978</ele>
        <time>2021-09-12T11:25:34Z</time>
      </trkpt>
      <trkpt lat="46.15873" lon="6.52383">
        <ele>1031</ele>
        <time>2021-09-12T11:25:38Z</time>
      </trkpt>
      <trkpt lat="46.15892" lon="6.52354">
        <ele>1031</ele>
        <time>2021-09-12T11:25:40Z</time>
      </trkpt>
      <trkpt lat="46.15914" lon="6.52337">
        <ele>1029</ele>
        <time>2021-09-12T11:25:42Z</time>
      </trkpt>
      <trkpt lat="46.15931" lon="6.52324">
        <ele>1028</ele>
        <time>2021-09-12T11:25:44Z</time>
      </trkpt>
      <trkpt lat="46.15935" lon="6.52317">
        <ele>1027</ele>
        <time>2021-09-12T11:25:45Z</time>
      </trkpt>
      <trkpt lat="46.15936" lon="6.52307">
        <ele>1026</ele>
        <time>2021-09-12T11:25:46Z</time>
      </trkpt>
      <trkpt lat="46.15934" lon="6.52298">
        <ele>1026</ele>
        <time>2021-09-12T11:25:47Z</time>
      </trkpt>
      <trkpt lat="46.15922" lon="6.52284">
        <ele>1007</ele>
        <time>2021-09-12T11:25:49Z</time>
      </trkpt>
      <trkpt lat="46.15911" lon="6.52291">
        <ele>1006</ele>
        <time>2021-09-12T11:25:50Z</time>
      </trkpt>
      <trkpt lat="46.15901" lon="6.52297">
        <ele>1011</ele>
        <time>2021-09-12T11:25:51Z</time>
      </trkpt>
      <trkpt lat="46.15762" lon="6.52394">
        <ele>1079</ele>
        <time>2021-09-12T11:26:02Z</time>
      </trkpt>
      <trkpt lat="46.15668" lon="6.52497">
        <ele>1070</ele>
        <time>2021-09-12T11:26:10Z</time>
      </trkpt>
      <trkpt lat="46.1566" lon="6.52507">
        <ele>1067</ele>
        <time>2021-09-12T11:26:11Z</time>
      </trkpt>
      <trkpt lat="46.15653" lon="6.52517">
        <ele>1065</ele>
        <time>2021-09-12T11:26:12Z</time>
      </trkpt>
      <trkpt lat="46.15643" lon="6.52539">
        <ele>1063</ele>
        <time>2021-09-12T11:26:14Z</time>
      </trkpt>
      <trkpt lat="46.15637" lon="6.52563">
        <ele>1061</ele>
        <time>2021-09-12T11:26:16Z</time>
      </trkpt>
      <trkpt lat="46.15638" lon="6.52589">
        <ele>1064</ele>
        <time>2021-09-12T11:26:18Z</time>
      </trkpt>
      <trkpt lat="46.15642" lon="6.52609">
        <ele>1026</ele>
        <time>2021-09-12T11:26:20Z</time>
      </trkpt>
      <trkpt lat="46.15642" lon="6.52618">
        <ele>1026</ele>
        <time>2021-09-12T11:26:21Z</time>
      </trkpt>
      <trkpt lat="46.15641" lon="6.52626">
        <ele>1025</ele>
        <time>2021-09-12T11:26:22Z</time>
      </trkpt>
      <trkpt lat="46.15637" lon="6.52633">
        <ele>1025</ele>
        <time>2021-09-12T11:26:23Z</time>
      </trkpt>
      <trkpt lat="46.15632" lon="6.52636">
        <ele>1024</ele>
        <time>2021-09-12T11:26:24Z</time>
      </trkpt>
      <trkpt lat="46.15627" lon="6.52634">
        <ele>1044</ele>
        <time>2021-09-12T11:26:25Z</time>
      </trkpt>
      <trkpt lat="46.15615" lon="6.52623">
        <ele>1046</ele>
        <time>2021-09-12T11:26:28Z</time>
      </trkpt>
      <trkpt lat="46.15613" lon="6.5262">
        <ele>1010</ele>
        <time>2021-09-12T11:26:29Z</time>
      </trkpt>
      <trkpt lat="46.15608" lon="6.52613">
        <ele>1017</ele>
        <time>2021-09-12T11:26:31Z</time>
      </trkpt>
      <trkpt lat="46.15605" lon="6.52612">
        <ele>998</ele>
        <time>2021-09-12T11:26:33Z</time>
      </trkpt>
      <trkpt lat="46.15596" lon="6.52633">
        <ele>980</ele>
        <time>2021-09-12T11:26:39Z</time>
      </trkpt>
      <trkpt lat="46.15594" lon="6.5264">
        <ele>1001</ele>
        <time>2021-09-12T11:26:40Z</time>
      </trkpt>
      <trkpt lat="46.15593" lon="6.52645">
        <ele>1006</ele>
        <time>2021-09-12T11:26:41Z</time>
      </trkpt>
      <trkpt lat="46.15593" lon="6.52651">
        <ele>1011</ele>
        <time>2021-09-12T11:26:42Z</time>
      </trkpt>
      <trkpt lat="46.15594" lon="6.52662">
        <ele>986</ele>
        <time>2021-09-12T11:26:44Z</time>
      </trkpt>
      <trkpt lat="46.15602" lon="6.52684">
        <ele>1011</ele>
        <time>2021-09-12T11:26:51Z</time>
      </trkpt>
      <trkpt lat="46.15615" lon="6.52708">
        <ele>1044</ele>
        <time>2021-09-12T11:26:56Z</time>
      </trkpt>
      <trkpt lat="46.15616" lon="6.52714">
        <ele>1045</ele>
        <time>2021-09-12T11:26:57Z</time>
      </trkpt>
      <trkpt lat="46.15612" lon="6.52743">
        <ele>1046</ele>
        <time>2021-09-12T11:27:01Z</time>
      </trkpt>
      <trkpt lat="46.15613" lon="6.52749">
        <ele>1045</ele>
        <time>2021-09-12T11:27:02Z</time>
      </trkpt>
      <trkpt lat="46.1562" lon="6.52769">
        <ele>1043</ele>
        <time>2021-09-12T11:27:06Z</time>
      </trkpt>
      <trkpt lat="46.1562" lon="6.52781">
        <ele>1040</ele>
        <time>2021-09-12T11:27:08Z</time>
      </trkpt>
      <trkpt lat="46.15619" lon="6.52786">
        <ele>1045</ele>
        <time>2021-09-12T11:27:09Z</time>
      </trkpt>
      <trkpt lat="46.15615" lon="6.5279">
        <ele>1051</ele>
        <time>2021-09-12T11:27:10Z</time>
      </trkpt>
      <trkpt lat="46.15578" lon="6.52834">
        <ele>1048</ele>
        <time>2021-09-12T11:27:18Z</time>
      </trkpt>
      <trkpt lat="46.15566" lon="6.52855">
        <ele>1045</ele>
        <time>2021-09-12T11:27:22Z</time>
      </trkpt>
      <trkpt lat="46.15564" lon="6.52865">
        <ele>1044</ele>
        <time>2021-09-12T11:27:25Z</time>
      </trkpt>
      <trkpt lat="46.15566" lon="6.52891">
        <ele>1044</ele>
        <time>2021-09-12T11:27:33Z</time>
      </trkpt>
      <trkpt lat="46.15568" lon="6.52916">
        <ele>1043</ele>
        <time>2021-09-12T11:27:36Z</time>
      </trkpt>
      <trkpt lat="46.15568" lon="6.52923">
        <ele>1043</ele>
        <time>2021-09-12T11:27:37Z</time>
      </trkpt>
      <trkpt lat="46.15566" lon="6.52929">
        <ele>1043</ele>
        <time>2021-09-12T11:27:38Z</time>
      </trkpt>
      <trkpt lat="46.15562" lon="6.52928">
        <ele>1044</ele>
        <time>2021-09-12T11:27:39Z</time>
      </trkpt>
      <trkpt lat="46.15559" lon="6.52934">
        <ele>1045</ele>
        <time>2021-09-12T11:27:48Z</time>
      </trkpt>
      <trkpt lat="46.15554" lon="6.52938">
        <ele>1044</ele>
        <time>2021-09-12T11:27:50Z</time>
      </trkpt>
      <trkpt lat="46.1555" lon="6.52939">
        <ele>1044</ele>
        <time>2021-09-12T11:27:51Z</time>
      </trkpt>
      <trkpt lat="46.15545" lon="6.52937">
        <ele>1044</ele>
        <time>2021-09-12T11:27:53Z</time>
      </trkpt>
      <trkpt lat="46.15543" lon="6.52935">
        <ele>1044</ele>
        <time>2021-09-12T11:27:54Z</time>
      </trkpt>
      <trkpt lat="46.15541" lon="6.52931">
        <ele>1045</ele>
        <time>2021-09-12T11:27:55Z</time>
      </trkpt>
      <trkpt lat="46.1554" lon="6.52919">
        <ele>1044</ele>
        <time>2021-09-12T11:27:56Z</time>
      </trkpt>
      <trkpt lat="46.15535" lon="6.52905">
        <ele>1044</ele>
        <time>2021-09-12T11:27:58Z</time>
      </trkpt>
      <trkpt lat="46.15529" lon="6.52894">
        <ele>1044</ele>
        <time>2021-09-12T11:28:00Z</time>
      </trkpt>
      <trkpt lat="46.15524" lon="6.5289">
        <ele>1045</ele>
        <time>2021-09-12T11:28:01Z</time>
      </trkpt>
      <trkpt lat="46.15517" lon="6.52874">
        <ele>1045</ele>
        <time>2021-09-12T11:28:04Z</time>
      </trkpt>
      <trkpt lat="46.15461" lon="6.52793">
        <ele>1043</ele>
        <time>2021-09-12T11:28:17Z</time>
      </trkpt>
      <trkpt lat="46.15447" lon="6.52741">
        <ele>1036</ele>
        <time>2021-09-12T11:28:25Z</time>
      </trkpt>
      <trkpt lat="46.15442" lon="6.52691">
        <ele>1030</ele>
        <time>2021-09-12T11:28:32Z</time>
      </trkpt>
      <trkpt lat="46.15418" lon="6.52595">
        <ele>1069</ele>
        <time>2021-09-12T11:28:46Z</time>
      </trkpt>
      <trkpt lat="46.15415" lon="6.5259">
        <ele>1066</ele>
        <time>2021-09-12T11:28:47Z</time>
      </trkpt>
      <trkpt lat="46.15397" lon="6.52519">
        <ele>1066</ele>
        <time>2021-09-12T11:29:00Z</time>
      </trkpt>
      <trkpt lat="46.15388" lon="6.52485">
        <ele>1050</ele>
        <time>2021-09-12T11:29:04Z</time>
      </trkpt>
      <trkpt lat="46.15387" lon="6.52477">
        <ele>1052</ele>
        <time>2021-09-12T11:29:05Z</time>
      </trkpt>
      <trkpt lat="46.15387" lon="6.52471">
        <ele>947</ele>
        <time>2021-09-12T11:29:06Z</time>
      </trkpt>
      <trkpt lat="46.15365" lon="6.52411">
        <ele>853</ele>
        <time>2021-09-12T11:29:15Z</time>
      </trkpt>
      <trkpt lat="46.15363" lon="6.52403">
        <ele>832</ele>
        <time>2021-09-12T11:29:17Z</time>
      </trkpt>
      <trkpt lat="46.15357" lon="6.52394">
        <ele>825</ele>
        <time>2021-09-12T11:29:19Z</time>
      </trkpt>
      <trkpt lat="46.15355" lon="6.52387">
        <ele>853</ele>
        <time>2021-09-12T11:29:21Z</time>
      </trkpt>
      <trkpt lat="46.15351" lon="6.52388">
        <ele>853</ele>
        <time>2021-09-12T11:29:31Z</time>
      </trkpt>
      <trkpt lat="46.15349" lon="6.52392">
        <ele>881</ele>
        <time>2021-09-12T11:29:32Z</time>
      </trkpt>
      <trkpt lat="46.15347" lon="6.52402">
        <ele>867</ele>
        <time>2021-09-12T11:29:34Z</time>
      </trkpt>
      <trkpt lat="46.15345" lon="6.52408">
        <ele>869</ele>
        <time>2021-09-12T11:29:35Z</time>
      </trkpt>
      <trkpt lat="46.15342" lon="6.52511">
        <ele>931</ele>
        <time>2021-09-12T11:29:47Z</time>
      </trkpt>
      <trkpt lat="46.15338" lon="6.52516">
        <ele>928</ele>
        <time>2021-09-12T11:29:48Z</time>
      </trkpt>
      <trkpt lat="46.15338" lon="6.52525">
        <ele>927</ele>
        <time>2021-09-12T11:29:49Z</time>
      </trkpt>
      <trkpt lat="46.15331" lon="6.52558">
        <ele>927</ele>
        <time>2021-09-12T11:29:53Z</time>
      </trkpt>
      <trkpt lat="46.15322" lon="6.52611">
        <ele>940</ele>
        <time>2021-09-12T11:29:59Z</time>
      </trkpt>
      <trkpt lat="46.15318" lon="6.52654">
        <ele>940</ele>
        <time>2021-09-12T11:30:03Z</time>
      </trkpt>
      <trkpt lat="46.15305" lon="6.52766">
        <ele>833</ele>
        <time>2021-09-12T11:30:15Z</time>
      </trkpt>
      <trkpt lat="46.15306" lon="6.52785">
        <ele>832</ele>
        <time>2021-09-12T11:30:17Z</time>
      </trkpt>
      <trkpt lat="46.15324" lon="6.5286">
        <ele>857</ele>
        <time>2021-09-12T11:30:26Z</time>
      </trkpt>
      <trkpt lat="46.15324" lon="6.52869">
        <ele>942</ele>
        <time>2021-09-12T11:30:28Z</time>
      </trkpt>
      <trkpt lat="46.15325" lon="6.52873">
        <ele>1037</ele>
        <time>2021-09-12T11:30:40Z</time>
      </trkpt>
      <trkpt lat="46.15323" lon="6.52873">
        <ele>1019</ele>
        <time>2021-09-12T11:34:32Z</time>
      </trkpt>
      <trkpt lat="46.15322" lon="6.52875">
        <ele>1002</ele>
        <time>2021-09-12T11:36:30Z</time>
      </trkpt>
      <trkpt lat="46.15323" lon="6.52873">
        <ele>1001</ele>
        <time>2021-09-12T11:36:38Z</time>
      </trkpt>
      <trkpt lat="46.1529" lon="6.528">
        <ele>928</ele>
        <time>2021-09-12T11:36:52Z</time>
      </trkpt>
      <trkpt lat="46.15288" lon="6.52783">
        <ele>928</ele>
        <time>2021-09-12T11:36:54Z</time>
      </trkpt>
      <trkpt lat="46.15286" lon="6.52766">
        <ele>926</ele>
        <time>2021-09-12T11:36:56Z</time>
      </trkpt>
      <trkpt lat="46.15289" lon="6.52727">
        <ele>924</ele>
        <time>2021-09-12T11:37:00Z</time>
      </trkpt>
      <trkpt lat="46.15284" lon="6.5268">
        <ele>923</ele>
        <time>2021-09-12T11:37:05Z</time>
      </trkpt>
      <trkpt lat="46.15282" lon="6.52671">
        <ele>923</ele>
        <time>2021-09-12T11:37:07Z</time>
      </trkpt>
      <trkpt lat="46.15281" lon="6.52665">
        <ele>923</ele>
        <time>2021-09-12T11:37:09Z</time>
      </trkpt>
      <trkpt lat="46.15277" lon="6.52657">
        <ele>927</ele>
        <time>2021-09-12T11:37:40Z</time>
      </trkpt>
      <trkpt lat="46.15245" lon="6.52571">
        <ele>862</ele>
        <time>2021-09-12T11:37:49Z</time>
      </trkpt>
      <trkpt lat="46.15243" lon="6.52558">
        <ele>863</ele>
        <time>2021-09-12T11:37:50Z</time>
      </trkpt>
      <trkpt lat="46.15225" lon="6.52432">
        <ele>838</ele>
        <time>2021-09-12T11:37:59Z</time>
      </trkpt>
      <trkpt lat="46.15213" lon="6.52374">
        <ele>859</ele>
        <time>2021-09-12T11:38:03Z</time>
      </trkpt>
      <trkpt lat="46.15203" lon="6.52346">
        <ele>860</ele>
        <time>2021-09-12T11:38:05Z</time>
      </trkpt>
      <trkpt lat="46.15189" lon="6.52323">
        <ele>860</ele>
        <time>2021-09-12T11:38:07Z</time>
      </trkpt>
      <trkpt lat="46.1518" lon="6.52306">
        <ele>856</ele>
        <time>2021-09-12T11:38:09Z</time>
      </trkpt>
      <trkpt lat="46.15176" lon="6.52295">
        <ele>856</ele>
        <time>2021-09-12T11:38:10Z</time>
      </trkpt>
      <trkpt lat="46.15168" lon="6.52225">
        <ele>851</ele>
        <time>2021-09-12T11:38:15Z</time>
      </trkpt>
      <trkpt lat="46.15164" lon="6.52213">
        <ele>854</ele>
        <time>2021-09-12T11:38:16Z</time>
      </trkpt>
      <trkpt lat="46.15159" lon="6.52203">
        <ele>855</ele>
        <time>2021-09-12T11:38:17Z</time>
      </trkpt>
      <trkpt lat="46.15153" lon="6.52194">
        <ele>848</ele>
        <time>2021-09-12T11:38:18Z</time>
      </trkpt>
      <trkpt lat="46.15081" lon="6.52104">
        <ele>830</ele>
        <time>2021-09-12T11:38:28Z</time>
      </trkpt>
      <trkpt lat="46.15071" lon="6.52082">
        <ele>830</ele>
        <time>2021-09-12T11:38:30Z</time>
      </trkpt>
      <trkpt lat="46.14935" lon="6.51737">
        <ele>846</ele>
        <time>2021-09-12T11:39:00Z</time>
      </trkpt>
      <trkpt lat="46.14918" lon="6.51712">
        <ele>845</ele>
        <time>2021-09-12T11:39:03Z</time>
      </trkpt>
      <trkpt lat="46.14911" lon="6.51691">
        <ele>844</ele>
        <time>2021-09-12T11:39:05Z</time>
      </trkpt>
      <trkpt lat="46.1491" lon="6.51681">
        <ele>843</ele>
        <time>2021-09-12T11:39:06Z</time>
      </trkpt>
      <trkpt lat="46.14913" lon="6.51662">
        <ele>842</ele>
        <time>2021-09-12T11:39:08Z</time>
      </trkpt>
      <trkpt lat="46.14927" lon="6.51626">
        <ele>839</ele>
        <time>2021-09-12T11:39:12Z</time>
      </trkpt>
      <trkpt lat="46.14942" lon="6.51606">
        <ele>838</ele>
        <time>2021-09-12T11:39:15Z</time>
      </trkpt>
      <trkpt lat="46.14945" lon="6.51598">
        <ele>838</ele>
        <time>2021-09-12T11:39:16Z</time>
      </trkpt>
      <trkpt lat="46.14945" lon="6.51588">
        <ele>838</ele>
        <time>2021-09-12T11:39:17Z</time>
      </trkpt>
      <trkpt lat="46.14943" lon="6.51578">
        <ele>837</ele>
        <time>2021-09-12T11:39:18Z</time>
      </trkpt>
      <trkpt lat="46.1494" lon="6.5157">
        <ele>837</ele>
        <time>2021-09-12T11:39:19Z</time>
      </trkpt>
      <trkpt lat="46.14927" lon="6.51554">
        <ele>836</ele>
        <time>2021-09-12T11:39:21Z</time>
      </trkpt>
      <trkpt lat="46.14807" lon="6.5145">
        <ele>825</ele>
        <time>2021-09-12T11:39:35Z</time>
      </trkpt>
      <trkpt lat="46.14804" lon="6.51441">
        <ele>824</ele>
        <time>2021-09-12T11:39:36Z</time>
      </trkpt>
      <trkpt lat="46.14801" lon="6.51431">
        <ele>823</ele>
        <time>2021-09-12T11:39:37Z</time>
      </trkpt>
      <trkpt lat="46.14801" lon="6.51422">
        <ele>823</ele>
        <time>2021-09-12T11:39:38Z</time>
      </trkpt>
      <trkpt lat="46.14799" lon="6.51413">
        <ele>822</ele>
        <time>2021-09-12T11:39:39Z</time>
      </trkpt>
      <trkpt lat="46.14791" lon="6.51403">
        <ele>848</ele>
        <time>2021-09-12T11:39:41Z</time>
      </trkpt>
      <trkpt lat="46.14788" lon="6.51401">
        <ele>851</ele>
        <time>2021-09-12T11:39:42Z</time>
      </trkpt>
      <trkpt lat="46.14784" lon="6.51402">
        <ele>855</ele>
        <time>2021-09-12T11:39:53Z</time>
      </trkpt>
      <trkpt lat="46.14782" lon="6.51405">
        <ele>855</ele>
        <time>2021-09-12T11:39:54Z</time>
      </trkpt>
      <trkpt lat="46.14781" lon="6.51412">
        <ele>854</ele>
        <time>2021-09-12T11:39:55Z</time>
      </trkpt>
      <trkpt lat="46.14782" lon="6.5143">
        <ele>854</ele>
        <time>2021-09-12T11:39:57Z</time>
      </trkpt>
      <trkpt lat="46.14783" lon="6.51442">
        <ele>853</ele>
        <time>2021-09-12T11:39:58Z</time>
      </trkpt>
      <trkpt lat="46.14786" lon="6.51455">
        <ele>859</ele>
        <time>2021-09-12T11:39:59Z</time>
      </trkpt>
      <trkpt lat="46.14795" lon="6.51481">
        <ele>862</ele>
        <time>2021-09-12T11:40:01Z</time>
      </trkpt>
      <trkpt lat="46.14799" lon="6.51493">
        <ele>856</ele>
        <time>2021-09-12T11:40:02Z</time>
      </trkpt>
      <trkpt lat="46.14812" lon="6.51525">
        <ele>851</ele>
        <time>2021-09-12T11:40:05Z</time>
      </trkpt>
      <trkpt lat="46.14812" lon="6.51535">
        <ele>851</ele>
        <time>2021-09-12T11:40:06Z</time>
      </trkpt>
      <trkpt lat="46.14809" lon="6.51544">
        <ele>850</ele>
        <time>2021-09-12T11:40:07Z</time>
      </trkpt>
      <trkpt lat="46.14803" lon="6.51549">
        <ele>850</ele>
        <time>2021-09-12T11:40:08Z</time>
      </trkpt>
      <trkpt lat="46.14795" lon="6.51548">
        <ele>828</ele>
        <time>2021-09-12T11:40:09Z</time>
      </trkpt>
      <trkpt lat="46.14786" lon="6.51542">
        <ele>819</ele>
        <time>2021-09-12T11:40:10Z</time>
      </trkpt>
      <trkpt lat="46.14778" lon="6.51532">
        <ele>814</ele>
        <time>2021-09-12T11:40:11Z</time>
      </trkpt>
      <trkpt lat="46.14765" lon="6.51506">
        <ele>811</ele>
        <time>2021-09-12T11:40:13Z</time>
      </trkpt>
      <trkpt lat="46.14747" lon="6.5144">
        <ele>807</ele>
        <time>2021-09-12T11:40:17Z</time>
      </trkpt>
      <trkpt lat="46.14727" lon="6.51338">
        <ele>801</ele>
        <time>2021-09-12T11:40:23Z</time>
      </trkpt>
      <trkpt lat="46.14722" lon="6.51322">
        <ele>810</ele>
        <time>2021-09-12T11:40:24Z</time>
      </trkpt>
      <trkpt lat="46.14701" lon="6.51278">
        <ele>813</ele>
        <time>2021-09-12T11:40:27Z</time>
      </trkpt>
      <trkpt lat="46.1468" lon="6.51247">
        <ele>812</ele>
        <time>2021-09-12T11:40:30Z</time>
      </trkpt>
      <trkpt lat="46.14667" lon="6.5124">
        <ele>812</ele>
        <time>2021-09-12T11:40:32Z</time>
      </trkpt>
      <trkpt lat="46.14657" lon="6.51237">
        <ele>811</ele>
        <time>2021-09-12T11:40:34Z</time>
      </trkpt>
      <trkpt lat="46.14653" lon="6.51237">
        <ele>805</ele>
        <time>2021-09-12T11:40:35Z</time>
      </trkpt>
      <trkpt lat="46.1465" lon="6.51234">
        <ele>793</ele>
        <time>2021-09-12T11:40:36Z</time>
      </trkpt>
      <trkpt lat="46.14632" lon="6.51209">
        <ele>783</ele>
        <time>2021-09-12T11:40:43Z</time>
      </trkpt>
      <trkpt lat="46.14631" lon="6.51202">
        <ele>783</ele>
        <time>2021-09-12T11:41:01Z</time>
      </trkpt>
      <trkpt lat="46.14635" lon="6.51196">
        <ele>783</ele>
        <time>2021-09-12T11:41:02Z</time>
      </trkpt>
      <trkpt lat="46.14649" lon="6.51178">
        <ele>769</ele>
        <time>2021-09-12T11:41:05Z</time>
      </trkpt>
      <trkpt lat="46.14663" lon="6.51154">
        <ele>782</ele>
        <time>2021-09-12T11:41:08Z</time>
      </trkpt>
      <trkpt lat="46.14669" lon="6.51137">
        <ele>783</ele>
        <time>2021-09-12T11:41:10Z</time>
      </trkpt>
      <trkpt lat="46.14672" lon="6.51116">
        <ele>783</ele>
        <time>2021-09-12T11:41:12Z</time>
      </trkpt>
      <trkpt lat="46.14672" lon="6.51096">
        <ele>791</ele>
        <time>2021-09-12T11:41:14Z</time>
      </trkpt>
      <trkpt lat="46.14659" lon="6.51032">
        <ele>794</ele>
        <time>2021-09-12T11:41:20Z</time>
      </trkpt>
      <trkpt lat="46.14647" lon="6.50998">
        <ele>793</ele>
        <time>2021-09-12T11:41:23Z</time>
      </trkpt>
      <trkpt lat="46.14642" lon="6.50987">
        <ele>788</ele>
        <time>2021-09-12T11:41:24Z</time>
      </trkpt>
      <trkpt lat="46.14576" lon="6.50848">
        <ele>785</ele>
        <time>2021-09-12T11:41:37Z</time>
      </trkpt>
      <trkpt lat="46.14546" lon="6.50802">
        <ele>781</ele>
        <time>2021-09-12T11:41:41Z</time>
      </trkpt>
      <trkpt lat="46.14538" lon="6.50791">
        <ele>787</ele>
        <time>2021-09-12T11:41:42Z</time>
      </trkpt>
      <trkpt lat="46.14502" lon="6.50723">
        <ele>936</ele>
        <time>2021-09-12T11:41:47Z</time>
      </trkpt>
      <trkpt lat="46.14492" lon="6.50686">
        <ele>959</ele>
        <time>2021-09-12T11:41:50Z</time>
      </trkpt>
      <trkpt lat="46.14489" lon="6.50662">
        <ele>960</ele>
        <time>2021-09-12T11:41:52Z</time>
      </trkpt>
      <trkpt lat="46.14489" lon="6.50571">
        <ele>790</ele>
        <time>2021-09-12T11:41:59Z</time>
      </trkpt>
      <trkpt lat="46.14487" lon="6.5056">
        <ele>789</ele>
        <time>2021-09-12T11:42:00Z</time>
      </trkpt>
      <trkpt lat="46.14479" lon="6.50543">
        <ele>789</ele>
        <time>2021-09-12T11:42:02Z</time>
      </trkpt>
      <trkpt lat="46.14467" lon="6.50525">
        <ele>788</ele>
        <time>2021-09-12T11:42:05Z</time>
      </trkpt>
      <trkpt lat="46.14456" lon="6.50508">
        <ele>773</ele>
        <time>2021-09-12T11:42:10Z</time>
      </trkpt>
      <trkpt lat="46.14437" lon="6.50411">
        <ele>758</ele>
        <time>2021-09-12T11:42:20Z</time>
      </trkpt>
      <trkpt lat="46.1442" lon="6.50313">
        <ele>761</ele>
        <time>2021-09-12T11:42:27Z</time>
      </trkpt>
      <trkpt lat="46.14422" lon="6.5027">
        <ele>759</ele>
        <time>2021-09-12T11:42:30Z</time>
      </trkpt>
      <trkpt lat="46.14427" lon="6.50236">
        <ele>759</ele>
        <time>2021-09-12T11:42:33Z</time>
      </trkpt>
      <trkpt lat="46.14426" lon="6.50225">
        <ele>758</ele>
        <time>2021-09-12T11:42:34Z</time>
      </trkpt>
      <trkpt lat="46.14423" lon="6.50216">
        <ele>757</ele>
        <time>2021-09-12T11:42:35Z</time>
      </trkpt>
      <trkpt lat="46.14419" lon="6.50207">
        <ele>757</ele>
        <time>2021-09-12T11:42:36Z</time>
      </trkpt>
      <trkpt lat="46.14375" lon="6.50157">
        <ele>748</ele>
        <time>2021-09-12T11:42:44Z</time>
      </trkpt>
      <trkpt lat="46.14373" lon="6.50149">
        <ele>747</ele>
        <time>2021-09-12T11:42:45Z</time>
      </trkpt>
      <trkpt lat="46.14372" lon="6.50139">
        <ele>746</ele>
        <time>2021-09-12T11:42:46Z</time>
      </trkpt>
      <trkpt lat="46.14374" lon="6.50099">
        <ele>744</ele>
        <time>2021-09-12T11:42:50Z</time>
      </trkpt>
      <trkpt lat="46.14363" lon="6.50031">
        <ele>734</ele>
        <time>2021-09-12T11:42:59Z</time>
      </trkpt>
      <trkpt lat="46.14364" lon="6.50025">
        <ele>734</ele>
        <time>2021-09-12T11:43:00Z</time>
      </trkpt>
      <trkpt lat="46.14366" lon="6.50021">
        <ele>734</ele>
        <time>2021-09-12T11:43:01Z</time>
      </trkpt>
      <trkpt lat="46.1437" lon="6.50017">
        <ele>733</ele>
        <time>2021-09-12T11:43:02Z</time>
      </trkpt>
      <trkpt lat="46.14374" lon="6.50015">
        <ele>733</ele>
        <time>2021-09-12T11:43:03Z</time>
      </trkpt>
      <trkpt lat="46.14408" lon="6.50002">
        <ele>732</ele>
        <time>2021-09-12T11:43:09Z</time>
      </trkpt>
      <trkpt lat="46.14414" lon="6.49998">
        <ele>731</ele>
        <time>2021-09-12T11:43:10Z</time>
      </trkpt>
      <trkpt lat="46.1442" lon="6.49994">
        <ele>731</ele>
        <time>2021-09-12T11:43:11Z</time>
      </trkpt>
      <trkpt lat="46.14423" lon="6.49987">
        <ele>731</ele>
        <time>2021-09-12T11:43:12Z</time>
      </trkpt>
      <trkpt lat="46.14472" lon="6.49854">
        <ele>729</ele>
        <time>2021-09-12T11:43:23Z</time>
      </trkpt>
      <trkpt lat="46.14521" lon="6.49773">
        <ele>731</ele>
        <time>2021-09-12T11:43:30Z</time>
      </trkpt>
      <trkpt lat="46.14623" lon="6.49659">
        <ele>732</ele>
        <time>2021-09-12T11:43:43Z</time>
      </trkpt>
      <trkpt lat="46.14707" lon="6.49594">
        <ele>733</ele>
        <time>2021-09-12T11:43:50Z</time>
      </trkpt>
      <trkpt lat="46.14841" lon="6.49529">
        <ele>736</ele>
        <time>2021-09-12T11:44:00Z</time>
      </trkpt>
      <trkpt lat="46.14981" lon="6.49443">
        <ele>737</ele>
        <time>2021-09-12T11:44:11Z</time>
      </trkpt>
      <trkpt lat="46.15016" lon="6.49432">
        <ele>737</ele>
        <time>2021-09-12T11:44:14Z</time>
      </trkpt>
      <trkpt lat="46.15071" lon="6.49435">
        <ele>738</ele>
        <time>2021-09-12T11:44:18Z</time>
      </trkpt>
      <trkpt lat="46.15101" lon="6.49443">
        <ele>738</ele>
        <time>2021-09-12T11:44:20Z</time>
      </trkpt>
      <trkpt lat="46.15187" lon="6.49454">
        <ele>800</ele>
        <time>2021-09-12T11:44:28Z</time>
      </trkpt>
      <trkpt lat="46.15205" lon="6.49446">
        <ele>804</ele>
        <time>2021-09-12T11:44:30Z</time>
      </trkpt>
      <trkpt lat="46.15233" lon="6.49423">
        <ele>787</ele>
        <time>2021-09-12T11:44:34Z</time>
      </trkpt>
      <trkpt lat="46.15238" lon="6.49418">
        <ele>787</ele>
        <time>2021-09-12T11:44:35Z</time>
      </trkpt>
      <trkpt lat="46.15241" lon="6.49411">
        <ele>787</ele>
        <time>2021-09-12T11:44:36Z</time>
      </trkpt>
      <trkpt lat="46.15243" lon="6.49405">
        <ele>787</ele>
        <time>2021-09-12T11:44:37Z</time>
      </trkpt>
      <trkpt lat="46.15244" lon="6.49392">
        <ele>788</ele>
        <time>2021-09-12T11:44:39Z</time>
      </trkpt>
      <trkpt lat="46.15243" lon="6.49385">
        <ele>765</ele>
        <time>2021-09-12T11:44:41Z</time>
      </trkpt>
      <trkpt lat="46.15238" lon="6.49383">
        <ele>751</ele>
        <time>2021-09-12T11:44:43Z</time>
      </trkpt>
      <trkpt lat="46.1523" lon="6.49383">
        <ele>746</ele>
        <time>2021-09-12T11:44:45Z</time>
      </trkpt>
      <trkpt lat="46.15225" lon="6.4938">
        <ele>745</ele>
        <time>2021-09-12T11:44:46Z</time>
      </trkpt>
      <trkpt lat="46.1522" lon="6.49375">
        <ele>744</ele>
        <time>2021-09-12T11:44:47Z</time>
      </trkpt>
      <trkpt lat="46.15214" lon="6.49367">
        <ele>743</ele>
        <time>2021-09-12T11:44:48Z</time>
      </trkpt>
      <trkpt lat="46.15198" lon="6.49335">
        <ele>733</ele>
        <time>2021-09-12T11:44:52Z</time>
      </trkpt>
      <trkpt lat="46.1519" lon="6.49317">
        <ele>777</ele>
        <time>2021-09-12T11:44:54Z</time>
      </trkpt>
      <trkpt lat="46.15165" lon="6.49233">
        <ele>780</ele>
        <time>2021-09-12T11:45:03Z</time>
      </trkpt>
      <trkpt lat="46.15152" lon="6.49116">
        <ele>779</ele>
        <time>2021-09-12T11:45:14Z</time>
      </trkpt>
      <trkpt lat="46.15155" lon="6.4911">
        <ele>779</ele>
        <time>2021-09-12T11:45:15Z</time>
      </trkpt>
      <trkpt lat="46.15172" lon="6.4908">
        <ele>780</ele>
        <time>2021-09-12T11:45:19Z</time>
      </trkpt>
      <trkpt lat="46.15181" lon="6.4905">
        <ele>779</ele>
        <time>2021-09-12T11:45:22Z</time>
      </trkpt>
      <trkpt lat="46.15194" lon="6.48978">
        <ele>776</ele>
        <time>2021-09-12T11:45:30Z</time>
      </trkpt>
      <trkpt lat="46.15208" lon="6.48949">
        <ele>778</ele>
        <time>2021-09-12T11:45:34Z</time>
      </trkpt>
      <trkpt lat="46.15231" lon="6.48899">
        <ele>784</ele>
        <time>2021-09-12T11:45:40Z</time>
      </trkpt>
      <trkpt lat="46.15239" lon="6.4887">
        <ele>785</ele>
        <time>2021-09-12T11:45:44Z</time>
      </trkpt>
      <trkpt lat="46.15239" lon="6.48848">
        <ele>785</ele>
        <time>2021-09-12T11:45:47Z</time>
      </trkpt>
      <trkpt lat="46.15237" lon="6.48836">
        <ele>785</ele>
        <time>2021-09-12T11:45:49Z</time>
      </trkpt>
      <trkpt lat="46.15239" lon="6.48822">
        <ele>791</ele>
        <time>2021-09-12T11:45:51Z</time>
      </trkpt>
      <trkpt lat="46.15248" lon="6.48793">
        <ele>805</ele>
        <time>2021-09-12T11:45:55Z</time>
      </trkpt>
      <trkpt lat="46.15252" lon="6.48786">
        <ele>809</ele>
        <time>2021-09-12T11:45:56Z</time>
      </trkpt>
      <trkpt lat="46.15268" lon="6.48752">
        <ele>809</ele>
        <time>2021-09-12T11:46:02Z</time>
      </trkpt>
      <trkpt lat="46.15275" lon="6.48745">
        <ele>813</ele>
        <time>2021-09-12T11:46:04Z</time>
      </trkpt>
      <trkpt lat="46.15284" lon="6.48725">
        <ele>814</ele>
        <time>2021-09-12T11:46:07Z</time>
      </trkpt>
      <trkpt lat="46.15297" lon="6.48715">
        <ele>813</ele>
        <time>2021-09-12T11:46:10Z</time>
      </trkpt>
      <trkpt lat="46.153" lon="6.48705">
        <ele>830</ele>
        <time>2021-09-12T11:46:12Z</time>
      </trkpt>
      <trkpt lat="46.15298" lon="6.48699">
        <ele>835</ele>
        <time>2021-09-12T11:46:13Z</time>
      </trkpt>
      <trkpt lat="46.15278" lon="6.48651">
        <ele>846</ele>
        <time>2021-09-12T11:46:20Z</time>
      </trkpt>
      <trkpt lat="46.15273" lon="6.48545">
        <ele>827</ele>
        <time>2021-09-12T11:46:31Z</time>
      </trkpt>
      <trkpt lat="46.1527" lon="6.48507">
        <ele>831</ele>
        <time>2021-09-12T11:46:35Z</time>
      </trkpt>
      <trkpt lat="46.15278" lon="6.48464">
        <ele>835</ele>
        <time>2021-09-12T11:46:42Z</time>
      </trkpt>
      <trkpt lat="46.15275" lon="6.48452">
        <ele>833</ele>
        <time>2021-09-12T11:46:44Z</time>
      </trkpt>
      <trkpt lat="46.15277" lon="6.48436">
        <ele>812</ele>
        <time>2021-09-12T11:46:46Z</time>
      </trkpt>
      <trkpt lat="46.1528" lon="6.48366">
        <ele>840</ele>
        <time>2021-09-12T11:46:53Z</time>
      </trkpt>
      <trkpt lat="46.15285" lon="6.48333">
        <ele>817</ele>
        <time>2021-09-12T11:46:56Z</time>
      </trkpt>
      <trkpt lat="46.15288" lon="6.48313">
        <ele>811</ele>
        <time>2021-09-12T11:46:58Z</time>
      </trkpt>
      <trkpt lat="46.1529" lon="6.48265">
        <ele>809</ele>
        <time>2021-09-12T11:47:02Z</time>
      </trkpt>
      <trkpt lat="46.15291" lon="6.48243">
        <ele>808</ele>
        <time>2021-09-12T11:47:04Z</time>
      </trkpt>
      <trkpt lat="46.15292" lon="6.48232">
        <ele>812</ele>
        <time>2021-09-12T11:47:05Z</time>
      </trkpt>
      <trkpt lat="46.15299" lon="6.48217">
        <ele>816</ele>
        <time>2021-09-12T11:47:07Z</time>
      </trkpt>
      <trkpt lat="46.15301" lon="6.48194">
        <ele>816</ele>
        <time>2021-09-12T11:47:10Z</time>
      </trkpt>
      <trkpt lat="46.153" lon="6.48179">
        <ele>816</ele>
        <time>2021-09-12T11:47:12Z</time>
      </trkpt>
      <trkpt lat="46.15306" lon="6.48137">
        <ele>843</ele>
        <time>2021-09-12T11:47:19Z</time>
      </trkpt>
      <trkpt lat="46.15302" lon="6.48109">
        <ele>844</ele>
        <time>2021-09-12T11:47:23Z</time>
      </trkpt>
      <trkpt lat="46.15297" lon="6.48091">
        <ele>842</ele>
        <time>2021-09-12T11:47:25Z</time>
      </trkpt>
      <trkpt lat="46.15297" lon="6.4807">
        <ele>820</ele>
        <time>2021-09-12T11:47:27Z</time>
      </trkpt>
      <trkpt lat="46.15298" lon="6.4802">
        <ele>793</ele>
        <time>2021-09-12T11:47:31Z</time>
      </trkpt>
      <trkpt lat="46.153" lon="6.4798">
        <ele>828</ele>
        <time>2021-09-12T11:47:35Z</time>
      </trkpt>
      <trkpt lat="46.1531" lon="6.47936">
        <ele>829</ele>
        <time>2021-09-12T11:47:40Z</time>
      </trkpt>
      <trkpt lat="46.1532" lon="6.47914">
        <ele>834</ele>
        <time>2021-09-12T11:47:43Z</time>
      </trkpt>
      <trkpt lat="46.15326" lon="6.47913">
        <ele>834</ele>
        <time>2021-09-12T11:47:44Z</time>
      </trkpt>
      <trkpt lat="46.15349" lon="6.47899">
        <ele>842</ele>
        <time>2021-09-12T11:47:48Z</time>
      </trkpt>
      <trkpt lat="46.15378" lon="6.47868">
        <ele>846</ele>
        <time>2021-09-12T11:47:54Z</time>
      </trkpt>
      <trkpt lat="46.15386" lon="6.47859">
        <ele>834</ele>
        <time>2021-09-12T11:47:56Z</time>
      </trkpt>
      <trkpt lat="46.15394" lon="6.47852">
        <ele>830</ele>
        <time>2021-09-12T11:47:58Z</time>
      </trkpt>
      <trkpt lat="46.15398" lon="6.47845">
        <ele>829</ele>
        <time>2021-09-12T11:48:00Z</time>
      </trkpt>
      <trkpt lat="46.15409" lon="6.47826">
        <ele>826</ele>
        <time>2021-09-12T11:48:03Z</time>
      </trkpt>
      <trkpt lat="46.15418" lon="6.47813">
        <ele>824</ele>
        <time>2021-09-12T11:48:05Z</time>
      </trkpt>
      <trkpt lat="46.15434" lon="6.47776">
        <ele>844</ele>
        <time>2021-09-12T11:48:09Z</time>
      </trkpt>
      <trkpt lat="46.15442" lon="6.47764">
        <ele>830</ele>
        <time>2021-09-12T11:48:11Z</time>
      </trkpt>
      <trkpt lat="46.15444" lon="6.47756">
        <ele>819</ele>
        <time>2021-09-12T11:48:12Z</time>
      </trkpt>
      <trkpt lat="46.15447" lon="6.47751">
        <ele>816</ele>
        <time>2021-09-12T11:48:13Z</time>
      </trkpt>
      <trkpt lat="46.15455" lon="6.47744">
        <ele>827</ele>
        <time>2021-09-12T11:48:15Z</time>
      </trkpt>
      <trkpt lat="46.15464" lon="6.47743">
        <ele>832</ele>
        <time>2021-09-12T11:48:17Z</time>
      </trkpt>
      <trkpt lat="46.15481" lon="6.47741">
        <ele>812</ele>
        <time>2021-09-12T11:48:20Z</time>
      </trkpt>
      <trkpt lat="46.15489" lon="6.47743">
        <ele>818</ele>
        <time>2021-09-12T11:48:22Z</time>
      </trkpt>
      <trkpt lat="46.15502" lon="6.47734">
        <ele>812</ele>
        <time>2021-09-12T11:48:24Z</time>
      </trkpt>
      <trkpt lat="46.1553" lon="6.47714">
        <ele>812</ele>
        <time>2021-09-12T11:48:31Z</time>
      </trkpt>
      <trkpt lat="46.15533" lon="6.47701">
        <ele>814</ele>
        <time>2021-09-12T11:48:34Z</time>
      </trkpt>
      <trkpt lat="46.1553" lon="6.47695">
        <ele>814</ele>
        <time>2021-09-12T11:48:36Z</time>
      </trkpt>
      <trkpt lat="46.1552" lon="6.47691">
        <ele>812</ele>
        <time>2021-09-12T11:48:41Z</time>
      </trkpt>
      <trkpt lat="46.15502" lon="6.47678">
        <ele>799</ele>
        <time>2021-09-12T11:48:49Z</time>
      </trkpt>
      <trkpt lat="46.15492" lon="6.47678">
        <ele>793</ele>
        <time>2021-09-12T11:48:52Z</time>
      </trkpt>
      <trkpt lat="46.15483" lon="6.47678">
        <ele>791</ele>
        <time>2021-09-12T11:48:54Z</time>
      </trkpt>
      <trkpt lat="46.15462" lon="6.47676">
        <ele>784</ele>
        <time>2021-09-12T11:48:59Z</time>
      </trkpt>
      <trkpt lat="46.15452" lon="6.47669">
        <ele>785</ele>
        <time>2021-09-12T11:49:02Z</time>
      </trkpt>
      <trkpt lat="46.15447" lon="6.47657">
        <ele>783</ele>
        <time>2021-09-12T11:49:05Z</time>
      </trkpt>
      <trkpt lat="46.15455" lon="6.47647">
        <ele>793</ele>
        <time>2021-09-12T11:49:08Z</time>
      </trkpt>
      <trkpt lat="46.15459" lon="6.47634">
        <ele>799</ele>
        <time>2021-09-12T11:49:11Z</time>
      </trkpt>
      <trkpt lat="46.1545" lon="6.47618">
        <ele>779</ele>
        <time>2021-09-12T11:49:21Z</time>
      </trkpt>
      <trkpt lat="46.1543" lon="6.47606">
        <ele>725</ele>
        <time>2021-09-12T11:49:27Z</time>
      </trkpt>
      <trkpt lat="46.15407" lon="6.47589">
        <ele>732</ele>
        <time>2021-09-12T11:49:31Z</time>
      </trkpt>
      <trkpt lat="46.15384" lon="6.47565">
        <ele>715</ele>
        <time>2021-09-12T11:49:35Z</time>
      </trkpt>
      <trkpt lat="46.15372" lon="6.47552">
        <ele>720</ele>
        <time>2021-09-12T11:49:37Z</time>
      </trkpt>
      <trkpt lat="46.15322" lon="6.47477">
        <ele>696</ele>
        <time>2021-09-12T11:49:48Z</time>
      </trkpt>
      <trkpt lat="46.15296" lon="6.47434">
        <ele>707</ele>
        <time>2021-09-12T11:49:54Z</time>
      </trkpt>
      <trkpt lat="46.15293" lon="6.47431">
        <ele>707</ele>
        <time>2021-09-12T11:49:55Z</time>
      </trkpt>
      <trkpt lat="46.15291" lon="6.47425">
        <ele>711</ele>
        <time>2021-09-12T11:49:56Z</time>
      </trkpt>
      <trkpt lat="46.15288" lon="6.47422">
        <ele>722</ele>
        <time>2021-09-12T11:49:57Z</time>
      </trkpt>
      <trkpt lat="46.15286" lon="6.47417">
        <ele>728</ele>
        <time>2021-09-12T11:49:58Z</time>
      </trkpt>
      <trkpt lat="46.15283" lon="6.4741">
        <ele>739</ele>
        <time>2021-09-12T11:50:00Z</time>
      </trkpt>
      <trkpt lat="46.15281" lon="6.47403">
        <ele>733</ele>
        <time>2021-09-12T11:50:02Z</time>
      </trkpt>
      <trkpt lat="46.15278" lon="6.47397">
        <ele>720</ele>
        <time>2021-09-12T11:50:04Z</time>
      </trkpt>
      <trkpt lat="46.15275" lon="6.47385">
        <ele>722</ele>
        <time>2021-09-12T11:50:06Z</time>
      </trkpt>
      <trkpt lat="46.15274" lon="6.47376">
        <ele>725</ele>
        <time>2021-09-12T11:50:07Z</time>
      </trkpt>
      <trkpt lat="46.1527" lon="6.47359">
        <ele>732</ele>
        <time>2021-09-12T11:50:09Z</time>
      </trkpt>
      <trkpt lat="46.15267" lon="6.47351">
        <ele>740</ele>
        <time>2021-09-12T11:50:10Z</time>
      </trkpt>
      <trkpt lat="46.15263" lon="6.47345">
        <ele>742</ele>
        <time>2021-09-12T11:50:11Z</time>
      </trkpt>
      <trkpt lat="46.15257" lon="6.47341">
        <ele>744</ele>
        <time>2021-09-12T11:50:12Z</time>
      </trkpt>
      <trkpt lat="46.15225" lon="6.47319">
        <ele>721</ele>
        <time>2021-09-12T11:50:17Z</time>
      </trkpt>
      <trkpt lat="46.152" lon="6.47298">
        <ele>758</ele>
        <time>2021-09-12T11:50:21Z</time>
      </trkpt>
      <trkpt lat="46.15151" lon="6.47294">
        <ele>759</ele>
        <time>2021-09-12T11:50:27Z</time>
      </trkpt>
      <trkpt lat="46.15122" lon="6.47281">
        <ele>753</ele>
        <time>2021-09-12T11:50:31Z</time>
      </trkpt>
      <trkpt lat="46.15115" lon="6.47277">
        <ele>757</ele>
        <time>2021-09-12T11:50:32Z</time>
      </trkpt>
      <trkpt lat="46.15111" lon="6.47271">
        <ele>764</ele>
        <time>2021-09-12T11:50:33Z</time>
      </trkpt>
      <trkpt lat="46.15075" lon="6.472">
        <ele>790</ele>
        <time>2021-09-12T11:50:41Z</time>
      </trkpt>
      <trkpt lat="46.15065" lon="6.47183">
        <ele>778</ele>
        <time>2021-09-12T11:50:43Z</time>
      </trkpt>
      <trkpt lat="46.15042" lon="6.47114">
        <ele>756</ele>
        <time>2021-09-12T11:50:49Z</time>
      </trkpt>
      <trkpt lat="46.15037" lon="6.47105">
        <ele>760</ele>
        <time>2021-09-12T11:50:50Z</time>
      </trkpt>
      <trkpt lat="46.15033" lon="6.47095">
        <ele>763</ele>
        <time>2021-09-12T11:50:51Z</time>
      </trkpt>
      <trkpt lat="46.15022" lon="6.47078">
        <ele>767</ele>
        <time>2021-09-12T11:50:53Z</time>
      </trkpt>
      <trkpt lat="46.15017" lon="6.47071">
        <ele>766</ele>
        <time>2021-09-12T11:50:54Z</time>
      </trkpt>
      <trkpt lat="46.15009" lon="6.47067">
        <ele>761</ele>
        <time>2021-09-12T11:50:55Z</time>
      </trkpt>
      <trkpt lat="46.15003" lon="6.47061">
        <ele>759</ele>
        <time>2021-09-12T11:50:56Z</time>
      </trkpt>
      <trkpt lat="46.14991" lon="6.47056">
        <ele>750</ele>
        <time>2021-09-12T11:50:58Z</time>
      </trkpt>
      <trkpt lat="46.14975" lon="6.47041">
        <ele>658</ele>
        <time>2021-09-12T11:51:01Z</time>
      </trkpt>
      <trkpt lat="46.14971" lon="6.47035">
        <ele>659</ele>
        <time>2021-09-12T11:51:02Z</time>
      </trkpt>
      <trkpt lat="46.14945" lon="6.47002">
        <ele>647</ele>
        <time>2021-09-12T11:51:08Z</time>
      </trkpt>
      <trkpt lat="46.14933" lon="6.46979">
        <ele>646</ele>
        <time>2021-09-12T11:51:11Z</time>
      </trkpt>
      <trkpt lat="46.1489" lon="6.46918">
        <ele>648</ele>
        <time>2021-09-12T11:51:20Z</time>
      </trkpt>
      <trkpt lat="46.14886" lon="6.46916">
        <ele>664</ele>
        <time>2021-09-12T11:51:22Z</time>
      </trkpt>
      <trkpt lat="46.14882" lon="6.4692">
        <ele>669</ele>
        <time>2021-09-12T11:51:24Z</time>
      </trkpt>
      <trkpt lat="46.1487" lon="6.46941">
        <ele>671</ele>
        <time>2021-09-12T11:51:27Z</time>
      </trkpt>
      <trkpt lat="46.14863" lon="6.46948">
        <ele>671</ele>
        <time>2021-09-12T11:51:28Z</time>
      </trkpt>
      <trkpt lat="46.14831" lon="6.46969">
        <ele>695</ele>
        <time>2021-09-12T11:51:32Z</time>
      </trkpt>
      <trkpt lat="46.14811" lon="6.46984">
        <ele>671</ele>
        <time>2021-09-12T11:51:35Z</time>
      </trkpt>
      <trkpt lat="46.14745" lon="6.47061">
        <ele>667</ele>
        <time>2021-09-12T11:51:45Z</time>
      </trkpt>
      <trkpt lat="46.14738" lon="6.47064">
        <ele>669</ele>
        <time>2021-09-12T11:51:46Z</time>
      </trkpt>
      <trkpt lat="46.14731" lon="6.47067">
        <ele>672</ele>
        <time>2021-09-12T11:51:47Z</time>
      </trkpt>
      <trkpt lat="46.14717" lon="6.47075">
        <ele>675</ele>
        <time>2021-09-12T11:51:49Z</time>
      </trkpt>
      <trkpt lat="46.14698" lon="6.4709">
        <ele>677</ele>
        <time>2021-09-12T11:51:52Z</time>
      </trkpt>
      <trkpt lat="46.14684" lon="6.47093">
        <ele>678</ele>
        <time>2021-09-12T11:51:54Z</time>
      </trkpt>
      <trkpt lat="46.14676" lon="6.47092">
        <ele>676</ele>
        <time>2021-09-12T11:51:55Z</time>
      </trkpt>
      <trkpt lat="46.14661" lon="6.47085">
        <ele>674</ele>
        <time>2021-09-12T11:51:57Z</time>
      </trkpt>
      <trkpt lat="46.14647" lon="6.47071">
        <ele>673</ele>
        <time>2021-09-12T11:51:59Z</time>
      </trkpt>
      <trkpt lat="46.14615" lon="6.47016">
        <ele>665</ele>
        <time>2021-09-12T11:52:04Z</time>
      </trkpt>
      <trkpt lat="46.1458" lon="6.46945">
        <ele>664</ele>
        <time>2021-09-12T11:52:09Z</time>
      </trkpt>
      <trkpt lat="46.1453" lon="6.46865">
        <ele>667</ele>
        <time>2021-09-12T11:52:17Z</time>
      </trkpt>
      <trkpt lat="46.14524" lon="6.46851">
        <ele>668</ele>
        <time>2021-09-12T11:52:20Z</time>
      </trkpt>
      <trkpt lat="46.14521" lon="6.46848">
        <ele>669</ele>
        <time>2021-09-12T11:52:21Z</time>
      </trkpt>
      <trkpt lat="46.14511" lon="6.46841">
        <ele>669</ele>
        <time>2021-09-12T11:52:23Z</time>
      </trkpt>
      <trkpt lat="46.14503" lon="6.4684">
        <ele>669</ele>
        <time>2021-09-12T11:52:24Z</time>
      </trkpt>
      <trkpt lat="46.14463" lon="6.46845">
        <ele>669</ele>
        <time>2021-09-12T11:52:28Z</time>
      </trkpt>
      <trkpt lat="46.1445" lon="6.46845">
        <ele>684</ele>
        <time>2021-09-12T11:52:29Z</time>
      </trkpt>
      <trkpt lat="46.14438" lon="6.46844">
        <ele>675</ele>
        <time>2021-09-12T11:52:30Z</time>
      </trkpt>
      <trkpt lat="46.14427" lon="6.46843">
        <ele>672</ele>
        <time>2021-09-12T11:52:31Z</time>
      </trkpt>
      <trkpt lat="46.14347" lon="6.46834">
        <ele>648</ele>
        <time>2021-09-12T11:52:38Z</time>
      </trkpt>
      <trkpt lat="46.14314" lon="6.46813">
        <ele>646</ele>
        <time>2021-09-12T11:52:41Z</time>
      </trkpt>
      <trkpt lat="46.14241" lon="6.46732">
        <ele>649</ele>
        <time>2021-09-12T11:52:48Z</time>
      </trkpt>
      <trkpt lat="46.14132" lon="6.46656">
        <ele>679</ele>
        <time>2021-09-12T11:53:01Z</time>
      </trkpt>
      <trkpt lat="46.14115" lon="6.46648">
        <ele>678</ele>
        <time>2021-09-12T11:53:04Z</time>
      </trkpt>
      <trkpt lat="46.14106" lon="6.46634">
        <ele>677</ele>
        <time>2021-09-12T11:53:06Z</time>
      </trkpt>
      <trkpt lat="46.14102" lon="6.46625">
        <ele>676</ele>
        <time>2021-09-12T11:53:07Z</time>
      </trkpt>
      <trkpt lat="46.14048" lon="6.46513">
        <ele>672</ele>
        <time>2021-09-12T11:53:18Z</time>
      </trkpt>
      <trkpt lat="46.13999" lon="6.4637">
        <ele>639</ele>
        <time>2021-09-12T11:53:36Z</time>
      </trkpt>
      <trkpt lat="46.14" lon="6.46366">
        <ele>638</ele>
        <time>2021-09-12T11:53:37Z</time>
      </trkpt>
      <trkpt lat="46.13988" lon="6.46313">
        <ele>714</ele>
        <time>2021-09-12T11:53:45Z</time>
      </trkpt>
      <trkpt lat="46.13981" lon="6.46298">
        <ele>721</ele>
        <time>2021-09-12T11:53:48Z</time>
      </trkpt>
      <trkpt lat="46.13963" lon="6.4627">
        <ele>634</ele>
        <time>2021-09-12T11:53:52Z</time>
      </trkpt>
      <trkpt lat="46.13904" lon="6.46205">
        <ele>615</ele>
        <time>2021-09-12T11:54:02Z</time>
      </trkpt>
      <trkpt lat="46.13858" lon="6.46104">
        <ele>609</ele>
        <time>2021-09-12T11:54:11Z</time>
      </trkpt>
      <trkpt lat="46.13851" lon="6.46068">
        <ele>607</ele>
        <time>2021-09-12T11:54:14Z</time>
      </trkpt>
      <trkpt lat="46.13846" lon="6.46003">
        <ele>608</ele>
        <time>2021-09-12T11:54:20Z</time>
      </trkpt>
      <trkpt lat="46.13847" lon="6.45993">
        <ele>616</ele>
        <time>2021-09-12T11:54:21Z</time>
      </trkpt>
      <trkpt lat="46.13838" lon="6.45949">
        <ele>610</ele>
        <time>2021-09-12T11:54:26Z</time>
      </trkpt>
      <trkpt lat="46.13836" lon="6.45944">
        <ele>638</ele>
        <time>2021-09-12T11:54:27Z</time>
      </trkpt>
      <trkpt lat="46.13833" lon="6.45942">
        <ele>638</ele>
        <time>2021-09-12T11:54:28Z</time>
      </trkpt>
      <trkpt lat="46.13824" lon="6.4594">
        <ele>638</ele>
        <time>2021-09-12T11:54:30Z</time>
      </trkpt>
      <trkpt lat="46.13816" lon="6.4594">
        <ele>636</ele>
        <time>2021-09-12T11:54:32Z</time>
      </trkpt>
      <trkpt lat="46.13813" lon="6.45939">
        <ele>645</ele>
        <time>2021-09-12T11:54:34Z</time>
      </trkpt>
      <trkpt lat="46.13811" lon="6.4593">
        <ele>639</ele>
        <time>2021-09-12T11:54:37Z</time>
      </trkpt>
      <trkpt lat="46.13813" lon="6.45871">
        <ele>601</ele>
        <time>2021-09-12T11:54:43Z</time>
      </trkpt>
      <trkpt lat="46.13829" lon="6.45798">
        <ele>599</ele>
        <time>2021-09-12T11:54:49Z</time>
      </trkpt>
      <trkpt lat="46.13846" lon="6.45736">
        <ele>600</ele>
        <time>2021-09-12T11:54:54Z</time>
      </trkpt>
      <trkpt lat="46.13853" lon="6.4561">
        <ele>599</ele>
        <time>2021-09-12T11:55:02Z</time>
      </trkpt>
      <trkpt lat="46.13846" lon="6.45537">
        <ele>599</ele>
        <time>2021-09-12T11:55:06Z</time>
      </trkpt>
      <trkpt lat="46.13806" lon="6.45396">
        <ele>598</ele>
        <time>2021-09-12T11:55:15Z</time>
      </trkpt>
      <trkpt lat="46.13766" lon="6.45283">
        <ele>598</ele>
        <time>2021-09-12T11:55:28Z</time>
      </trkpt>
      <trkpt lat="46.13763" lon="6.45279">
        <ele>598</ele>
        <time>2021-09-12T11:55:29Z</time>
      </trkpt>
      <trkpt lat="46.13759" lon="6.45277">
        <ele>598</ele>
        <time>2021-09-12T11:55:30Z</time>
      </trkpt>
      <trkpt lat="46.13755" lon="6.45277">
        <ele>598</ele>
        <time>2021-09-12T11:55:31Z</time>
      </trkpt>
      <trkpt lat="46.13749" lon="6.45279">
        <ele>597</ele>
        <time>2021-09-12T11:55:32Z</time>
      </trkpt>
      <trkpt lat="46.13745" lon="6.45284">
        <ele>597</ele>
        <time>2021-09-12T11:55:33Z</time>
      </trkpt>
      <trkpt lat="46.13741" lon="6.4529">
        <ele>596</ele>
        <time>2021-09-12T11:55:34Z</time>
      </trkpt>
      <trkpt lat="46.13739" lon="6.45298">
        <ele>596</ele>
        <time>2021-09-12T11:55:35Z</time>
      </trkpt>
      <trkpt lat="46.13726" lon="6.45474">
        <ele>593</ele>
        <time>2021-09-12T11:55:56Z</time>
      </trkpt>
      <trkpt lat="46.13722" lon="6.45479">
        <ele>593</ele>
        <time>2021-09-12T11:55:58Z</time>
      </trkpt>
      <trkpt lat="46.13719" lon="6.45479">
        <ele>593</ele>
        <time>2021-09-12T11:55:59Z</time>
      </trkpt>
      <trkpt lat="46.13693" lon="6.45473">
        <ele>593</ele>
        <time>2021-09-12T11:56:04Z</time>
      </trkpt>
      <trkpt lat="46.13687" lon="6.45469">
        <ele>593</ele>
        <time>2021-09-12T11:56:05Z</time>
      </trkpt>
      <trkpt lat="46.13675" lon="6.45455">
        <ele>593</ele>
        <time>2021-09-12T11:56:07Z</time>
      </trkpt>
      <trkpt lat="46.1367" lon="6.45448">
        <ele>625</ele>
        <time>2021-09-12T11:56:08Z</time>
      </trkpt>
      <trkpt lat="46.13659" lon="6.45401">
        <ele>627</ele>
        <time>2021-09-12T11:56:13Z</time>
      </trkpt>
      <trkpt lat="46.13648" lon="6.45392">
        <ele>627</ele>
        <time>2021-09-12T11:56:15Z</time>
      </trkpt>
      <trkpt lat="46.13614" lon="6.45376">
        <ele>629</ele>
        <time>2021-09-12T11:56:19Z</time>
      </trkpt>
      <trkpt lat="46.1354" lon="6.4535">
        <ele>652</ele>
        <time>2021-09-12T11:56:28Z</time>
      </trkpt>
      <trkpt lat="46.1346" lon="6.45324">
        <ele>642</ele>
        <time>2021-09-12T11:56:42Z</time>
      </trkpt>
      <trkpt lat="46.13449" lon="6.45323">
        <ele>665</ele>
        <time>2021-09-12T11:56:44Z</time>
      </trkpt>
      <trkpt lat="46.13426" lon="6.45317">
        <ele>663</ele>
        <time>2021-09-12T11:56:47Z</time>
      </trkpt>
      <trkpt lat="46.13409" lon="6.45309">
        <ele>649</ele>
        <time>2021-09-12T11:56:49Z</time>
      </trkpt>
      <trkpt lat="46.13367" lon="6.45273">
        <ele>654</ele>
        <time>2021-09-12T11:57:22Z</time>
      </trkpt>
      <trkpt lat="46.13314" lon="6.45231">
        <ele>684</ele>
        <time>2021-09-12T11:57:30Z</time>
      </trkpt>
      <trkpt lat="46.13246" lon="6.45156">
        <ele>669</ele>
        <time>2021-09-12T11:57:39Z</time>
      </trkpt>
      <trkpt lat="46.13162" lon="6.4511">
        <ele>686</ele>
        <time>2021-09-12T11:57:50Z</time>
      </trkpt>
      <trkpt lat="46.13125" lon="6.45109">
        <ele>693</ele>
        <time>2021-09-12T11:57:57Z</time>
      </trkpt>
      <trkpt lat="46.13115" lon="6.45105">
        <ele>711</ele>
        <time>2021-09-12T11:57:59Z</time>
      </trkpt>
      <trkpt lat="46.13098" lon="6.45096">
        <ele>719</ele>
        <time>2021-09-12T11:58:02Z</time>
      </trkpt>
      <trkpt lat="46.13076" lon="6.45089">
        <ele>732</ele>
        <time>2021-09-12T11:58:05Z</time>
      </trkpt>
      <trkpt lat="46.13058" lon="6.45082">
        <ele>725</ele>
        <time>2021-09-12T11:58:08Z</time>
      </trkpt>
      <trkpt lat="46.13055" lon="6.45077">
        <ele>726</ele>
        <time>2021-09-12T11:58:10Z</time>
      </trkpt>
      <trkpt lat="46.13055" lon="6.45073">
        <ele>727</ele>
        <time>2021-09-12T11:58:11Z</time>
      </trkpt>
      <trkpt lat="46.13057" lon="6.44991">
        <ele>752</ele>
        <time>2021-09-12T11:58:20Z</time>
      </trkpt>
      <trkpt lat="46.13057" lon="6.44985">
        <ele>753</ele>
        <time>2021-09-12T11:58:21Z</time>
      </trkpt>
      <trkpt lat="46.13056" lon="6.4498">
        <ele>740</ele>
        <time>2021-09-12T11:58:22Z</time>
      </trkpt>
      <trkpt lat="46.13057" lon="6.44974">
        <ele>739</ele>
        <time>2021-09-12T11:58:29Z</time>
      </trkpt>
      <trkpt lat="46.1306" lon="6.44969">
        <ele>745</ele>
        <time>2021-09-12T11:58:30Z</time>
      </trkpt>
      <trkpt lat="46.13067" lon="6.44942">
        <ele>746</ele>
        <time>2021-09-12T11:58:33Z</time>
      </trkpt>
      <trkpt lat="46.13068" lon="6.44932">
        <ele>746</ele>
        <time>2021-09-12T11:58:34Z</time>
      </trkpt>
      <trkpt lat="46.13069" lon="6.44914">
        <ele>725</ele>
        <time>2021-09-12T11:58:36Z</time>
      </trkpt>
      <trkpt lat="46.13069" lon="6.44902">
        <ele>734</ele>
        <time>2021-09-12T11:58:38Z</time>
      </trkpt>
      <trkpt lat="46.1307" lon="6.44897">
        <ele>734</ele>
        <time>2021-09-12T11:58:39Z</time>
      </trkpt>
      <trkpt lat="46.13076" lon="6.4488">
        <ele>737</ele>
        <time>2021-09-12T11:58:42Z</time>
      </trkpt>
      <trkpt lat="46.13085" lon="6.44865">
        <ele>740</ele>
        <time>2021-09-12T11:58:45Z</time>
      </trkpt>
      <trkpt lat="46.13086" lon="6.44856">
        <ele>743</ele>
        <time>2021-09-12T11:58:46Z</time>
      </trkpt>
      <trkpt lat="46.13085" lon="6.44851">
        <ele>743</ele>
        <time>2021-09-12T11:58:47Z</time>
      </trkpt>
      <trkpt lat="46.13085" lon="6.44837">
        <ele>741</ele>
        <time>2021-09-12T11:58:49Z</time>
      </trkpt>
      <trkpt lat="46.13084" lon="6.44831">
        <ele>739</ele>
        <time>2021-09-12T11:58:50Z</time>
      </trkpt>
      <trkpt lat="46.13087" lon="6.44827">
        <ele>739</ele>
        <time>2021-09-12T11:58:51Z</time>
      </trkpt>
      <trkpt lat="46.13086" lon="6.4482">
        <ele>738</ele>
        <time>2021-09-12T11:58:52Z</time>
      </trkpt>
      <trkpt lat="46.1308" lon="6.44816">
        <ele>741</ele>
        <time>2021-09-12T11:58:54Z</time>
      </trkpt>
      <trkpt lat="46.13079" lon="6.44808">
        <ele>744</ele>
        <time>2021-09-12T11:58:56Z</time>
      </trkpt>
      <trkpt lat="46.13079" lon="6.44802">
        <ele>744</ele>
        <time>2021-09-12T11:58:57Z</time>
      </trkpt>
      <trkpt lat="46.1309" lon="6.44769">
        <ele>744</ele>
        <time>2021-09-12T11:59:03Z</time>
      </trkpt>
      <trkpt lat="46.13094" lon="6.44762">
        <ele>742</ele>
        <time>2021-09-12T11:59:05Z</time>
      </trkpt>
      <trkpt lat="46.13108" lon="6.44743">
        <ele>735</ele>
        <time>2021-09-12T11:59:10Z</time>
      </trkpt>
      <trkpt lat="46.13112" lon="6.44737">
        <ele>737</ele>
        <time>2021-09-12T11:59:12Z</time>
      </trkpt>
      <trkpt lat="46.13115" lon="6.44728">
        <ele>740</ele>
        <time>2021-09-12T11:59:14Z</time>
      </trkpt>
      <trkpt lat="46.13126" lon="6.4469">
        <ele>740</ele>
        <time>2021-09-12T11:59:21Z</time>
      </trkpt>
      <trkpt lat="46.13131" lon="6.44675">
        <ele>737</ele>
        <time>2021-09-12T11:59:24Z</time>
      </trkpt>
      <trkpt lat="46.13147" lon="6.44635">
        <ele>736</ele>
        <time>2021-09-12T11:59:32Z</time>
      </trkpt>
      <trkpt lat="46.13157" lon="6.44583">
        <ele>729</ele>
        <time>2021-09-12T11:59:39Z</time>
      </trkpt>
      <trkpt lat="46.13159" lon="6.44578">
        <ele>731</ele>
        <time>2021-09-12T11:59:40Z</time>
      </trkpt>
      <trkpt lat="46.13167" lon="6.44528">
        <ele>733</ele>
        <time>2021-09-12T11:59:48Z</time>
      </trkpt>
      <trkpt lat="46.13172" lon="6.445">
        <ele>726</ele>
        <time>2021-09-12T11:59:52Z</time>
      </trkpt>
      <trkpt lat="46.13178" lon="6.44409">
        <ele>703</ele>
        <time>2021-09-12T12:00:03Z</time>
      </trkpt>
      <trkpt lat="46.13181" lon="6.44401">
        <ele>705</ele>
        <time>2021-09-12T12:00:04Z</time>
      </trkpt>
      <trkpt lat="46.13182" lon="6.4438">
        <ele>706</ele>
        <time>2021-09-12T12:00:07Z</time>
      </trkpt>
      <trkpt lat="46.13182" lon="6.44372">
        <ele>709</ele>
        <time>2021-09-12T12:00:08Z</time>
      </trkpt>
      <trkpt lat="46.13185" lon="6.44363">
        <ele>711</ele>
        <time>2021-09-12T12:00:09Z</time>
      </trkpt>
      <trkpt lat="46.13202" lon="6.44285">
        <ele>637</ele>
        <time>2021-09-12T12:00:16Z</time>
      </trkpt>
      <trkpt lat="46.13204" lon="6.44174">
        <ele>636</ele>
        <time>2021-09-12T12:00:24Z</time>
      </trkpt>
      <trkpt lat="46.13226" lon="6.44084">
        <ele>636</ele>
        <time>2021-09-12T12:00:31Z</time>
      </trkpt>
      <trkpt lat="46.13235" lon="6.43813">
        <ele>641</ele>
        <time>2021-09-12T12:00:49Z</time>
      </trkpt>
      <trkpt lat="46.13243" lon="6.43775">
        <ele>640</ele>
        <time>2021-09-12T12:00:52Z</time>
      </trkpt>
      <trkpt lat="46.13252" lon="6.43757">
        <ele>641</ele>
        <time>2021-09-12T12:00:54Z</time>
      </trkpt>
      <trkpt lat="46.13286" lon="6.43721">
        <ele>643</ele>
        <time>2021-09-12T12:00:58Z</time>
      </trkpt>
      <trkpt lat="46.13292" lon="6.43702">
        <ele>643</ele>
        <time>2021-09-12T12:01:00Z</time>
      </trkpt>
      <trkpt lat="46.13298" lon="6.43664">
        <ele>642</ele>
        <time>2021-09-12T12:01:03Z</time>
      </trkpt>
      <trkpt lat="46.13299" lon="6.43593">
        <ele>641</ele>
        <time>2021-09-12T12:01:09Z</time>
      </trkpt>
      <trkpt lat="46.13286" lon="6.43543">
        <ele>644</ele>
        <time>2021-09-12T12:01:14Z</time>
      </trkpt>
      <trkpt lat="46.13285" lon="6.43534">
        <ele>646</ele>
        <time>2021-09-12T12:01:15Z</time>
      </trkpt>
      <trkpt lat="46.13285" lon="6.43517">
        <ele>646</ele>
        <time>2021-09-12T12:01:17Z</time>
      </trkpt>
      <trkpt lat="46.13304" lon="6.43413">
        <ele>638</ele>
        <time>2021-09-12T12:01:29Z</time>
      </trkpt>
      <trkpt lat="46.13303" lon="6.43407">
        <ele>638</ele>
        <time>2021-09-12T12:01:30Z</time>
      </trkpt>
      <trkpt lat="46.13301" lon="6.43404">
        <ele>636</ele>
        <time>2021-09-12T12:01:31Z</time>
      </trkpt>
      <trkpt lat="46.13298" lon="6.43402">
        <ele>635</ele>
        <time>2021-09-12T12:01:32Z</time>
      </trkpt>
      <trkpt lat="46.13237" lon="6.43386">
        <ele>637</ele>
        <time>2021-09-12T12:01:39Z</time>
      </trkpt>
      <trkpt lat="46.13217" lon="6.43374">
        <ele>636</ele>
        <time>2021-09-12T12:01:41Z</time>
      </trkpt>
      <trkpt lat="46.13201" lon="6.43355">
        <ele>637</ele>
        <time>2021-09-12T12:01:43Z</time>
      </trkpt>
      <trkpt lat="46.1317" lon="6.43299">
        <ele>642</ele>
        <time>2021-09-12T12:01:48Z</time>
      </trkpt>
      <trkpt lat="46.13163" lon="6.43281">
        <ele>644</ele>
        <time>2021-09-12T12:01:50Z</time>
      </trkpt>
      <trkpt lat="46.13161" lon="6.43257">
        <ele>645</ele>
        <time>2021-09-12T12:01:53Z</time>
      </trkpt>
      <trkpt lat="46.13161" lon="6.43246">
        <ele>645</ele>
        <time>2021-09-12T12:01:56Z</time>
      </trkpt>
      <trkpt lat="46.1316" lon="6.43248">
        <ele>647</ele>
        <time>2021-09-12T12:03:31Z</time>
      </trkpt>
      <trkpt lat="46.1316" lon="6.43242">
        <ele>649</ele>
        <time>2021-09-12T12:04:08Z</time>
      </trkpt>
      <trkpt lat="46.13159" lon="6.43228">
        <ele>649</ele>
        <time>2021-09-12T12:04:10Z</time>
      </trkpt>
      <trkpt lat="46.13154" lon="6.43183">
        <ele>711</ele>
        <time>2021-09-12T12:04:15Z</time>
      </trkpt>
      <trkpt lat="46.13145" lon="6.43107">
        <ele>684</ele>
        <time>2021-09-12T12:04:24Z</time>
      </trkpt>
      <trkpt lat="46.13147" lon="6.4309">
        <ele>682</ele>
        <time>2021-09-12T12:04:26Z</time>
      </trkpt>
      <trkpt lat="46.13149" lon="6.43083">
        <ele>682</ele>
        <time>2021-09-12T12:04:27Z</time>
      </trkpt>
      <trkpt lat="46.13154" lon="6.43076">
        <ele>681</ele>
        <time>2021-09-12T12:04:28Z</time>
      </trkpt>
      <trkpt lat="46.13173" lon="6.43068">
        <ele>679</ele>
        <time>2021-09-12T12:04:31Z</time>
      </trkpt>
      <trkpt lat="46.13181" lon="6.43068">
        <ele>677</ele>
        <time>2021-09-12T12:04:33Z</time>
      </trkpt>
      <trkpt lat="46.13185" lon="6.43065">
        <ele>677</ele>
        <time>2021-09-12T12:04:35Z</time>
      </trkpt>
      <trkpt lat="46.13186" lon="6.4306">
        <ele>683</ele>
        <time>2021-09-12T12:04:36Z</time>
      </trkpt>
      <trkpt lat="46.13184" lon="6.43055">
        <ele>693</ele>
        <time>2021-09-12T12:04:37Z</time>
      </trkpt>
      <trkpt lat="46.13176" lon="6.43047">
        <ele>699</ele>
        <time>2021-09-12T12:04:39Z</time>
      </trkpt>
      <trkpt lat="46.13153" lon="6.43021">
        <ele>676</ele>
        <time>2021-09-12T12:04:43Z</time>
      </trkpt>
      <trkpt lat="46.13127" lon="6.42985">
        <ele>698</ele>
        <time>2021-09-12T12:04:47Z</time>
      </trkpt>
      <trkpt lat="46.13095" lon="6.42942">
        <ele>673</ele>
        <time>2021-09-12T12:04:51Z</time>
      </trkpt>
      <trkpt lat="46.12966" lon="6.42836">
        <ele>671</ele>
        <time>2021-09-12T12:05:03Z</time>
      </trkpt>
      <trkpt lat="46.12944" lon="6.42789">
        <ele>671</ele>
        <time>2021-09-12T12:05:06Z</time>
      </trkpt>
      <trkpt lat="46.12861" lon="6.42506">
        <ele>673</ele>
        <time>2021-09-12T12:05:23Z</time>
      </trkpt>
      <trkpt lat="46.12861" lon="6.425">
        <ele>672</ele>
        <time>2021-09-12T12:05:24Z</time>
      </trkpt>
      <trkpt lat="46.12859" lon="6.42494">
        <ele>679</ele>
        <time>2021-09-12T12:05:26Z</time>
      </trkpt>
      <trkpt lat="46.12852" lon="6.4248">
        <ele>680</ele>
        <time>2021-09-12T12:05:28Z</time>
      </trkpt>
      <trkpt lat="46.12847" lon="6.42471">
        <ele>676</ele>
        <time>2021-09-12T12:05:29Z</time>
      </trkpt>
      <trkpt lat="46.12606" lon="6.41996">
        <ele>716</ele>
        <time>2021-09-12T12:05:57Z</time>
      </trkpt>
      <trkpt lat="46.12474" lon="6.4179">
        <ele>693</ele>
        <time>2021-09-12T12:06:12Z</time>
      </trkpt>
      <trkpt lat="46.1237" lon="6.41484">
        <ele>699</ele>
        <time>2021-09-12T12:06:33Z</time>
      </trkpt>
      <trkpt lat="46.12329" lon="6.41419">
        <ele>667</ele>
        <time>2021-09-12T12:06:38Z</time>
      </trkpt>
      <trkpt lat="46.12277" lon="6.41332">
        <ele>720</ele>
        <time>2021-09-12T12:06:45Z</time>
      </trkpt>
      <trkpt lat="46.12269" lon="6.41303">
        <ele>721</ele>
        <time>2021-09-12T12:06:47Z</time>
      </trkpt>
      <trkpt lat="46.1226" lon="6.41215">
        <ele>722</ele>
        <time>2021-09-12T12:06:52Z</time>
      </trkpt>
      <trkpt lat="46.1226" lon="6.41198">
        <ele>722</ele>
        <time>2021-09-12T12:06:53Z</time>
      </trkpt>
      <trkpt lat="46.1226" lon="6.4118">
        <ele>715</ele>
        <time>2021-09-12T12:06:54Z</time>
      </trkpt>
      <trkpt lat="46.12263" lon="6.4102">
        <ele>712</ele>
        <time>2021-09-12T12:07:02Z</time>
      </trkpt>
      <trkpt lat="46.12265" lon="6.41001">
        <ele>713</ele>
        <time>2021-09-12T12:07:03Z</time>
      </trkpt>
      <trkpt lat="46.12284" lon="6.40897">
        <ele>683</ele>
        <time>2021-09-12T12:07:08Z</time>
      </trkpt>
      <trkpt lat="46.12288" lon="6.4084">
        <ele>686</ele>
        <time>2021-09-12T12:07:11Z</time>
      </trkpt>
      <trkpt lat="46.12287" lon="6.40827">
        <ele>687</ele>
        <time>2021-09-12T12:07:12Z</time>
      </trkpt>
      <trkpt lat="46.12283" lon="6.40815">
        <ele>688</ele>
        <time>2021-09-12T12:07:13Z</time>
      </trkpt>
      <trkpt lat="46.12278" lon="6.40804">
        <ele>688</ele>
        <time>2021-09-12T12:07:14Z</time>
      </trkpt>
      <trkpt lat="46.12271" lon="6.40798">
        <ele>689</ele>
        <time>2021-09-12T12:07:15Z</time>
      </trkpt>
      <trkpt lat="46.12263" lon="6.40795">
        <ele>689</ele>
        <time>2021-09-12T12:07:16Z</time>
      </trkpt>
      <trkpt lat="46.12246" lon="6.40795">
        <ele>687</ele>
        <time>2021-09-12T12:07:18Z</time>
      </trkpt>
      <trkpt lat="46.1222" lon="6.40804">
        <ele>687</ele>
        <time>2021-09-12T12:07:21Z</time>
      </trkpt>
      <trkpt lat="46.12157" lon="6.4083">
        <ele>738</ele>
        <time>2021-09-12T12:07:28Z</time>
      </trkpt>
      <trkpt lat="46.12148" lon="6.40828">
        <ele>738</ele>
        <time>2021-09-12T12:07:29Z</time>
      </trkpt>
      <trkpt lat="46.12139" lon="6.40823">
        <ele>739</ele>
        <time>2021-09-12T12:07:30Z</time>
      </trkpt>
      <trkpt lat="46.12102" lon="6.40768">
        <ele>740</ele>
        <time>2021-09-12T12:07:34Z</time>
      </trkpt>
      <trkpt lat="46.11981" lon="6.40515">
        <ele>750</ele>
        <time>2021-09-12T12:07:46Z</time>
      </trkpt>
      <trkpt lat="46.11973" lon="6.40507">
        <ele>750</ele>
        <time>2021-09-12T12:07:47Z</time>
      </trkpt>
      <trkpt lat="46.11964" lon="6.40503">
        <ele>750</ele>
        <time>2021-09-12T12:07:48Z</time>
      </trkpt>
      <trkpt lat="46.11955" lon="6.40501">
        <ele>750</ele>
        <time>2021-09-12T12:07:49Z</time>
      </trkpt>
      <trkpt lat="46.11946" lon="6.40503">
        <ele>750</ele>
        <time>2021-09-12T12:07:50Z</time>
      </trkpt>
      <trkpt lat="46.11927" lon="6.40515">
        <ele>748</ele>
        <time>2021-09-12T12:07:52Z</time>
      </trkpt>
      <trkpt lat="46.1186" lon="6.40564">
        <ele>747</ele>
        <time>2021-09-12T12:07:59Z</time>
      </trkpt>
      <trkpt lat="46.11715" lon="6.4061">
        <ele>747</ele>
        <time>2021-09-12T12:08:11Z</time>
      </trkpt>
      <trkpt lat="46.11708" lon="6.40609">
        <ele>747</ele>
        <time>2021-09-12T12:08:12Z</time>
      </trkpt>
      <trkpt lat="46.11701" lon="6.40603">
        <ele>747</ele>
        <time>2021-09-12T12:08:13Z</time>
      </trkpt>
      <trkpt lat="46.11697" lon="6.40593">
        <ele>747</ele>
        <time>2021-09-12T12:08:14Z</time>
      </trkpt>
      <trkpt lat="46.11694" lon="6.40579">
        <ele>747</ele>
        <time>2021-09-12T12:08:15Z</time>
      </trkpt>
      <trkpt lat="46.11696" lon="6.40565">
        <ele>748</ele>
        <time>2021-09-12T12:08:16Z</time>
      </trkpt>
      <trkpt lat="46.11709" lon="6.40521">
        <ele>749</ele>
        <time>2021-09-12T12:08:19Z</time>
      </trkpt>
      <trkpt lat="46.11711" lon="6.40506">
        <ele>750</ele>
        <time>2021-09-12T12:08:20Z</time>
      </trkpt>
      <trkpt lat="46.11709" lon="6.4049">
        <ele>750</ele>
        <time>2021-09-12T12:08:21Z</time>
      </trkpt>
      <trkpt lat="46.11705" lon="6.40476">
        <ele>759</ele>
        <time>2021-09-12T12:08:22Z</time>
      </trkpt>
      <trkpt lat="46.11699" lon="6.40465">
        <ele>759</ele>
        <time>2021-09-12T12:08:23Z</time>
      </trkpt>
      <trkpt lat="46.11694" lon="6.40458">
        <ele>759</ele>
        <time>2021-09-12T12:08:24Z</time>
      </trkpt>
      <trkpt lat="46.11686" lon="6.40452">
        <ele>760</ele>
        <time>2021-09-12T12:08:25Z</time>
      </trkpt>
      <trkpt lat="46.11677" lon="6.4045">
        <ele>760</ele>
        <time>2021-09-12T12:08:26Z</time>
      </trkpt>
      <trkpt lat="46.11668" lon="6.40452">
        <ele>761</ele>
        <time>2021-09-12T12:08:27Z</time>
      </trkpt>
      <trkpt lat="46.11659" lon="6.40459">
        <ele>762</ele>
        <time>2021-09-12T12:08:28Z</time>
      </trkpt>
      <trkpt lat="46.11601" lon="6.40523">
        <ele>791</ele>
        <time>2021-09-12T12:08:34Z</time>
      </trkpt>
      <trkpt lat="46.1157" lon="6.40584">
        <ele>794</ele>
        <time>2021-09-12T12:08:39Z</time>
      </trkpt>
      <trkpt lat="46.11561" lon="6.40587">
        <ele>794</ele>
        <time>2021-09-12T12:08:40Z</time>
      </trkpt>
      <trkpt lat="46.11552" lon="6.40587">
        <ele>795</ele>
        <time>2021-09-12T12:08:41Z</time>
      </trkpt>
      <trkpt lat="46.11543" lon="6.40583">
        <ele>781</ele>
        <time>2021-09-12T12:08:42Z</time>
      </trkpt>
      <trkpt lat="46.11536" lon="6.40575">
        <ele>776</ele>
        <time>2021-09-12T12:08:43Z</time>
      </trkpt>
      <trkpt lat="46.11531" lon="6.40563">
        <ele>774</ele>
        <time>2021-09-12T12:08:44Z</time>
      </trkpt>
      <trkpt lat="46.11524" lon="6.40519">
        <ele>774</ele>
        <time>2021-09-12T12:08:47Z</time>
      </trkpt>
      <trkpt lat="46.11519" lon="6.40505">
        <ele>775</ele>
        <time>2021-09-12T12:08:48Z</time>
      </trkpt>
      <trkpt lat="46.11502" lon="6.40481">
        <ele>776</ele>
        <time>2021-09-12T12:08:50Z</time>
      </trkpt>
      <trkpt lat="46.11473" lon="6.40455">
        <ele>778</ele>
        <time>2021-09-12T12:08:53Z</time>
      </trkpt>
      <trkpt lat="46.11394" lon="6.40413">
        <ele>782</ele>
        <time>2021-09-12T12:09:00Z</time>
      </trkpt>
      <trkpt lat="46.11386" lon="6.40404">
        <ele>782</ele>
        <time>2021-09-12T12:09:01Z</time>
      </trkpt>
      <trkpt lat="46.11387" lon="6.40388">
        <ele>783</ele>
        <time>2021-09-12T12:09:02Z</time>
      </trkpt>
      <trkpt lat="46.11391" lon="6.40324">
        <ele>787</ele>
        <time>2021-09-12T12:09:06Z</time>
      </trkpt>
      <trkpt lat="46.11354" lon="6.40064">
        <ele>801</ele>
        <time>2021-09-12T12:09:19Z</time>
      </trkpt>
      <trkpt lat="46.11339" lon="6.40033">
        <ele>803</ele>
        <time>2021-09-12T12:09:21Z</time>
      </trkpt>
      <trkpt lat="46.11242" lon="6.3994">
        <ele>810</ele>
        <time>2021-09-12T12:09:29Z</time>
      </trkpt>
      <trkpt lat="46.1115" lon="6.39868">
        <ele>822</ele>
        <time>2021-09-12T12:09:38Z</time>
      </trkpt>
      <trkpt lat="46.11138" lon="6.39852">
        <ele>819</ele>
        <time>2021-09-12T12:09:40Z</time>
      </trkpt>
      <trkpt lat="46.1113" lon="6.39833">
        <ele>820</ele>
        <time>2021-09-12T12:09:42Z</time>
      </trkpt>
      <trkpt lat="46.11125" lon="6.39813">
        <ele>820</ele>
        <time>2021-09-12T12:09:44Z</time>
      </trkpt>
      <trkpt lat="46.1112" lon="6.3978">
        <ele>821</ele>
        <time>2021-09-12T12:09:48Z</time>
      </trkpt>
      <trkpt lat="46.11116" lon="6.39776">
        <ele>821</ele>
        <time>2021-09-12T12:09:49Z</time>
      </trkpt>
      <trkpt lat="46.11112" lon="6.39778">
        <ele>829</ele>
        <time>2021-09-12T12:09:50Z</time>
      </trkpt>
      <trkpt lat="46.11108" lon="6.39783">
        <ele>832</ele>
        <time>2021-09-12T12:09:51Z</time>
      </trkpt>
      <trkpt lat="46.11105" lon="6.39794">
        <ele>826</ele>
        <time>2021-09-12T12:09:52Z</time>
      </trkpt>
      <trkpt lat="46.111" lon="6.39817">
        <ele>823</ele>
        <time>2021-09-12T12:09:54Z</time>
      </trkpt>
      <trkpt lat="46.11091" lon="6.39853">
        <ele>836</ele>
        <time>2021-09-12T12:09:57Z</time>
      </trkpt>
      <trkpt lat="46.11078" lon="6.39923">
        <ele>823</ele>
        <time>2021-09-12T12:10:03Z</time>
      </trkpt>
      <trkpt lat="46.11057" lon="6.39979">
        <ele>824</ele>
        <time>2021-09-12T12:10:08Z</time>
      </trkpt>
      <trkpt lat="46.11001" lon="6.40083">
        <ele>828</ele>
        <time>2021-09-12T12:10:17Z</time>
      </trkpt>
      <trkpt lat="46.10946" lon="6.40257">
        <ele>835</ele>
        <time>2021-09-12T12:10:28Z</time>
      </trkpt>
      <trkpt lat="46.10778" lon="6.40461">
        <ele>848</ele>
        <time>2021-09-12T12:10:44Z</time>
      </trkpt>
      <trkpt lat="46.10768" lon="6.40479">
        <ele>850</ele>
        <time>2021-09-12T12:10:45Z</time>
      </trkpt>
      <trkpt lat="46.10751" lon="6.40513">
        <ele>854</ele>
        <time>2021-09-12T12:10:47Z</time>
      </trkpt>
      <trkpt lat="46.10744" lon="6.40529">
        <ele>856</ele>
        <time>2021-09-12T12:10:48Z</time>
      </trkpt>
      <trkpt lat="46.10697" lon="6.40681">
        <ele>860</ele>
        <time>2021-09-12T12:10:57Z</time>
      </trkpt>
      <trkpt lat="46.10688" lon="6.40735">
        <ele>860</ele>
        <time>2021-09-12T12:11:03Z</time>
      </trkpt>
      <trkpt lat="46.10666" lon="6.40768">
        <ele>864</ele>
        <time>2021-09-12T12:11:08Z</time>
      </trkpt>
      <trkpt lat="46.10558" lon="6.4088">
        <ele>876</ele>
        <time>2021-09-12T12:11:22Z</time>
      </trkpt>
      <trkpt lat="46.10551" lon="6.40884">
        <ele>876</ele>
        <time>2021-09-12T12:11:23Z</time>
      </trkpt>
      <trkpt lat="46.10542" lon="6.40883">
        <ele>877</ele>
        <time>2021-09-12T12:11:24Z</time>
      </trkpt>
      <trkpt lat="46.10533" lon="6.4088">
        <ele>878</ele>
        <time>2021-09-12T12:11:25Z</time>
      </trkpt>
      <trkpt lat="46.10516" lon="6.40871">
        <ele>879</ele>
        <time>2021-09-12T12:11:27Z</time>
      </trkpt>
      <trkpt lat="46.10501" lon="6.40856">
        <ele>882</ele>
        <time>2021-09-12T12:11:29Z</time>
      </trkpt>
      <trkpt lat="46.10492" lon="6.40854">
        <ele>884</ele>
        <time>2021-09-12T12:11:30Z</time>
      </trkpt>
      <trkpt lat="46.10474" lon="6.40855">
        <ele>886</ele>
        <time>2021-09-12T12:11:32Z</time>
      </trkpt>
      <trkpt lat="46.10413" lon="6.40877">
        <ele>890</ele>
        <time>2021-09-12T12:11:38Z</time>
      </trkpt>
      <trkpt lat="46.10371" lon="6.40908">
        <ele>889</ele>
        <time>2021-09-12T12:11:43Z</time>
      </trkpt>
      <trkpt lat="46.10355" lon="6.40917">
        <ele>886</ele>
        <time>2021-09-12T12:11:45Z</time>
      </trkpt>
      <trkpt lat="46.10337" lon="6.40913">
        <ele>887</ele>
        <time>2021-09-12T12:11:47Z</time>
      </trkpt>
      <trkpt lat="46.10199" lon="6.4087">
        <ele>893</ele>
        <time>2021-09-12T12:12:00Z</time>
      </trkpt>
      <trkpt lat="46.10155" lon="6.40871">
        <ele>896</ele>
        <time>2021-09-12T12:12:04Z</time>
      </trkpt>
      <trkpt lat="46.10126" lon="6.40884">
        <ele>898</ele>
        <time>2021-09-12T12:12:07Z</time>
      </trkpt>
      <trkpt lat="46.10077" lon="6.40936">
        <ele>899</ele>
        <time>2021-09-12T12:12:13Z</time>
      </trkpt>
      <trkpt lat="46.10043" lon="6.40995">
        <ele>900</ele>
        <time>2021-09-12T12:12:18Z</time>
      </trkpt>
      <trkpt lat="46.10031" lon="6.41005">
        <ele>901</ele>
        <time>2021-09-12T12:12:20Z</time>
      </trkpt>
      <trkpt lat="46.10013" lon="6.41007">
        <ele>903</ele>
        <time>2021-09-12T12:12:22Z</time>
      </trkpt>
      <trkpt lat="46.09988" lon="6.41003">
        <ele>905</ele>
        <time>2021-09-12T12:12:25Z</time>
      </trkpt>
      <trkpt lat="46.0998" lon="6.41005">
        <ele>907</ele>
        <time>2021-09-12T12:12:26Z</time>
      </trkpt>
      <trkpt lat="46.09956" lon="6.41007">
        <ele>920</ele>
        <time>2021-09-12T12:12:34Z</time>
      </trkpt>
      <trkpt lat="46.09952" lon="6.41004">
        <ele>933</ele>
        <time>2021-09-12T12:13:17Z</time>
      </trkpt>
      <trkpt lat="46.09946" lon="6.41002">
        <ele>933</ele>
        <time>2021-09-12T12:13:19Z</time>
      </trkpt>
      <trkpt lat="46.09935" lon="6.41008">
        <ele>933</ele>
        <time>2021-09-12T12:13:21Z</time>
      </trkpt>
      <trkpt lat="46.09931" lon="6.41009">
        <ele>933</ele>
        <time>2021-09-12T12:13:22Z</time>
      </trkpt>
      <trkpt lat="46.09926" lon="6.41019">
        <ele>933</ele>
        <time>2021-09-12T12:13:25Z</time>
      </trkpt>
      <trkpt lat="46.09924" lon="6.41023">
        <ele>932</ele>
        <time>2021-09-12T12:13:27Z</time>
      </trkpt>
      <trkpt lat="46.09928" lon="6.41036">
        <ele>932</ele>
        <time>2021-09-12T12:13:30Z</time>
      </trkpt>
      <trkpt lat="46.09931" lon="6.41043">
        <ele>931</ele>
        <time>2021-09-12T12:13:32Z</time>
      </trkpt>
      <trkpt lat="46.09934" lon="6.41046">
        <ele>931</ele>
        <time>2021-09-12T12:13:33Z</time>
      </trkpt>
      <trkpt lat="46.09936" lon="6.41057">
        <ele>930</ele>
        <time>2021-09-12T12:13:40Z</time>
      </trkpt>
      <trkpt lat="46.09935" lon="6.41089">
        <ele>928</ele>
        <time>2021-09-12T12:13:45Z</time>
      </trkpt>
      <trkpt lat="46.09932" lon="6.41097">
        <ele>928</ele>
        <time>2021-09-12T12:13:47Z</time>
      </trkpt>
      <trkpt lat="46.09927" lon="6.41133">
        <ele>925</ele>
        <time>2021-09-12T12:13:53Z</time>
      </trkpt>
      <trkpt lat="46.09928" lon="6.41153">
        <ele>924</ele>
        <time>2021-09-12T12:13:58Z</time>
      </trkpt>
      <trkpt lat="46.09927" lon="6.41164">
        <ele>925</ele>
        <time>2021-09-12T12:14:02Z</time>
      </trkpt>
      <trkpt lat="46.09925" lon="6.4117">
        <ele>924</ele>
        <time>2021-09-12T12:14:04Z</time>
      </trkpt>
      <trkpt lat="46.09923" lon="6.41182">
        <ele>922</ele>
        <time>2021-09-12T12:14:08Z</time>
      </trkpt>
      <trkpt lat="46.09922" lon="6.4121">
        <ele>917</ele>
        <time>2021-09-12T12:14:14Z</time>
      </trkpt>
      <trkpt lat="46.09921" lon="6.41215">
        <ele>917</ele>
        <time>2021-09-12T12:14:17Z</time>
      </trkpt>
      <trkpt lat="46.09917" lon="6.41225">
        <ele>914</ele>
        <time>2021-09-12T12:14:23Z</time>
      </trkpt>
      <trkpt lat="46.09915" lon="6.41238">
        <ele>913</ele>
        <time>2021-09-12T12:14:26Z</time>
      </trkpt>
      <trkpt lat="46.09918" lon="6.41254">
        <ele>912</ele>
        <time>2021-09-12T12:14:29Z</time>
      </trkpt>
      <trkpt lat="46.09919" lon="6.41274">
        <ele>911</ele>
        <time>2021-09-12T12:14:34Z</time>
      </trkpt>
      <trkpt lat="46.09921" lon="6.41283">
        <ele>910</ele>
        <time>2021-09-12T12:14:36Z</time>
      </trkpt>
      <trkpt lat="46.09926" lon="6.4129">
        <ele>912</ele>
        <time>2021-09-12T12:14:45Z</time>
      </trkpt>
      <trkpt lat="46.09926" lon="6.41294">
        <ele>912</ele>
        <time>2021-09-12T12:14:51Z</time>
      </trkpt>
      <trkpt lat="46.09922" lon="6.41298">
        <ele>911</ele>
        <time>2021-09-12T12:14:56Z</time>
      </trkpt>
      <trkpt lat="46.09919" lon="6.41297">
        <ele>911</ele>
        <time>2021-09-12T12:14:58Z</time>
      </trkpt>
      <trkpt lat="46.09911" lon="6.41288">
        <ele>911</ele>
        <time>2021-09-12T12:15:06Z</time>
      </trkpt>
      <trkpt lat="46.09908" lon="6.41286">
        <ele>911</ele>
        <time>2021-09-12T12:15:09Z</time>
      </trkpt>
      <trkpt lat="46.0989" lon="6.41278">
        <ele>902</ele>
        <time>2021-09-12T12:15:31Z</time>
      </trkpt>
      <trkpt lat="46.09884" lon="6.4127">
        <ele>900</ele>
        <time>2021-09-12T12:15:34Z</time>
      </trkpt>
      <trkpt lat="46.09882" lon="6.41265">
        <ele>804</ele>
        <time>2021-09-12T12:15:36Z</time>
      </trkpt>
      <trkpt lat="46.0988" lon="6.4126">
        <ele>772</ele>
        <time>2021-09-12T12:15:38Z</time>
      </trkpt>
      <trkpt lat="46.0988" lon="6.41245">
        <ele>705</ele>
        <time>2021-09-12T12:15:44Z</time>
      </trkpt>
      <trkpt lat="46.09878" lon="6.4124">
        <ele>705</ele>
        <time>2021-09-12T12:15:46Z</time>
      </trkpt>
      <trkpt lat="46.09868" lon="6.41221">
        <ele>701</ele>
        <time>2021-09-12T12:15:52Z</time>
      </trkpt>
      <trkpt lat="46.09862" lon="6.41214">
        <ele>823</ele>
        <time>2021-09-12T12:15:58Z</time>
      </trkpt>
      <trkpt lat="46.09861" lon="6.4121">
        <ele>1141</ele>
        <time>2021-09-12T12:17:13Z</time>
      </trkpt>
      <trkpt lat="46.09858" lon="6.41207">
        <ele>957</ele>
        <time>2021-09-12T12:17:32Z</time>
      </trkpt>
      <trkpt lat="46.09856" lon="6.41203">
        <ele>925</ele>
        <time>2021-09-12T12:17:40Z</time>
      </trkpt>
      <trkpt lat="46.0985" lon="6.41198">
        <ele>899</ele>
        <time>2021-09-12T12:17:48Z</time>
      </trkpt>
      <trkpt lat="46.09838" lon="6.41197">
        <ele>911</ele>
        <time>2021-09-12T12:17:58Z</time>
      </trkpt>
      <trkpt lat="46.09834" lon="6.41195">
        <ele>909</ele>
        <time>2021-09-12T12:18:01Z</time>
      </trkpt>
      <trkpt lat="46.09833" lon="6.41192">
        <ele>901</ele>
        <time>2021-09-12T12:18:03Z</time>
      </trkpt>
      <trkpt lat="46.09832" lon="6.41187">
        <ele>898</ele>
        <time>2021-09-12T12:18:07Z</time>
      </trkpt>
      <trkpt lat="46.09831" lon="6.41182">
        <ele>906</ele>
        <time>2021-09-12T12:18:10Z</time>
      </trkpt>
      <trkpt lat="46.0983" lon="6.41177">
        <ele>907</ele>
        <time>2021-09-12T12:18:13Z</time>
      </trkpt>
      <trkpt lat="46.09815" lon="6.41165">
        <ele>905</ele>
        <time>2021-09-12T12:18:20Z</time>
      </trkpt>
      <trkpt lat="46.09808" lon="6.41158">
        <ele>901</ele>
        <time>2021-09-12T12:18:24Z</time>
      </trkpt>
      <trkpt lat="46.09795" lon="6.41139">
        <ele>853</ele>
        <time>2021-09-12T12:18:35Z</time>
      </trkpt>
      <trkpt lat="46.09787" lon="6.41134">
        <ele>847</ele>
        <time>2021-09-12T12:18:43Z</time>
      </trkpt>
      <trkpt lat="46.09779" lon="6.41126">
        <ele>845</ele>
        <time>2021-09-12T12:18:49Z</time>
      </trkpt>
      <trkpt lat="46.09771" lon="6.41117">
        <ele>879</ele>
        <time>2021-09-12T12:18:55Z</time>
      </trkpt>
      <trkpt lat="46.0976" lon="6.41119">
        <ele>883</ele>
        <time>2021-09-12T12:18:59Z</time>
      </trkpt>
      <trkpt lat="46.09752" lon="6.41128">
        <ele>889</ele>
        <time>2021-09-12T12:19:02Z</time>
      </trkpt>
      <trkpt lat="46.09743" lon="6.41133">
        <ele>892</ele>
        <time>2021-09-12T12:19:05Z</time>
      </trkpt>
      <trkpt lat="46.09714" lon="6.41162">
        <ele>902</ele>
        <time>2021-09-12T12:19:14Z</time>
      </trkpt>
      <trkpt lat="46.09708" lon="6.4117">
        <ele>898</ele>
        <time>2021-09-12T12:19:16Z</time>
      </trkpt>
      <trkpt lat="46.09687" lon="6.41197">
        <ele>891</ele>
        <time>2021-09-12T12:19:23Z</time>
      </trkpt>
      <trkpt lat="46.09678" lon="6.41218">
        <ele>891</ele>
        <time>2021-09-12T12:19:29Z</time>
      </trkpt>
      <trkpt lat="46.09675" lon="6.41223">
        <ele>877</ele>
        <time>2021-09-12T12:19:31Z</time>
      </trkpt>
      <trkpt lat="46.09673" lon="6.41228">
        <ele>858</ele>
        <time>2021-09-12T12:19:33Z</time>
      </trkpt>
      <trkpt lat="46.09668" lon="6.41229">
        <ele>830</ele>
        <time>2021-09-12T12:19:35Z</time>
      </trkpt>
      <trkpt lat="46.09662" lon="6.41227">
        <ele>828</ele>
        <time>2021-09-12T12:19:37Z</time>
      </trkpt>
      <trkpt lat="46.09656" lon="6.41224">
        <ele>825</ele>
        <time>2021-09-12T12:19:39Z</time>
      </trkpt>
      <trkpt lat="46.09651" lon="6.41222">
        <ele>825</ele>
        <time>2021-09-12T12:19:41Z</time>
      </trkpt>
      <trkpt lat="46.09648" lon="6.41217">
        <ele>818</ele>
        <time>2021-09-12T12:19:42Z</time>
      </trkpt>
      <trkpt lat="46.09643" lon="6.41215">
        <ele>815</ele>
        <time>2021-09-12T12:19:44Z</time>
      </trkpt>
      <trkpt lat="46.09639" lon="6.41212">
        <ele>825</ele>
        <time>2021-09-12T12:19:46Z</time>
      </trkpt>
      <trkpt lat="46.09634" lon="6.41211">
        <ele>825</ele>
        <time>2021-09-12T12:19:49Z</time>
      </trkpt>
      <trkpt lat="46.09629" lon="6.4121">
        <ele>814</ele>
        <time>2021-09-12T12:19:52Z</time>
      </trkpt>
      <trkpt lat="46.09625" lon="6.4121">
        <ele>808</ele>
        <time>2021-09-12T12:19:54Z</time>
      </trkpt>
      <trkpt lat="46.09622" lon="6.41217">
        <ele>812</ele>
        <time>2021-09-12T12:19:57Z</time>
      </trkpt>
      <trkpt lat="46.09626" lon="6.41229">
        <ele>808</ele>
        <time>2021-09-12T12:20:01Z</time>
      </trkpt>
      <trkpt lat="46.09629" lon="6.4123">
        <ele>805</ele>
        <time>2021-09-12T12:20:23Z</time>
      </trkpt>
      <trkpt lat="46.09629" lon="6.41244">
        <ele>803</ele>
        <time>2021-09-12T12:20:26Z</time>
      </trkpt>
      <trkpt lat="46.09628" lon="6.4125">
        <ele>802</ele>
        <time>2021-09-12T12:20:28Z</time>
      </trkpt>
      <trkpt lat="46.09626" lon="6.41257">
        <ele>802</ele>
        <time>2021-09-12T12:20:30Z</time>
      </trkpt>
      <trkpt lat="46.09615" lon="6.41274">
        <ele>797</ele>
        <time>2021-09-12T12:20:34Z</time>
      </trkpt>
      <trkpt lat="46.09603" lon="6.41302">
        <ele>783</ele>
        <time>2021-09-12T12:20:36Z</time>
      </trkpt>
      <trkpt lat="46.09602" lon="6.41312">
        <ele>778</ele>
        <time>2021-09-12T12:20:37Z</time>
      </trkpt>
      <trkpt lat="46.096" lon="6.41329">
        <ele>795</ele>
        <time>2021-09-12T12:20:39Z</time>
      </trkpt>
      <trkpt lat="46.09598" lon="6.41336">
        <ele>798</ele>
        <time>2021-09-12T12:20:40Z</time>
      </trkpt>
      <trkpt lat="46.09587" lon="6.41354">
        <ele>801</ele>
        <time>2021-09-12T12:20:43Z</time>
      </trkpt>
      <trkpt lat="46.0958" lon="6.41361">
        <ele>800</ele>
        <time>2021-09-12T12:20:45Z</time>
      </trkpt>
      <trkpt lat="46.09572" lon="6.41362">
        <ele>786</ele>
        <time>2021-09-12T12:20:47Z</time>
      </trkpt>
      <trkpt lat="46.09556" lon="6.41355">
        <ele>750</ele>
        <time>2021-09-12T12:20:54Z</time>
      </trkpt>
      <trkpt lat="46.09553" lon="6.41349">
        <ele>712</ele>
        <time>2021-09-12T12:20:56Z</time>
      </trkpt>
      <trkpt lat="46.09551" lon="6.41303">
        <ele>694</ele>
        <time>2021-09-12T12:21:06Z</time>
      </trkpt>
      <trkpt lat="46.09548" lon="6.41291">
        <ele>717</ele>
        <time>2021-09-12T12:21:08Z</time>
      </trkpt>
      <trkpt lat="46.09545" lon="6.41282">
        <ele>719</ele>
        <time>2021-09-12T12:21:10Z</time>
      </trkpt>
      <trkpt lat="46.09533" lon="6.41229">
        <ele>697</ele>
        <time>2021-09-12T12:21:18Z</time>
      </trkpt>
      <trkpt lat="46.09526" lon="6.41232">
        <ele>696</ele>
        <time>2021-09-12T12:21:19Z</time>
      </trkpt>
      <trkpt lat="46.09519" lon="6.41234">
        <ele>697</ele>
        <time>2021-09-12T12:21:20Z</time>
      </trkpt>
      <trkpt lat="46.09514" lon="6.41235">
        <ele>696</ele>
        <time>2021-09-12T12:21:21Z</time>
      </trkpt>
      <trkpt lat="46.09506" lon="6.41243">
        <ele>694</ele>
        <time>2021-09-12T12:21:23Z</time>
      </trkpt>
      <trkpt lat="46.09493" lon="6.41255">
        <ele>675</ele>
        <time>2021-09-12T12:21:27Z</time>
      </trkpt>
      <trkpt lat="46.09485" lon="6.41261">
        <ele>670</ele>
        <time>2021-09-12T12:21:30Z</time>
      </trkpt>
      <trkpt lat="46.09477" lon="6.41263">
        <ele>683</ele>
        <time>2021-09-12T12:21:34Z</time>
      </trkpt>
      <trkpt lat="46.09472" lon="6.41253">
        <ele>761</ele>
        <time>2021-09-12T12:21:45Z</time>
      </trkpt>
      <trkpt lat="46.0947" lon="6.41248">
        <ele>773</ele>
        <time>2021-09-12T12:21:47Z</time>
      </trkpt>
      <trkpt lat="46.09469" lon="6.41242">
        <ele>708</ele>
        <time>2021-09-12T12:21:49Z</time>
      </trkpt>
      <trkpt lat="46.09469" lon="6.41237">
        <ele>696</ele>
        <time>2021-09-12T12:21:51Z</time>
      </trkpt>
      <trkpt lat="46.09469" lon="6.41232">
        <ele>682</ele>
        <time>2021-09-12T12:22:01Z</time>
      </trkpt>
      <trkpt lat="46.09467" lon="6.41228">
        <ele>691</ele>
        <time>2021-09-12T12:22:03Z</time>
      </trkpt>
      <trkpt lat="46.09462" lon="6.41225">
        <ele>691</ele>
        <time>2021-09-12T12:22:05Z</time>
      </trkpt>
      <trkpt lat="46.09459" lon="6.41221">
        <ele>684</ele>
        <time>2021-09-12T12:22:07Z</time>
      </trkpt>
      <trkpt lat="46.09452" lon="6.41217">
        <ele>671</ele>
        <time>2021-09-12T12:22:09Z</time>
      </trkpt>
      <trkpt lat="46.09444" lon="6.41221">
        <ele>665</ele>
        <time>2021-09-12T12:22:11Z</time>
      </trkpt>
      <trkpt lat="46.09439" lon="6.41225">
        <ele>666</ele>
        <time>2021-09-12T12:22:12Z</time>
      </trkpt>
      <trkpt lat="46.09428" lon="6.41235">
        <ele>663</ele>
        <time>2021-09-12T12:22:14Z</time>
      </trkpt>
      <trkpt lat="46.0942" lon="6.41236">
        <ele>664</ele>
        <time>2021-09-12T12:22:16Z</time>
      </trkpt>
      <trkpt lat="46.09403" lon="6.41215">
        <ele>664</ele>
        <time>2021-09-12T12:22:20Z</time>
      </trkpt>
      <trkpt lat="46.09398" lon="6.41212">
        <ele>666</ele>
        <time>2021-09-12T12:22:22Z</time>
      </trkpt>
      <trkpt lat="46.09392" lon="6.41211">
        <ele>665</ele>
        <time>2021-09-12T12:22:24Z</time>
      </trkpt>
      <trkpt lat="46.09388" lon="6.41206">
        <ele>662</ele>
        <time>2021-09-12T12:22:26Z</time>
      </trkpt>
      <trkpt lat="46.09382" lon="6.41198">
        <ele>660</ele>
        <time>2021-09-12T12:22:28Z</time>
      </trkpt>
      <trkpt lat="46.09376" lon="6.41189">
        <ele>680</ele>
        <time>2021-09-12T12:22:29Z</time>
      </trkpt>
      <trkpt lat="46.09366" lon="6.41179">
        <ele>621</ele>
        <time>2021-09-12T12:22:34Z</time>
      </trkpt>
      <trkpt lat="46.09363" lon="6.41178">
        <ele>616</ele>
        <time>2021-09-12T12:22:36Z</time>
      </trkpt>
      <trkpt lat="46.09359" lon="6.4118">
        <ele>618</ele>
        <time>2021-09-12T12:22:39Z</time>
      </trkpt>
      <trkpt lat="46.09355" lon="6.41183">
        <ele>621</ele>
        <time>2021-09-12T12:22:42Z</time>
      </trkpt>
      <trkpt lat="46.09352" lon="6.41184">
        <ele>629</ele>
        <time>2021-09-12T12:22:44Z</time>
      </trkpt>
      <trkpt lat="46.09348" lon="6.41182">
        <ele>609</ele>
        <time>2021-09-12T12:22:46Z</time>
      </trkpt>
      <trkpt lat="46.09335" lon="6.41178">
        <ele>593</ele>
        <time>2021-09-12T12:22:51Z</time>
      </trkpt>
      <trkpt lat="46.0933" lon="6.41177">
        <ele>596</ele>
        <time>2021-09-12T12:22:53Z</time>
      </trkpt>
      <trkpt lat="46.09317" lon="6.41169">
        <ele>595</ele>
        <time>2021-09-12T12:22:59Z</time>
      </trkpt>
      <trkpt lat="46.09307" lon="6.41168">
        <ele>640</ele>
        <time>2021-09-12T12:23:41Z</time>
      </trkpt>
      <trkpt lat="46.09304" lon="6.4117">
        <ele>625</ele>
        <time>2021-09-12T12:23:43Z</time>
      </trkpt>
      <trkpt lat="46.09296" lon="6.41179">
        <ele>658</ele>
        <time>2021-09-12T12:23:47Z</time>
      </trkpt>
      <trkpt lat="46.09293" lon="6.41184">
        <ele>660</ele>
        <time>2021-09-12T12:23:49Z</time>
      </trkpt>
      <trkpt lat="46.09289" lon="6.41189">
        <ele>658</ele>
        <time>2021-09-12T12:23:52Z</time>
      </trkpt>
      <trkpt lat="46.09285" lon="6.41184">
        <ele>655</ele>
        <time>2021-09-12T12:23:54Z</time>
      </trkpt>
      <trkpt lat="46.09282" lon="6.41177">
        <ele>654</ele>
        <time>2021-09-12T12:23:56Z</time>
      </trkpt>
      <trkpt lat="46.09277" lon="6.41169">
        <ele>651</ele>
        <time>2021-09-12T12:23:58Z</time>
      </trkpt>
      <trkpt lat="46.09269" lon="6.41163">
        <ele>649</ele>
        <time>2021-09-12T12:24:00Z</time>
      </trkpt>
      <trkpt lat="46.09264" lon="6.4116">
        <ele>649</ele>
        <time>2021-09-12T12:24:01Z</time>
      </trkpt>
      <trkpt lat="46.09229" lon="6.41124">
        <ele>634</ele>
        <time>2021-09-12T12:24:08Z</time>
      </trkpt>
      <trkpt lat="46.09196" lon="6.41115">
        <ele>632</ele>
        <time>2021-09-12T12:24:14Z</time>
      </trkpt>
      <trkpt lat="46.09192" lon="6.41113">
        <ele>631</ele>
        <time>2021-09-12T12:24:16Z</time>
      </trkpt>
      <trkpt lat="46.09193" lon="6.41109">
        <ele>633</ele>
        <time>2021-09-12T12:24:26Z</time>
      </trkpt>
      <trkpt lat="46.09196" lon="6.41108">
        <ele>634</ele>
        <time>2021-09-12T12:24:29Z</time>
      </trkpt>
      <trkpt lat="46.09196" lon="6.41113">
        <ele>628</ele>
        <time>2021-09-12T12:24:38Z</time>
      </trkpt>
      <trkpt lat="46.09195" lon="6.41118">
        <ele>622</ele>
        <time>2021-09-12T12:24:42Z</time>
      </trkpt>
      <trkpt lat="46.09192" lon="6.41122">
        <ele>620</ele>
        <time>2021-09-12T12:24:44Z</time>
      </trkpt>
      <trkpt lat="46.09185" lon="6.41122">
        <ele>611</ele>
        <time>2021-09-12T12:24:46Z</time>
      </trkpt>
      <trkpt lat="46.0918" lon="6.41121">
        <ele>668</ele>
        <time>2021-09-12T12:24:47Z</time>
      </trkpt>
      <trkpt lat="46.09157" lon="6.41113">
        <ele>801</ele>
        <time>2021-09-12T12:24:52Z</time>
      </trkpt>
      <trkpt lat="46.09153" lon="6.41111">
        <ele>775</ele>
        <time>2021-09-12T12:24:53Z</time>
      </trkpt>
      <trkpt lat="46.09148" lon="6.4111">
        <ele>767</ele>
        <time>2021-09-12T12:24:54Z</time>
      </trkpt>
      <trkpt lat="46.09144" lon="6.4111">
        <ele>786</ele>
        <time>2021-09-12T12:24:55Z</time>
      </trkpt>
      <trkpt lat="46.09129" lon="6.41119">
        <ele>780</ele>
        <time>2021-09-12T12:24:59Z</time>
      </trkpt>
      <trkpt lat="46.09124" lon="6.41129">
        <ele>785</ele>
        <time>2021-09-12T12:25:01Z</time>
      </trkpt>
      <trkpt lat="46.09118" lon="6.41136">
        <ele>785</ele>
        <time>2021-09-12T12:25:03Z</time>
      </trkpt>
      <trkpt lat="46.09111" lon="6.4114">
        <ele>818</ele>
        <time>2021-09-12T12:25:05Z</time>
      </trkpt>
      <trkpt lat="46.09104" lon="6.41142">
        <ele>792</ele>
        <time>2021-09-12T12:25:08Z</time>
      </trkpt>
      <trkpt lat="46.09098" lon="6.41135">
        <ele>660</ele>
        <time>2021-09-12T12:25:11Z</time>
      </trkpt>
      <trkpt lat="46.09097" lon="6.4113">
        <ele>626</ele>
        <time>2021-09-12T12:25:20Z</time>
      </trkpt>
      <trkpt lat="46.09094" lon="6.4113">
        <ele>624</ele>
        <time>2021-09-12T12:25:21Z</time>
      </trkpt>
      <trkpt lat="46.0909" lon="6.41128">
        <ele>624</ele>
        <time>2021-09-12T12:25:23Z</time>
      </trkpt>
      <trkpt lat="46.09087" lon="6.41124">
        <ele>623</ele>
        <time>2021-09-12T12:25:26Z</time>
      </trkpt>
      <trkpt lat="46.09084" lon="6.41122">
        <ele>622</ele>
        <time>2021-09-12T12:25:28Z</time>
      </trkpt>
      <trkpt lat="46.09075" lon="6.41119">
        <ele>620</ele>
        <time>2021-09-12T12:25:33Z</time>
      </trkpt>
      <trkpt lat="46.09059" lon="6.41121">
        <ele>618</ele>
        <time>2021-09-12T12:25:39Z</time>
      </trkpt>
      <trkpt lat="46.09048" lon="6.41122">
        <ele>755</ele>
        <time>2021-09-12T12:25:42Z</time>
      </trkpt>
      <trkpt lat="46.09002" lon="6.4111">
        <ele>834</ele>
        <time>2021-09-12T12:25:53Z</time>
      </trkpt>
      <trkpt lat="46.08992" lon="6.41109">
        <ele>836</ele>
        <time>2021-09-12T12:25:56Z</time>
      </trkpt>
      <trkpt lat="46.08983" lon="6.4111">
        <ele>849</ele>
        <time>2021-09-12T12:25:59Z</time>
      </trkpt>
      <trkpt lat="46.08977" lon="6.41121">
        <ele>846</ele>
        <time>2021-09-12T12:26:03Z</time>
      </trkpt>
      <trkpt lat="46.08966" lon="6.41123">
        <ele>841</ele>
        <time>2021-09-12T12:26:07Z</time>
      </trkpt>
      <trkpt lat="46.08947" lon="6.41115">
        <ele>794</ele>
        <time>2021-09-12T12:26:11Z</time>
      </trkpt>
      <trkpt lat="46.08943" lon="6.41101">
        <ele>658</ele>
        <time>2021-09-12T12:26:13Z</time>
      </trkpt>
      <trkpt lat="46.08926" lon="6.41116">
        <ele>820</ele>
        <time>2021-09-12T12:26:19Z</time>
      </trkpt>
      <trkpt lat="46.08917" lon="6.41124">
        <ele>827</ele>
        <time>2021-09-12T12:26:21Z</time>
      </trkpt>
      <trkpt lat="46.08911" lon="6.41134">
        <ele>791</ele>
        <time>2021-09-12T12:26:26Z</time>
      </trkpt>
      <trkpt lat="46.08901" lon="6.41131">
        <ele>766</ele>
        <time>2021-09-12T12:26:30Z</time>
      </trkpt>
      <trkpt lat="46.08891" lon="6.41127">
        <ele>742</ele>
        <time>2021-09-12T12:26:34Z</time>
      </trkpt>
      <trkpt lat="46.08881" lon="6.41128">
        <ele>683</ele>
        <time>2021-09-12T12:26:37Z</time>
      </trkpt>
      <trkpt lat="46.08879" lon="6.41125">
        <ele>662</ele>
        <time>2021-09-12T12:27:40Z</time>
      </trkpt>
      <trkpt lat="46.08869" lon="6.41136">
        <ele>646</ele>
        <time>2021-09-12T12:27:55Z</time>
      </trkpt>
      <trkpt lat="46.08827" lon="6.41148">
        <ele>734</ele>
        <time>2021-09-12T12:28:04Z</time>
      </trkpt>
      <trkpt lat="46.08816" lon="6.41151">
        <ele>596</ele>
        <time>2021-09-12T12:28:07Z</time>
      </trkpt>
      <trkpt lat="46.08809" lon="6.41154">
        <ele>646</ele>
        <time>2021-09-12T12:28:09Z</time>
      </trkpt>
      <trkpt lat="46.08797" lon="6.41154">
        <ele>681</ele>
        <time>2021-09-12T12:28:13Z</time>
      </trkpt>
      <trkpt lat="46.0879" lon="6.41152">
        <ele>679</ele>
        <time>2021-09-12T12:28:15Z</time>
      </trkpt>
      <trkpt lat="46.08774" lon="6.41145">
        <ele>730</ele>
        <time>2021-09-12T12:28:21Z</time>
      </trkpt>
      <trkpt lat="46.08766" lon="6.41142">
        <ele>646</ele>
        <time>2021-09-12T12:28:25Z</time>
      </trkpt>
      <trkpt lat="46.08763" lon="6.41141">
        <ele>638</ele>
        <time>2021-09-12T12:28:27Z</time>
      </trkpt>
      <trkpt lat="46.0876" lon="6.41142">
        <ele>624</ele>
        <time>2021-09-12T12:28:29Z</time>
      </trkpt>
      <trkpt lat="46.0876" lon="6.41146">
        <ele>663</ele>
        <time>2021-09-12T12:28:36Z</time>
      </trkpt>
      <trkpt lat="46.08762" lon="6.41149">
        <ele>643</ele>
        <time>2021-09-12T12:28:49Z</time>
      </trkpt>
      <trkpt lat="46.08762" lon="6.41155">
        <ele>662</ele>
        <time>2021-09-12T12:31:36Z</time>
      </trkpt>
      <trkpt lat="46.08752" lon="6.412">
        <ele>556</ele>
        <time>2021-09-12T12:31:42Z</time>
      </trkpt>
      <trkpt lat="46.0875" lon="6.41209">
        <ele>532</ele>
        <time>2021-09-12T12:31:43Z</time>
      </trkpt>
      <trkpt lat="46.0873" lon="6.41244">
        <ele>663</ele>
        <time>2021-09-12T12:31:48Z</time>
      </trkpt>
      <trkpt lat="46.08722" lon="6.41255">
        <ele>665</ele>
        <time>2021-09-12T12:31:50Z</time>
      </trkpt>
      <trkpt lat="46.08718" lon="6.41267">
        <ele>623</ele>
        <time>2021-09-12T12:31:52Z</time>
      </trkpt>
      <trkpt lat="46.08716" lon="6.41295">
        <ele>611</ele>
        <time>2021-09-12T12:31:57Z</time>
      </trkpt>
      <trkpt lat="46.08713" lon="6.41301">
        <ele>628</ele>
        <time>2021-09-12T12:31:59Z</time>
      </trkpt>
      <trkpt lat="46.0871" lon="6.41303">
        <ele>647</ele>
        <time>2021-09-12T12:32:02Z</time>
      </trkpt>
      <trkpt lat="46.08706" lon="6.41302">
        <ele>609</ele>
        <time>2021-09-12T12:32:33Z</time>
      </trkpt>
      <trkpt lat="46.0869" lon="6.41291">
        <ele>603</ele>
        <time>2021-09-12T12:32:37Z</time>
      </trkpt>
      <trkpt lat="46.08681" lon="6.41287">
        <ele>601</ele>
        <time>2021-09-12T12:32:39Z</time>
      </trkpt>
      <trkpt lat="46.08678" lon="6.41285">
        <ele>601</ele>
        <time>2021-09-12T12:32:40Z</time>
      </trkpt>
      <trkpt lat="46.08675" lon="6.41281">
        <ele>600</ele>
        <time>2021-09-12T12:32:41Z</time>
      </trkpt>
      <trkpt lat="46.0867" lon="6.41248">
        <ele>534</ele>
        <time>2021-09-12T12:32:45Z</time>
      </trkpt>
      <trkpt lat="46.08666" lon="6.41184">
        <ele>601</ele>
        <time>2021-09-12T12:32:52Z</time>
      </trkpt>
      <trkpt lat="46.08667" lon="6.41172">
        <ele>609</ele>
        <time>2021-09-12T12:32:54Z</time>
      </trkpt>
      <trkpt lat="46.08665" lon="6.41166">
        <ele>613</ele>
        <time>2021-09-12T12:32:56Z</time>
      </trkpt>
      <trkpt lat="46.08662" lon="6.41164">
        <ele>616</ele>
        <time>2021-09-12T12:32:57Z</time>
      </trkpt>
      <trkpt lat="46.08658" lon="6.41165">
        <ele>616</ele>
        <time>2021-09-12T12:32:58Z</time>
      </trkpt>
      <trkpt lat="46.08636" lon="6.41187">
        <ele>678</ele>
        <time>2021-09-12T12:33:03Z</time>
      </trkpt>
      <trkpt lat="46.0863" lon="6.41191">
        <ele>678</ele>
        <time>2021-09-12T12:33:04Z</time>
      </trkpt>
      <trkpt lat="46.08612" lon="6.41198">
        <ele>678</ele>
        <time>2021-09-12T12:33:07Z</time>
      </trkpt>
      <trkpt lat="46.08594" lon="6.41205">
        <ele>711</ele>
        <time>2021-09-12T12:33:10Z</time>
      </trkpt>
      <trkpt lat="46.08587" lon="6.41205">
        <ele>713</ele>
        <time>2021-09-12T12:33:11Z</time>
      </trkpt>
      <trkpt lat="46.08579" lon="6.41202">
        <ele>715</ele>
        <time>2021-09-12T12:33:12Z</time>
      </trkpt>
      <trkpt lat="46.08512" lon="6.41152">
        <ele>577</ele>
        <time>2021-09-12T12:33:22Z</time>
      </trkpt>
      <trkpt lat="46.08469" lon="6.41122">
        <ele>651</ele>
        <time>2021-09-12T12:33:29Z</time>
      </trkpt>
      <trkpt lat="46.08455" lon="6.41114">
        <ele>651</ele>
        <time>2021-09-12T12:33:32Z</time>
      </trkpt>
      <trkpt lat="46.08453" lon="6.41108">
        <ele>656</ele>
        <time>2021-09-12T12:33:33Z</time>
      </trkpt>
      <trkpt lat="46.08453" lon="6.41096">
        <ele>657</ele>
        <time>2021-09-12T12:33:35Z</time>
      </trkpt>
      <trkpt lat="46.08453" lon="6.4109">
        <ele>657</ele>
        <time>2021-09-12T12:33:36Z</time>
      </trkpt>
      <trkpt lat="46.08472" lon="6.40968">
        <ele>572</ele>
        <time>2021-09-12T12:33:49Z</time>
      </trkpt>
      <trkpt lat="46.08475" lon="6.40945">
        <ele>571</ele>
        <time>2021-09-12T12:33:51Z</time>
      </trkpt>
      <trkpt lat="46.08497" lon="6.40749">
        <ele>488</ele>
        <time>2021-09-12T12:34:06Z</time>
      </trkpt>
      <trkpt lat="46.08512" lon="6.40507">
        <ele>484</ele>
        <time>2021-09-12T12:34:26Z</time>
      </trkpt>
      <trkpt lat="46.08526" lon="6.40372">
        <ele>496</ele>
        <time>2021-09-12T12:34:37Z</time>
      </trkpt>
      <trkpt lat="46.08531" lon="6.4035">
        <ele>481</ele>
        <time>2021-09-12T12:34:39Z</time>
      </trkpt>
      <trkpt lat="46.0855" lon="6.40308">
        <ele>477</ele>
        <time>2021-09-12T12:34:43Z</time>
      </trkpt>
      <trkpt lat="46.08585" lon="6.40257">
        <ele>476</ele>
        <time>2021-09-12T12:34:48Z</time>
      </trkpt>
      <trkpt lat="46.08621" lon="6.40217">
        <ele>474</ele>
        <time>2021-09-12T12:34:53Z</time>
      </trkpt>
      <trkpt lat="46.08654" lon="6.40153">
        <ele>473</ele>
        <time>2021-09-12T12:34:59Z</time>
      </trkpt>
      <trkpt lat="46.08695" lon="6.4003">
        <ele>474</ele>
        <time>2021-09-12T12:35:09Z</time>
      </trkpt>
      <trkpt lat="46.08699" lon="6.39993">
        <ele>474</ele>
        <time>2021-09-12T12:35:12Z</time>
      </trkpt>
      <trkpt lat="46.08699" lon="6.39983">
        <ele>461</ele>
        <time>2021-09-12T12:35:13Z</time>
      </trkpt>
      <trkpt lat="46.08697" lon="6.39974">
        <ele>454</ele>
        <time>2021-09-12T12:35:14Z</time>
      </trkpt>
      <trkpt lat="46.08693" lon="6.39967">
        <ele>451</ele>
        <time>2021-09-12T12:35:15Z</time>
      </trkpt>
      <trkpt lat="46.08688" lon="6.39963">
        <ele>450</ele>
        <time>2021-09-12T12:35:16Z</time>
      </trkpt>
      <trkpt lat="46.08683" lon="6.39962">
        <ele>449</ele>
        <time>2021-09-12T12:35:17Z</time>
      </trkpt>
      <trkpt lat="46.08679" lon="6.39963">
        <ele>449</ele>
        <time>2021-09-12T12:35:18Z</time>
      </trkpt>
      <trkpt lat="46.08675" lon="6.39966">
        <ele>449</ele>
        <time>2021-09-12T12:35:19Z</time>
      </trkpt>
      <trkpt lat="46.08639" lon="6.40011">
        <ele>449</ele>
        <time>2021-09-12T12:35:25Z</time>
      </trkpt>
      <trkpt lat="46.08636" lon="6.40012">
        <ele>449</ele>
        <time>2021-09-12T12:35:26Z</time>
      </trkpt>
      <trkpt lat="46.08628" lon="6.40015">
        <ele>450</ele>
        <time>2021-09-12T12:35:36Z</time>
      </trkpt>
      <trkpt lat="46.08397" lon="6.40221">
        <ele>449</ele>
        <time>2021-09-12T12:36:06Z</time>
      </trkpt>
      <trkpt lat="46.08206" lon="6.40388">
        <ele>448</ele>
        <time>2021-09-12T12:36:30Z</time>
      </trkpt>
      <trkpt lat="46.08199" lon="6.40387">
        <ele>448</ele>
        <time>2021-09-12T12:36:31Z</time>
      </trkpt>
      <trkpt lat="46.08193" lon="6.40385">
        <ele>447</ele>
        <time>2021-09-12T12:36:32Z</time>
      </trkpt>
      <trkpt lat="46.0818" lon="6.40371">
        <ele>448</ele>
        <time>2021-09-12T12:36:34Z</time>
      </trkpt>
      <trkpt lat="46.08067" lon="6.40234">
        <ele>447</ele>
        <time>2021-09-12T12:36:51Z</time>
      </trkpt>
      <trkpt lat="46.08039" lon="6.40209">
        <ele>448</ele>
        <time>2021-09-12T12:36:55Z</time>
      </trkpt>
      <trkpt lat="46.08026" lon="6.40189">
        <ele>448</ele>
        <time>2021-09-12T12:36:58Z</time>
      </trkpt>
      <trkpt lat="46.0802" lon="6.40185">
        <ele>448</ele>
        <time>2021-09-12T12:36:59Z</time>
      </trkpt>
      <trkpt lat="46.07972" lon="6.4018">
        <ele>446</ele>
        <time>2021-09-12T12:37:04Z</time>
      </trkpt>
      <trkpt lat="46.07915" lon="6.40177">
        <ele>446</ele>
        <time>2021-09-12T12:37:15Z</time>
      </trkpt>
      <trkpt lat="46.0791" lon="6.40175">
        <ele>446</ele>
        <time>2021-09-12T12:37:16Z</time>
      </trkpt>
      <trkpt lat="46.07907" lon="6.40169">
        <ele>446</ele>
        <time>2021-09-12T12:37:17Z</time>
      </trkpt>
      <trkpt lat="46.07905" lon="6.4016">
        <ele>447</ele>
        <time>2021-09-12T12:37:18Z</time>
      </trkpt>
      <trkpt lat="46.0793" lon="6.39979">
        <ele>453</ele>
        <time>2021-09-12T12:37:34Z</time>
      </trkpt>
      <trkpt lat="46.0793" lon="6.39974">
        <ele>453</ele>
        <time>2021-09-12T12:37:35Z</time>
      </trkpt>
      <trkpt lat="46.07925" lon="6.39972">
        <ele>453</ele>
        <time>2021-09-12T12:37:37Z</time>
      </trkpt>
      <trkpt lat="46.07918" lon="6.3998">
        <ele>452</ele>
        <time>2021-09-12T12:37:40Z</time>
      </trkpt>
      <trkpt lat="46.07875" lon="6.39979">
        <ele>453</ele>
        <time>2021-09-12T12:37:48Z</time>
      </trkpt>
      <trkpt lat="46.07732" lon="6.3993">
        <ele>454</ele>
        <time>2021-09-12T12:38:11Z</time>
      </trkpt>
      <trkpt lat="46.07635" lon="6.39865">
        <ele>455</ele>
        <time>2021-09-12T12:38:27Z</time>
      </trkpt>
      <trkpt lat="46.07524" lon="6.39752">
        <ele>455</ele>
        <time>2021-09-12T12:38:46Z</time>
      </trkpt>
      <trkpt lat="46.07523" lon="6.39747">
        <ele>455</ele>
        <time>2021-09-12T12:38:48Z</time>
      </trkpt>
      <trkpt lat="46.07523" lon="6.39734">
        <ele>454</ele>
        <time>2021-09-12T12:38:51Z</time>
      </trkpt>
      <trkpt lat="46.07518" lon="6.39727">
        <ele>453</ele>
        <time>2021-09-12T12:38:53Z</time>
      </trkpt>
      <trkpt lat="46.07328" lon="6.39559">
        <ele>454</ele>
        <time>2021-09-12T12:39:17Z</time>
      </trkpt>
      <trkpt lat="46.07324" lon="6.39553">
        <ele>455</ele>
        <time>2021-09-12T12:39:18Z</time>
      </trkpt>
      <trkpt lat="46.0732" lon="6.39537">
        <ele>456</ele>
        <time>2021-09-12T12:39:21Z</time>
      </trkpt>
      <trkpt lat="46.07308" lon="6.39523">
        <ele>458</ele>
        <time>2021-09-12T12:39:24Z</time>
      </trkpt>
      <trkpt lat="46.07307" lon="6.39514">
        <ele>458</ele>
        <time>2021-09-12T12:39:25Z</time>
      </trkpt>
      <trkpt lat="46.07308" lon="6.39308">
        <ele>457</ele>
        <time>2021-09-12T12:39:40Z</time>
      </trkpt>
      <trkpt lat="46.07317" lon="6.39276">
        <ele>459</ele>
        <time>2021-09-12T12:39:44Z</time>
      </trkpt>
      <trkpt lat="46.07317" lon="6.39259">
        <ele>459</ele>
        <time>2021-09-12T12:39:47Z</time>
      </trkpt>
      <trkpt lat="46.07317" lon="6.39265">
        <ele>459</ele>
        <time>2021-09-12T12:40:00Z</time>
      </trkpt>
      <trkpt lat="46.07315" lon="6.39269">
        <ele>455</ele>
        <time>2021-09-12T12:40:22Z</time>
      </trkpt>
      <trkpt lat="46.07314" lon="6.39261">
        <ele>454</ele>
        <time>2021-09-12T12:44:01Z</time>
      </trkpt>
      <trkpt lat="46.0731" lon="6.39239">
        <ele>457</ele>
        <time>2021-09-12T12:44:04Z</time>
      </trkpt>
      <trkpt lat="46.07301" lon="6.3922">
        <ele>458</ele>
        <time>2021-09-12T12:44:07Z</time>
      </trkpt>
      <trkpt lat="46.07299" lon="6.39211">
        <ele>459</ele>
        <time>2021-09-12T12:44:08Z</time>
      </trkpt>
      <trkpt lat="46.07272" lon="6.3877">
        <ele>461</ele>
        <time>2021-09-12T12:44:38Z</time>
      </trkpt>
      <trkpt lat="46.07269" lon="6.38732">
        <ele>461</ele>
        <time>2021-09-12T12:44:42Z</time>
      </trkpt>
      <trkpt lat="46.07267" lon="6.38725">
        <ele>462</ele>
        <time>2021-09-12T12:44:43Z</time>
      </trkpt>
      <trkpt lat="46.07263" lon="6.38719">
        <ele>462</ele>
        <time>2021-09-12T12:44:44Z</time>
      </trkpt>
      <trkpt lat="46.0711" lon="6.38628">
        <ele>461</ele>
        <time>2021-09-12T12:45:00Z</time>
      </trkpt>
      <trkpt lat="46.07035" lon="6.38523">
        <ele>459</ele>
        <time>2021-09-12T12:45:10Z</time>
      </trkpt>
      <trkpt lat="46.06995" lon="6.38455">
        <ele>461</ele>
        <time>2021-09-12T12:45:15Z</time>
      </trkpt>
      <trkpt lat="46.06972" lon="6.38436">
        <ele>461</ele>
        <time>2021-09-12T12:45:17Z</time>
      </trkpt>
      <trkpt lat="46.06835" lon="6.38376">
        <ele>463</ele>
        <time>2021-09-12T12:45:29Z</time>
      </trkpt>
      <trkpt lat="46.06829" lon="6.38369">
        <ele>464</ele>
        <time>2021-09-12T12:45:31Z</time>
      </trkpt>
      <trkpt lat="46.06826" lon="6.38362">
        <ele>464</ele>
        <time>2021-09-12T12:45:33Z</time>
      </trkpt>
      <trkpt lat="46.06827" lon="6.38233">
        <ele>466</ele>
        <time>2021-09-12T12:45:44Z</time>
      </trkpt>
      <trkpt lat="46.06824" lon="6.38223">
        <ele>467</ele>
        <time>2021-09-12T12:45:45Z</time>
      </trkpt>
      <trkpt lat="46.06819" lon="6.38216">
        <ele>467</ele>
        <time>2021-09-12T12:45:46Z</time>
      </trkpt>
      <trkpt lat="46.06803" lon="6.38205">
        <ele>466</ele>
        <time>2021-09-12T12:45:48Z</time>
      </trkpt>
      <trkpt lat="46.06696" lon="6.3816">
        <ele>465</ele>
        <time>2021-09-12T12:45:57Z</time>
      </trkpt>
      <trkpt lat="46.06678" lon="6.3814">
        <ele>465</ele>
        <time>2021-09-12T12:45:59Z</time>
      </trkpt>
      <trkpt lat="46.06633" lon="6.38051">
        <ele>466</ele>
        <time>2021-09-12T12:46:05Z</time>
      </trkpt>
      <trkpt lat="46.06585" lon="6.38013">
        <ele>467</ele>
        <time>2021-09-12T12:46:09Z</time>
      </trkpt>
      <trkpt lat="46.06556" lon="6.37989">
        <ele>467</ele>
        <time>2021-09-12T12:46:12Z</time>
      </trkpt>
      <trkpt lat="46.0655" lon="6.37979">
        <ele>467</ele>
        <time>2021-09-12T12:46:13Z</time>
      </trkpt>
      <trkpt lat="46.06546" lon="6.37965">
        <ele>467</ele>
        <time>2021-09-12T12:46:14Z</time>
      </trkpt>
      <trkpt lat="46.06545" lon="6.3795">
        <ele>468</ele>
        <time>2021-09-12T12:46:15Z</time>
      </trkpt>
      <trkpt lat="46.06561" lon="6.37802">
        <ele>469</ele>
        <time>2021-09-12T12:46:25Z</time>
      </trkpt>
      <trkpt lat="46.06546" lon="6.37725">
        <ele>470</ele>
        <time>2021-09-12T12:46:30Z</time>
      </trkpt>
      <trkpt lat="46.06537" lon="6.37695">
        <ele>471</ele>
        <time>2021-09-12T12:46:32Z</time>
      </trkpt>
      <trkpt lat="46.06521" lon="6.37668">
        <ele>472</ele>
        <time>2021-09-12T12:46:34Z</time>
      </trkpt>
      <trkpt lat="46.06452" lon="6.37584">
        <ele>474</ele>
        <time>2021-09-12T12:46:41Z</time>
      </trkpt>
      <trkpt lat="46.06385" lon="6.37385">
        <ele>475</ele>
        <time>2021-09-12T12:46:53Z</time>
      </trkpt>
      <trkpt lat="46.06382" lon="6.37374">
        <ele>475</ele>
        <time>2021-09-12T12:46:54Z</time>
      </trkpt>
      <trkpt lat="46.06382" lon="6.37349">
        <ele>475</ele>
        <time>2021-09-12T12:46:57Z</time>
      </trkpt>
      <trkpt lat="46.06379" lon="6.37342">
        <ele>475</ele>
        <time>2021-09-12T12:46:58Z</time>
      </trkpt>
      <trkpt lat="46.0636" lon="6.37321">
        <ele>475</ele>
        <time>2021-09-12T12:47:01Z</time>
      </trkpt>
      <trkpt lat="46.06232" lon="6.37103">
        <ele>477</ele>
        <time>2021-09-12T12:47:19Z</time>
      </trkpt>
      <trkpt lat="46.0623" lon="6.37096">
        <ele>477</ele>
        <time>2021-09-12T12:47:20Z</time>
      </trkpt>
      <trkpt lat="46.06234" lon="6.37083">
        <ele>477</ele>
        <time>2021-09-12T12:47:22Z</time>
      </trkpt>
      <trkpt lat="46.06409" lon="6.37073">
        <ele>475</ele>
        <time>2021-09-12T12:47:40Z</time>
      </trkpt>
      <trkpt lat="46.06413" lon="6.37067">
        <ele>475</ele>
        <time>2021-09-12T12:47:41Z</time>
      </trkpt>
      <trkpt lat="46.06416" lon="6.37059">
        <ele>475</ele>
        <time>2021-09-12T12:47:42Z</time>
      </trkpt>
      <trkpt lat="46.06447" lon="6.36663">
        <ele>471</ele>
        <time>2021-09-12T12:48:08Z</time>
      </trkpt>
      <trkpt lat="46.06451" lon="6.36658">
        <ele>471</ele>
        <time>2021-09-12T12:48:09Z</time>
      </trkpt>
      <trkpt lat="46.06457" lon="6.36657">
        <ele>471</ele>
        <time>2021-09-12T12:48:10Z</time>
      </trkpt>
      <trkpt lat="46.06513" lon="6.36668">
        <ele>471</ele>
        <time>2021-09-12T12:48:16Z</time>
      </trkpt>
      <trkpt lat="46.0652" lon="6.36666">
        <ele>471</ele>
        <time>2021-09-12T12:48:17Z</time>
      </trkpt>
      <trkpt lat="46.06525" lon="6.36659">
        <ele>471</ele>
        <time>2021-09-12T12:48:18Z</time>
      </trkpt>
      <trkpt lat="46.06528" lon="6.36648">
        <ele>471</ele>
        <time>2021-09-12T12:48:19Z</time>
      </trkpt>
      <trkpt lat="46.06549" lon="6.36486">
        <ele>473</ele>
        <time>2021-09-12T12:48:29Z</time>
      </trkpt>
      <trkpt lat="46.06565" lon="6.36417">
        <ele>473</ele>
        <time>2021-09-12T12:48:35Z</time>
      </trkpt>
      <trkpt lat="46.06557" lon="6.36302">
        <ele>472</ele>
        <time>2021-09-12T12:48:42Z</time>
      </trkpt>
      <trkpt lat="46.06575" lon="6.36148">
        <ele>471</ele>
        <time>2021-09-12T12:48:51Z</time>
      </trkpt>
      <trkpt lat="46.06564" lon="6.36115">
        <ele>471</ele>
        <time>2021-09-12T12:48:54Z</time>
      </trkpt>
      <trkpt lat="46.06564" lon="6.36104">
        <ele>471</ele>
        <time>2021-09-12T12:48:55Z</time>
      </trkpt>
      <trkpt lat="46.06567" lon="6.36094">
        <ele>470</ele>
        <time>2021-09-12T12:48:56Z</time>
      </trkpt>
      <trkpt lat="46.06723" lon="6.35894">
        <ele>467</ele>
        <time>2021-09-12T12:49:11Z</time>
      </trkpt>
      <trkpt lat="46.06749" lon="6.3587">
        <ele>533</ele>
        <time>2021-09-12T12:49:14Z</time>
      </trkpt>
      <trkpt lat="46.06798" lon="6.35845">
        <ele>565</ele>
        <time>2021-09-12T12:49:20Z</time>
      </trkpt>
      <trkpt lat="46.06814" lon="6.35835">
        <ele>555</ele>
        <time>2021-09-12T12:49:22Z</time>
      </trkpt>
      <trkpt lat="46.06825" lon="6.3582">
        <ele>545</ele>
        <time>2021-09-12T12:49:24Z</time>
      </trkpt>
      <trkpt lat="46.06833" lon="6.358">
        <ele>534</ele>
        <time>2021-09-12T12:49:27Z</time>
      </trkpt>
      <trkpt lat="46.06836" lon="6.35797">
        <ele>541</ele>
        <time>2021-09-12T12:49:28Z</time>
      </trkpt>
      <trkpt lat="46.0684" lon="6.35797">
        <ele>547</ele>
        <time>2021-09-12T12:49:29Z</time>
      </trkpt>
      <trkpt lat="46.06848" lon="6.358">
        <ele>548</ele>
        <time>2021-09-12T12:49:31Z</time>
      </trkpt>
      <trkpt lat="46.06851" lon="6.35801">
        <ele>540</ele>
        <time>2021-09-12T12:49:32Z</time>
      </trkpt>
      <trkpt lat="46.06854" lon="6.35799">
        <ele>539</ele>
        <time>2021-09-12T12:49:33Z</time>
      </trkpt>
      <trkpt lat="46.06856" lon="6.35793">
        <ele>500</ele>
        <time>2021-09-12T12:49:35Z</time>
      </trkpt>
      <trkpt lat="46.06851" lon="6.35785">
        <ele>467</ele>
        <time>2021-09-12T12:49:50Z</time>
      </trkpt>
      <trkpt lat="46.06849" lon="6.35778">
        <ele>466</ele>
        <time>2021-09-12T12:49:52Z</time>
      </trkpt>
      <trkpt lat="46.0685" lon="6.35774">
        <ele>464</ele>
        <time>2021-09-12T12:49:57Z</time>
      </trkpt>
      <trkpt lat="46.06853" lon="6.35768">
        <ele>461</ele>
        <time>2021-09-12T12:50:43Z</time>
      </trkpt>
      <trkpt lat="46.06855" lon="6.35763">
        <ele>461</ele>
        <time>2021-09-12T12:50:44Z</time>
      </trkpt>
      <trkpt lat="46.06859" lon="6.35759">
        <ele>461</ele>
        <time>2021-09-12T12:50:45Z</time>
      </trkpt>
      <trkpt lat="46.06864" lon="6.35757">
        <ele>461</ele>
        <time>2021-09-12T12:50:46Z</time>
      </trkpt>
      <trkpt lat="46.06877" lon="6.3576">
        <ele>461</ele>
        <time>2021-09-12T12:50:48Z</time>
      </trkpt>
      <trkpt lat="46.06889" lon="6.35764">
        <ele>461</ele>
        <time>2021-09-12T12:50:50Z</time>
      </trkpt>
      <trkpt lat="46.06899" lon="6.35763">
        <ele>460</ele>
        <time>2021-09-12T12:50:52Z</time>
      </trkpt>
      <trkpt lat="46.06901" lon="6.35758">
        <ele>460</ele>
        <time>2021-09-12T12:50:53Z</time>
      </trkpt>
      <trkpt lat="46.06902" lon="6.35752">
        <ele>460</ele>
        <time>2021-09-12T12:50:54Z</time>
      </trkpt>
      <trkpt lat="46.06902" lon="6.35747">
        <ele>460</ele>
        <time>2021-09-12T12:50:55Z</time>
      </trkpt>
      <trkpt lat="46.069" lon="6.35744">
        <ele>460</ele>
        <time>2021-09-12T12:50:56Z</time>
      </trkpt>
    </trkseg>
  </trk>
</gpx>